              Height (m), 1500.0000, 1650.0000, 1800.0000, 1950.0000, 2100.0000, 2250.0000, 2400.0000, 2550.0000, 2700.0000, 2850.0000, 3000.0000, 3150.0000, 3300.0000, 3450.0000, 3600.0000, 3750.0000, 3900.0000, 4050.0000, 4200.0000, 4350.0000, 4500.0000, 4650.0000, 4800.0000, 4950.0000, 5100.0000, 5250.0000, 5400.0000, 5550.0000, 5700.0000, 5850.0000, 6000.0000, 6150.0000, 6300.0000, 6450.0000, 6600.0000, 6750.0000, 6900.0000, 7050.0000, 7200.0000, 7350.0000, 7500.0000, 7650.0000, 7800.0000, 7950.0000, 8100.0000, 8250.0000, 8400.0000, 8550.0000, 8700.0000, 8850.0000, 9000.0000, 9150.0000, 9300.0000, 9450.0000, 9600.0000, 9750.0000, 9900.0000,10050.0000,10200.0000,10350.0000,10500.0000,10650.0000,10800.0000,10950.0000,11100.0000,
24-SEP-2002 00:01:27.99 ,   -5.5907,   -4.3637,   -3.5765,   -3.1593,   -3.1255,   -1.8565,   -1.6383,   -1.6737,   -2.5374,   -3.1334,   -2.9078,   -1.1508,    0.1660,    1.0144,    1.0473,    1.5854,    1.9337,    1.7802,    1.7744,    1.7691,    1.7167,    1.8351,    1.8245,    1.5637,    1.6658,    1.6129,    1.7066,    1.7737,    1.5805,    2.5453,    3.1103,    3.0900,    1.7113,    1.4737,    2.2980,    2.7154,    3.7438,    4.1147,    3.8198,    4.1319,    3.9771,    4.5734,    3.4976,    3.2930,    5.3801,    5.9604,    5.9687,    6.6504,    8.6535,    8.8335,    8.8050,   10.0060,   12.3351,   13.4006,   13.3658,   14.0926,   14.5339,   16.4685,   17.7428,   17.6083,   15.5345,   16.1946,   16.6999,   16.8926,   18.1562,
24-SEP-2002 00:04:09.62 ,   -5.5848,   -4.9025,   -4.1968,   -3.6294,   -3.7122,   -2.9170,   -2.4202,   -2.3010,   -2.7044,   -3.3379,   -3.1404,   -1.1936,   -0.4400,    1.4709,    1.2755,    1.4146,    1.7714,    2.1449,    2.3710,    2.0906,    2.2066,    2.0985,    2.1923,    2.1492,    1.6479,    1.3641,    1.3270,    1.6803,    1.3861,    1.5969,    1.7943,    2.9583,    1.9753,    1.8553,    2.4548,    1.8560,    3.4926,    3.2205,    2.2771,    2.5832,    3.0451,    2.9890,    2.3261,    2.4251,    3.7306,    5.5068,    5.3158,    6.5196,    7.4071,    8.3480,    8.9291,    9.1101,   10.2263,   11.9053,   12.8578,   12.8665,   14.1364,   16.6717,   17.5126,   17.1094,   16.9872,   17.7680,   17.1377,   16.9908,   18.3177,
24-SEP-2002 00:06:50.88 ,   -5.3697,   -4.6531,   -4.0372,   -4.1208,   -3.4042,   -2.1017,   -2.2327,   -3.2981,   -3.6097,   -3.9253,   -3.6768,   -3.6161,   -3.2060,    0.3208,    1.0997,    1.4631,    1.5676,    1.8323,    2.4799,    2.2218,    2.1291,    2.0656,    1.6532,    1.9526,    1.7257,    1.3197,    1.3452,    1.2823,    1.5516,    1.6279,    1.6865,    1.5784,    1.0510,    0.9376,    1.1980,    2.0315,    3.1831,    3.1219,    3.3122,    4.4729,    4.8863,    4.4157,    3.4345,    2.7223,    3.2433,    3.5098,    4.3298,    4.7135,    6.3176,    7.5069,    8.3366,    9.1677,   10.0365,   10.9363,   12.7556,   14.2434,   15.4800,   17.4159,   17.6853,   17.3718,   16.5215,   17.0608,   17.0324,   16.7507,   18.3386,
24-SEP-2002 00:09:32.45 ,   -6.1086,   -4.6258,   -3.9848,   -4.0208,   -3.1907,   -1.2345,   -1.7872,   -3.2502,   -4.0777,   -4.5797,   -4.0341,   -4.1867,   -3.3074,   -1.1116,    0.7609,    1.9573,    1.9849,    1.6410,    1.7842,    1.6436,    2.0428,    2.4926,    2.0349,    2.2987,    2.1893,    1.9985,    1.8093,    1.8080,    2.2474,    3.1993,    3.5180,    2.4363,    1.1817,    1.3689,    1.5553,    1.7184,    1.9320,    1.1107,    2.4189,    3.1124,    4.1092,    4.3758,    4.9087,    4.1401,    3.8742,    3.0303,    3.3175,    5.0528,    7.8548,    8.1747,    8.7862,    9.7226,   11.2923,   12.0837,   13.3918,   14.8593,   16.1768,   18.4256,   17.1407,   16.4146,   16.7702,   17.3461,   17.9955,   17.2531,   17.4543,
24-SEP-2002 00:12:13.89 ,   -5.0052,   -3.0796,   -2.9258,   -2.3158,   -2.1555,   -2.0831,   -2.2823,   -2.9267,   -4.2154,   -4.8300,   -4.0025,   -3.5178,   -2.4734,   -1.1688,    0.2728,    1.5355,    1.6031,    1.4537,    1.3368,    1.4732,    2.0360,    2.1861,    1.8852,    1.7400,    1.5951,    1.5690,    1.2616,    1.4982,    1.7720,    2.0596,    3.7928,    3.4651,    1.4658,    2.2920,    2.2825,    1.6116,    1.9382,    2.0181,    2.0634,    2.5350,    4.3249,    4.9223,    3.6355,    3.6051,    4.1832,    4.4485,    4.0341,    5.7494,    6.2615,    6.4466,   11.0100,   10.6826,   12.3129,   13.1505,   15.1486,   16.5097,   16.3777,   18.2846,   17.6649,   17.1001,   17.8138,   18.7605,   19.8044,   19.4813,   21.1236,
24-SEP-2002 00:14:56.25 ,   -3.8559,   -2.5751,   -2.2719,   -1.7454,   -1.6531,   -2.7716,   -2.6321,   -3.6066,   -4.6158,   -5.2359,   -4.8955,   -2.9889,   -1.4716,   -0.8052,   -0.4225,    0.6537,    0.7872,    1.0480,    1.3425,    1.7203,    1.8120,    1.5489,    2.1628,    2.1344,    1.7825,    1.3157,    1.2966,    1.6397,    1.7567,    1.0868,    1.2756,    0.9014,    0.4243,    0.9135,    0.5242,    1.5422,    2.2438,    2.8158,    3.5897,    3.2676,    5.0573,    5.7077,    3.8867,    3.0415,    2.3276,    2.4193,    4.0352,    4.0329,    7.1012,    7.0906,   10.2843,    9.2242,   11.1017,   12.1674,   15.1853,   16.3159,   16.2312,   17.3623,   17.6213,   16.7309,   17.4450,   19.4509,   23.2306,   26.3127,   29.3921,
24-SEP-2002 00:17:37.75 ,   -5.0882,   -4.2442,   -3.3557,   -2.5147,   -1.8451,   -1.9136,   -2.3015,   -3.0450,   -3.7112,   -4.5386,   -3.7477,   -1.4268,   -0.2054,   -0.2765,   -0.1599,    1.5034,    1.2503,    1.1427,    1.3639,    1.5458,    1.7128,    1.9238,    2.5088,    3.2474,    3.2251,    1.9891,    1.5539,    2.6282,    2.7458,    2.7872,    1.9979,    1.7705,    1.6370,    1.3010,    1.2458,    1.4616,    2.0772,    3.3875,    4.6858,    4.2509,    4.7090,    4.9223,    3.5595,    3.7618,    3.0078,    3.8580,    5.3498,    7.9188,    9.1005,    7.9066,    9.8450,    9.7363,   11.6582,   12.5615,   14.4976,   15.3421,   15.6411,   16.6919,   17.5915,   17.1910,   16.4688,   16.2318,   17.5400,   17.2753,   18.7757,
24-SEP-2002 00:20:18.80 ,   -5.3190,   -3.8359,   -2.6093,   -1.9390,   -1.1065,   -0.8878,   -1.9555,   -2.7898,   -3.9148,   -4.1299,   -3.2584,   -1.7917,   -1.1328,   -1.3155,   -0.5768,    1.2533,    1.4255,    1.3509,    1.4607,    1.7271,    1.6645,    1.6469,    1.6235,    1.5690,    1.6294,    1.2069,    1.3966,    2.3222,    2.7696,    3.2466,    2.8766,    2.6379,    1.9388,    2.0609,    1.9959,    2.3776,    3.2683,    4.0383,    4.8650,    4.8551,    5.2688,    6.3690,    5.3743,    4.8802,    5.1380,    6.7901,    6.5602,    6.8227,    8.3885,    8.7538,    9.7996,    9.3042,   10.4384,   12.0071,   12.7604,   12.7406,   13.9527,   16.8152,   18.3754,   17.8709,   17.5431,   17.2662,   16.5707,   17.4639,   17.7027,
24-SEP-2002 00:23:00.08 ,   -3.3832,   -2.0677,   -1.0180,   -0.4920,   -0.5722,   -1.4191,   -2.0058,   -3.0236,   -4.2919,   -4.4449,   -2.5752,   -1.8525,   -1.8413,   -2.2664,   -0.8522,    0.2708,    1.0682,    1.4888,    1.5071,    1.7045,    1.1588,    1.0111,    1.5504,    1.5599,    1.5088,    1.2280,    0.9893,    1.6698,    2.3189,    2.6499,    2.3886,    3.0121,    1.4282,    1.6785,    1.5214,    1.4211,    2.4862,    3.9837,    4.3567,    4.1596,    3.9457,    4.6154,    5.2760,    4.8880,    6.8458,    6.1017,    5.7977,    5.8478,    7.6214,    7.5118,    9.1241,    8.4973,   10.6584,   12.6192,   13.5616,   14.4077,   14.1879,   16.5972,   17.8186,   18.2609,   18.9620,   19.9417,   17.6060,   17.1201,   18.9152,
24-SEP-2002 00:25:41.61 ,   -3.4336,   -2.4830,   -2.1584,   -0.9548,   -0.4982,   -2.1193,   -2.6044,   -3.0920,   -3.7269,   -4.4603,   -2.9541,   -2.4624,   -2.3461,   -1.8968,   -0.2875,    0.2596,    0.8368,    1.1801,    1.1290,    1.1274,    1.1109,    1.7324,    1.3600,    1.1125,    1.3199,    1.6139,    1.6415,    2.6767,    3.2503,    3.3255,    1.9342,    2.0487,    1.4642,    1.3590,    1.6887,    2.0572,    3.7870,    4.2492,    3.7059,    3.2977,    4.1268,    4.5770,    4.2318,    3.3701,    3.4277,    4.3325,    4.3389,    4.6457,    6.3938,    7.4010,    9.4322,    8.0639,    9.7486,   12.2652,   13.8017,   15.5649,   15.8386,   16.2793,   17.6224,   18.2864,   19.0661,   19.4901,   19.2937,   18.6654,   19.2502,
24-SEP-2002 00:28:23.50 ,   -5.0418,   -4.0593,   -3.7730,   -2.8766,   -1.9162,   -3.0584,   -3.3905,   -3.9412,   -4.2843,   -5.1193,   -4.6999,   -3.3104,   -2.5239,   -1.1357,    0.2060,    0.5767,    0.9439,    0.8684,    0.9115,    1.0552,    1.4970,    2.0407,    1.1780,    1.1577,    1.2269,    1.3091,    1.9428,    2.8887,    2.8538,    2.9191,    1.3740,    0.3775,    0.2762,    2.0324,    2.9819,    2.0667,    2.8782,    2.8976,    3.5919,    3.6182,    3.3864,    4.7037,    5.1751,    2.7461,    2.0975,    4.0225,    4.0499,    5.2773,    6.8296,    8.6015,    9.8671,    7.8282,    9.7923,   12.6972,   14.1962,   16.0010,   16.3319,   16.1216,   17.7305,   18.0929,   18.0130,   18.4411,   18.9373,   18.7166,   18.8255,
24-SEP-2002 00:31:05.08 ,   -4.1973,   -3.1967,   -2.8923,   -2.6426,   -2.2236,   -3.3842,   -3.9339,   -4.5375,   -5.2059,   -6.3011,   -5.9376,   -4.5268,   -3.4333,   -1.6800,   -0.3982,    0.4195,    0.9436,    0.7909,    0.9699,    1.1083,    1.1486,    1.2689,    0.9796,    0.9406,    0.5841,    0.7171,    1.4263,    1.7425,    1.3421,    1.7215,    1.0231,    0.6528,    0.1535,    0.8665,    0.8307,    1.2397,    2.8644,    2.9820,    2.7124,    1.7960,    2.4724,    3.6956,    5.2530,    3.4275,    2.5861,    4.0105,    4.7357,    4.6365,    6.0455,    7.5904,    8.2528,    7.8466,    8.6260,   12.2907,   13.5240,   14.7065,   15.7729,   16.4577,   17.7300,   17.8038,   17.6704,   19.0139,   19.4579,   18.1089,   18.9265,
24-SEP-2002 00:33:46.48 ,   -4.9309,   -3.0371,   -2.4217,   -2.1054,   -1.8325,   -2.9451,   -3.4404,   -3.9301,   -4.4285,   -4.8603,   -4.5463,   -4.3308,   -3.7964,   -2.5381,   -0.8508,    0.0006,    0.3491,    0.4209,    0.6774,    1.0493,    0.9741,    1.1103,    1.3872,    1.2853,    0.9812,    0.7840,    1.5322,    2.0250,    1.8175,    1.3810,    1.0999,    0.6351,    0.1792,    0.7485,    1.0141,    1.6229,    2.3317,    3.3615,    3.0673,    2.1093,    2.3261,    4.7723,    5.5065,    4.2805,    3.5580,    2.9446,    4.8012,    5.6865,    7.3589,    8.1072,    8.0985,    8.6029,    9.2790,   11.9306,   13.1814,   13.2706,   14.7703,   16.8017,   17.8656,   17.6668,   18.6870,   19.6360,   19.3936,   18.2645,   18.2601,
24-SEP-2002 00:36:28.56 ,   -4.9859,   -3.7652,   -2.9969,   -2.4573,   -2.5579,   -2.7751,   -2.9606,   -3.5773,   -4.1134,   -4.6868,   -4.2006,   -3.5539,   -3.1713,   -2.4901,   -0.4306,    0.3443,    0.1601,    0.1946,    0.4905,    0.8239,    0.8285,    0.8246,    1.3805,    1.6134,    1.1151,    0.9135,    1.1582,    2.2532,    2.6240,    1.6460,    0.5743,   -0.1627,   -0.1148,    0.5039,    1.6951,    2.3731,    2.0255,    1.8806,    2.7883,    2.7584,    2.1439,    4.5583,    6.1927,    4.3744,    5.3229,    3.4843,    3.5426,    5.8820,    7.7882,    9.1933,    8.1554,    9.5374,   10.0023,   12.1958,   14.0978,   15.5610,   16.8128,   18.0073,   18.2025,   17.7236,   17.5023,   18.1342,   19.1151,   19.4238,   17.9228,
24-SEP-2002 00:39:10.20 ,   -5.3027,   -4.0051,   -3.2230,   -2.2556,   -2.3299,   -2.5750,   -2.9223,   -3.5063,   -4.4451,   -5.5212,   -5.0617,   -4.2275,   -3.1520,   -2.0256,   -0.2613,    0.5945,    0.7281,    0.9325,    0.8588,    1.1465,    1.2634,    1.3595,    1.1456,    1.4394,    1.0277,    0.9992,    1.1957,    1.1009,    0.8955,    0.8159,    0.6586,    0.4097,    0.3622,    0.2833,    0.8259,    1.5897,    0.9755,    1.8401,    2.5971,    3.1152,    4.1531,    5.2508,    5.7156,    4.5319,    5.0646,    5.4031,    5.2826,    8.2849,    9.3217,   10.0953,    9.4837,    9.1792,    9.9899,   12.6986,   14.2484,   16.5359,   17.5071,   18.2243,   17.6553,   17.3936,   17.7283,   18.7381,   18.5757,   19.0666,   18.5662,
24-SEP-2002 00:41:52.34 ,   -3.9431,   -2.9726,   -2.5349,   -1.8250,   -1.6291,   -2.3444,   -2.8610,   -3.6779,   -4.5469,   -5.2361,   -4.3489,   -3.7164,   -2.4539,   -1.8873,   -1.6206,   -0.1871,    0.9071,    1.4646,    1.4234,    1.9232,    1.9968,    1.9344,    1.2944,    1.0659,    0.9024,    0.9367,    1.1723,    0.8869,    0.5661,    1.5515,    1.1020,    0.6354,    0.7255,    0.1509,    0.9436,    1.7694,    1.9874,    2.2805,    2.3758,    2.5383,    3.2792,    4.7805,    5.3239,    4.2190,    4.8244,    2.8213,    4.3868,    7.3005,    8.1359,    8.9972,    9.2106,    9.5215,   11.0220,   13.4660,   14.0245,   16.0198,   16.9019,   16.6360,   17.5003,   17.0725,   18.0259,   18.4081,   18.5680,   17.9293,   18.1199,
24-SEP-2002 00:44:35.29 ,   -2.1298,   -1.8734,   -2.0020,   -2.0422,   -2.1312,   -2.6143,   -3.2827,   -4.2161,   -4.7534,   -5.3754,   -5.3394,   -3.9044,   -2.5895,   -1.7704,   -1.5601,    0.3826,    1.4521,    1.6791,    1.4449,    1.4957,    1.5581,    1.4023,    0.6671,    0.6420,    0.7039,    0.4167,    0.3760,    1.0380,    0.9572,    1.2153,    0.7945,    0.3074,    0.3062,    0.0420,    1.1722,    2.1279,    2.4741,    2.9224,    2.2447,    2.2401,    3.0285,    3.5561,    4.3044,    4.8996,    4.0589,    3.4294,    5.2870,    6.2650,    8.2765,    9.0172,   10.0113,   10.8308,   12.9131,   13.8222,   14.0282,   16.7704,   17.7663,   16.6178,   16.2305,   17.1390,   18.7513,   19.6234,   18.9422,   17.1158,   17.1752,
24-SEP-2002 00:47:17.17 ,   -3.7297,   -2.5338,   -2.4216,   -2.1868,   -2.3820,   -3.0718,   -3.5823,   -3.9941,   -4.5922,   -5.3998,   -4.2449,   -2.5532,   -1.9357,   -1.5615,   -0.1352,    1.3729,    1.5585,    1.6143,    1.4187,    1.3078,    1.4010,    1.5117,    1.1482,    1.3389,    1.3495,    0.7205,    0.3947,    1.0602,    1.1283,    0.6745,    0.3001,    0.0899,    0.2394,    0.0850,    0.2332,    0.7047,    2.1394,    2.5431,    1.1384,    0.7846,    2.4738,    3.3237,    4.9107,    6.1540,    5.9432,    4.5735,    6.2261,    7.7645,    9.4998,    9.5361,   10.8635,   10.3492,   11.9058,   13.7585,   14.3201,   15.8511,   16.6082,   16.4750,   15.6956,   16.4726,   17.9517,   19.8324,   19.2024,   16.8963,   17.4931,
24-SEP-2002 00:49:59.54 ,   -5.1985,   -3.9318,   -3.4760,   -2.9426,   -2.7404,   -3.1409,   -3.3795,   -3.7094,   -4.5438,   -5.2420,   -3.5430,   -2.2674,   -2.0622,   -1.8841,   -0.2878,    0.7642,    0.8018,    0.8816,    1.0819,    1.1974,    1.5113,    1.6337,    0.7874,    0.7692,    0.5979,    0.0642,   -0.1048,    0.5998,    0.7367,    0.3394,    0.1105,    0.0808,    0.6470,    0.2837,    0.8859,    1.6371,    1.8904,    2.3866,    1.7390,    1.3702,    2.5078,    3.7865,    5.0691,    5.5568,    3.8159,    3.3548,    5.4414,    7.5490,    8.3396,    9.1555,   11.0314,   10.6717,   10.7244,   12.0470,   13.1469,   14.5189,   16.5958,   16.6203,   16.2150,   16.6305,   16.9681,   18.6140,   18.3197,   16.8157,   16.8394,
24-SEP-2002 00:52:41.25 ,   -5.7760,   -4.6388,   -4.4264,   -3.7291,   -2.8744,   -3.6919,   -4.1784,   -4.7541,   -5.4865,   -5.9114,   -5.8434,   -4.0105,   -3.3474,   -2.3994,   -0.6701,    0.3463,    0.3359,    0.5030,    0.6092,    0.2793,    0.6109,    1.0259,    0.3126,    0.4281,    0.3893,   -0.1140,   -0.1228,    0.6708,    1.0825,    0.9598,    0.3628,    0.0911,    0.1170,    0.2316,    0.9380,    1.2267,    1.5662,    1.1319,    1.9075,    1.9078,    3.0504,    3.6385,    4.1664,    4.9655,    5.2850,    5.3403,    5.0135,    6.6300,    8.4337,    8.8870,    9.5421,   10.6200,   10.9776,   12.2552,   12.9766,   14.3487,   16.0520,   16.2194,   16.0653,   16.2984,   16.8438,   16.9849,   16.7760,   16.4617,   16.7472,
24-SEP-2002 00:55:23.15 ,   -4.7496,   -3.6442,   -3.5076,   -2.6679,   -2.3277,   -3.1552,   -3.7642,   -4.4981,   -5.3029,   -5.8002,   -5.7815,   -5.2084,   -5.1737,   -4.6778,   -2.1753,   -0.2301,    0.1424,    0.4456,    0.5026,    0.2045,    0.4759,    0.9016,    1.1506,    1.5009,    1.0286,    0.3767,   -0.0443,    0.0290,    0.2723,    0.1415,   -0.0369,   -0.0586,    0.1677,    0.5835,    1.1965,    1.5371,    2.3626,    0.9290,    1.1839,    1.5126,    2.3880,    4.0549,    4.4968,    4.7833,    6.4935,    6.3963,    6.2630,    6.6919,    8.1749,    8.6336,    9.5528,    9.8715,   10.6370,   11.8102,   12.7917,   14.4707,   16.5879,   16.3955,   16.3266,   17.2795,   17.4803,   17.5396,   17.1433,   15.8034,   17.6757,
24-SEP-2002 00:58:05.51 ,   -2.1703,   -2.1633,   -2.0096,   -1.6391,   -2.0940,   -2.5306,   -2.8042,   -3.4243,   -4.2961,   -4.6245,   -4.6062,   -4.5706,   -3.2498,   -2.9050,   -1.3307,    0.4006,    0.7227,    0.8042,    1.0117,    1.1149,    1.4023,    1.4649,    2.2195,    2.2019,    2.2208,    1.8020,    0.7598,    0.4169,    0.4811,    0.3553,    0.3787,    0.8193,    0.9724,    2.0740,    2.7127,    3.2672,    3.9689,    2.1767,    2.2437,    1.6869,    2.7603,    3.4048,    3.5022,    4.7671,    5.9085,    5.1835,    4.4211,    5.4984,    7.4254,    8.7616,    9.6769,    9.7171,   10.1463,   11.1639,   12.7061,   14.0991,   15.8010,   16.7308,   17.2945,   17.3018,   16.6937,   16.9729,   17.3622,   15.9367,   16.8236,
24-SEP-2002 01:00:53.24 ,   -2.4513,   -2.3241,   -1.7090,   -1.6300,   -1.7095,   -2.2517,   -2.9325,   -3.6793,   -4.7442,   -4.6505,   -4.7316,   -4.5307,   -2.1981,   -0.8864,   -0.0455,    0.7194,    0.7377,    0.8959,    1.3259,    1.5968,    1.7544,    1.5320,    1.6013,    1.0686,    0.9596,    0.9948,    0.9741,    1.1893,    1.0998,    0.5860,    0.6785,    1.5528,    1.4624,    1.6361,    2.2900,    3.2424,    3.2159,    2.8152,    3.3050,    2.6868,    3.0927,    3.5864,    4.1310,    5.2368,    6.7328,    4.5814,    5.4884,    5.6649,    6.9445,    8.5909,    8.7695,    9.5089,    9.1676,   10.6771,   10.9895,   11.7823,   14.5336,   15.1002,   16.4177,   15.9566,   16.4370,   17.3524,   17.0301,   17.2699,   17.5729,
24-SEP-2002 01:03:49.01 ,   -3.3696,   -2.5814,   -1.5761,   -1.8770,   -2.1347,   -2.2440,   -2.6324,   -4.2215,   -4.9057,   -4.9047,   -4.8370,   -4.2872,   -2.8313,   -1.8400,   -0.5841,    1.1264,    1.1416,    1.4744,    1.6108,    1.5113,    1.4215,    1.2876,    1.2778,    0.8486,    0.6627,    0.4051,    0.4806,    0.8699,    0.7936,    0.6259,    0.3800,    0.1555,    0.5022,    0.3773,    1.3143,    2.7002,    3.7422,    2.6236,    2.7846,    3.4647,    3.4130,    3.3952,    4.0013,    5.7761,    5.4643,    4.9394,    5.3335,    6.1098,    7.2019,    9.5684,    9.6100,    8.8498,    8.9834,   10.5619,   11.1024,   12.7469,   15.3321,   16.1929,   16.2830,   16.0104,   16.9242,   17.4410,   16.2840,   16.3537,   17.3015,
24-SEP-2002 01:06:30.35 ,   -3.7893,   -3.2856,   -2.9331,   -3.4436,   -3.8655,   -3.6568,   -3.6886,   -5.3736,   -5.5408,   -5.5828,   -6.0095,   -5.6845,   -4.5378,   -4.2563,   -2.7460,    0.7579,    1.5043,    2.1343,    2.1955,    1.6650,    1.3513,    1.3220,    1.5958,    1.6190,    1.5562,    0.7938,    0.8204,    1.4814,    0.9870,    0.0958,   -0.0858,   -0.0318,    0.3889,    0.3633,    0.7883,    1.9437,    2.4107,    4.2365,    4.1610,    4.1950,    4.1159,    5.4042,    6.5371,    6.8051,    5.4435,    4.1816,    5.5530,    6.8883,    8.9931,   10.4331,   10.4242,   10.4188,   10.7516,   10.9089,   12.2216,   14.5631,   16.2352,   17.2714,   17.0370,   17.4514,   17.6990,   17.6644,   18.4480,   17.0433,   16.5581,
24-SEP-2002 01:09:12.21 ,   -6.3126,   -6.1706,   -6.2421,   -5.9233,   -6.0752,   -5.8341,   -6.0003,   -6.1113,   -6.1581,   -6.2300,   -6.1250,   -4.8356,   -4.0766,   -3.6666,   -2.1579,    0.2746,    1.2162,    1.8633,    2.0771,    1.7667,    1.5168,    1.0607,    1.6344,    1.2038,    0.8179,    0.6011,    1.0171,    1.5245,    0.7385,   -0.3584,   -0.3296,    0.0440,    0.2439,    0.1499,    0.4433,    2.7340,    3.6340,    5.0165,    4.1760,    3.8638,    4.1466,    4.4816,    5.4267,    5.7849,    6.9887,    3.9743,    5.7329,    7.2119,    8.9981,    9.6682,   10.1014,    9.5847,   10.4639,   11.1890,   12.7413,   15.2788,   15.8268,   17.2723,   17.4188,   16.7463,   17.1977,   17.7390,   18.7589,   19.0102,   19.1261,
24-SEP-2002 01:11:53.64 ,   -7.2530,   -7.1801,   -7.3924,   -6.8953,   -6.8906,   -6.6851,   -6.5449,   -6.1328,   -6.3406,   -6.5993,   -5.5994,   -3.9021,   -2.4381,   -1.0124,    0.3337,    0.6166,    0.9126,    1.6018,    2.1010,    2.1239,    1.5794,    0.7350,    1.4173,    1.3865,    0.8517,    1.4388,    1.8367,    1.4877,    0.6436,   -0.3039,   -0.5027,   -0.0372,    0.5778,    0.3907,    1.1375,    1.8100,    2.4741,    3.0210,    2.9562,    2.7811,    3.2261,    3.5088,    4.0320,    4.9729,    7.1119,    7.1473,    5.9307,    6.7003,    9.1774,    8.6524,   10.8282,    9.2678,   10.4366,   10.7030,   13.0487,   15.2555,   16.2312,   17.1807,   17.5409,   15.9511,   16.7927,   19.4806,   19.7661,   20.0170,   21.0354,
24-SEP-2002 01:14:35.09 ,   -6.4166,   -6.3784,   -5.2473,   -5.7945,   -5.4142,   -5.2199,   -5.3360,   -6.0686,   -7.2331,   -8.1520,   -7.3381,   -6.3537,   -4.1572,   -2.5972,   -0.3293,    0.0405,    0.2592,    1.1249,    1.8130,    2.0450,    1.4741,    0.7682,    1.3930,    1.5841,    1.4247,    1.4943,    1.2435,    1.0742,    0.4566,   -0.1016,   -0.2154,   -0.5161,   -0.1276,    0.4428,    0.8080,    1.4691,    1.5883,    1.5319,    1.9131,    1.6608,    3.0705,    2.5989,    4.4070,    6.2280,    7.7362,    7.7520,    5.4709,    6.3110,    9.2124,    9.7002,    9.4166,    9.0716,   10.3233,   11.1697,   13.4404,   14.1287,   14.5272,   15.1738,   15.5838,   15.7553,   16.6766,   17.6287,   18.3130,   17.8906,   17.8580,
24-SEP-2002 01:17:19.37 ,   -4.8444,   -4.0769,   -2.1068,   -2.7044,   -2.2775,   -2.2004,   -2.6569,   -3.5909,   -4.1477,   -4.9958,   -5.0001,   -3.7774,   -1.9124,   -1.4100,    0.1975,    0.7236,    1.2241,    1.6178,    1.6257,    1.8113,    1.6496,    1.0404,    0.9752,    0.6027,    0.5149,    0.6131,    0.8136,    1.5379,    1.1656,    0.0902,   -0.3935,   -0.2597,    0.2051,   -0.1503,    0.6493,    1.5311,    2.6095,    2.8511,    1.9732,    1.8790,    2.9203,    4.2234,    5.2444,    6.4603,    7.4077,    6.9715,    6.7278,    7.7447,    8.5234,    9.3574,   10.3557,   10.5753,   12.2097,   11.4270,   15.0090,   15.5449,   15.0839,   15.8715,   16.7524,   15.9214,   16.5627,   17.3486,   17.1395,   16.3443,   17.6579,
24-SEP-2002 01:20:00.80 ,   -4.4726,   -2.7695,   -1.3466,   -0.9693,   -0.6299,   -0.8420,   -2.0320,   -2.7284,   -3.2551,   -3.7629,   -4.1869,   -3.3640,   -1.6944,   -0.9165,    0.0652,    0.6834,    1.2987,    1.5476,    1.5982,    1.6775,    1.3532,    0.7606,    1.0412,    0.8532,    0.6523,    0.7762,    1.5855,    2.1662,    1.9955,    1.0375,    0.0118,   -0.4276,   -0.4200,   -0.4061,    0.4798,    1.9975,    3.6716,    3.4601,    1.7336,    2.0151,    2.9381,    3.1685,    4.7522,    6.2998,    7.8162,    6.4369,    5.9742,    6.9406,    9.2100,   10.0703,   10.3903,   10.7960,   11.5780,   12.1935,   12.9373,   14.7779,   14.6954,   15.9339,   16.9359,   16.7732,   16.4294,   16.6410,   16.3832,   16.9756,   17.0334,
24-SEP-2002 01:22:42.25 ,   -3.6647,   -2.9334,   -2.7097,   -2.8489,   -2.7120,   -2.9738,   -4.2739,   -4.9609,   -5.8529,   -6.0640,   -6.4548,   -5.3515,   -3.4612,   -2.6258,   -0.7740,    0.1289,    0.5204,    0.8676,    1.1815,    1.0667,    0.4851,    0.3767,    0.7258,    0.5761,    0.2071,    0.1019,    0.5715,    0.8480,    0.4931,    0.1922,    0.1116,   -0.3875,   -0.1895,    0.4435,    1.0000,    1.4572,    0.5868,    1.1471,    0.9447,    1.2337,    1.5995,    3.4543,    4.5246,    5.3456,    7.3207,    3.9715,    6.1678,    6.4938,    9.3172,   10.0007,   10.0047,   10.0824,   10.9912,   11.9174,   13.1795,   15.9130,   16.7357,   16.7727,   15.4607,   15.1525,   16.2306,   15.8735,   15.2275,   15.1305,   15.7479,
24-SEP-2002 01:25:24.05 ,   -2.9728,   -3.0691,   -3.5528,   -3.6605,   -3.8558,   -3.5710,   -4.5554,   -5.0740,   -5.0568,   -4.3167,   -4.0045,   -3.5813,   -3.4612,   -2.7646,   -0.1775,    0.4373,    0.6984,    0.7931,    0.7862,    1.0269,    0.7335,    0.2908,    0.5042,    0.1149,    0.3573,    0.2398,    0.7740,    1.2438,    0.6532,   -0.4950,   -0.1091,   -0.1761,    0.0777,    0.9934,    1.6417,    0.8067,    0.1783,    0.7170,    0.5291,    1.1514,    2.1086,    4.1760,    4.3057,    5.7743,    7.0287,    2.4371,    3.9475,    7.2468,    8.5102,    7.8657,    8.2458,    8.7500,   10.9638,   12.2624,   13.5185,   15.8426,   16.5231,   16.5750,   15.2653,   15.2871,   15.0112,   15.1127,   15.5806,   15.6631,   16.1483,
24-SEP-2002 01:28:05.36 ,   -5.2509,   -4.6391,   -4.0314,   -3.3033,   -2.0076,   -2.9314,   -4.4969,   -5.0737,   -5.3530,   -4.8698,   -4.1182,   -3.4705,   -2.9083,   -1.7038,    0.4711,    1.0888,    0.9042,    0.7680,    0.6134,    1.2467,    1.2520,    0.3517,    0.6160,    0.4133,    0.4894,    0.1045,    0.6659,    1.6317,    1.4443,    0.4100,   -0.4879,   -0.4398,    0.1672,    1.5530,    2.1425,    1.7031,    0.4211,   -0.0118,    0.1543,    0.5438,    1.5558,    2.5966,    3.6500,    5.6809,    5.2821,    4.7257,    7.1756,    8.4542,    8.4340,    8.3147,    8.9395,    9.1152,   10.5824,   12.9877,   13.4860,   15.6932,   16.8868,   17.0395,   15.7555,   15.5112,   15.6576,   16.2185,   16.9782,   16.9372,   18.0353,
24-SEP-2002 01:30:46.78 ,   -7.0623,   -5.9628,   -4.9539,   -3.8264,   -1.6498,   -3.4585,   -4.4719,   -4.8940,   -5.3862,   -4.8200,   -3.9362,   -3.1359,   -2.5003,   -1.4928,    0.1743,    0.6362,    0.1551,    0.4935,    0.9823,    1.3026,    0.8785,    0.3209,   -0.0015,    0.5874,    0.1428,    0.2305,    0.4643,    0.3666,    0.2316,   -0.0156,    0.0055,   -0.1489,   -0.3569,    0.7572,    1.7722,    1.5927,    0.6012,    0.1504,   -0.0105,    0.0434,    0.5423,    0.9269,    2.6271,    4.7237,    3.9679,    6.5941,    5.8776,    7.5349,    8.3251,    9.6192,    9.6218,    9.6646,   10.1328,   12.7418,   14.3711,   15.5993,   16.2894,   18.0817,   17.2240,   15.7975,   15.8913,   17.2401,   17.5408,   16.2116,   17.2533,
24-SEP-2002 01:33:28.80 ,   -5.9868,   -5.0731,   -4.0217,   -4.0384,   -3.0781,   -3.4522,   -4.1365,   -4.5754,   -5.1089,   -4.7961,   -4.1788,   -3.4554,   -2.9825,   -2.2842,   -0.2849,    0.4054,    0.6038,    0.7505,    1.3085,    1.3744,    0.7404,    0.2703,    1.3710,    0.5784,    0.2435,    0.5442,    0.8857,    0.4837,   -0.1563,   -0.3960,   -0.6967,   -0.8641,   -0.8204,    0.6863,    1.3594,    1.5193,    1.0331,    0.3339,    0.1690,    0.2254,    1.0323,    2.0323,    4.4412,    5.6869,    6.3517,    6.0108,    3.9557,    5.8574,    8.1410,    9.9570,    9.6543,   10.4612,   11.1905,   12.0228,   15.6693,   15.3275,   16.2867,   16.7968,   16.6872,   14.8659,   15.2551,   15.8463,   16.2890,   16.5786,   16.1068,
24-SEP-2002 01:36:10.38 ,   -4.0971,   -3.6282,   -3.1602,   -3.9859,   -3.1673,   -3.5777,   -4.3188,   -4.5466,   -4.9878,   -5.1588,   -4.1189,   -2.6215,   -1.2397,   -1.0782,    0.1870,    1.0374,    1.6213,    1.5878,    1.4931,    1.5526,    1.5583,    1.0883,    0.3725,    1.2479,    0.9354,    1.1014,    1.5071,    0.6300,    0.4480,   -0.2192,   -1.1195,   -0.4766,    0.0765,    1.0316,    1.1316,    0.6943,    0.2310,    0.0491,   -0.6112,   -0.7604,    0.5463,    2.5155,    2.3927,    5.3072,    6.4307,    7.8361,    8.0570,    7.1447,    9.3428,    9.2467,    8.5722,    9.8314,   10.9541,   11.9008,   13.5044,   16.0541,   16.7646,   17.8950,   17.8315,   15.5747,   14.4505,   15.3410,   15.9272,   16.6022,   18.8015,
24-SEP-2002 01:38:52.41 ,   -5.5435,   -5.1802,   -5.1955,   -5.1983,   -4.3563,   -4.5059,   -4.8241,   -4.9490,   -5.7044,   -6.5575,   -6.0192,   -4.9404,   -2.4738,   -1.9208,   -0.9754,   -0.0322,    1.3715,    2.0675,    2.3779,    2.0798,    1.7743,    1.3680,    2.0708,    1.7662,    1.4241,    1.7558,    1.8133,    1.4247,    1.5039,    0.4535,   -0.6260,   -0.3403,   -0.5817,    0.1868,    0.6808,    0.1440,    0.0694,    0.1461,    0.5123,    0.6880,    0.9173,    0.9395,    2.6822,    6.1462,    7.0949,    7.1894,    6.1932,    6.7708,    8.6528,    8.5435,    8.4453,    9.4751,    8.7405,   10.6744,   12.6685,   14.7822,   16.8088,   17.1160,   17.1428,   15.6590,   13.8101,   13.5768,   13.6719,   16.7328,   18.3319,
24-SEP-2002 01:41:34.34 ,   -7.2002,   -7.0039,   -6.2363,   -5.4864,   -4.3761,   -4.4770,   -5.1378,   -5.3018,   -6.1130,   -6.9638,   -6.4152,   -5.8315,   -4.3276,   -3.0471,   -1.7979,   -0.4797,    0.7951,    1.7273,    2.2559,    2.0001,    1.6346,    1.0360,    1.5060,    0.7401,    1.0214,    1.5921,    1.7534,    1.7634,    1.4623,    0.5605,    0.0227,   -0.0181,    0.1651,    1.3261,    2.0592,    0.9176,    0.8039,    0.3332,    0.2600,    0.6908,    1.1308,    1.6390,    3.2260,    6.3615,    7.4917,    7.0416,    7.4947,    7.0368,    9.4893,    9.5173,    8.7355,    9.8599,   10.4455,   10.9548,   12.4596,   16.9871,   16.5855,   17.8368,   18.9783,   16.7593,   16.0866,   17.1395,   17.0964,   17.6092,   19.2313,
24-SEP-2002 01:44:15.64 ,  999.0000,   -4.5724,   -4.4855,   -4.1176,   -2.9667,   -3.4777,   -4.5335,   -5.5694,   -6.0681,   -6.2760,   -5.6451,   -4.5829,   -3.6476,   -1.8153,   -0.2767,    1.0661,    1.7918,    1.6946,    1.5606,    1.8752,    1.7867,    1.2726,    1.7984,    1.2544,    1.0585,    0.9617,    0.9795,    0.6249,    0.6243,   -0.1260,   -0.8814,   -0.7088,    0.0698,    1.2177,    2.1911,    1.9415,    2.4700,    0.8216,    0.8495,    2.2366,    3.7032,    5.3121,    5.7819,    6.9107,    8.4841,    8.2092,    8.6143,    9.5812,   10.3979,   10.1213,    9.6417,   11.0588,   11.5606,   12.8326,   13.8071,   17.4339,   17.3258,   17.4863,   18.0538,   17.0206,   16.8833,   17.4510,   17.6054,   16.9833,   19.1120,
24-SEP-2002 01:46:57.52 ,  999.0000,   -3.7427,   -3.5066,   -3.6899,   -3.2016,   -3.3037,   -4.1131,   -5.2525,   -5.6688,   -5.8698,   -4.6634,   -3.5823,   -2.8324,   -1.2643,    0.3018,    2.1051,    2.5844,    2.2884,    2.0511,    2.0973,    1.6303,    1.1645,    2.0101,    1.4712,    1.1946,    1.4853,    2.0364,    1.4484,    1.0954,    1.0449,    0.4903,    0.4202,    1.1094,    1.7785,    2.7577,    2.7826,    3.0474,    1.7587,    1.9454,    2.6237,    3.2574,    5.0200,    5.1236,    7.7003,    8.3337,    9.3568,   10.0034,   10.1117,   11.0578,   10.3980,    9.6821,   10.3450,   10.4038,   12.6023,   14.3342,   15.9349,   17.1790,   16.8117,   17.7742,   17.5015,   16.3288,   17.4119,   16.7284,   18.3694,   19.7896,
24-SEP-2002 01:49:39.46 ,   -6.1990,   -5.6955,   -4.4550,   -4.1307,   -3.4325,   -3.3259,   -4.5940,   -4.9445,   -5.0910,   -5.1897,   -3.9534,   -2.8373,   -1.7987,   -0.1921,    0.9814,    2.8197,    3.0273,    3.0558,    2.9134,    2.6522,    2.0812,    1.4681,    2.0953,    1.9407,    1.8580,    1.9407,    1.7565,    1.5634,    1.3677,    0.7182,    0.2749,    0.5511,    1.2627,    1.4636,    2.8897,    4.3476,    4.2118,    2.7115,    2.5722,    2.8623,    4.0578,    6.4194,    5.9505,    7.6316,    7.0820,    7.9646,    8.3246,    8.5291,    8.9212,    9.3870,    9.0743,    9.3192,   10.3077,   11.2749,   12.4653,   14.6389,   16.4376,   15.9226,   16.3698,   16.0237,   15.4157,   16.1449,   16.3595,   17.7993,   18.7239,
24-SEP-2002 01:52:21.16 ,   -5.4829,   -5.1987,   -4.1152,   -3.4512,   -2.8529,   -3.1696,   -4.6168,   -5.1393,   -5.4655,   -5.7584,   -4.6999,   -3.6477,   -2.5862,   -1.5353,    0.1834,    1.9197,    2.6452,    2.6904,    3.1712,    3.1071,    2.4830,    1.8923,    2.2579,    2.4121,    2.2794,    1.4357,    1.0323,    0.9997,    1.0127,    0.8432,    0.2686,    0.1647,    0.5600,    1.3006,    0.9672,    2.0678,    2.9315,    3.8089,    3.7343,    2.4904,    3.7811,    5.7357,    6.4037,    6.8319,    7.7015,    6.2030,    6.5360,    7.4138,    8.6664,   10.6350,    9.7531,    9.9514,   10.7710,   10.5174,   11.4036,   14.8819,   16.2926,   14.8795,   16.0799,   16.9238,   16.2224,   15.5562,   16.6056,   16.4891,   18.4913,
24-SEP-2002 01:55:03.52 ,   -6.0226,   -4.9972,   -4.2204,   -3.8234,   -3.6394,   -4.6071,   -5.8069,   -5.9946,   -6.5367,   -6.9196,   -5.0498,   -3.9859,   -2.6919,   -2.3377,   -0.8571,    1.1837,    2.1353,    2.0484,    2.7774,    2.9278,    2.8817,    2.4158,    2.3845,    2.4627,    2.6943,    2.1285,    1.4776,    1.4129,    1.8955,    1.2388,    0.1939,    0.3758,    0.6977,    0.9013,    2.1795,    2.5732,    2.2315,    2.1610,    2.0977,    1.8820,    3.5838,    5.1663,    5.1387,    6.7819,    8.0533,    7.5346,    8.3916,    8.7586,    9.1805,    9.6473,    9.3235,    8.9891,   10.4316,   10.8849,   12.7644,   15.0657,   16.2287,   15.6347,   17.2954,   17.4366,   15.9051,   16.3466,   16.1076,   16.0799,   18.4853,
24-SEP-2002 01:57:45.35 ,   -5.2508,   -3.6648,   -3.1058,   -2.7300,   -2.9032,   -4.4769,   -5.1202,   -5.1855,   -5.4020,   -5.4674,   -4.5383,   -4.2029,   -3.0719,   -1.9691,   -0.6332,    0.4227,    0.7998,    0.9660,    1.5099,    1.8034,    2.0412,    1.9985,    1.8628,    1.8613,    1.9471,    1.7251,    1.6189,    1.5018,    1.0154,    0.5833,   -0.2148,   -0.8003,   -0.6432,    0.7731,    2.0909,    2.4733,    2.7262,    1.6189,    1.4575,    1.9651,    3.4894,    4.5584,    6.0053,    7.8844,    7.1358,    4.9881,    7.0032,    8.3235,    9.4972,    9.5579,    9.1091,    9.2537,   10.4079,   12.6889,   14.0475,   15.1407,   16.6751,   17.8174,   18.1374,   18.6712,   16.0508,   15.8832,   14.7138,   15.2295,   19.5617,
24-SEP-2002 02:00:27.42 ,   -5.3401,   -4.3849,   -3.8564,   -3.4295,   -3.3140,   -4.4925,   -5.0247,   -5.1808,   -5.0258,   -4.4816,   -4.1283,   -4.5512,   -4.4957,   -2.1440,   -1.2355,   -1.1751,   -0.5665,    0.6888,    1.5664,    1.8054,    1.7694,    1.5114,    1.5219,    1.8377,    1.4875,    1.5662,    1.8316,    1.5300,    0.8669,   -0.2337,   -0.9887,   -1.5078,   -1.4101,    0.0957,    1.7753,    2.2666,    2.6272,    1.7273,    1.1807,    1.4718,    3.1979,    3.5358,    5.5656,    7.5231,    7.1046,    4.3652,    4.3685,    6.8608,    7.1217,    7.3600,    9.0322,    9.3825,   10.4599,   12.9084,   13.6528,   16.0834,   17.3589,   18.8913,   18.0917,   19.2390,   15.5552,   15.5836,   14.8658,   15.6811,   19.2041,
24-SEP-2002 02:03:08.97 ,   -6.7706,   -6.6046,   -6.6044,   -6.3246,   -5.7838,   -5.7043,   -6.1890,   -6.5677,   -6.4332,   -5.8304,   -5.3259,   -4.7230,   -4.1222,   -2.4397,   -1.4360,   -0.7568,    0.7359,    1.7739,    2.3328,    2.1459,    2.3416,    2.2028,    1.9029,    2.2925,    2.3481,    2.0779,    1.6350,    0.7295,    0.1507,   -0.4881,   -1.1050,   -1.7884,   -0.7881,    1.0879,    1.8163,    1.0726,    1.1769,    0.8302,    0.9515,    2.0398,    4.0942,    5.3876,    7.0874,    8.1600,    8.3835,    2.5569,    2.5356,    8.2061,    5.8862,    4.6182,    8.5278,    9.3337,    9.6916,   10.7620,   12.4392,   14.3845,   16.2309,   16.5303,   16.7765,   16.8286,   16.2581,   15.9396,   15.1583,   16.4682,   20.1433,
24-SEP-2002 02:05:52.01 ,   -5.8717,   -5.7319,   -5.0306,   -4.8633,   -4.7492,   -4.4599,   -4.2375,   -4.8799,   -5.0230,   -5.1397,   -4.7913,   -3.7467,   -3.5138,   -2.0408,   -1.1624,    0.1622,    1.7850,    1.7756,    2.1436,    2.1585,    1.8573,    1.7617,    1.1956,    1.3075,    1.4637,    1.7239,    1.3589,    1.2193,    1.4847,    0.5943,   -0.3773,   -1.5390,    0.3029,    1.8084,    1.8354,    1.2479,    1.4518,    2.0296,    2.3570,    2.8798,    4.9997,    6.7595,    7.3467,    8.8138,    9.4132,    6.6159,    6.9747,    8.3844,    8.6141,    7.9766,    8.1425,    8.8756,    9.6294,   11.0472,   11.3793,   13.1675,   14.7610,   14.2756,   15.3779,   15.9602,   16.3932,   14.9963,   15.1088,   16.7906,   18.2898,
24-SEP-2002 02:08:33.30 ,   -6.3021,   -5.7929,   -4.2952,   -3.6744,   -3.6856,   -3.7276,   -3.9636,   -4.3203,   -4.3385,   -4.3142,   -4.5819,   -4.2876,   -3.0096,   -1.5285,   -1.2588,   -0.6354,    0.6758,    1.1003,    1.9287,    2.7411,    1.9308,    1.0505,    1.2063,    0.7116,    0.4525,    0.8781,    0.8711,    1.5527,    2.1245,    1.7103,    1.4077,   -0.3804,    0.8900,    2.5680,    2.6761,    2.6096,    1.9606,    0.9377,    2.2154,    4.5843,    6.2720,    7.0282,    7.3753,    8.8482,    8.6186,    5.3635,    6.3534,    7.3860,    7.6858,    7.5561,    7.3154,    7.9008,    8.6519,    9.8512,   10.9369,   12.5018,   15.2047,   13.7680,   14.8221,   15.6681,   15.5903,   15.1069,   14.9040,   15.6385,   18.4123,
24-SEP-2002 02:11:17.48 ,   -5.8765,   -4.6437,   -3.6476,   -2.5375,   -2.4124,   -3.3826,   -4.8043,   -4.8155,   -4.5902,   -4.2439,   -4.1184,   -3.6709,   -2.1124,   -0.4833,    0.1347,    0.2728,    1.2046,    1.9318,    2.8881,    2.9854,    1.8949,    1.3565,    1.4282,    1.4357,    1.7856,    1.7387,    1.6659,    2.0130,    1.9077,    1.3103,    0.5757,    0.3497,    1.3873,    2.6567,    2.9056,    2.8553,    1.4403,    0.9919,    1.1292,    2.1191,    4.2794,    5.9505,    7.2666,    8.4604,    8.8221,    6.2340,    6.9148,    6.8717,    6.8886,    6.6717,    7.3059,    7.8348,    8.1921,    9.8599,   11.3776,   14.1532,   15.6808,   14.3553,   14.9495,   16.1105,   15.5990,   15.5374,   15.2983,   15.2128,   17.5962,
24-SEP-2002 02:14:00.65 ,   -5.9524,   -4.3709,   -3.2229,   -2.3033,   -2.0205,   -3.1185,   -4.3517,   -3.8098,   -3.2599,   -2.5614,   -1.6369,   -1.1661,   -0.8403,   -0.2488,    0.8905,    1.1356,    1.5327,    1.7727,    2.2321,    1.7196,    1.0820,    1.2753,    1.4017,    1.9310,    1.8808,    1.3946,    1.7547,    2.2620,    1.8027,    1.7392,    1.7130,    1.5560,    1.5701,    2.1762,    2.1734,    1.8124,    1.7103,    1.9152,    1.6346,    2.4956,    4.4233,    5.9771,    7.5175,    8.9161,    9.9277,    8.5908,    8.3735,    9.1455,    8.9577,    8.1325,    7.5962,    7.1976,    8.6521,    9.1395,   11.0157,   13.7880,   14.3660,   14.8976,   15.2923,   16.2599,   16.6783,   17.1749,   17.4447,   18.2602,   19.4194,
24-SEP-2002 02:16:43.83 ,   -4.7339,   -4.0261,   -2.9978,   -2.5466,   -2.7300,   -3.7617,   -4.8583,   -4.1165,   -3.6585,   -3.2332,   -2.3899,   -1.7384,   -1.4400,   -0.6080,    0.3762,    0.5967,    1.0497,    0.7993,    0.9497,    0.7887,    0.5801,    0.9091,    0.9570,    1.8053,    1.4964,    1.0018,    1.1475,    1.5242,    1.8390,    0.8373,   -0.2985,   -0.0126,    1.0522,    2.6639,    3.3481,    2.9240,    2.0693,    3.3569,    3.1008,    2.8796,    4.3650,    6.9393,    8.3608,    8.5208,    9.1685,    7.7696,    7.2271,    7.5780,    7.2606,    7.4682,    7.0367,    7.6571,    9.7062,   10.6927,   10.6482,   13.0814,   12.6335,   13.9314,   13.4981,   16.1332,   16.4085,   15.4476,   16.9665,   18.3302,   19.8051,
24-SEP-2002 02:21:34.98 ,   -2.7535,   -1.9336,   -0.6880,   -0.5101,   -0.4878,   -3.2399,   -4.6848,   -4.8321,   -4.8477,   -4.7328,   -3.7409,   -3.8307,   -4.2970,   -1.7082,   -0.8452,   -0.0806,    0.8459,    0.8652,    1.0953,    0.8740,    0.2372,    0.3505,    0.2241,    0.2872,    1.0549,    1.1304,    1.4305,    1.8117,    0.5521,   -0.1064,   -0.5914,   -0.3100,    0.4991,    1.4225,    2.4008,    2.3607,    1.2632,    1.4393,    0.4249,    1.6791,    3.7970,    5.1127,    7.7086,    8.6821,    9.1576,    7.2334,    7.1265,    6.9664,    7.3598,    7.2380,    7.5258,    8.7699,    9.4929,   10.1503,   10.8351,   14.4195,   13.7556,   14.9828,   15.3259,   15.6873,   16.3450,   16.7348,   15.9133,   17.3442,   19.0615,
24-SEP-2002 02:24:16.75 ,   -4.7280,   -3.1765,   -1.5113,   -1.2696,   -0.9429,   -2.8610,   -2.6517,   -1.8798,   -2.0169,   -1.9887,   -1.7508,   -2.1807,   -3.0847,   -1.3540,   -0.6910,   -0.2152,    0.2151,    0.5242,    0.8587,    0.7524,    0.0574,    0.2172,    0.7361,    0.2124,    0.4425,    1.0279,    1.5743,    1.7544,    1.1549,   -0.4641,   -0.8781,    0.1955,    1.4594,    0.9786,    1.7518,    1.5867,    1.3756,    1.0377,    1.0819,    0.5061,    2.4960,    2.9819,    7.1373,    8.0965,    8.8376,    6.6647,    6.2214,    6.9637,    8.3316,    7.7773,    8.0082,    9.1310,   10.1356,    9.4632,   12.0786,   13.6038,   15.3919,   15.0776,   14.6081,   15.4636,   17.0211,   17.8668,   17.4975,   18.0291,   19.5898,
24-SEP-2002 02:26:59.20 ,   -4.4213,   -2.7227,   -1.2770,   -1.1470,   -1.2098,   -2.7332,   -1.6597,   -1.1985,   -1.4318,   -1.6779,   -1.8493,   -2.2500,   -2.5344,   -1.6600,   -0.9758,   -0.5708,   -0.3197,    0.3223,    0.7994,    0.4111,    0.1541,    0.5426,    0.1368,   -0.0675,    0.0876,    0.0183,   -0.0772,    0.4796,   -0.0804,   -1.1372,   -1.2596,   -0.7677,    0.0932,    0.5298,    0.7950,    0.6973,    1.5137,    0.7363,    1.6017,    0.9245,    2.7024,    4.9941,    7.1345,    7.6777,    9.0322,    8.3669,    5.5498,    7.0457,    7.0497,    8.0297,    8.4316,    8.5570,   10.7202,   11.3208,   11.7306,   13.5691,   16.5898,   15.2493,   15.4756,   15.9690,   15.4184,   16.6540,   17.2069,   17.2658,   19.2151,
24-SEP-2002 02:29:42.94 ,   -4.9551,   -3.4883,   -2.1038,   -1.7466,   -1.1626,   -2.1374,   -1.5469,   -2.0894,   -1.9188,   -1.9466,   -2.0705,   -2.7418,   -3.0254,   -2.2662,   -1.2267,   -0.2532,    0.3859,    0.9935,    0.8012,   -0.1468,   -0.2193,    0.1210,   -0.6671,   -0.4762,   -0.0805,    0.4079,    0.7202,    0.6813,   -0.6971,   -1.5477,   -2.0347,   -0.7186,    0.8955,    1.8320,    1.8495,    1.2739,    1.3007,    0.3411,    0.7920,    0.9776,    1.5113,    2.7238,    6.8540,    7.7870,    9.3180,    7.3838,    5.9112,    8.2079,    7.6616,    7.6231,    7.7421,    8.7334,   11.6317,   10.7767,   11.0659,   13.7445,   14.9934,   14.6589,   15.0992,   15.6806,   15.3416,   16.7723,   17.3941,   18.1669,   20.1775,
24-SEP-2002 02:32:24.54 ,   -5.6814,   -4.3870,   -2.8627,   -2.2393,   -2.0083,   -2.9461,   -3.3718,   -3.9580,   -3.2867,   -3.2423,   -3.0891,   -3.9940,   -3.8300,   -1.8253,   -1.1345,    0.2450,    0.9733,    0.9809,    0.3677,   -0.2289,   -0.3874,   -0.6248,   -0.5981,   -0.8328,   -0.5569,   -0.0730,    0.1521,    0.1368,   -0.1436,   -0.7282,   -0.9534,   -0.2349,    0.8094,    0.9825,    1.7229,    1.4341,    2.5738,    0.8827,    1.0504,    2.6964,    4.6041,    6.2910,    7.2914,    8.0541,    8.5000,    6.0849,    6.3449,    8.3139,    8.3858,    7.5188,    8.8484,    9.7666,   11.8422,   11.0644,   12.6607,   14.3450,   14.3694,   14.0168,   14.6222,   15.3442,   13.8401,   16.0716,   16.4452,   17.3825,   20.2611,
24-SEP-2002 02:35:06.48 ,   -6.7603,   -6.0097,   -5.1116,   -4.4462,   -3.7136,   -4.1882,   -5.4705,   -5.9588,   -5.5136,   -4.9723,   -3.7345,   -3.8902,   -3.9450,   -1.7190,   -1.7362,   -0.0295,    0.8789,    0.4344,   -0.1456,   -0.3389,   -0.5437,   -0.8723,   -0.9262,   -0.8510,   -0.8571,   -0.4626,   -0.3804,   -0.4047,   -0.3119,   -0.6718,   -0.7973,   -0.0057,    0.1927,    0.1532,    0.6771,    0.7835,    1.1823,    0.8247,    1.5168,    3.0076,    4.2619,    5.7386,    6.9194,    7.6455,    8.3820,    5.7988,    7.2200,    7.8184,    7.5252,    6.7822,    7.5804,   10.6508,   11.4009,   10.5302,   11.2452,   13.4166,   14.9581,   14.9870,   15.3738,   16.2980,   17.0609,   17.4415,   16.9534,   17.4812,   19.8944,
24-SEP-2002 02:37:47.96 ,   -5.0447,   -4.3127,   -3.9337,   -3.8138,   -2.7725,   -2.8823,   -4.2103,   -5.3671,   -4.3438,   -3.8324,   -2.8599,   -2.7921,   -3.1249,   -1.8828,   -1.6516,   -0.8068,    0.1447,    0.1634,   -0.3073,   -0.9246,   -0.8525,   -0.4519,   -0.9746,   -0.7446,   -0.5919,   -0.2162,   -0.2149,   -0.4390,   -0.4221,   -0.8255,   -0.5614,   -0.0383,    0.3809,    0.5278,    0.9021,    1.1300,    1.8061,    1.3468,    1.3328,    1.9475,    3.6425,    4.4173,    6.7847,    8.0128,    8.1486,    6.3520,    6.5180,    7.6491,    7.6031,    7.3285,    7.6830,    8.8601,   11.0925,    8.6082,    9.3549,   10.8293,   13.6159,   14.2208,   15.8120,   16.5039,   17.8464,   17.9746,   18.3509,   18.1903,   19.9815,
24-SEP-2002 02:40:29.45 ,   -4.8458,   -3.7706,   -3.0827,   -2.9628,   -2.1933,   -2.2466,   -3.6680,   -4.7901,   -3.8626,   -4.5076,   -4.2802,   -4.4508,   -4.1273,   -1.6800,   -1.6985,   -1.5277,   -0.7546,   -0.3734,   -0.1874,   -0.6152,   -0.6083,    0.3256,   -0.6415,   -0.4173,    0.2079,    0.2054,   -0.1492,   -0.1403,   -0.2170,   -0.3941,   -0.5509,   -0.2856,    0.4138,    0.4167,    0.8727,    0.8403,    1.1072,    0.9506,    0.8259,    0.8638,    3.6429,    3.2604,    5.8863,    7.4174,    8.0894,    6.3784,    6.0039,    7.6508,    8.1768,    8.1225,    7.9354,    8.9257,   10.7586,   11.8702,   13.0871,   13.9848,   13.7057,   15.3702,   16.3461,   16.4743,   17.7929,   17.4580,   17.8262,   18.2371,   19.5045,
24-SEP-2002 02:43:11.12 ,   -5.7683,   -4.3599,   -3.6865,   -3.4609,   -3.4646,   -4.1026,   -5.8793,   -6.3051,   -7.1438,   -7.9899,   -7.6544,   -7.1465,   -5.2683,   -2.5920,   -2.9201,   -1.9497,   -0.6900,   -0.2491,    0.0360,   -0.1694,   -0.1662,    0.7664,    1.2449,   -0.5405,   -0.3744,   -0.0340,   -0.0713,    0.0749,   -0.0262,    0.0780,    0.0711,   -0.0410,   -0.2643,    0.4359,    0.9184,    1.0790,    1.9060,    1.6539,    1.5321,    2.5224,    3.4001,    4.2244,    5.0451,    6.5076,    7.4617,    6.3313,    6.1504,    7.0968,    8.0101,    8.5264,    8.5888,    8.8494,   10.1591,   10.9469,   13.2170,   13.8302,   14.4391,   14.8838,   15.7163,   16.1554,   16.7793,   17.1942,   17.5149,   17.9686,   19.4450,
24-SEP-2002 02:45:53.54 ,   -4.6347,   -2.6420,   -1.9546,   -1.5723,   -2.8164,   -3.5554,   -4.6937,   -4.9069,   -6.5556,   -6.9550,   -6.7672,   -6.6868,   -5.4115,   -3.0389,   -2.9842,   -1.3931,    0.0482,    0.3472,    0.2469,    0.1799,   -0.0632,   -0.0756,    0.1267,   -0.0780,   -0.2813,    0.1926,    0.3324,   -0.2120,   -0.1206,    0.6400,    0.0204,   -0.4140,    0.3107,    1.4603,    2.0092,    2.7550,    3.8951,    2.4639,    2.2187,    3.2157,    4.6995,    4.6819,    4.9994,    6.2730,    6.5703,    5.6043,    5.9404,    6.0604,    7.2708,    7.5208,    7.7886,    7.7969,    9.4948,    8.2600,   12.0029,   12.9117,   15.7047,   14.8827,   14.7018,   15.1197,   16.3751,   17.4760,   16.8002,   16.8544,   18.4644,
24-SEP-2002 02:48:36.29 ,   -4.2161,   -3.1939,   -2.4960,   -1.9058,   -2.9129,   -3.2842,   -4.0200,   -3.9179,   -5.3560,   -5.6759,   -5.2909,   -4.9931,   -4.1627,   -2.4719,   -2.1751,   -1.4051,   -0.3573,    0.0457,   -0.0597,   -0.5863,   -1.1211,   -1.1340,   -0.5084,   -0.4047,   -0.3339,    0.6062,    0.9026,    0.4554,    0.3392,   -0.1415,   -0.5771,   -0.3836,    0.7906,    1.8588,    2.9852,    3.0763,    2.4627,    2.9599,    3.2018,    2.2790,    3.6890,    4.2622,    4.8257,    6.8213,    8.1799,    6.8774,    5.2704,    4.0166,    7.0463,    7.4994,    7.4705,    8.4171,    9.3064,    9.3406,   11.2270,   13.6981,   15.6953,   14.6275,   14.3260,   15.9331,   16.6320,   16.5289,   16.8392,   17.4751,   18.5213,
24-SEP-2002 02:51:20.00 ,   -4.0525,   -3.6023,   -2.6995,   -2.0112,   -3.5409,   -3.8034,   -4.6780,   -4.8509,   -4.3581,   -4.2237,   -3.5606,   -3.1735,   -2.9195,   -1.7717,   -1.0562,   -0.4104,    0.0340,    0.3963,    0.4097,   -0.2954,   -0.5617,   -0.1486,    0.3156,    0.1298,    0.4065,    0.7868,    0.7089,    0.6515,    0.6123,   -0.2648,   -0.1420,    0.2479,    0.8406,    1.3451,    2.1172,    2.2578,    2.1057,    3.6554,    2.9557,    3.5962,    4.9480,    5.0768,    5.8484,    7.2970,    7.5935,    6.7564,    5.5413,    6.8732,    6.8499,    7.5709,    7.3750,    9.5062,   10.1241,    9.9802,   10.6837,   13.7238,   15.7122,   15.0529,   14.8894,   15.6035,   16.7631,   17.8080,   18.4577,   18.5136,   19.1072,
24-SEP-2002 02:54:01.42 ,   -4.3101,   -2.8028,   -2.2267,   -1.8136,   -3.4454,   -3.5487,   -3.9275,   -4.3143,   -3.8178,   -3.6093,   -3.2046,   -3.1679,   -3.2403,   -1.3596,   -0.5727,   -0.1491,    0.0893,    0.5256,    0.6829,    0.5995,    0.2648,    0.4519,   -0.3412,   -0.2686,    0.5921,    1.1626,    0.9051,    0.6923,    0.7453,    0.3358,    0.0139,    0.2076,    0.8315,    2.7226,    3.7036,    3.3883,    3.4056,    3.0214,    2.7706,    2.4205,    3.9875,    5.2132,    5.8621,    7.0730,    7.4183,    6.3539,    5.6981,    7.4931,    6.9178,    7.4724,    7.2546,   10.3390,   10.6080,   11.0960,   12.4694,   14.5393,   15.6596,   14.8796,   15.1000,   15.6829,   16.8933,   17.7085,   18.8156,   19.2389,   19.4863,
24-SEP-2002 02:56:44.49 ,   -5.0459,   -2.5126,   -1.8201,   -2.5677,   -2.9304,   -2.9005,   -3.1158,   -2.9512,   -3.0657,   -3.1713,   -3.3610,   -3.3098,   -2.8302,   -0.8658,   -0.4403,    0.1669,    0.9799,    1.2079,    0.7392,    0.2850,   -0.0208,    0.2808,    0.0477,   -0.0424,    1.1280,    1.5013,    0.6310,    0.1726,    0.0701,   -0.1071,   -0.1662,   -0.2617,    1.0723,    3.0412,    4.0451,    3.9770,    3.9238,    3.7800,    3.7979,    3.4778,    5.0352,    6.0686,    6.5001,    7.1797,    8.2048,    6.8246,    6.3358,    6.6144,    6.8846,    8.4799,    8.2715,    9.4699,   10.8704,   11.7666,   12.6536,   14.6268,   15.7976,   15.0751,   14.8848,   15.6931,   17.3919,   18.2378,   17.7472,   17.7357,   18.4418,
24-SEP-2002 02:59:26.81 ,   -4.8927,   -3.8353,   -2.7322,   -2.8129,   -2.8288,   -3.3800,   -4.2750,   -4.0726,   -4.3352,   -4.5761,   -4.6721,   -4.5370,   -3.5270,   -1.2040,   -0.5369,    0.3108,    1.0078,    1.3500,    1.1095,    0.7210,    0.5374,    0.7236,    0.3107,    0.5785,    1.0543,    1.3607,    1.5710,    1.6004,    0.6451,   -0.1428,    0.2080,    0.4628,    1.3670,    2.9667,    4.0210,    3.5521,    4.2353,    4.2863,    4.3905,    3.1849,    4.4205,    5.4372,    6.2954,    7.4654,    7.9406,    6.7251,    6.2091,    6.2364,    6.7751,    7.8578,    7.6118,    8.4486,   10.5010,   10.0748,   10.8375,   13.1613,   14.8656,   15.3887,   15.0985,   15.6947,   16.1825,   17.3584,   16.8074,   17.0972,   18.2948,
24-SEP-2002 03:02:08.87 ,   -4.5081,   -3.9176,   -3.0047,   -2.5135,   -2.5885,   -4.4198,   -5.6316,   -5.8684,   -6.6589,   -7.4141,   -6.7363,   -6.0413,   -4.5318,   -2.1120,   -0.9964,    0.2759,    0.6424,    0.9290,    1.1612,    1.4832,    1.3102,    1.1191,    0.8274,    0.9249,    0.9801,    1.2485,    2.0335,    2.2578,    1.6655,    0.2888,    0.4729,    1.5466,    1.9568,    2.7689,    2.8238,    3.3751,    5.0261,    5.7979,    5.2243,    3.9713,    3.4761,    4.0940,    5.4331,    6.7355,    7.0305,    5.5851,    5.1386,    6.5981,    7.9683,    8.5541,    8.0113,    8.6730,    9.0595,    9.5255,   11.3709,   12.6261,   13.6490,   13.7089,   13.6247,   14.4761,   15.5101,   17.3673,   17.1990,   17.2722,   17.5258,
24-SEP-2002 03:04:50.34 ,  999.0000,  999.0000,   -3.1851,   -2.2669,   -2.3717,   -3.8060,   -4.7138,   -5.1251,   -5.5301,   -6.5910,   -5.8505,   -4.9704,   -4.2083,   -2.6645,   -1.0957,    0.2182,    1.2229,    1.2773,    0.9846,    0.8354,    0.5458,    0.5992,    0.5177,    0.3028,    0.4950,    0.4243,    0.6836,    0.7357,    0.7052,    0.7201,    0.6202,    0.9275,    2.1194,    2.5486,    2.8095,    3.7969,    4.4231,    4.4854,    3.4132,    3.1585,    2.2364,    4.6779,    4.7244,    5.2970,    6.6543,    6.0572,    5.2318,    6.7638,    7.2105,    7.5274,    7.4061,    8.0859,    9.1134,    9.1105,   11.2330,   13.8110,   13.5066,   13.8621,   13.7105,   14.6561,   15.9916,   16.3502,   16.5301,   16.4512,   16.6518,
24-SEP-2002 03:07:32.37 ,  999.0000,  999.0000,   -0.9286,   -0.5772,   -1.5532,   -2.1594,   -2.4422,   -3.5798,   -4.2722,   -5.3277,   -5.4752,   -4.3575,   -3.6133,   -2.4504,   -0.8311,   -0.3028,    0.5643,    1.2825,    1.1795,    0.5847,    0.1728,    0.2739,    0.6000,    0.3869,    0.6609,    0.9351,    0.7327,    0.3889,    0.0936,   -0.0307,    0.0859,    0.3465,    2.3288,    2.9983,    3.0986,    3.5975,    3.7481,    2.6407,    1.6083,    1.3661,    3.2151,    4.8444,    3.4328,    5.0420,    6.9196,    4.8134,    4.4794,    5.3828,    6.2131,    6.8151,    6.1971,    6.9808,    9.3016,    7.7544,   10.3389,   12.7507,   13.9721,   12.4585,   11.4894,   13.3926,   16.1831,   16.0295,   16.7317,   15.9405,   16.7149,
24-SEP-2002 03:10:13.98 ,   -1.6441,   -1.0179,   -0.9555,   -1.3030,   -1.6862,   -1.9016,   -2.7361,   -3.5995,   -4.5029,   -4.5936,   -4.4854,   -3.2240,   -2.0017,   -1.2790,   -0.4605,    0.2890,    0.9187,    1.7308,    1.6935,    1.2552,    0.8317,    0.6463,    0.7203,    0.6655,    0.8727,    1.0540,    1.0915,    0.4632,   -0.1657,    0.5430,    0.8541,    1.2359,    2.1226,    3.0418,    3.2805,    3.3193,    4.1709,    2.2107,    1.3991,    0.6858,    2.6691,    3.6863,    4.5377,    6.1938,    7.1995,    5.0436,    4.5453,    4.6026,    6.5050,    7.5868,    7.0392,    6.8292,    8.6141,    9.8160,   10.3939,   11.1597,   12.4613,   12.0639,   11.8763,   14.6877,   15.0187,   15.2443,   14.9414,   14.8511,   17.1724,
24-SEP-2002 03:12:56.25 ,   -4.0341,   -3.6969,   -3.3099,   -2.9159,   -3.4976,   -3.9780,   -4.6413,   -4.9332,   -5.4348,   -4.9065,   -3.2408,   -2.1981,   -1.0715,   -0.6322,    0.5148,    1.1545,    1.8495,    2.2316,    1.6978,    1.4780,    1.1292,    0.6997,    0.9769,    0.6997,    1.3728,    1.4400,    1.1877,    1.2645,    0.9561,    0.3437,    0.4769,    1.6576,    3.9230,    4.1083,    3.5237,    3.0241,    3.0270,    2.1247,    2.5313,    1.9616,    1.9918,    3.3387,    4.8957,    5.4156,    6.9064,    5.4549,    4.6999,    4.3232,    6.4021,    6.4835,    5.9466,    7.3929,    7.5947,    9.1776,   11.0440,   11.5813,   11.4447,   11.9170,   12.8700,   16.2083,   15.5097,   15.1391,   14.6754,   15.4427,   16.0960,
24-SEP-2002 03:15:39.43 ,   -5.8595,   -5.3846,   -4.7308,   -3.3984,   -3.5721,   -4.2954,   -4.4085,   -4.6509,   -5.3976,   -5.6001,   -3.7509,   -2.7046,   -2.0251,   -1.2160,    0.6424,    1.4342,    2.2701,    2.4076,    1.5997,    1.2255,    1.0520,    0.8116,    0.9871,    0.8020,    0.9128,    0.9082,    1.0918,    0.6459,    0.2448,    0.0650,    0.8080,    2.8860,    3.8901,    4.4406,    4.6882,    3.6638,    3.9318,    3.0375,    2.4230,    2.7780,    3.2344,    4.0024,    5.6500,    3.5289,    5.5239,    3.6502,    3.9396,    4.6005,    7.0793,    7.1302,    6.6034,    6.3910,    7.6459,    8.1505,    9.9517,   10.9582,   12.5314,   12.8976,   13.1905,   14.8734,   15.4846,   15.8535,   15.3070,   16.1335,   16.1376,
24-SEP-2002 03:18:25.00 ,   -5.7279,   -5.3055,   -4.5663,   -3.3341,   -3.5279,   -3.9146,   -3.9548,   -4.0793,   -4.3443,   -4.6779,   -4.9871,   -4.2511,   -2.7776,   -1.7975,   -0.3950,    1.1446,    2.4943,    2.6979,    2.0449,    1.5539,    1.1820,    1.0017,    0.8734,    0.9047,    1.5413,    1.3788,    0.9508,    0.3506,   -0.0197,    0.2514,    0.3482,    1.1047,    2.7295,    3.1118,    3.4831,    3.0057,    3.4244,    2.4631,    1.4583,    4.8242,    5.6204,    5.1998,    6.0291,    4.1142,    3.2680,    1.4042,    1.4609,    5.4685,    7.4242,    7.4468,    7.2351,    6.0466,    8.7405,   10.0465,   11.8630,   12.9943,   14.2058,   14.2632,   15.2028,   15.7958,   16.3290,   16.2799,   16.4109,   16.5607,   16.2545,
24-SEP-2002 03:21:06.24 ,   -4.5079,   -4.0792,   -3.3437,   -2.6510,   -2.9442,   -3.0583,   -3.6586,   -3.8733,   -4.2243,   -5.0169,   -6.5700,   -5.9560,   -3.0486,   -1.9776,   -0.8006,    0.7782,    1.8045,    1.7940,    1.6642,    1.2359,    0.6540,    0.3527,    0.5218,    0.0791,    0.4148,    0.6229,    0.4964,    0.1810,   -0.1417,    0.5070,    0.6530,    1.4153,    2.4966,    4.0908,    4.2643,    3.4146,    3.1770,    1.8801,    1.2186,    3.0366,    4.9731,    4.8829,    5.8485,    7.5127,    7.2174,    4.4441,    3.9344,    5.7742,    7.0171,    7.5672,    6.7333,    7.3613,    8.7714,   11.1661,   12.4989,   12.8100,   13.6496,   13.6720,   13.4706,   14.6428,   16.8719,   17.2414,   16.8504,   15.6870,   16.0751,
24-SEP-2002 03:23:47.93 ,   -2.6780,   -2.6188,   -2.3748,   -2.2976,   -2.6498,   -2.7507,   -3.7341,   -4.1232,   -4.9521,   -5.8606,   -5.7102,   -5.5716,   -3.1725,   -1.5273,   -0.5778,    0.4242,    0.8205,    0.7011,    0.9058,    0.4089,   -0.2217,   -0.0377,   -0.0516,    0.1674,    1.1072,    1.2177,   -0.0294,    0.0410,    0.3458,    0.1640,    0.4078,    1.5262,    2.9249,    4.9173,    5.1318,    4.2096,    3.8816,    2.9563,    1.7921,    2.7049,    3.7160,    4.0374,    5.8144,    7.8243,    6.0873,    3.7518,    1.6845,    5.7381,    6.6784,    6.4414,    6.0988,    6.9947,    8.2524,   11.1011,   12.1056,   11.9379,   13.2353,   13.4459,   13.0769,   14.7474,   16.7574,   17.0342,   16.6882,   15.5392,   15.5793,
24-SEP-2002 03:26:29.30 ,   -3.3237,   -1.5538,   -1.4858,   -1.9321,   -2.7361,   -3.0036,   -4.0331,   -4.0633,   -4.9089,   -5.5160,   -5.1648,   -5.0032,   -2.8137,   -0.9146,   -0.4997,    0.0785,    0.5715,    0.9532,    0.9624,    0.5343,    0.0057,   -0.0018,   -0.1201,   -0.3147,    0.1999,    0.2147,   -0.1034,   -0.1158,    0.1058,   -0.0574,   -0.2749,    1.0548,    3.4768,    4.9290,    4.9336,    4.6034,    4.4733,    3.3986,    2.0351,    4.4388,    5.2063,    4.6475,    6.0013,    7.1571,    6.7641,    3.6130,   -0.3395,    5.0452,    5.9543,    5.4074,    5.5311,    6.2159,    7.2696,   10.0768,    9.4710,   10.8904,   12.5422,   12.6564,   13.4868,   14.7955,   14.9241,   15.5385,   15.7125,   15.9020,   15.8982,
24-SEP-2002 03:29:10.78 ,   -3.5037,   -1.3727,   -1.4704,   -1.5760,   -2.0186,   -2.5494,   -3.6997,   -3.2909,   -3.7203,   -3.4964,   -3.7485,   -3.6374,   -1.8115,   -0.7573,   -0.3137,    0.2726,    1.3503,    1.9701,    1.3225,    1.1220,    0.4987,   -0.1516,    0.3662,   -0.3673,    0.2143,    0.8235,    0.0581,   -0.3216,    0.2030,   -0.0217,    0.2540,    0.9417,    2.6595,    3.2863,    3.2822,    2.8157,    3.5266,    2.4029,    1.0284,    3.0895,    4.5086,    3.0672,    5.5772,    7.0764,    5.6390,    0.7739,    0.9984,    4.3551,    5.7739,    5.8099,    5.9532,    6.3121,    6.6585,   10.4855,    9.7063,   10.6397,   12.3538,   13.0687,   13.3910,   14.5857,   14.7109,   15.6659,   14.5381,   14.2603,   14.8413,
24-SEP-2002 03:31:53.27 ,   -2.7615,   -1.8223,   -1.6909,   -2.0140,   -2.5774,   -3.2321,   -3.5069,   -3.3832,   -3.4971,   -3.5075,   -4.1557,   -3.2216,   -2.1667,   -1.3793,   -0.2013,    0.9376,    2.1217,    2.1868,    1.7155,    1.4929,    0.7529,    0.0855,    0.3002,   -0.3631,    0.2546,    1.1963,    1.0051,    0.4038,   -0.0266,   -0.6826,    0.0970,    1.2592,    2.7641,    3.2458,    2.5836,    2.6092,    3.1652,    2.3089,    2.9567,    2.6165,    4.4571,    3.6491,    4.8869,    5.5597,    2.2040,    0.2927,    2.9032,    5.0294,    6.5746,    6.6181,    5.6595,    5.5826,    7.7727,    9.0206,    9.0590,    9.3155,   11.3408,   11.8096,   13.4036,   14.3421,   15.1227,   14.7993,   13.3919,   13.8912,   15.0297,
24-SEP-2002 03:34:34.79 ,   -5.1063,   -2.7897,   -2.2067,   -2.3546,   -2.7343,   -3.3273,   -3.7767,   -3.9891,   -4.7178,   -5.7263,   -6.0385,   -4.6071,   -2.6971,   -1.4395,   -0.0258,    0.9891,    1.7792,    1.6944,    1.6057,    1.3830,    0.7484,    0.4438,    0.6374,   -0.1182,    0.8464,    2.1081,    2.3498,    1.8149,    0.7510,    0.1284,    0.4967,    1.9511,    3.4988,    4.0556,    3.1610,    2.4616,    2.7482,    1.7500,    2.9185,    2.3245,    3.7088,    3.8364,    4.4002,    5.9975,    2.5737,    1.7565,    2.4178,    4.2724,    6.1673,    6.2543,    5.2687,    5.4149,    6.8050,    8.3158,   10.2454,   10.5784,   12.1087,   13.1865,   13.9396,   14.6786,   15.5670,   16.1353,   15.3105,   15.0595,   17.4904,
24-SEP-2002 03:37:16.23 ,   -6.6646,   -4.5387,   -2.9585,   -2.6068,   -3.0094,   -3.7573,   -3.9094,   -4.3408,   -5.2938,   -6.5658,   -6.3273,   -4.7601,   -1.9282,   -0.6065,    0.1264,    0.9114,    1.2034,    1.4746,    1.3102,    0.9621,    0.3543,    0.2762,    0.7409,    0.1773,    0.9803,    1.8423,    1.5352,    1.0127,    1.0187,    0.6876,    1.6027,    2.9947,    4.0916,    4.1986,    3.6937,    2.1660,    1.5850,    3.0937,    1.8971,    2.6991,    4.2046,    2.8294,    4.4281,    6.0234,    4.4125,    4.7872,    2.8700,    4.3284,    5.6609,    5.8592,    4.3545,    4.6156,    8.1271,    9.3800,   10.1475,   10.9046,   13.1918,   13.4154,   15.1277,   14.8123,   14.5032,   15.5790,   17.5234,   16.6048,   18.0224,
24-SEP-2002 03:39:58.25 ,   -5.7441,   -4.5677,   -3.0014,   -2.6923,   -3.4397,   -4.0695,   -4.7517,   -5.8449,   -6.0371,   -7.0006,   -6.7177,   -4.2175,   -1.1126,   -0.0052,    0.7466,    1.4000,    1.4720,    1.3964,    1.1356,    0.7370,   -0.0370,   -0.2449,    0.0940,   -0.0733,    0.6336,    0.8509,    1.1995,    1.2887,    1.2922,    0.1807,    0.6577,    1.9900,    3.0541,    3.1759,    3.1508,    2.4067,    1.5157,    2.0020,    1.2106,    1.9756,    4.2889,    2.3312,    4.0852,    3.8945,    2.4889,    1.7740,    0.5373,    3.5531,    4.4732,    4.8262,    4.4924,    5.1995,    8.4862,    7.9616,    8.5700,    9.0415,   11.9251,   14.3227,   14.4364,   15.0964,   15.7526,   15.7312,   16.0552,   15.6674,   17.4290,
24-SEP-2002 03:42:39.94 ,   -5.2985,   -4.8168,   -4.1750,   -2.8429,   -3.2627,   -3.5784,   -4.6411,   -5.7542,   -6.0677,   -6.8681,   -5.3530,   -2.9965,   -0.5572,    0.8977,    1.5754,    1.9360,    1.7621,    1.7744,    1.6298,    0.7693,   -0.2227,   -0.4894,    0.2004,   -0.4421,    0.5869,    0.7053,    0.8843,    0.8889,    0.6309,    0.0669,   -0.3761,    1.0283,    2.4881,    2.9011,    2.7061,    2.9394,    2.4376,    2.4511,    0.2773,    2.2746,    4.5966,    4.7152,    3.8484,    5.3034,    3.9351,    3.5575,    1.8217,    5.6291,    5.8093,    6.3129,    4.0021,    5.1466,    7.0530,    9.2026,    9.6290,    9.9666,   11.8757,   13.5087,   14.6420,   15.8985,   16.3934,   16.6319,   16.0422,   15.9727,   17.0676,
24-SEP-2002 03:45:22.36 ,  999.0000,  999.0000,  999.0000,   -2.5701,   -2.8638,   -2.9941,   -3.0671,   -3.3354,   -4.3420,   -4.3670,   -2.8967,   -1.9725,   -0.9153,    0.9863,    1.2758,    1.9175,    1.9356,    1.8309,    1.3571,    0.5796,   -0.1393,   -0.6081,    0.0832,   -0.5274,   -0.2678,   -0.3054,   -0.6187,   -0.6204,   -0.1409,   -0.4149,   -0.9377,    0.7068,    2.4471,    2.6065,    2.2940,    2.6476,    2.6765,    2.2184,    2.0347,    2.0538,    2.8935,    2.6572,    3.6708,    6.5244,    5.2611,    2.6380,    4.1483,    4.7615,    5.1854,    5.4071,    4.7409,    4.1211,    4.6549,    8.1979,    9.8083,   10.4750,   11.8889,   12.7493,   13.8304,   14.9051,   14.7432,   15.0354,   15.9223,   16.9118,   17.7967,
24-SEP-2002 03:48:04.17 ,  999.0000,  999.0000,  999.0000,   -1.8804,   -3.1364,   -3.7583,   -3.8574,   -3.6853,   -4.1969,   -3.9774,   -3.0104,   -1.8755,   -1.0278,    0.6046,    1.7909,    1.9602,    1.8314,    1.2107,    0.7158,    0.5586,   -0.0946,   -1.2073,   -0.9287,   -1.2912,   -0.6027,   -0.7154,   -0.8663,   -0.6797,   -0.2849,   -0.9221,   -1.0888,    0.6306,    2.3352,    2.9613,    2.6953,    3.0495,    2.9400,    2.5723,    2.4564,    3.0656,    3.4311,    3.0425,    4.4173,    5.7311,    3.9441,    3.6777,    5.3056,    6.0346,    6.7636,    7.2541,    6.1955,    5.9649,    6.3515,   10.1478,   11.0791,   11.5418,   12.9279,   13.9725,   14.0194,   14.5727,   15.5180,   16.4216,   16.3709,   16.3484,   18.9951,
24-SEP-2002 03:50:46.20 ,   -4.1528,   -3.1041,   -1.9525,   -1.2620,   -1.8292,   -2.7820,   -3.9005,   -4.3901,   -5.2713,   -4.6549,   -3.8235,   -2.0735,   -1.1855,    0.0745,    1.5852,    1.8697,    1.7172,    1.3042,    0.9027,    0.5138,   -0.0186,   -0.8431,   -0.4793,   -1.0804,   -1.3332,   -0.7588,   -0.3394,   -0.0836,   -0.2890,   -1.1408,   -1.3245,   -0.1765,    1.2407,    3.5065,    4.9778,    4.8358,    3.1684,    4.0508,    3.4578,    3.6410,    4.5680,    5.2469,    6.2143,    6.8181,    5.7777,    1.9674,    3.4312,    6.4338,    7.9175,    8.0641,    6.4706,    7.8801,    8.2834,    9.3602,    9.2336,   11.7378,   13.5410,   14.4505,   14.6021,   14.9092,   16.1864,   16.0662,   15.3745,   17.4052,   19.4123,
24-SEP-2002 03:53:27.64 ,   -6.0453,   -4.4691,   -2.1693,   -0.7595,   -1.1419,   -1.3801,   -3.0227,   -3.9330,   -4.8683,   -3.6923,   -4.0288,   -2.3461,   -0.8878,    0.1880,    1.3300,    1.7043,    1.6564,    1.5279,    1.4238,    0.7831,    0.0182,   -0.4093,   -0.2816,   -1.0973,   -1.4841,   -1.5667,   -1.5165,   -1.0753,   -0.8560,   -0.8661,   -0.6159,    0.4767,    2.0969,    3.4911,    5.2816,    5.0304,    3.6513,    4.8572,    4.2643,    4.1074,    6.0768,    5.7581,    5.5369,    6.4536,    6.7389,    4.4122,    5.9657,    7.4041,    7.7066,    7.0230,    6.1251,    6.8969,    7.9952,    7.7826,   10.5554,   11.0798,   10.5759,   12.7857,   15.3399,   15.7460,   16.4997,   14.9988,   13.9728,   16.7034,   17.1820,
24-SEP-2002 03:56:09.43 ,   -6.1336,   -4.3466,   -2.4408,   -1.0354,   -1.9464,   -2.3844,   -3.3419,   -4.1743,   -4.3798,   -3.5880,   -3.8617,   -2.5038,   -0.7201,    0.4992,    1.4267,    1.2360,    0.9751,    1.2034,    1.3732,    0.6766,    0.0312,   -0.4273,   -0.7861,   -1.9838,   -1.6438,   -1.5983,   -1.1347,   -0.7442,   -0.9463,   -0.7585,   -0.3039,    0.7872,    2.7723,    4.4048,    4.7984,    3.9829,    2.4906,    3.4120,    2.7105,    3.5373,    4.8134,    4.8458,    4.7389,    5.2237,    4.6050,    2.6233,    3.2014,    5.2373,    7.9565,    5.8550,    5.2277,    5.9606,    8.9666,    8.3627,   10.4888,   11.8036,   11.7653,   14.1487,   15.0732,   14.8393,   14.9770,   15.0752,   15.8154,   18.1199,   20.6594,
24-SEP-2002 03:58:51.26 ,   -3.7189,   -1.9070,   -1.9626,   -1.4388,   -2.1836,   -3.1751,   -3.6944,   -4.0702,   -4.4817,   -3.7003,   -3.0697,   -2.7182,   -1.5780,   -0.1046,    0.5046,    0.3956,    0.3904,    0.6509,    0.4568,   -0.2675,   -0.7950,   -1.1921,   -1.5110,   -1.7715,   -1.0771,   -0.8670,   -1.3567,   -1.0055,   -0.8029,   -1.3867,   -0.2813,    1.4936,    2.7587,    2.9356,    3.2778,    2.8856,    2.0191,    0.5994,    0.7976,    2.2145,    3.3738,    5.0362,    6.4325,    7.0962,    6.5759,    6.1578,    5.1746,    6.8855,    8.3472,    8.4238,    6.4995,    6.9397,    8.4289,    9.8421,   11.0086,   11.9078,   13.7725,   14.7045,   15.7307,   14.6297,   14.7714,   15.8456,   17.8747,   21.8369,   26.2570,
24-SEP-2002 04:01:36.29 ,   -4.5237,   -2.9318,   -2.6037,   -2.2855,   -2.4208,   -3.5095,   -3.5705,   -3.6011,   -4.4361,   -4.4304,   -3.6767,   -3.0918,   -1.6779,    0.2169,    1.1238,    0.8592,    1.0451,    0.9259,    0.2935,   -0.3218,   -1.1198,   -1.6459,   -0.9139,   -1.3504,   -0.9900,   -1.3367,   -1.7982,   -0.9300,   -0.7432,   -0.7477,    0.0499,    0.8995,    2.3009,    4.1130,    4.2582,    3.3423,    1.5535,    0.7344,    1.2480,    2.4479,    2.3258,    4.9909,    5.4318,    5.9283,    6.8444,    5.0810,    4.6687,    8.3047,    8.7187,    8.1273,    6.3640,    5.9273,    7.5966,    9.8938,    9.9075,   11.5003,   12.7554,   14.5963,   15.4953,   14.9610,   14.5719,   15.4244,   15.7874,   14.6915,   15.7011,
24-SEP-2002 04:04:17.89 ,   -6.7607,   -5.4090,   -3.8843,   -3.0916,   -3.0249,   -3.4757,   -3.5451,   -4.3689,   -5.2877,   -5.1708,   -4.3065,   -3.0806,   -1.0539,    0.4874,    1.4333,    1.0234,    1.2135,    1.5741,    1.1786,    0.8030,   -0.2334,   -1.1794,    0.0728,   -0.2086,   -0.3743,   -0.1267,   -0.0175,    0.1061,    0.2126,   -0.0087,   -0.1227,    1.4992,    3.5201,    3.8381,    3.2921,    2.4047,    0.9417,    0.2374,    0.6445,    1.2011,    2.3389,    4.6524,    5.5847,    5.5639,    5.8504,    3.2511,    1.5701,    5.6197,    6.9307,    5.8433,    4.4120,    5.6005,    7.9511,    9.2816,    9.5332,   11.2409,   13.1351,   14.5534,   14.8520,   14.7450,   14.7778,   14.6301,   14.2955,   14.6918,   16.3711,
24-SEP-2002 04:06:59.56 ,   -5.0403,   -3.6881,   -2.2996,   -2.3938,   -3.2326,   -3.1545,   -3.6403,   -4.4974,   -4.5196,   -3.5791,   -3.2883,   -3.4633,   -1.3802,    0.3375,    1.1081,    1.2938,    1.4276,    1.6097,    1.6242,    1.7390,    0.6926,   -0.3509,    0.7243,    0.6464,    0.4590,    0.3513,    0.3197,    0.3225,    0.3373,    0.2202,    0.1784,    2.4120,    3.6844,    3.4843,    3.1097,    2.2454,    0.9651,    0.8069,    1.4610,    2.0570,    3.7809,    4.0754,    4.1996,    5.1576,    3.5829,    2.3040,    2.4423,    3.2931,    7.1929,    7.2332,    4.6722,    6.4730,    8.2002,    8.1890,    9.0347,   11.2562,   11.7408,   13.9456,   13.6932,   14.0457,   13.5962,   13.2024,   12.9749,   13.0829,   16.1356,
24-SEP-2002 04:09:41.71 ,   -3.4617,   -1.6859,   -1.1956,   -1.2543,   -2.3765,   -3.3414,   -4.0729,   -4.4316,   -4.0316,   -1.9932,   -1.8025,   -2.7882,   -0.5187,    1.1671,    1.1710,    1.4854,    1.2783,    0.9659,    1.0486,    1.3236,    0.6130,   -0.2953,    0.8059,    0.6382,    0.3763,    0.2615,   -0.0032,    0.1114,    0.3938,    0.3651,    0.3228,    2.0521,    3.1716,    3.9592,    2.3950,    1.3026,    1.6765,    1.2531,    2.3075,    4.0910,    4.6141,    4.0436,    4.4701,    5.6516,    6.8925,    4.3041,    5.5242,    6.4938,    7.4244,    7.1977,    5.4762,    6.5156,    7.9210,    9.1442,   10.5921,   10.3681,   10.2203,   12.8309,   13.6451,   12.8470,   12.2355,   11.8622,   12.5901,   13.3808,   14.9286,
24-SEP-2002 04:12:23.98 ,   -3.0094,   -2.4514,   -2.1064,   -1.8475,   -2.5146,   -3.5674,   -4.1530,   -4.5147,   -4.6013,   -2.6955,   -2.0150,   -1.2466,   -0.2089,    1.1278,    1.0399,    0.9771,    1.0321,    1.1089,    0.5691,    0.5318,    0.2170,   -0.3494,    0.3037,    0.1292,    0.1901,    0.3533,   -0.1720,   -0.4471,   -0.2239,   -0.1638,    0.4183,    2.3512,    3.3811,    3.8542,    3.9597,    3.6578,    3.3272,    2.3968,    2.2397,    3.7253,    4.0338,    3.8971,    4.6955,    5.6212,    5.7583,    5.2398,    5.2945,    5.9983,    5.6538,    6.1083,    6.1328,    6.0196,    7.6472,    8.3867,    9.5677,    7.7627,    8.6823,    9.5425,    9.7522,    9.6761,    9.7210,    9.8319,    9.6503,   10.5414,   11.4783,
24-SEP-2002 04:15:05.95 ,   -4.0908,   -3.2831,   -2.6127,   -2.5220,   -2.4711,   -3.3942,   -4.0613,   -4.5620,   -4.9904,   -4.4000,   -3.5786,   -1.9191,   -1.0021,    0.3537,    0.9776,    0.7645,    0.7983,    0.9037,    0.5498,    0.4303,   -0.0504,   -0.4745,   -0.0802,   -0.9737,   -0.9740,   -0.4773,   -0.1792,   -0.3855,   -0.3574,   -0.4444,    0.0532,    1.8464,    3.2633,    4.2453,    4.0637,    3.4905,    2.4948,    2.3339,    3.0304,    3.3500,    4.3445,    5.0163,    5.5596,    5.2813,    3.8302,    2.9316,    2.7255,    5.5635,    3.4188,    4.6665,    6.9105,    6.6248,    9.0454,   10.2633,   11.0936,   11.1218,   13.1746,   12.5750,   13.7579,   12.9323,   12.3876,   12.5044,   12.2159,   12.9406,   15.3066,
24-SEP-2002 04:17:48.23 ,   -6.4215,   -5.3099,   -3.5929,   -3.8094,   -3.5390,   -4.0813,   -4.0740,   -4.4512,   -4.7493,   -4.2075,   -2.9276,   -1.6244,   -0.7673,    0.7123,    1.2769,    1.1096,    0.6359,    0.1251,    0.1447,   -0.0535,   -0.9353,   -1.4004,   -0.7846,   -1.7874,   -1.7217,   -1.7545,   -1.6462,   -0.9215,   -0.5761,   -0.7039,   -0.4193,    0.8061,    1.3571,    3.0879,    3.7963,    3.7974,    2.7721,    1.7161,    2.1376,    2.5616,    4.0962,    4.6452,    5.3052,    4.9018,    4.8984,    4.0761,    3.8617,    6.0560,    7.6876,    6.9739,    5.3786,    4.1538,    5.2387,    8.5915,    9.2276,    9.9349,   11.5021,   12.7339,   13.1111,   13.6868,   13.2838,   12.0864,   11.5077,   12.3063,   14.6702,
24-SEP-2002 04:20:29.63 ,   -5.9130,   -5.2712,   -3.7933,   -4.9126,   -4.9128,   -4.8767,   -4.9819,   -5.1865,   -5.1844,   -4.3193,   -3.2439,   -2.4704,   -1.1874,    1.2726,    1.8480,    1.5865,    1.1038,    0.6386,    0.5898,    0.5619,   -0.6199,   -1.4576,   -0.4964,   -1.2405,   -1.0997,   -0.6933,   -1.5675,   -1.4516,   -0.7008,   -0.3923,    0.4359,    1.2261,    3.1104,    3.5138,    2.4938,    2.7132,    2.3753,    1.8685,    3.0215,    3.2927,    4.3098,    4.1253,    3.9663,    4.6692,    4.2458,    3.5598,    4.1639,    6.2230,    7.4667,    6.6274,    5.5320,    3.8782,    4.0542,    7.7404,    7.8995,    8.5686,    9.7373,   11.3351,   11.7680,   12.8738,   12.1125,   10.3313,   11.0851,   13.1203,   15.2462,
24-SEP-2002 04:23:11.70 ,  999.0000,  999.0000,   -3.8368,   -4.0827,   -3.7132,   -4.5151,   -4.8645,   -5.4153,   -5.5635,   -4.5800,   -3.8378,   -3.4165,   -1.3725,    0.9009,    2.2301,    2.1392,    1.7836,    1.5636,    1.3725,    1.2127,    0.2896,   -0.6409,   -0.1487,   -0.8844,   -0.8500,   -0.3954,   -0.5414,   -0.6879,   -0.2663,    0.3457,    1.6388,    3.5568,    5.0194,    5.2415,    3.3569,    2.9360,    2.9363,    1.5520,    2.5811,    3.0066,    3.4429,    3.8951,    4.7141,    4.9229,    3.2202,    0.5362,    3.0777,    6.3193,    6.9611,    6.7873,    5.7611,    5.8879,    6.9496,    8.3684,    8.1233,    8.4436,    9.9826,   11.5330,   12.1762,   12.7280,   12.8339,   12.9264,   13.0992,   14.7303,   16.2595,
24-SEP-2002 04:25:54.86 ,  999.0000,  999.0000,   -2.2433,   -3.3624,   -3.0623,   -4.0256,   -4.2462,   -4.7072,   -4.9072,   -4.0447,   -3.6543,   -2.7302,   -0.9551,    0.6712,    2.7430,    2.7118,    2.2426,    1.4944,    0.5627,    0.2485,   -0.5051,   -0.8906,    0.1136,   -0.5818,   -0.7357,   -0.6905,   -0.7675,   -0.3063,    0.1731,    0.3921,    1.4732,    4.0634,    5.7736,    5.2544,    3.3951,    2.9111,    2.6560,    2.6928,    2.8766,    3.4205,    3.4554,    3.9252,    4.4340,    4.9414,    3.9853,    1.4685,    3.5689,    5.7742,    6.6664,    7.2162,    5.9637,    7.4228,    7.5437,   10.1358,   11.1321,    9.8066,   11.3854,   13.2525,   13.1092,   13.8568,   13.4297,   12.9688,   13.2305,   14.5179,   16.2237,
24-SEP-2002 04:28:37.58 ,   -4.6522,   -2.5395,   -0.3360,   -2.1590,   -3.5691,   -3.7594,   -4.1195,   -4.1836,   -4.1702,   -3.7776,   -2.9175,   -2.2799,   -0.3482,    1.5308,    3.4760,    2.9193,    1.5720,    1.1758,    0.8304,    0.4048,   -0.4598,   -0.7318,   -0.5681,   -0.6301,   -1.0124,   -1.1527,   -1.2267,   -0.6177,    0.2157,    1.0089,    2.5452,    4.4119,    5.2845,    5.1247,    3.5282,    2.5721,    3.0614,    2.9947,    3.4549,    3.4211,    4.3806,    4.2384,    4.2893,    4.9504,    3.2925,    3.9610,    4.5154,    6.0787,    6.0501,    4.9859,    4.8738,    6.1763,    7.4048,   10.3570,    9.9464,    9.6449,   11.3722,   12.2520,   13.1135,   13.7933,   12.9844,   13.8337,   13.0407,   15.4267,   16.6140,
24-SEP-2002 04:31:19.65 ,   -3.3475,   -2.4725,   -1.0578,   -1.3723,   -3.4765,   -3.5933,   -4.0378,   -4.4690,   -4.1645,   -3.2787,   -1.9890,   -1.1100,    0.5859,    2.2223,    3.3222,    2.4646,    1.2368,    0.9279,    1.0083,    0.4043,   -0.1292,   -0.5568,   -0.6757,   -0.6776,   -0.6133,   -0.8302,   -1.1840,   -0.7872,    0.0496,    0.4558,    2.3955,    3.9499,    4.6935,    4.6544,    4.0390,    3.2815,    3.5135,    2.9847,    4.2380,    4.2789,    5.4322,    5.1414,    5.6111,    6.1360,    5.9006,    3.7663,    4.5276,    6.1524,    6.2702,    5.6376,    5.6594,    7.2333,    7.9048,    9.9107,   10.1551,    9.7866,   11.0874,   12.7310,   13.0115,   12.4921,   12.2252,   12.3849,   14.5760,   15.2800,   16.6489,
24-SEP-2002 04:34:01.25 ,  999.0000,   -2.2549,   -1.1867,   -1.5226,   -3.4459,   -3.9065,   -4.3676,   -5.1286,   -5.1321,   -3.9472,   -3.1427,   -1.9296,   -0.2040,    1.4036,    1.9869,    1.7310,    1.3055,    0.4469,    0.4059,    0.4457,    0.1963,   -0.2345,   -0.6032,   -0.7565,    0.2471,    0.6460,    0.3152,   -0.3035,    0.1765,    0.5547,    2.3561,    3.4482,    3.9399,    3.8546,    3.3011,    2.8781,    3.3918,    4.0155,    3.9195,    3.6341,    4.2375,    3.9501,    4.2013,    4.3410,    3.9201,    1.1713,    1.4755,    5.3213,    6.8477,    6.2336,    5.5845,    5.7326,    5.7432,    8.0214,    9.6928,    9.9724,   10.3046,   11.6516,   13.1859,   12.1226,   11.7851,   10.7681,   12.3463,   13.0270,   15.4796,
24-SEP-2002 04:36:42.81 ,  999.0000,   -3.6312,   -1.9504,   -1.5918,   -3.3220,   -3.8304,   -4.7690,   -5.4024,   -5.3521,   -4.5299,   -4.3341,   -3.0605,   -1.3721,    0.7939,    1.8452,    1.4781,    0.6838,    0.0857,    0.2444,    0.5306,    0.3853,    0.0771,    1.0155,    0.0166,    0.1875,    0.5286,    1.0621,    1.4457,    1.3709,    1.3399,    2.8303,    4.5672,    4.3520,    2.9778,    2.3520,    1.7971,    3.3309,    4.8870,    3.8661,    4.0094,    3.8328,    4.4597,    6.1696,    6.4263,    5.7095,    0.5585,    2.9876,    7.1023,    7.5194,    4.4222,    7.0975,    5.4358,    6.1594,    7.7521,    9.4553,    9.8016,    9.9053,   11.2867,   13.0075,   12.2397,   12.9119,   12.1535,   12.6711,   13.6439,   16.2846,
24-SEP-2002 04:39:24.75 ,   -4.0309,   -3.8292,   -2.2707,   -1.7570,   -2.8218,   -3.7410,   -4.7522,   -5.3838,   -5.1892,   -4.8891,   -4.7146,   -3.7102,   -2.1186,   -0.1529,    1.5519,    0.7500,    0.0102,   -0.1817,   -0.3220,   -0.5762,   -0.3241,    0.1713,    0.3494,   -0.7789,   -0.2368,   -0.1313,   -0.7822,   -0.7846,   -0.2396,    1.3375,    3.3542,    4.6260,    4.6506,    3.8202,    3.9526,    2.8073,    3.4577,    3.8408,    3.6457,    4.3611,    4.4410,    5.0714,    5.9403,    5.7059,    4.8955,    2.8445,    4.9896,    7.1006,    6.7907,    0.7243,    5.9216,    5.5641,    5.6263,    7.7420,    8.0074,    8.6241,   10.7870,   12.1447,   13.0634,   13.7738,   14.2209,   12.4928,   13.1559,   14.5120,   15.5739,
24-SEP-2002 04:42:07.90 ,   -4.8151,   -4.1567,   -2.6471,   -3.6844,   -3.2849,   -4.0646,   -4.4330,   -5.0752,   -4.9981,   -4.3931,   -4.1993,   -3.9700,   -2.9376,   -1.2864,    0.7759,    0.7572,   -0.0854,   -0.3315,   -0.4529,   -0.4937,   -0.1096,    0.3970,    0.0532,   -0.2851,    0.0785,    0.0394,   -0.4544,   -0.0464,    0.9611,    2.3440,    2.4071,    3.6961,    4.0839,    4.4055,    4.6409,    4.2677,    4.2683,    3.1791,    3.8088,    4.4950,    5.4949,    5.2697,    6.2437,    6.7432,    5.6816,    4.9597,    3.9045,    6.5127,    6.5064,    3.6767,    4.8251,    4.5570,    7.3822,    7.9803,    9.7258,   10.4201,   11.9262,   13.2595,   13.2104,   13.6203,   13.4240,   12.1058,   12.8335,   14.0242,   15.9729,
24-SEP-2002 04:44:50.56 ,   -7.5805,   -6.5030,   -3.3739,   -3.7327,   -4.0968,   -4.2446,   -4.4969,   -5.3441,   -5.6148,   -4.6210,   -4.3295,   -3.6124,   -1.0947,   -0.3044,    1.0725,    1.1853,    0.6090,    0.1311,   -0.0664,   -0.0840,   -0.0110,    0.1537,    0.0917,   -0.1063,    0.3813,    0.3520,    0.1332,    0.6579,    1.1387,    1.3560,    3.0703,    4.9867,    5.5604,    4.4215,    2.8189,    1.6608,    2.9680,    3.4059,    3.5143,    4.4521,    5.5159,    4.9817,    4.6452,    6.0845,    6.0353,    5.5523,    5.2184,    6.7705,    6.4778,    4.8809,    4.3322,    4.8581,    6.8727,    7.3247,    9.0475,    9.7522,   11.1164,   12.6432,   13.4871,   13.4093,   13.2754,   12.4045,   13.6197,   14.6395,   16.5317,
24-SEP-2002 04:47:33.68 ,   -5.0489,   -3.6427,   -2.0093,   -2.1847,   -3.8832,   -4.0051,   -4.3217,   -4.9944,   -5.2642,   -4.3443,   -3.9157,   -2.0619,    0.7842,    1.1361,    1.7707,    1.1381,    0.7171,    0.3955,    0.0901,   -0.1995,   -0.4121,   -0.5163,   -0.6147,   -0.8896,   -0.4278,   -0.0141,   -0.2550,   -0.1443,    0.6927,    1.2029,    2.7428,    3.8483,    4.3882,    4.0287,    1.8134,    0.9602,    1.8294,    3.1227,    4.1961,    4.3443,    5.2506,    5.8532,    6.0114,    6.8469,    5.5909,    3.9029,    2.0700,    7.0041,    6.7941,    1.8249,    4.2397,    4.2275,    5.1182,    7.6339,    8.9705,    8.2192,    9.2661,   12.0858,   12.9597,   11.7467,   13.4155,   14.1390,   13.7494,   15.0181,   15.9525,
24-SEP-2002 04:50:15.72 ,   -3.9954,   -3.3462,   -3.3114,   -3.0014,   -3.7377,   -3.7234,   -4.1482,   -4.3454,   -3.3084,   -1.6415,   -1.8503,   -0.7477,    0.1948,    0.5489,    1.0739,    1.0811,    0.4911,    0.0478,   -0.0624,   -0.1819,   -0.3855,   -0.8368,   -0.4685,   -0.7061,   -0.5859,   -0.2312,   -0.7056,   -0.5716,   -0.1508,    0.8259,    2.4232,    3.0544,    4.0611,    5.4855,    3.5194,    1.7349,    1.6537,    3.3013,    2.6666,    2.6095,    3.4382,    4.4064,    5.7185,    6.5843,    4.1173,    2.4473,    1.4952,    6.0289,    6.4815,    1.3689,    4.1834,    3.4349,    4.1224,    6.6027,    7.7209,    9.5466,   10.6264,   11.1973,   12.3625,   11.2892,   12.1083,   13.3769,   12.6312,   14.4529,   15.3096,
24-SEP-2002 04:52:57.02 ,   -3.5550,   -3.3862,   -2.4664,   -2.9621,   -3.5685,   -3.6982,   -4.3060,   -4.4570,   -2.8493,   -1.2464,   -1.2867,   -0.9297,   -0.5542,    0.1721,    0.6204,    1.2336,    0.5678,   -0.0897,   -0.2982,   -0.5321,   -0.7349,   -0.9282,   -0.5921,   -0.3464,   -0.1274,   -0.6966,   -0.8426,   -0.5790,   -0.3141,    0.6467,    3.0630,    4.2485,    5.8093,    6.5022,    3.7700,    3.0970,    2.6605,    3.5963,    2.2457,    2.8226,    3.3800,    3.5826,    5.2119,    6.0934,    4.0063,    3.7732,    4.1704,    5.1100,    6.8728,    2.2127,    4.5657,    1.8821,    3.3357,    7.4003,    8.2280,    7.8076,   10.7847,   11.5851,   12.8379,   12.7809,   13.1408,   13.1313,   12.4840,   13.8589,   16.7670,
24-SEP-2002 04:55:39.04 ,   -2.2890,   -2.3833,   -2.2939,   -2.6759,   -3.4715,   -3.6088,   -3.9499,   -4.6452,   -4.2261,   -3.2008,   -3.0836,   -2.5092,   -1.9551,    0.7063,    1.7486,    1.4016,    0.5079,    0.2735,    0.1673,   -0.4655,   -1.0976,   -1.2130,   -0.2970,   -0.4920,    0.2943,   -0.7404,   -1.8941,   -1.0689,   -0.7733,    0.8492,    2.9878,    4.6234,    5.5227,    5.7705,    4.8522,    3.1388,    2.0261,    2.3923,    2.4977,    2.3590,    2.3416,    1.8756,    3.3319,    4.1775,    3.8597,    5.1156,    5.1975,    4.1308,    4.2014,    2.4766,    4.5843,    1.9624,    3.3730,    6.1329,    8.1362,   10.0419,   10.2810,   11.5171,   13.2294,   13.5267,   13.1203,   12.5828,   12.2996,   14.4543,   15.4624,
24-SEP-2002 04:58:20.71 ,   -2.3964,   -2.7570,   -2.5095,   -2.2559,   -3.2212,   -3.2346,   -3.1924,   -4.0171,   -3.7953,   -2.4575,   -2.4842,   -2.4143,   -2.2092,    0.4912,    1.8484,    1.1870,    0.5275,    0.4059,    0.3421,   -0.1915,   -0.6568,   -1.0446,    0.0322,   -0.3746,   -0.9822,   -2.1203,   -2.4036,   -1.2796,   -0.0298,    0.6702,    2.0090,    3.3814,    4.9366,    5.5040,    4.0686,    2.1634,    1.4515,    1.9694,    2.9824,    3.0702,    3.1198,    2.7040,    4.3499,    5.5834,    5.0631,    4.6782,    4.2207,    5.0640,    5.4225,    1.8505,    5.4053,    6.2494,    6.3489,    6.7522,    8.8697,    8.8282,    7.7036,    9.8155,   13.3300,   13.9746,   13.6684,   13.9061,   13.4087,   14.4599,   16.3586,
24-SEP-2002 05:01:01.91 ,   -4.4451,   -4.1476,   -3.0843,   -2.4674,   -3.3513,   -3.3019,   -3.2919,   -3.7602,   -3.6661,   -2.4953,   -2.2325,   -2.7445,   -2.0132,   -0.4825,    0.1568,   -0.0666,    0.0170,    0.0875,   -0.0222,   -0.1325,   -0.2709,   -1.1081,   -0.2753,   -0.4867,   -0.9778,   -1.2914,   -1.6674,   -1.0043,   -0.0895,    0.7744,    2.4943,    3.8434,    4.8843,    4.2400,    3.3148,    2.3636,    2.4935,    2.5756,    2.6744,    2.9144,    3.2012,    3.0190,    4.3946,    4.8517,    4.3851,    3.3103,    2.7902,    3.1592,    4.0739,    1.0365,    2.4727,    2.3958,    4.2677,    6.6290,    9.4904,    9.0421,    9.8013,   13.1910,   13.6732,   14.2834,   13.8329,   14.3891,   13.7428,   14.4979,   15.9413,
24-SEP-2002 05:03:43.71 ,   -5.4726,   -3.8702,   -3.2955,   -2.7015,   -3.4980,   -3.4655,   -3.9102,   -4.5721,   -3.8372,   -2.9253,   -3.3373,   -4.3696,   -2.2838,   -0.7301,   -0.3743,   -0.0557,    0.2453,    0.2019,    0.2193,    0.2339,    0.1963,   -0.1078,   -0.1572,   -0.2557,   -0.6273,   -0.6035,   -0.4563,    0.9376,    1.3725,    1.3464,    3.0039,    4.2111,    5.2176,    4.8896,    4.0956,    3.8274,    2.7703,    1.9802,    2.5992,    3.6471,    4.5155,    2.6173,    3.9544,    4.3625,    4.0060,    3.1719,    2.2201,    5.4200,    2.9387,    2.5018,    4.8361,    3.7224,    4.2414,    8.1372,   10.4877,   11.9062,   12.4250,   13.6261,   13.4833,   13.4424,   11.8190,   12.8298,   12.7046,   11.9037,   15.2855,
24-SEP-2002 05:06:25.10 ,   -3.5430,   -1.5605,   -2.5031,   -2.8639,   -3.0611,   -2.7788,   -3.3123,   -4.1271,   -3.2831,   -2.1617,   -2.7532,   -3.3224,   -1.8221,   -0.4178,    0.8601,    0.9663,    0.7330,    0.5227,    0.6434,    0.6436,    0.6502,    1.3573,    0.4679,    0.1447,    0.3711,    0.6673,    0.5371,    0.7091,    0.8646,    1.6655,    3.7591,    4.3835,    4.7044,    4.4244,    3.8309,    2.6165,    2.5100,    1.8549,    2.9194,    3.9326,    5.0372,    4.8173,    5.1122,    4.4739,    3.9742,    3.7937,    1.4775,    4.9434,    1.7248,    2.6319,    5.2542,    3.4619,    3.3157,    6.8050,    9.2288,   11.1327,   11.4320,   13.7427,   14.0124,   12.4160,   10.8514,   12.7211,   12.9833,   12.7290,   14.5108,
24-SEP-2002 05:09:06.57 ,   -5.2132,   -3.4076,   -2.9072,   -3.1197,   -3.2810,   -3.1732,   -3.7410,   -4.2569,   -3.7767,   -3.1630,   -2.8993,   -4.1206,   -3.3287,   -0.6350,    0.8303,    0.6693,    0.4712,    0.6401,    0.6797,    0.6904,    0.6438,    1.3827,    0.7187,    0.5803,    0.9058,    1.0346,    0.8381,    0.7619,    1.3123,    2.0607,    4.1845,    4.7264,    5.0759,    4.9314,    3.8008,    2.0218,    1.7848,    2.3204,    3.2452,    3.6977,    5.5010,    4.9580,    5.6131,    5.1836,    4.9969,    4.1312,    1.7738,    2.4842,    2.7204,    3.1959,    2.3979,    1.8491,    3.4964,    4.6989,    6.1922,    8.1344,   11.3046,   12.0882,   13.6580,   11.3409,   12.3206,   13.1544,   12.4814,   13.0141,   15.0123,
24-SEP-2002 05:11:48.26 ,   -5.1660,   -3.9092,   -3.4167,   -3.1894,   -3.6729,   -4.2038,   -5.1248,   -5.2842,   -4.7793,   -4.1416,   -3.5368,   -4.4399,   -3.3472,   -0.7889,    0.4233,    0.4139,    0.4353,    0.5031,    0.3759,    0.1170,    0.0100,    0.3444,    0.4796,    0.5732,    0.7154,    0.3504,    0.1327,    0.4364,    1.4208,    2.9722,    4.2142,    4.9650,    5.0482,    4.8221,    3.2128,    1.7722,    2.1177,    2.8527,    3.2118,    3.2650,    4.5630,    5.2689,    5.1137,    5.7550,    4.8017,    4.5468,    0.8668,    3.5355,    4.3388,    4.9504,    5.0421,    3.2785,    3.9686,    6.8337,    7.7647,    9.2857,    9.0899,   11.4305,   12.8092,   12.1007,   12.1226,   12.9056,   13.2039,   13.9383,   16.1011,
24-SEP-2002 05:14:29.75 ,   -2.9921,   -3.2241,   -2.9414,   -3.3053,   -3.6636,   -4.1973,   -5.0698,   -5.0741,   -4.6013,   -3.6024,   -3.7355,   -4.1398,   -2.9606,   -1.3921,    0.0961,    0.3423,    0.3783,    0.2358,    0.3165,    0.2396,   -0.0130,   -0.0469,    0.5591,    0.4403,    0.5097,    0.5281,    0.4043,    1.2541,    1.9740,    2.3814,    3.8154,    4.7163,    4.9762,    4.7953,    3.2931,    2.1439,    2.1464,    2.7868,    3.0681,    3.0853,    3.0515,    3.7971,    3.8825,    3.1466,    3.0546,    3.9636,    2.1299,    3.0835,    4.3891,    3.4893,    6.1362,    3.3169,    4.2304,    7.4312,    7.0517,    8.5240,    9.8515,   12.5583,   13.5343,   12.1650,   12.3043,   12.2229,   12.9564,   12.8670,   14.5258,
24-SEP-2002 05:17:11.32 ,   -6.1776,   -5.9327,   -3.2099,   -2.5885,   -2.9705,   -3.6049,   -3.9377,   -3.9749,   -3.3436,   -3.0420,   -3.8737,   -5.5458,   -4.0063,   -2.0345,   -0.0651,    0.3210,    0.4042,    0.3570,    0.4234,    0.4425,    0.2475,    0.1082,    0.0947,    0.0873,    0.3069,    0.5001,    0.2834,    0.7686,    1.8130,    3.1648,    4.0831,    4.7364,    4.0326,    3.4106,    2.6995,    2.1675,    2.2818,    2.9117,    2.9656,    3.0101,    2.7697,    3.6885,    3.9983,    3.1852,    4.0925,    4.4487,    3.5617,    2.6811,    2.7431,    3.3712,    4.7017,    4.1169,    6.3044,    7.2707,    8.0802,    9.2289,    9.6509,   12.1045,   12.6929,   10.7555,   11.4203,   12.0082,   11.8195,   11.5789,   12.7351,
24-SEP-2002 05:19:53.10 ,   -6.8723,   -5.0565,   -2.9454,   -1.8544,   -1.9986,   -2.6342,   -2.8870,   -2.9307,   -2.5853,   -2.6068,   -2.7024,   -3.5004,   -2.4961,   -0.9902,    0.0391,    0.1151,   -0.1056,   -0.0569,   -0.2107,   -0.3591,   -0.6836,   -1.0331,    0.0823,   -0.2795,   -0.6722,   -0.8086,   -0.8278,   -0.2930,    0.9616,    2.2178,    3.1731,    3.7461,    2.6672,    2.7123,    2.5268,    2.0327,    1.5702,    1.8061,    2.2357,    3.3531,    3.7389,    3.5373,    3.8268,    4.7244,    3.5825,    1.9923,    2.0976,    4.3103,    1.5600,    4.6669,    4.9189,    6.2987,    7.8031,    8.1681,    8.8367,   10.7546,   12.9153,   13.6260,   13.3601,   11.9665,   11.5906,   12.7234,   13.7047,   14.0048,   14.5694,
24-SEP-2002 05:22:34.57 ,   -4.4286,   -2.6489,   -2.0409,   -1.6902,   -1.7561,   -1.9052,   -2.1447,   -2.3278,   -2.4945,   -2.2951,   -2.2644,   -2.8597,   -2.2808,   -0.8708,    0.2372,    0.2392,   -0.4385,   -0.8804,   -1.3335,   -1.1950,   -1.3323,   -1.9287,   -1.3847,   -1.5650,   -1.7395,   -1.1024,   -0.7952,   -0.3349,    0.6987,    2.0475,    3.1784,    3.9200,    3.8244,    3.3598,    3.6094,    3.5228,    2.5503,    2.6444,    3.2761,    3.9590,    5.6235,    4.3460,    4.3257,    3.0277,    3.3840,    2.4785,    1.5995,    4.3367,    4.2147,    6.0154,    7.5781,    6.5169,    6.8729,    8.2106,    9.1651,   10.5388,   12.6406,   13.9877,   13.4576,   12.6411,   13.2186,   14.2823,   15.0206,   14.6311,   15.0793,
24-SEP-2002 05:25:15.81 ,  999.0000,   -2.8369,   -1.5139,   -1.4030,   -1.7357,   -1.7846,   -1.8342,   -2.0597,   -2.4326,   -2.5883,   -2.8884,   -3.7190,   -3.1190,   -2.0286,   -0.6721,   -0.1121,   -0.7908,   -1.0804,   -1.3285,   -1.3693,   -1.3733,   -1.8550,   -1.6554,   -1.7920,   -1.6383,   -0.8866,   -0.0280,    0.4138,    1.3830,    3.1066,    4.2504,    3.6869,    3.6501,    2.9387,    2.5638,    2.1796,    2.2972,    2.8164,    4.0186,    4.1332,    4.0895,    2.7664,    4.3562,    5.6930,    4.4301,    4.6299,    4.3815,    8.6082,    8.5252,    6.7438,    6.7323,    4.5401,    4.2832,    7.8198,    9.9980,    9.5971,   11.6918,   12.5356,   13.5978,   13.0968,   13.6124,   14.2841,   14.9591,   14.9060,   15.4224,
24-SEP-2002 05:27:57.95 ,  999.0000,   -3.6133,   -2.0892,   -1.5692,   -1.9468,   -1.9925,   -2.4819,   -2.7292,   -3.2107,   -3.1390,   -3.2075,   -4.2380,   -3.6747,   -2.5340,   -1.1013,   -0.2963,   -0.5473,   -0.4893,   -0.5804,   -0.8099,   -1.0769,   -1.4108,   -1.8098,   -1.2705,   -1.5723,   -1.4070,    0.3792,    0.9326,    1.6025,    2.5674,    3.5147,    3.8443,    4.2902,    3.4761,    2.3912,    2.4673,    2.4717,    2.9231,    3.5768,    3.7925,    4.5844,    3.6470,    4.4462,    4.3706,    4.0458,    4.2261,    3.1503,    5.8771,    5.9234,    3.6020,    6.2207,    2.9206,    4.0790,    6.9530,    9.0246,    8.5676,   10.1972,   12.0780,   12.3079,   12.7425,   12.7250,   13.0315,   14.2271,   15.0449,   16.2544,
24-SEP-2002 05:30:39.30 ,   -4.3688,   -3.1421,   -2.8497,   -1.7830,   -1.9719,   -2.2611,   -2.5130,   -2.6462,   -2.9600,   -2.6666,   -3.1207,   -4.0868,   -3.5728,   -1.4482,   -0.3885,   -0.1953,   -0.4943,   -0.6550,   -0.7349,   -0.6443,   -0.6059,   -0.6897,   -0.4619,   -0.6784,   -1.0316,   -0.3516,    0.1472,    0.6335,    2.2603,    4.2867,    5.2006,    3.9979,    3.7907,    3.3152,    2.4540,    2.4627,    1.6343,    2.1853,    3.0832,    2.9595,    4.0876,    4.2249,    4.2870,    4.4307,    3.8434,    3.5615,    4.5784,    6.0874,    5.6583,    3.7221,    5.0218,    4.0036,    2.1220,    7.7133,    8.4734,   10.1250,   11.6195,   12.9329,   12.8925,   12.7537,   12.7822,   13.2962,   13.9614,   15.2173,   17.6890,
24-SEP-2002 05:33:20.95 ,   -3.5184,   -2.9025,   -2.4885,   -2.2320,   -2.2608,   -2.7717,   -2.5834,   -2.5526,   -2.6726,   -2.3904,   -3.3191,   -3.4934,   -2.8977,   -0.7147,    0.2379,    0.3589,   -0.1138,   -0.4560,   -0.5867,   -0.3657,   -0.0653,   -0.4791,    0.0571,   -0.3017,   -0.8613,   -0.5702,   -0.1067,    1.0719,    2.2049,    3.7715,    5.1244,    4.1649,    3.5118,    3.2851,    2.5908,    1.9705,    1.6246,    1.2734,    2.9364,    3.5715,    4.9974,    4.7183,    4.4941,    4.8700,    4.5281,    2.6035,    5.5327,    5.8862,    4.3113,    4.4342,    7.1407,    6.1331,    5.2064,    8.3000,    8.8301,    9.9421,   12.0230,   12.4883,   12.9826,   12.2944,   12.1583,   13.4908,   14.5578,   15.6211,   17.0105,
24-SEP-2002 05:36:02.81 ,   -2.7937,   -2.2315,   -1.7282,   -2.1014,   -2.5228,   -2.9797,   -3.2722,   -3.3463,   -3.6382,   -3.8619,   -4.4252,   -4.1529,   -3.1041,   -1.4286,    0.0101,    0.1516,    0.1839,    0.1854,    0.0907,    0.3777,    0.2887,   -0.4794,    0.4420,    0.0809,   -0.2003,    0.2457,    0.6228,    0.7827,    2.1046,    3.7026,    4.6138,    4.7504,    4.0777,    3.6781,    3.7420,    3.2951,    2.8871,    2.2082,    2.6627,    4.2014,    4.9536,    4.6066,    5.2184,    5.6177,    5.4754,    3.8681,    4.9784,    7.2689,    4.5560,    3.4707,    5.4295,    7.7424,    8.1785,    7.3665,    8.5489,    9.6195,   10.2457,   12.2071,   13.3220,   12.1500,   10.8376,   12.1211,   13.7907,   15.8923,   16.9183,
24-SEP-2002 05:38:44.43 ,   -1.9344,   -1.9813,   -1.6767,   -2.0035,   -2.2757,   -2.7048,   -3.2693,   -3.6570,   -3.8211,   -3.9991,   -5.1547,   -5.2260,   -3.8101,   -1.8094,   -0.8706,   -0.5181,   -0.1744,   -0.1527,   -0.0518,    0.4412,    0.4226,   -0.0804,   -0.5796,   -0.5194,   -0.2501,   -0.0919,    0.0460,    0.8895,    2.4426,    3.4017,    4.3550,    4.4359,    4.1263,    3.7328,    3.0926,    2.5581,    1.3081,    1.1905,    2.2828,    4.0363,    4.5318,    4.5856,    4.5449,    4.4688,    4.0961,    4.0252,    6.2436,    7.1225,    6.6761,    5.1775,    5.2187,    6.3841,    8.1505,    7.2606,    7.8216,    8.5875,   10.6132,   12.8826,   12.8396,   12.3300,   10.9154,   13.0176,   14.0679,   15.0287,   17.6674,
24-SEP-2002 05:41:26.17 ,   -1.7646,   -1.8782,   -1.8203,   -1.8584,   -2.0326,   -1.9994,   -2.3382,   -2.9879,   -2.9947,   -2.5005,   -3.4880,   -3.7667,   -3.0717,   -1.2507,   -0.2654,   -0.1735,   -0.6299,   -0.9170,   -0.7052,   -0.1668,   -0.4757,   -0.9014,   -0.7021,   -1.1088,   -1.2554,   -1.2763,   -1.0605,    0.4993,    1.9225,    3.1180,    3.8110,    4.1794,    3.7617,    3.1423,    2.1978,    1.9658,    1.0620,    2.1477,    3.2206,    4.2362,    4.6120,    4.1412,    4.9522,    6.0029,    3.4170,    2.9629,    1.5583,    4.6811,    4.3088,    3.6950,    4.7134,    1.3910,    5.5511,    7.4571,    8.4414,    8.4987,   11.2125,   12.0582,   13.1690,   11.9586,   10.5306,   12.7301,   13.8316,   15.7330,   17.5711,
24-SEP-2002 05:44:07.94 ,   -1.8950,   -2.2864,   -1.9904,   -1.7890,   -1.9541,   -1.6850,   -1.7630,   -2.1748,   -2.5570,   -2.2585,   -1.9498,   -2.0790,   -1.4905,   -0.9049,    0.0416,   -0.0898,   -0.4212,   -0.8016,   -0.8288,   -0.6438,   -1.0930,   -1.4814,   -1.0602,   -1.8080,   -2.0768,   -1.5094,   -0.6782,    0.8361,    3.0023,    4.3514,    5.1637,    5.0389,    3.9932,    2.7854,    1.7749,    2.1980,    2.4744,    3.7433,    4.0601,    4.3886,    5.4476,    5.1560,    5.3300,    5.1933,    3.8544,    3.9494,    2.5125,    6.8810,    5.2452,    3.0623,    4.3054,    2.6653,    4.1308,    6.1459,    7.5089,    9.8457,   10.3847,   11.6803,   12.2315,   10.8423,   10.7903,   13.1220,   13.1909,   15.2822,   17.2477,
24-SEP-2002 05:46:50.28 ,   -3.5351,   -2.5549,   -1.7780,   -1.5636,   -1.8509,   -1.4193,   -1.3665,   -1.8771,   -2.1980,   -2.1422,   -2.3697,   -2.8147,   -1.5928,   -1.0826,   -0.2744,   -0.3657,   -0.5298,   -0.6305,   -0.6188,   -0.8829,   -1.3813,   -1.8407,   -1.2959,   -1.6231,   -1.9011,   -1.5569,   -1.0129,    0.7899,    2.1398,    3.3884,    4.7963,    4.6852,    4.2171,    3.6365,    2.6642,    1.8008,    1.4413,    2.0858,    2.8282,    3.8083,    4.7609,    4.4515,    4.8022,    5.2916,    5.3841,    4.9188,    5.0657,    7.7460,    4.1967,    2.4161,    2.9456,    4.0422,    5.4975,    6.1194,    8.4412,    9.5551,   10.5803,   11.5700,   11.4646,   10.8982,   10.0880,   11.7805,   12.9326,   14.7631,   15.7430,
24-SEP-2002 05:49:31.68 ,   -4.6937,   -3.2478,   -1.7034,   -1.1027,   -1.4171,   -1.4597,   -1.6578,   -2.0497,   -2.2082,   -2.0713,   -2.4673,   -3.1614,   -2.8643,   -2.1017,   -0.5999,   -0.3399,   -0.8101,   -0.8171,   -0.8745,   -1.0329,   -1.2694,   -1.5605,   -1.8086,   -1.3493,   -1.9393,   -1.5395,   -0.2236,    0.3040,    1.2631,    2.8916,    4.7299,    4.7474,    3.4773,    3.4537,    3.9436,    2.1106,    0.8069,    1.7753,    2.2632,    3.1069,    4.5808,    5.1431,    5.1990,    5.4196,    5.7962,    5.6099,    6.5030,    7.7114,    4.3316,    4.8661,    5.1866,    5.3305,    6.3560,    5.8854,    8.8771,    9.2216,   10.8364,   12.1708,   11.6097,   11.4340,   10.7193,   11.4406,   12.7823,   15.2969,   16.0815,
24-SEP-2002 05:52:13.34 ,   -3.1926,   -2.9957,   -1.4940,   -0.9788,   -1.1037,   -1.7320,   -2.0643,   -1.9017,   -1.7998,   -1.6626,   -1.4839,   -1.7900,   -2.0927,   -1.4536,   -0.4695,   -0.4952,   -0.8668,   -0.7840,   -0.9036,   -1.2541,   -1.6137,   -1.9449,   -1.0426,   -0.5818,   -0.6669,   -0.9209,   -0.2433,    0.7730,    1.8912,    2.7350,    4.0459,    4.1305,    3.2734,    3.3212,    3.5383,    2.8326,    2.5234,    2.6406,    2.7630,    3.2050,    4.3015,    5.2956,    6.9802,    6.7277,    5.9757,    3.4465,    4.1921,    3.4222,    2.7779,    3.9973,    5.2005,    5.9120,    2.7045,    7.4046,    9.7590,   10.9295,   11.7020,   13.1250,   12.4964,   12.0135,   10.8697,   10.7718,   12.2668,   14.5576,   16.0503,
24-SEP-2002 05:54:54.65 ,   -3.5923,   -2.5922,   -1.8893,   -1.1917,   -1.5106,   -2.2867,   -2.4362,   -2.2928,   -2.0523,   -1.7194,   -2.1298,   -1.9261,   -1.9282,   -0.6743,   -0.1014,   -0.4887,   -0.4589,   -0.3662,   -0.3690,   -0.7844,   -1.3061,   -1.6059,   -1.0202,   -0.7892,   -0.8484,   -0.6077,    0.1291,    1.8385,    2.8160,    3.4271,    4.7672,    3.9967,    3.3989,    3.8575,    3.3551,    2.3561,    3.3450,    2.4175,    3.6038,    4.2044,    4.7059,    5.6118,    5.9702,    5.8690,    6.4754,    6.0835,    5.8967,    5.8311,    4.9712,    5.8430,    4.7955,    8.0795,    7.5260,    8.2074,    9.0582,    9.6348,   10.8061,   12.1043,   12.1277,   11.9137,    9.8532,    9.9898,   11.0818,   14.4855,   15.7257,
24-SEP-2002 05:57:35.88 ,  999.0000,   -3.5139,   -2.7996,   -0.8891,   -1.4633,   -2.1866,   -2.9727,   -3.2306,   -2.8886,   -2.1611,   -2.5420,   -2.3906,   -1.8499,   -0.6757,    0.8609,    0.9811,    0.7627,    0.4718,    0.1981,    0.1811,    0.2887,   -0.3379,   -0.4209,   -0.2365,   -0.6136,   -0.5746,    0.5783,    2.6227,    3.6544,    4.4684,    4.7217,    3.0978,    3.3128,    3.9941,    2.4706,    2.9776,    3.6633,    3.2016,    5.0059,    5.4625,    6.3764,    5.8075,    5.5912,    6.6170,    7.3677,    5.4126,    5.9302,    7.6025,    4.7687,    3.5505,    4.1653,    7.9506,    8.9949,    8.6981,    9.4982,   10.3493,   10.5094,   10.9116,   11.0414,   12.0345,   10.0696,   10.6851,   12.9406,   14.8747,   16.5353,
24-SEP-2002 06:00:17.37 ,  999.0000,   -3.3543,   -2.6912,   -0.8467,   -1.5345,   -2.4846,   -3.7745,   -3.9128,   -3.7364,   -3.0186,   -2.7293,   -2.2673,   -1.5907,   -0.0915,    2.1313,    2.0175,    1.2036,    0.6796,    0.3661,    0.4040,    0.4252,   -0.6559,   -0.1276,   -0.5134,   -0.7075,   -0.9497,    0.1486,    1.7572,    3.0810,    3.8234,    3.0793,    3.6030,    3.9144,    3.5733,    2.7630,    2.8416,    2.8058,    2.3955,    3.0655,    3.3625,    5.7938,    5.2492,    6.5339,    7.2446,    7.1872,    6.3128,    6.7414,    8.2781,    7.4648,    8.0250,    6.9057,    6.7474,    9.0650,    8.8089,    9.3904,   10.0322,   10.8135,   12.0723,   12.2673,   12.7126,   11.4539,   11.2027,   14.2927,   16.1568,   17.1224,
24-SEP-2002 06:02:58.73 ,   -0.9206,   -1.0294,   -1.3034,   -0.9027,   -1.0553,   -1.8008,   -2.6318,   -3.0835,   -3.1055,   -2.8677,   -2.7453,   -2.6469,   -2.8989,   -0.9463,    1.0183,    1.2069,    0.8056,    0.6246,    0.6642,    0.3273,   -0.1502,   -0.3294,   -0.3808,   -0.4249,   -0.2769,   -0.5048,    0.3968,    0.8833,    1.1237,    2.0052,    3.0191,    3.4604,    3.0638,    3.9908,    3.0936,    3.0409,    2.2622,    2.5906,    1.9179,    4.2359,    7.5204,    7.4578,    7.0995,    6.4493,    5.9739,    5.1711,    6.6115,    7.6997,    6.6088,    7.0401,    6.9458,    7.3263,    9.2874,    9.1835,    9.7699,   10.0558,   10.5887,   13.0532,   13.3897,   13.2069,   11.9356,   13.3076,   14.4052,   15.8803,   16.8356,
24-SEP-2002 06:05:40.41 ,   -2.6767,   -1.7582,   -0.7341,   -0.6508,   -0.8081,   -1.0904,   -1.5680,   -2.2161,   -2.0793,   -2.2651,   -1.9662,   -2.6763,   -2.9538,   -1.4334,   -0.8185,    0.2609,    0.1689,    0.3547,    0.4939,    0.3540,   -0.0310,   -0.1351,   -0.0860,   -0.3997,   -0.6568,   -0.5054,    0.5639,    1.1019,    1.8717,    3.5620,    4.3986,    4.2451,    4.0720,    3.6770,    3.8838,    3.9061,    4.0886,    2.6267,    1.9677,    4.3551,    5.8641,    6.4466,    5.9798,    5.4822,    5.2309,    2.7987,    5.7356,    6.7968,    4.2803,    5.1274,    7.3001,    8.0718,    8.5758,    8.7619,    9.1951,    9.8269,   11.0039,   12.6807,   13.4614,   13.0621,   11.8037,   11.2464,   12.9694,   15.9874,   17.7526,
24-SEP-2002 06:08:21.94 ,   -2.7941,   -1.7108,   -0.3586,    0.1779,   -0.4221,   -0.5367,   -1.1634,   -1.5803,   -1.6942,   -2.0811,   -2.2552,   -1.8332,   -1.8703,   -2.1826,   -1.3693,    0.0053,   -0.2683,   -0.0797,   -0.1190,   -0.1194,   -0.3890,   -1.1394,   -0.4092,   -0.7051,   -0.5139,    0.3229,    1.1072,    2.1332,    2.5374,    3.1161,    2.5591,    2.0485,    1.9254,    2.6205,    2.7724,    2.8418,    3.6603,    3.5126,    3.3674,    4.5968,    5.4322,    5.8397,    5.3268,    5.1829,    4.9700,    2.2802,    5.3134,    6.6167,    4.9353,    9.1487,    8.1481,    8.1308,    9.1357,    8.9821,    8.8060,   10.5449,   11.7810,   12.8801,   14.0542,   13.8706,   12.8348,   13.3660,   14.3785,   15.0348,   16.5814,
24-SEP-2002 06:11:03.21 ,   -1.8823,   -1.4003,   -1.1725,   -0.0683,   -0.3890,   -0.4554,   -0.9284,   -1.0198,   -1.1925,   -1.6943,   -1.6046,   -0.4799,   -0.9195,   -1.5817,   -0.0939,    0.6038,    0.0180,   -0.0592,   -0.1302,   -0.2255,   -0.3353,   -0.6055,   -0.7579,   -0.7506,    0.3356,    0.1451,    1.0780,    2.1711,    2.2249,    2.4890,    1.2216,    0.3187,    0.9504,    0.9958,    0.8904,    2.6862,    3.6160,    3.0447,    4.5088,    5.1966,    6.7904,    6.5047,    5.5275,    4.1334,    3.2705,    2.9506,    4.4962,    6.3515,    5.8509,    8.0844,    8.7306,    7.2772,    8.4285,    8.2272,    8.2348,    8.5698,    9.8236,   11.6827,   12.7353,   13.1398,   13.3512,   13.8555,   15.4825,   16.0868,   16.9939,
24-SEP-2002 06:13:44.55 ,   -4.1470,   -3.5536,   -2.6579,   -0.4040,   -0.5117,   -0.6922,   -1.2518,   -1.8262,   -2.2323,   -2.7801,   -2.7433,   -2.6830,   -2.3635,   -1.5219,   -0.3841,    0.3049,   -0.1635,   -0.2388,   -0.1186,   -0.0648,   -0.0909,   -0.5384,   -0.9589,   -1.3868,   -1.3941,   -0.5499,    0.8062,    2.1641,    2.3907,    3.1195,    2.0489,    0.7304,    0.5640,    1.4870,    2.3482,    2.4497,    2.3253,    2.5517,    4.8834,    5.9466,    6.5999,    6.6783,    4.9835,    3.0701,    2.5360,    1.4992,    3.1223,    4.5731,    4.1562,    5.6062,    7.0983,    3.8917,    6.7393,    8.1067,    8.5462,    9.3429,   10.4558,   12.5067,   13.8868,   14.3029,   14.3163,   14.5338,   15.5161,   15.8125,   16.1958,
24-SEP-2002 06:16:26.25 ,   -4.3113,   -4.1939,   -2.6897,   -0.9502,   -0.8395,   -0.8183,   -1.8132,   -2.6755,   -3.3060,   -4.2156,   -5.2144,   -4.3119,   -3.4965,   -2.3493,   -1.5832,   -0.7089,   -0.7367,   -0.8444,   -0.4578,   -0.5283,   -0.8595,   -1.3570,   -0.3453,   -0.3048,   -0.2290,   -0.0718,    0.4727,    1.6816,    2.4967,    2.7305,    2.9395,    1.7049,    0.5588,    0.8487,    2.5050,    2.4547,    2.8234,    3.3927,    3.9809,    4.8099,    6.3768,    6.3527,    6.6533,    5.3079,    5.3092,    3.8938,    5.4213,    6.4467,    5.0834,    6.6478,    7.9038,    6.6993,    7.5065,    8.9060,    9.5881,   10.1486,   11.6948,   13.3407,   13.8689,   13.8588,   13.0358,   13.9681,   15.2794,   14.9116,   16.0521,
24-SEP-2002 06:19:07.60 ,   -3.9418,   -3.9130,   -2.7140,   -1.1426,   -1.2197,   -0.9608,   -1.5892,   -1.8816,   -2.5402,   -3.2864,   -3.9615,   -3.0339,   -1.9818,   -1.9242,   -1.3053,   -0.5953,   -0.7629,   -0.9745,   -0.8121,   -1.1169,   -1.8662,   -2.0561,    1.0773,    1.1596,    1.3791,    1.7007,    2.0500,    2.6412,    2.8352,    3.0602,    2.3405,    1.7873,    0.7672,    1.2036,    2.7509,    1.8556,    2.2523,    4.1062,    5.0764,    6.3920,    7.4410,    7.7363,    8.3432,    8.2911,    7.0474,    7.7887,    8.2629,    7.1580,    7.1960,    8.5255,    9.1506,    8.8691,    8.8769,   10.8068,   11.3086,   11.6153,   11.9562,   12.5783,   13.1934,   13.6762,   13.6827,   13.2476,   14.5561,   15.7054,   16.9811,
24-SEP-2002 06:21:49.14 ,   -4.9759,   -3.4188,   -1.3543,    0.0865,   -0.2767,   -0.2760,   -0.4885,   -1.1073,   -1.5953,   -2.0817,   -3.0473,   -3.5421,   -2.3531,   -1.2712,   -0.6428,   -0.0193,   -0.1749,   -0.5868,   -0.5751,   -0.6905,   -1.2255,   -1.5280,   -0.8648,   -0.7325,   -1.2161,   -1.1375,    0.7674,    2.0438,    2.3749,    3.6566,    1.7960,    1.6237,    1.0556,    1.6103,    2.8899,    3.5283,    3.6697,    4.0580,    5.1754,    6.8658,    7.5687,    6.8952,    7.8557,    7.9276,    7.5975,    8.4411,    8.0099,    6.8217,    8.2935,    8.1420,    8.0637,    9.1469,    8.9278,    9.9204,   10.8259,   10.8069,   10.8634,   11.9802,   12.8177,   14.1437,   13.8873,   13.4476,   14.5229,   15.8168,   17.7360,
24-SEP-2002 06:24:30.80 ,   -5.6529,   -3.1368,   -0.6063,   -0.2201,    0.1691,    0.0737,   -0.3820,   -1.2050,   -1.4760,   -1.4836,   -1.6593,   -2.0281,   -1.9923,   -0.8586,    0.2157,    0.4751,    0.2014,   -0.2305,   -0.2499,   -0.2389,   -0.5158,   -0.8943,   -0.3587,   -0.6999,   -0.8759,   -0.8025,    0.9305,    1.3013,    1.2468,    3.2722,    2.5162,    1.3066,    1.5419,    2.2358,    1.8630,    0.9907,    2.0373,    3.4891,    3.8112,    4.7026,    5.8144,    5.7000,    6.6268,    6.8009,    7.0846,    7.1867,    6.2590,    5.8780,    8.8995,    9.1851,    7.7367,    9.8819,    9.5996,   10.2529,   10.7627,   10.5510,   11.7051,   13.9617,   14.2337,   14.8858,   13.5375,   13.5395,   14.8432,   15.7878,   18.2446,
24-SEP-2002 06:27:12.22 ,   -3.7190,   -2.7557,   -1.7900,   -0.6293,   -0.4405,   -1.0383,   -1.5228,   -2.2086,   -2.0980,   -1.3728,   -1.2953,   -1.2749,   -1.1967,   -1.1489,    0.6300,    0.7138,    0.1801,   -0.1946,   -0.1995,   -0.4261,   -0.7482,   -1.3080,   -0.2788,   -0.7010,   -0.7405,   -0.5869,    0.0081,    1.0329,    1.8982,    3.0054,    2.9503,    2.8827,    3.2861,    3.8238,    2.8125,    2.6128,    3.0122,    3.6754,    4.3137,    4.9196,    4.6212,    4.7550,    6.2921,    6.4094,    6.2784,    4.8643,    4.1964,    6.4499,    7.3400,    7.5880,    7.5556,    8.5803,    9.9265,   10.4278,   11.4049,   10.6182,   10.7527,   12.5726,   12.8196,   14.3157,   14.6956,   13.3655,   14.1287,   15.6067,   17.6371,
24-SEP-2002 06:29:53.88 ,   -3.8476,   -3.3736,   -2.6990,   -1.4923,   -1.9401,   -2.6334,   -2.9292,   -3.5412,   -3.3337,   -2.7863,   -2.9080,   -2.4998,   -1.7106,   -1.2510,   -0.0329,    0.3283,   -0.2721,   -0.7983,   -0.6122,   -0.7874,   -1.0758,   -1.5991,   -0.3106,   -0.2631,   -1.1048,   -1.4066,    0.2206,    1.4549,    2.1188,    3.1870,    2.2936,    2.0299,    1.8603,    1.4784,    1.6797,    2.6487,    2.6568,    3.1375,    4.1973,    4.9025,    4.1161,    3.8756,    4.1687,    4.1881,    4.3189,    3.4317,    1.8206,    4.0843,    4.9944,    6.4735,    8.8143,    8.0396,    9.4023,    9.9225,   10.9152,   10.6878,   11.1894,   12.7530,   13.7931,   13.8401,   12.1886,   11.8431,   12.8378,   14.7783,   16.8257,
24-SEP-2002 06:32:35.17 ,   -6.3420,   -4.9900,   -3.8281,   -2.6567,   -2.5593,   -2.6536,   -2.6759,   -2.9505,   -2.8015,   -2.6398,   -2.7621,   -2.6357,   -1.6452,   -0.7604,   -0.0472,    0.3827,    0.0224,   -0.4810,   -0.3278,   -0.3754,   -0.6799,   -1.0738,   -0.7547,   -0.5700,   -1.4372,   -1.8772,   -0.2064,    1.7594,    2.3515,    2.4922,    2.2453,    1.8955,    1.5580,    1.7273,    2.6007,    1.9772,    2.0260,    3.4045,    4.3529,    3.5554,    3.0467,    2.7187,    3.9012,    4.0494,    3.7871,    3.1894,    3.2697,    3.4831,    3.9535,    6.8607,    7.8582,    5.8569,    6.9044,    7.8253,   10.2600,    8.9098,    9.3640,   11.8228,   12.4164,   12.7595,   12.4887,   12.8694,   14.3258,   15.3921,   16.2517,
24-SEP-2002 06:35:17.45 ,   -5.3977,   -3.1506,   -2.3280,   -1.3507,   -0.9545,   -1.0349,   -1.0731,   -0.9743,   -0.8642,   -0.6921,   -1.2064,   -1.5808,   -1.1029,   -0.4696,    0.4221,    0.5443,    0.4090,    0.1583,    0.0238,   -0.2265,   -0.8355,   -1.2165,   -0.5682,   -0.3872,   -0.7181,   -1.2869,   -0.4315,    1.1348,    1.7258,    2.9013,    4.0346,    2.7506,    1.6730,    1.6829,    2.1436,    2.0184,    2.8978,    4.7203,    4.4193,    3.8529,    3.7810,    2.3604,    3.9855,    4.5172,    3.9284,    1.0959,    1.3864,    2.6107,    3.9808,    7.0197,    7.6595,    5.8782,    9.1354,   10.7492,   10.8850,    9.5142,    9.4864,   10.8101,   11.5550,   11.3001,   11.6138,   12.5877,   14.2854,   15.2972,   16.8289,
24-SEP-2002 06:37:59.07 ,  999.0000,   -2.1150,   -0.8980,    0.2683,    0.0006,   -0.5431,   -0.8012,   -0.8409,   -0.9026,   -0.8103,   -1.4533,   -1.1618,   -0.8533,   -0.5220,    0.2375,    0.2662,    0.0518,   -0.2224,   -0.5013,   -0.7500,   -1.1351,   -1.2995,   -0.4797,   -0.1728,   -0.7364,   -1.1440,   -0.4371,    1.0554,    1.2257,    2.7183,    3.4274,    2.7508,    3.2992,    3.3148,    1.9111,    1.3836,    2.8286,    5.2029,    5.2330,    4.8396,    4.5712,    2.6649,    5.1000,    5.3165,    4.6802,    3.0926,    1.9038,    5.0001,    5.0376,    8.4909,    7.6642,    6.2437,    9.6177,   10.2723,   10.7123,   10.3665,   10.8414,   11.8719,   11.3474,   11.0138,   11.0788,   11.2960,   13.1897,   14.8372,   15.9117,
24-SEP-2002 06:40:40.34 ,  999.0000,   -3.1317,   -2.0433,    0.6942,   -0.1433,   -1.1617,   -1.3771,   -2.0630,   -2.0935,   -1.7109,   -2.2055,   -2.5281,   -1.9517,   -1.0759,    0.2794,    0.2245,    0.0438,   -0.0217,   -0.1291,   -0.4942,   -0.6531,   -0.6765,   -0.9626,   -0.2800,   -0.4356,   -0.6813,   -0.4214,    0.3799,    1.5469,    2.7757,    3.5559,    3.1620,    2.3392,    1.7891,    1.2921,    1.4062,    2.2128,    3.9502,    3.5852,    2.6381,    2.9289,    2.4832,    4.4797,    4.8381,    5.0051,    3.4363,    3.0022,    5.3575,    4.2650,    8.8780,   10.6904,    9.0009,    8.9892,    9.1177,    9.5080,   10.1604,   10.0204,   11.2583,   10.1220,   10.7214,   10.9194,   10.8121,   12.0501,   12.8760,   14.7845,
24-SEP-2002 06:43:21.76 ,  999.0000,   -3.8049,   -2.8650,    0.1572,   -0.4369,   -1.3372,   -2.1283,   -2.9063,   -3.0460,   -2.0743,   -2.0247,   -2.4223,   -2.0100,   -1.0256,    0.2438,    0.5237,    0.3475,    0.4944,    0.4223,    0.1092,   -0.2838,   -0.5600,   -0.0377,   -0.3212,   -1.0465,   -0.8626,    0.0574,    0.5938,    1.6379,    2.6148,    1.4860,    1.5802,    1.8707,    1.4369,    0.9996,    1.3427,    2.1724,    2.5766,    2.9979,    3.3350,    3.1640,    3.3942,    3.7995,    3.8436,    3.7752,    2.0470,    3.8297,    5.4737,    6.3400,    8.7177,    9.1345,    7.5208,    9.1277,    9.4156,    9.7280,    8.4012,    8.7506,    9.5216,    9.5794,    9.2599,    9.8633,   11.0698,   12.7344,   13.1722,   15.2173,
24-SEP-2002 06:46:03.50 ,  999.0000,   -2.4390,   -2.7023,   -0.1229,   -0.2607,   -0.7677,   -1.8535,   -2.5201,   -2.5042,   -1.6256,   -2.1078,   -1.6166,   -0.9671,   -0.3653,   -0.0604,    0.4297,    0.1613,    0.2935,    0.4632,   -0.0803,   -0.2761,   -0.1064,   -0.6525,   -0.9247,   -1.4324,   -0.9966,   -0.3735,    0.8726,    2.6081,    3.4243,    2.1178,    2.2644,    3.1231,    2.7604,    1.2022,    1.0293,    2.1036,    2.8087,    3.6152,    4.9475,    3.7685,    3.4342,    3.3203,    2.7369,    3.8836,    2.4742,    3.5629,    4.3855,    3.9933,    6.4703,    8.4048,    8.9392,    9.9648,   10.2891,   10.4882,    9.5375,    9.2806,    9.1396,    9.3674,    9.0835,   10.6094,   11.3087,   12.2321,   13.1319,   14.5921,
24-SEP-2002 06:48:44.95 ,   -5.7521,   -2.3741,   -1.7925,   -0.2720,    0.4197,   -0.1207,   -0.5844,   -1.1081,   -1.1425,   -1.2934,   -2.1995,   -1.6376,   -1.2243,   -0.2971,    0.4319,    0.6346,    0.3230,    0.1787,    0.8173,    0.2226,   -0.7680,   -0.6773,    0.0823,   -0.3013,   -0.9025,   -0.9699,    0.2382,    1.6773,    2.2017,    2.2092,    2.0625,    1.5645,    1.9594,    2.0408,    1.4760,    1.2820,    1.5088,    3.9033,    4.1825,    5.3841,    3.9275,    3.3414,    4.6179,    5.1435,    5.4543,    4.5762,    2.1380,    3.7250,    3.4536,    3.8707,    9.0516,    8.9174,    9.4859,   10.2581,   10.2917,    9.4816,    8.7634,    8.9421,    8.2825,    8.8577,   11.1719,   11.7860,   11.9271,   13.6480,   15.4088,
24-SEP-2002 06:51:27.98 ,   -5.3059,   -3.9229,   -1.0884,   -0.2315,    0.6404,   -0.0897,   -0.4080,   -0.7060,   -0.7694,   -1.0579,   -1.8921,   -1.7166,   -1.3143,   -0.4200,    0.6668,    0.7926,    0.2754,   -0.0753,    0.8328,    0.7465,   -0.8454,   -1.4217,    0.4284,   -0.5974,   -1.0031,   -0.7021,    0.1415,    1.1328,    1.0757,    1.3322,    1.6905,    1.5953,    2.2405,    3.0019,    2.7378,    2.5347,    2.3359,    4.0584,    4.6261,    5.5564,    5.2626,    3.6632,    3.8418,    4.6909,    5.2648,    5.4041,    2.2305,    7.6231,    5.7367,    5.0624,    6.9100,    8.1030,    9.5589,   11.1709,   11.9493,   10.0428,   10.1665,   10.3529,    9.4421,    8.9772,    9.7966,   13.4438,   14.1158,   14.6451,   15.5884,
24-SEP-2002 06:54:09.98 ,  999.0000,  999.0000,  999.0000,    0.2904,    0.5960,   -0.1791,   -1.4454,   -1.7895,   -1.5929,   -1.6137,   -2.4478,   -2.5217,   -2.3609,   -1.5439,    0.5202,    0.9205,    0.5421,    0.5623,    1.1265,    0.9920,    0.2287,   -0.1942,    0.0067,   -0.1738,   -0.1425,    0.3034,    0.9652,    1.8566,    1.6825,    1.3160,    0.8786,    1.0750,    0.7298,    1.7072,    3.0061,    3.2991,    2.5817,    3.8948,    3.5572,    3.9327,    3.5681,    3.2958,    3.0047,    3.4028,    3.8634,    4.1803,    2.6333,    9.3532,    6.9721,    6.6881,    7.2099,    8.9346,    9.9005,   10.6813,   10.6142,   10.5415,   10.0267,   10.2165,   10.0320,    9.5827,    9.3815,   11.7624,   12.5333,   13.4991,   14.2213,
24-SEP-2002 06:56:51.72 ,  999.0000,  999.0000,  999.0000,   -2.4506,   -2.0241,   -0.4644,   -1.7397,   -2.1065,   -2.1644,   -2.4849,   -3.1121,   -2.3753,   -2.1067,   -1.4494,   -0.2450,    0.7305,    0.7449,    0.7106,    0.8959,    0.8426,    0.5999,    0.4700,    0.4204,    0.5018,    0.1978,    0.3527,    0.9460,    1.7393,    2.6429,    3.0844,    1.7683,    1.2012,    1.3454,    1.4921,    2.7760,    3.1316,    3.0313,    3.5110,    4.0708,    4.7658,    4.6288,    4.1240,    3.7692,    2.5413,    3.4142,    4.2489,    4.5350,    7.7269,    6.1857,    7.1872,    9.6761,    9.0561,    9.8713,   11.3000,   12.0834,   11.0758,   10.0004,   10.0976,    9.5856,    9.7306,   10.5443,   10.9648,   11.6927,   12.9407,   13.5589,
24-SEP-2002 06:59:32.96 ,   -5.8478,   -5.2501,   -4.6356,   -3.9896,   -2.8305,   -0.8649,   -1.4382,   -2.0052,   -1.9307,   -1.9594,   -3.0657,   -2.4328,   -2.1899,   -2.0374,   -0.5417,    0.4134,    0.0222,   -0.3707,   -0.1140,   -0.0205,   -0.2342,   -0.4943,    0.0165,    0.1432,   -0.1555,   -0.0704,    0.7080,    0.9306,    1.4390,    2.1716,    1.2955,    0.2538,    0.5813,    1.5485,    2.2247,    3.4142,    4.4103,    4.3402,    5.0217,    5.5072,    5.2609,    4.1186,    4.6264,    3.0450,    3.8646,    3.0693,    2.5282,    5.7856,    6.2546,    6.7724,    8.7472,    8.8887,   10.3063,   11.5215,   11.5043,    9.9300,    9.7429,    9.6061,    9.6094,    9.4819,   10.6128,   11.0501,   11.5876,   11.9503,   13.5915,
24-SEP-2002 07:02:16.41 ,   -5.3200,   -4.3180,   -3.5191,   -1.5213,   -0.3395,   -0.3962,   -0.7686,   -1.1692,   -1.1599,   -1.1827,   -2.1128,   -2.3802,   -2.5184,   -2.5641,    0.2148,    0.8519,    0.2696,   -0.0215,    0.1792,   -0.2392,   -0.3505,   -0.2539,    0.2003,    0.2897,    0.0604,   -0.0830,    0.2926,    0.7559,    0.9451,    2.4267,    2.1509,    0.6266,    0.9557,    1.1028,    1.3729,    2.5022,    3.2569,    3.9335,    5.5372,    7.0004,    6.5565,    4.4322,    3.6146,    1.8797,    2.4141,    3.1876,    3.1653,    6.8157,    5.8672,    7.5297,    7.4102,    6.1264,    8.7006,   11.0550,   10.6901,    9.5059,    9.1141,    9.1008,    9.3721,    9.4050,    9.9961,   10.2913,   10.3960,   11.1766,   13.8304,
24-SEP-2002 07:04:57.87 ,   -5.4531,   -4.4258,   -4.1747,   -1.5691,   -0.5532,    0.2773,   -0.3132,   -0.7652,   -0.7044,   -0.5718,   -1.2383,   -1.8738,   -1.6261,   -1.0745,    0.2794,    1.1194,    1.0215,    0.7500,    0.4845,   -0.0450,   -0.1158,    0.0912,    0.7439,    0.6695,    0.0986,   -0.0611,    0.7663,    1.3823,    2.4095,    2.6438,    2.1389,    0.9843,    1.7351,    1.9575,    1.5527,    2.6091,    3.3918,    3.9368,    5.3012,    6.6513,    7.8633,    5.1648,    4.3166,    5.1753,    5.3548,    5.2424,    5.6848,    8.7210,    7.8968,   10.1594,   10.0148,    8.4196,    9.5790,   11.2846,   11.3111,    9.8734,    8.2349,    8.9812,    9.0252,    9.2956,    9.5860,    9.7300,   10.3657,   10.8591,   13.5010,
24-SEP-2002 07:07:39.03 ,  999.0000,   -3.7480,   -3.0960,    0.1967,   -0.1501,    0.3653,   -0.9209,   -1.4205,   -1.2086,   -1.0306,   -1.4821,   -1.4948,   -1.4362,   -0.8803,    0.1122,    0.8677,    0.5432,    0.4141,    0.3094,    0.2449,    0.2363,    0.0342,   -0.5120,   -1.0595,   -0.2198,    0.2795,    1.6090,    2.0743,    3.1438,    3.7701,    2.8624,    1.5695,    1.2242,    1.2411,    1.2818,    3.5051,    3.1862,    2.1549,    4.2573,    5.3668,    6.3291,    6.4393,    0.9057,    2.5556,    3.6720,    5.4299,    8.3314,    9.4440,   10.0338,   10.8165,   10.6409,    7.9048,    8.9207,    9.7769,    9.1044,    9.3566,    8.1760,    8.6614,    9.7118,    9.4127,    9.5803,    9.8038,   11.0666,   12.3745,   12.4393,
24-SEP-2002 07:10:20.80 ,  999.0000,   -2.6332,   -2.1314,    1.3635,    0.3050,    0.2331,   -0.7333,   -1.3422,   -0.7757,   -0.6562,   -1.1688,   -1.1112,   -1.1216,   -1.1571,    1.0993,    1.4440,    0.8064,    0.4905,    0.6676,    0.9171,    1.3199,    1.3812,    0.8499,    0.5554,    0.1597,    0.4007,    1.3348,    2.4840,    2.9625,    3.4781,    2.1783,    0.3608,    0.6658,    2.0480,    1.1972,    3.9433,    4.3077,    3.7658,    5.6044,    5.8304,    6.7528,    7.1423,    6.2599,    7.1942,    7.9130,    6.3977,    7.5508,    9.1145,    8.6106,    9.0957,    7.8923,    7.7783,    8.0080,    9.6237,   10.3288,    7.7484,    7.2148,    8.0840,    7.7403,    7.3873,    7.5482,    7.8867,    9.4902,   11.1059,   12.0597,
24-SEP-2002 07:13:02.21 ,   -3.4949,   -2.8548,   -2.6962,   -1.0928,   -0.9686,   -0.6879,   -0.8199,   -1.1527,   -0.4830,   -0.5570,   -1.0267,   -0.8962,   -0.6382,   -1.0900,    1.3489,    1.5446,    1.2146,    0.9276,    1.0697,    1.0538,    1.1356,    1.3775,    0.7881,    0.1994,   -0.6642,   -0.8235,    0.1042,    2.0012,    3.0798,    4.0069,    2.8342,    0.9783,    1.8763,    2.5478,    2.1411,    2.5959,    3.0806,    1.9799,    4.1915,    4.7483,    5.0532,    4.1501,    3.0036,    5.2389,    3.8785,    6.6740,    5.4352,    8.4380,    8.1891,    9.5033,    8.7894,    7.5593,    8.5777,   10.0014,    9.6502,    4.3242,    4.8854,    6.9270,    7.2035,    7.6651,    7.3865,    8.2503,   11.0279,   11.0002,   12.5962,
24-SEP-2002 07:15:44.06 ,   -4.1389,   -2.5800,   -2.1439,   -1.8140,   -1.0595,   -0.7458,   -1.0872,   -0.7744,   -0.6614,   -0.9371,   -1.1327,   -0.6805,   -1.0837,   -1.5365,    0.9519,    1.0944,    0.8129,    0.9674,    1.0550,    0.7751,    0.7255,    0.8083,   -0.0081,   -0.4162,   -0.6437,   -0.6358,    0.2554,    3.0690,    4.3605,    4.5058,    2.9426,    2.0670,    2.1762,    2.1643,    2.3214,    3.1298,    2.6423,    2.2598,    3.5963,    3.8836,    3.6524,    4.1512,    3.9675,    6.5261,    3.6500,    5.6737,    6.0739,    7.1218,    7.6300,    9.4379,    9.6256,    8.3927,    8.0567,    8.2297,    9.1833,    8.4646,    7.8891,    7.6934,    7.7398,    7.3457,    8.7128,   10.0220,    9.2442,    9.2698,   13.0243,
24-SEP-2002 07:18:25.83 ,   -6.2958,   -2.6444,   -2.0826,   -0.5672,    0.1688,    0.1477,   -0.4855,   -0.5663,   -0.5527,   -0.7558,   -0.9591,   -1.2154,   -1.9331,   -1.8864,    0.4983,    1.0587,    0.7039,    0.6560,    0.7927,    0.8570,    0.7903,    0.7135,    1.1676,    0.5584,   -0.3446,   -0.5047,    0.3038,    2.3990,    3.4901,    3.7424,    1.5187,    0.7934,    1.8745,    2.2322,    2.3745,    2.6087,    2.9518,    2.9564,    2.9052,    4.4965,    4.2256,    4.4069,    4.0453,    4.4795,    6.1894,    6.6100,    6.4157,    7.0588,    9.9110,    8.3227,    8.5368,    7.8478,    7.0062,    8.8014,    9.8214,    9.5502,    8.1552,    8.2545,    8.2491,    9.1007,    9.3283,    8.0696,    8.2489,   10.4134,   12.6794,
24-SEP-2002 07:21:07.05 ,   -9.0220,   -5.7519,   -3.4187,   -0.9213,   -0.0340,    0.0088,   -0.9396,   -0.9125,   -0.7848,   -0.9281,   -1.6708,   -2.0890,   -2.2107,   -2.1643,    0.0824,    0.9506,    0.7175,    0.8067,    1.3354,    1.4262,    0.6849,    0.0239,   -0.4728,    0.6162,   -0.2828,   -0.2958,    0.5005,    2.0950,    2.3685,    2.2735,    1.3455,    0.0879,    0.4605,    2.1755,    2.2409,    3.3444,    2.2659,    1.2060,    3.3566,    3.4969,    3.5866,    4.0076,    3.4520,    4.9096,    6.2509,    6.5423,    8.3215,    9.3023,    9.5868,    8.7876,    9.2997,    8.9267,    8.0292,    9.6012,   10.7303,   10.4512,    8.6726,    8.3391,    8.3422,   10.1909,   10.4119,    9.1321,    9.5545,   11.3821,   12.7000,
24-SEP-2002 07:23:48.55 ,   -7.1446,   -6.3404,   -3.8134,   -2.1359,   -1.1157,   -0.7305,   -1.6882,   -1.5941,   -0.9543,   -1.0972,   -1.8804,   -1.0592,   -0.7382,   -1.2000,    0.3927,    1.0927,    1.0583,    1.2640,    1.6302,    1.3503,    0.8231,   -0.1118,    0.3344,   -0.1770,   -0.6402,   -0.6020,    0.1685,    0.9422,    1.6865,    2.0974,    0.7588,   -0.0854,   -0.1281,    1.9231,    2.7269,    3.2719,    3.0789,    2.2417,    5.0543,    4.5458,    2.4672,    2.4777,    3.0246,    4.0841,    3.4162,    3.3506,    6.5419,    7.9351,    8.8500,    9.6763,    9.8661,    8.9798,    8.5671,    9.3416,   11.6984,   10.9420,    8.7481,    9.2953,    9.8547,   10.3126,   10.6308,   10.3578,   10.4712,   10.7322,   12.8973,
24-SEP-2002 07:26:30.22 ,   -6.4132,   -6.2313,   -5.0309,   -2.6561,   -1.1692,   -0.6726,   -1.0973,   -1.4886,   -0.7182,   -0.7969,   -2.1680,   -1.5397,   -1.1582,   -0.4821,    0.6508,    1.3517,    1.3463,    1.1676,    1.0729,    0.7402,    1.0061,    0.1806,    0.2917,   -0.2184,   -0.7436,   -0.6139,    0.0899,    0.5363,    1.9230,    3.2030,    1.3625,    0.0778,    0.2715,    0.5899,    0.7610,    1.4061,    3.3303,    4.0221,    5.8989,    6.8366,    3.8605,    3.5603,    3.3831,    5.2101,    4.8676,    5.0506,    5.5324,    6.4313,    8.4407,    9.4717,    9.4684,    7.8821,    8.4166,    9.0467,   11.7772,    9.9773,    7.8887,    8.1511,    8.3690,    8.5694,    9.1982,    7.7900,    7.4849,    8.4834,   11.2634,
24-SEP-2002 07:29:11.69 ,   -5.1021,   -4.5396,   -3.7380,   -0.9812,    1.3180,    0.2764,   -0.3201,   -0.5730,   -0.1004,   -0.0836,   -1.2739,   -1.7378,   -1.6750,   -0.3022,    0.6780,    1.0698,    1.0122,    0.7746,    0.8143,    0.8382,    0.9419,    0.2965,   -0.4410,    0.0473,   -0.1097,    0.1256,    0.8801,    0.9585,    1.3309,    3.6075,    2.2440,    0.3468,    0.8590,    1.7058,    2.6553,    3.2006,    5.2096,    4.8673,    4.7627,    6.8129,    5.1409,    5.6614,    4.3134,    6.5877,    6.5646,    8.0506,    9.0857,    9.1724,    9.6716,   10.6300,    9.8354,    9.4189,    8.7144,    9.2088,   10.0142,    9.0119,    4.7063,    8.3040,    8.0794,    8.6639,    8.3482,    8.1318,    8.6716,    9.8755,   10.1331,
24-SEP-2002 07:31:53.14 ,  999.0000,  999.0000,  999.0000,  999.0000,    1.2430,    0.4176,   -0.0975,    0.1311,    0.4201,   -0.0895,   -0.3442,   -0.3140,   -0.5961,   -0.0392,    1.0363,    1.0724,    1.0420,    0.9336,    0.9626,    1.1501,    1.2251,    0.7541,    0.4180,   -0.0111,   -0.3006,   -0.4321,    1.1499,    2.1498,    3.5524,    4.4591,    1.7349,    0.0752,    0.0594,    0.4597,    2.5777,    4.1736,    4.9603,    5.9735,    4.8313,    7.4554,    5.5591,    3.6554,    7.4750,    5.0726,    6.4194,    7.6016,    8.5855,    9.2769,    9.5478,   10.4097,   10.0794,    9.6254,    8.6189,    8.1379,   11.2836,   11.1146,    9.4836,    8.4162,    8.8812,    8.3332,    7.5225,    7.5193,    8.3768,    9.3458,    9.5825,
24-SEP-2002 07:34:35.09 ,  999.0000,  999.0000,  999.0000,  999.0000,    1.0735,    0.5867,    0.3300,    0.0934,    0.0957,    0.1316,   -0.6611,   -0.5598,   -0.4207,   -0.3109,    1.0122,    1.4300,    1.2867,    1.1065,    1.2200,    1.2632,    1.2874,    0.7002,    0.4146,    0.3718,    0.3944,    0.0601,    0.7561,    2.1268,    3.1844,    3.1750,    2.6332,    1.0809,    0.4959,    1.6396,    2.9087,    2.4153,    3.7157,    4.7945,    5.1182,    7.4508,    6.4028,    3.9633,    7.9946,    9.4095,    7.5431,    8.2160,    8.7439,    9.0856,    9.1379,   10.5559,    9.3557,    9.6334,    9.6990,    7.9023,   10.2108,   11.4425,    9.2209,    6.9007,    8.5380,    8.6676,    5.3510,    5.7687,    7.2879,    7.2063,    9.1553,
24-SEP-2002 07:37:16.59 ,   -4.7500,   -3.5896,   -1.3329,   -0.5113,    0.9073,    0.3998,   -0.1308,   -0.2562,   -0.1661,    0.2657,   -0.3938,   -0.7031,   -1.3302,   -0.9174,    0.6396,    1.0635,    0.9075,    0.8222,    0.8762,    0.7364,    0.6375,   -0.1684,    0.1688,   -0.6204,   -0.6765,   -0.7602,    0.3344,    1.3501,    1.7017,    2.8064,    4.4311,    2.9312,    2.1032,    2.3275,    2.8116,    3.0989,    4.9732,    4.6851,    4.2031,    6.8820,    6.0397,    7.1026,    7.9115,    8.5994,    6.8229,    8.0902,    8.3728,    7.8796,    8.7237,    9.9750,    8.4101,    8.1544,    9.2187,    9.8126,    9.9883,   11.9829,    9.3154,    8.2882,    8.7041,    9.4255,    9.9324,   10.4562,   10.3315,    8.6755,    8.9245,
24-SEP-2002 07:39:58.72 ,  999.0000,  999.0000,   -1.2901,    0.0922,    0.7338,    0.2659,   -0.5778,   -0.8286,   -0.4259,   -0.3557,   -1.0392,   -1.2085,   -1.6377,   -2.0838,    0.0259,    0.4497,    0.4942,    0.2396,    0.0268,   -0.1948,   -0.5969,   -0.5744,   -0.4733,   -1.0257,   -1.3064,   -1.2478,   -0.3494,    0.9820,    1.6083,    2.1457,    2.1535,    2.3372,    2.6476,    2.2314,    2.6320,    3.3057,    5.0163,    4.9354,    4.6166,    7.8268,    7.3061,    8.2389,    9.2814,    8.8132,    6.8163,    7.4293,    7.4233,    6.1079,    6.3964,    7.6257,    7.3364,    8.1785,    9.5103,   11.7282,    9.7879,   11.5789,    9.7545,    8.9213,    9.8491,    9.9392,   10.0700,   10.8538,   11.5971,   12.5815,   15.0677,
24-SEP-2002 07:42:40.46 ,  999.0000,  999.0000,   -3.3782,   -0.2857,    0.7418,    0.3604,    0.0118,    0.0329,    0.0701,    0.3638,   -0.4057,   -0.6622,   -0.3906,   -0.8967,    0.2418,    0.3599,    0.0873,   -0.1070,   -0.2409,   -0.4357,   -1.0680,   -0.9547,   -0.2484,   -0.4413,   -0.7995,   -0.9547,   -0.1195,    2.0933,    2.2294,    1.9601,    2.3422,    2.1401,    2.1620,    1.7215,    2.6951,    4.8471,    6.2015,    6.2739,    6.5767,    8.4984,    8.1027,    9.1868,    9.2584,    8.8504,    8.5048,    7.7828,    7.5742,    8.4096,    8.9112,   11.4132,   10.6666,   10.8446,   10.4878,   10.9339,   11.9966,   11.6704,   10.5788,    9.3285,   10.1489,   10.7102,    9.7244,   11.3460,   16.0164,   19.0955,   23.5964,
24-SEP-2002 07:45:21.89 ,   -3.7367,   -3.6021,   -3.8950,   -1.4122,   -1.1294,   -0.5978,   -0.0538,    0.6817,    0.8605,    1.4083,    0.7988,    0.1668,   -0.2038,   -0.0461,    0.7922,    0.8114,    0.5354,    0.8178,    0.9517,    0.3884,   -0.2666,   -1.0515,   -0.6657,   -0.8358,   -0.6680,   -0.4668,    0.4070,    2.3168,    2.2664,    1.7534,    2.7801,    2.4918,    1.9022,    2.0876,    3.5221,    4.5535,    6.1387,    7.4178,    5.4520,    6.8660,    6.1074,    8.3658,    8.9725,    9.0671,    7.8249,    4.8175,    6.7784,    8.2851,   10.1868,   11.8441,   11.7176,    9.8796,   11.5067,   11.8139,   10.3677,   10.1100,   11.2230,    8.6516,    8.9429,    9.8061,    7.4385,    8.7940,    9.0584,    9.6123,   10.8683,
24-SEP-2002 07:48:03.43 ,  999.0000,  999.0000,   -3.1219,   -1.3173,   -1.4045,   -1.0682,   -0.2895,   -0.3169,    0.3867,    1.0721,    0.0299,   -1.1481,   -0.5555,   -0.0360,    0.8366,    1.0782,    0.9238,    0.6000,    0.6275,    0.2062,   -0.6031,   -1.2789,   -0.6983,   -1.2359,   -0.8208,   -0.0944,    1.0899,    2.2572,    1.9638,    1.7177,    3.5382,    3.5010,    1.4229,    1.2908,    3.5035,    4.7244,    4.6556,    4.7134,    3.5465,    5.0354,    6.0267,    7.2968,    7.5914,    7.8589,    7.2043,    4.8050,    6.2756,    9.0046,    9.3241,   12.4521,   12.1203,    9.8019,   11.5933,   12.3674,   11.7789,   11.2198,   11.7456,    9.4415,    9.1734,    9.2990,    8.0648,    8.1076,    8.2140,    9.4320,   10.7788,
24-SEP-2002 07:50:45.08 ,  999.0000,  999.0000,   -2.2267,   -0.1469,    0.8914,    0.2480,    0.1975,   -0.2050,    0.4540,    0.5169,   -0.4941,   -1.1922,   -0.3383,   -0.3669,    0.5098,    0.5090,    0.1379,   -0.1733,   -0.0878,   -0.1995,   -0.7531,   -1.0782,   -1.0432,   -1.2589,   -0.8334,   -0.8172,    0.0722,    1.5722,    1.7513,    2.6842,    5.3543,    6.3967,    3.6496,    2.8764,    3.9837,    4.8947,    5.6872,    5.2636,    5.2850,    7.1751,    6.4077,    5.6962,    8.9515,    9.7318,    7.2043,    5.4532,    4.3415,    7.9985,    9.1203,   11.6378,   11.7275,   11.4646,   12.1760,   12.0573,   11.2737,   10.8953,   11.4349,    9.5124,    8.5372,    8.3653,    8.0076,    9.0872,    8.7887,    9.5680,    9.6855,
24-SEP-2002 07:53:26.62 ,   -6.4031,   -5.4835,   -4.2086,   -1.2607,    0.4615,    0.4339,    0.2183,    0.6009,    1.3548,    0.9878,    0.3601,   -0.5590,   -1.6364,   -1.9003,    0.1373,    0.1743,   -0.1837,    0.0763,    0.1729,   -0.5412,   -1.2583,   -1.0764,   -0.9234,   -1.2372,   -1.2915,   -1.2165,   -0.2993,    1.3532,    1.6797,    3.3848,    4.0980,    6.1190,    3.4581,    2.5567,    3.7602,    4.7468,    6.0516,    6.0748,    6.7695,    7.8841,    7.6055,    8.7692,    9.5201,   10.4575,    7.6425,    9.4489,    2.6659,    8.9160,    9.4494,   11.5711,   10.9153,   11.3921,   12.2349,   12.5141,   11.0686,   11.9440,   11.7483,   10.2842,    8.7283,    7.9814,    6.1148,    7.6910,    8.4104,    8.7430,   10.2765,
24-SEP-2002 07:56:08.35 ,   -5.2300,   -5.1574,   -4.7833,   -1.3727,   -0.9639,   -0.4394,    0.5419,    0.1973,    1.1107,    0.7835,   -0.9247,   -1.6889,   -2.2642,   -1.9905,   -0.3896,   -0.0069,   -0.2124,    0.0175,    0.2199,   -0.3712,   -1.1438,   -0.9732,   -0.0187,   -0.8894,   -0.3889,   -0.3558,    0.3129,    1.7007,    2.5465,    3.8363,    4.7107,    5.1987,    2.3269,    0.8230,    3.0247,    4.8511,    5.9154,    6.0456,    7.5576,    8.6145,    8.4338,    8.7553,    8.9423,    8.7373,    7.5494,    7.5986,    7.5809,    6.1981,    6.4418,   10.1118,    7.5497,    8.3890,   10.9367,   11.7449,   10.6512,   11.6299,   10.3846,   10.6978,    9.4627,    7.3810,   -0.4858,    0.7004,    3.5364,    3.4262,    5.8154,
24-SEP-2002 07:58:49.82 ,   -5.3246,   -4.6993,   -4.6959,   -1.8280,   -0.7100,   -0.5518,   -0.1627,   -0.5332,    0.3696,   -0.1157,   -2.5537,   -2.2405,   -0.9121,   -0.7423,   -0.3616,   -0.1962,   -0.3131,   -0.0687,    0.3963,    0.3615,    0.0740,   -0.2259,   -0.1826,   -0.0322,    0.0975,    0.4255,    1.0258,    3.1725,    3.2434,    4.4688,    6.0379,    5.5628,    3.2804,    1.2716,    3.7341,    5.6062,    6.2646,    6.2173,    6.8944,    6.6755,    6.4813,    8.3386,    9.3489,    8.7777,    6.6509,    3.4888,    5.7568,    5.7419,    6.1305,    8.6383,    9.0584,    9.1481,   10.0733,   11.5805,   11.0899,   12.8836,    9.8466,   11.2765,    8.5647,    6.5555,  -12.4972,  -14.6215,   -7.6718,   -9.4733,   -3.1248,
24-SEP-2002 08:01:31.06 ,   -4.8413,   -4.6911,   -3.9456,   -0.4952,    1.5615,    1.2527,    0.1440,    0.2066,    1.2172,    0.8037,   -0.5323,   -0.1227,   -0.3756,   -0.5164,    0.2162,    0.1636,   -0.0796,    0.1045,    0.4888,    0.3488,    0.1957,    0.0415,   -0.1834,   -0.2990,    0.2738,    1.1760,    1.6948,    3.3836,    3.8123,    3.3955,    4.0553,    5.1943,    3.3083,    1.6873,    2.4171,    4.4902,    5.3599,    5.1856,    5.6235,    5.5289,    5.0229,    8.0308,    9.3255,    9.1390,    4.8962,    2.8106,    4.1154,    4.5552,    3.5967,    7.3294,    7.8112,    7.4167,    7.9795,    9.6534,   11.1326,   12.8220,   11.2225,   10.4375,    6.6336,   10.1152,    7.2812,   10.4157,    9.5807,    9.7365,   10.4182,
24-SEP-2002 08:04:12.34 ,   -4.2058,   -4.2638,   -2.9807,    0.1937,    1.8528,    1.7871,    1.2785,    1.4323,    2.2670,    1.6443,    0.5545,   -0.4152,   -0.7478,   -0.5035,   -0.0438,   -0.0188,   -0.0899,    0.2221,    0.4334,    0.0770,   -0.1799,   -0.5352,   -0.5509,   -0.9162,   -0.2911,    0.7983,    1.3696,    2.4003,    3.8794,    4.0701,    3.8090,    3.0680,    3.3659,    2.6859,    2.1465,    3.4734,    3.9065,    4.2535,    6.7459,    7.9497,    8.0575,    9.1264,   10.2466,    8.9878,    5.5989,    5.6984,    7.1504,    8.3289,   11.5808,   12.0107,   12.0994,   15.4353,   20.4734,   18.6225,   18.2134,   16.2070,   16.6249,   15.7617,   16.2560,   17.2204,   17.2446,   16.2960,   16.7505,   18.2420,   18.6879,
24-SEP-2002 08:06:54.04 ,   -4.7708,   -4.6258,   -2.9311,   -0.5728,    1.0183,    1.0631,    0.6545,    1.2251,    1.5340,    0.4697,   -1.3043,   -1.7253,   -1.6031,   -0.8815,   -0.4593,   -0.1001,   -0.2535,    0.0402,    0.2336,   -0.3105,   -0.4875,   -0.7471,   -0.9088,   -1.0721,   -0.8282,    0.1671,    0.8586,    2.6991,    4.1327,    4.2984,    4.4518,    3.9442,    3.9573,    3.1707,    2.0680,    2.2405,    3.0900,    1.8728,    2.6230,    3.2604,    2.1174,    2.6907,   18.6011,   21.8577,   20.2430,   17.5520,   15.8764,   15.1058,   14.5152,   13.3364,   14.2195,   21.9157,   36.1935,   28.0272,   28.3497,   24.0461,   27.5876,   27.7556,   31.2521,   32.1840,   34.2986,   33.7851,   34.8513,   35.5224,   34.1671,
24-SEP-2002 08:09:35.64 ,   -5.6906,   -5.3912,   -3.8274,   -1.7517,    0.1290,    0.5737,    0.1404,    0.5341,    0.8956,   -0.1257,   -1.4386,   -1.3935,   -2.1396,   -1.4785,   -0.4402,   -0.2608,   -0.5725,   -0.1808,    0.2333,    0.1530,   -0.1559,   -0.2540,   -0.4952,   -0.8697,   -0.7508,   -0.0238,    0.4738,    2.4172,    3.9658,    5.0378,    5.8256,    5.1175,    3.2088,    1.5411,    0.5827,    0.2019,    0.2912,   -2.1347,   -4.4557,   -6.7582,  -10.0271,  -11.2195,   36.0245,   46.2630,   43.9000,   37.1337,   32.0487,   23.9605,   17.4067,   11.3297,   13.5112,   11.0830,   10.9614,   10.5915,   12.2785,   12.4985,    9.8372,   10.2901,    9.9049,    7.9055,    9.7179,    7.7708,    9.3971,    9.1227,   11.0031,
24-SEP-2002 08:12:17.36 ,   -6.3100,   -5.8420,   -4.2992,   -2.8069,   -1.6817,   -0.0491,    0.6873,    0.5290,    1.0963,    0.5960,   -0.5148,   -1.9582,   -1.9306,   -0.9140,   -0.1021,   -0.1337,   -0.1906,    0.1505,    0.3351,    0.6568,    0.3059,   -0.1458,   -0.2464,   -0.4832,   -0.3344,    0.2690,    0.9498,    2.4571,    4.6789,    5.8220,    5.1636,    4.7165,    4.6155,    4.5979,    4.5168,    4.8132,    5.7029,    6.1593,    7.3176,    8.0877,    8.1665,    8.7839,    9.4128,    9.6852,    7.1345,    6.2576,   10.6947,    7.3537,    6.4403,    6.6409,    7.3588,    7.4054,    7.1573,    8.2889,    8.9247,    6.9553,    5.1493,    3.6710,   -1.1337,   -0.6512,   11.8402,   12.3665,    5.7853,    4.5744,    6.2277,
24-SEP-2002 08:14:59.69 ,   -6.4702,   -5.8032,   -4.3660,   -2.5705,   -1.8271,   -0.1712,    0.2195,    0.2396,    0.8972,    0.6682,   -1.4588,   -3.3305,   -2.5601,   -1.3738,   -0.0926,   -0.2897,   -0.4658,   -0.2537,   -0.2471,   -0.0020,   -0.2557,   -0.6419,   -0.0826,   -0.1651,   -0.2641,    0.6295,    1.3719,    3.2525,    4.7617,    5.3122,    5.0700,    6.0970,    5.9777,    5.0084,    4.0158,    4.0464,    6.3208,    6.8689,    6.9731,    7.4844,    7.7871,    8.1892,    8.5567,    9.2230,    9.6631,    8.1005,   10.0157,   11.8958,   12.7012,   13.6379,   13.3094,   13.2856,   12.6199,   12.8281,   11.9126,    4.1918,   -3.1408,  -10.7258,  -23.1213,  -17.4992,   21.4339,   13.3802,   -1.8363,   -5.9678,   -5.9793,
24-SEP-2002 08:17:42.03 ,   -6.0390,   -5.5613,   -3.8761,   -2.6117,   -0.5402,    0.2393,    0.2455,    0.5636,    1.0405,    0.5444,   -0.6152,   -2.0603,   -3.2380,   -1.6892,   -0.3117,   -0.5818,   -0.9456,   -0.9972,   -0.8701,   -0.6456,   -0.6618,   -0.4961,   -0.5319,   -0.3589,    0.8204,    2.9342,    4.3785,    4.5591,    4.1741,    4.3618,    4.3576,    5.3006,    5.4733,    5.1090,    3.9778,    3.7520,    5.3734,    6.2303,    6.4919,    7.2848,    7.6552,    8.3800,    9.0114,    9.4569,    8.5685,    9.3898,   10.4941,    9.9895,   11.0304,   13.6967,   10.9004,   12.6251,   13.2519,   12.8538,   12.2982,   11.0275,   11.6170,   10.3358,    8.7643,    8.4398,    7.2092,    7.8158,    8.6137,    8.7714,    9.4537,
24-SEP-2002 08:20:23.15 ,   -5.1435,   -5.0888,   -3.1533,   -2.1368,   -0.2857,    0.7419,    0.8992,    0.7470,    0.8382,   -0.1247,   -0.8652,   -1.7980,   -3.1928,   -2.0489,   -0.9931,   -0.8463,   -0.5736,   -0.6453,   -0.9190,   -1.0077,   -0.7393,   -0.4687,   -0.6076,   -0.1361,    0.0191,    0.2601,    0.9877,    2.3028,    4.2020,    4.7158,    5.7038,    6.4008,    6.5741,    6.5914,    4.0144,    3.2054,    3.3377,    6.0054,    6.9637,    7.9794,    7.9372,    8.5695,    9.0914,    9.4123,    7.5598,    8.4860,    9.6113,    8.0028,   10.7267,   12.1157,   12.7139,   12.5244,   12.8102,   12.8130,   13.2333,   12.2885,   11.7194,    9.8299,    9.2803,    8.9389,    6.9954,    7.7389,    8.5706,    9.7639,   10.6571,
24-SEP-2002 08:23:04.60 ,   -5.0435,   -4.6118,   -3.5355,   -2.8329,   -1.1526,    0.0213,   -0.4824,   -0.6966,   -0.8480,   -1.8123,   -2.9324,   -3.7412,   -3.6938,   -2.5087,   -1.3691,   -1.1990,   -0.6992,   -0.2830,   -0.1000,   -0.3985,   -0.4178,   -0.1289,   -0.3723,   -0.1208,    0.1166,    0.5628,    1.8478,    2.8236,    3.7145,    3.8153,    5.0879,    6.3061,    6.1462,    5.6654,    3.4967,    3.5158,    4.1795,    6.4214,    7.4007,    8.7576,    9.5041,    9.4564,    9.4292,   10.5108,   11.1052,   11.3132,    9.1290,    9.1522,    8.3417,    9.0644,   12.0595,   11.9973,   12.2374,   13.3752,   14.2099,   13.8421,   11.2001,    9.9599,    9.5974,    9.3700,    8.7431,    9.6002,    9.9695,   10.6406,   11.0817,
24-SEP-2002 08:25:45.89 ,   -5.6456,   -4.8780,   -4.7177,   -4.1168,   -2.8662,   -1.9889,   -1.3700,   -1.1773,   -1.1057,   -1.4478,   -2.4972,   -3.4667,   -3.0151,   -2.4287,   -1.5226,   -1.1089,   -0.7775,   -0.3549,    0.0429,   -0.0104,   -0.0305,    0.2784,    0.0871,   -0.1489,    0.0641,    0.8325,    1.6777,    2.0857,    3.1042,    4.6348,    5.4357,    5.9433,    5.7530,    5.4574,    5.0230,    4.9746,    6.6878,    7.3169,    7.8785,    8.8884,    9.5438,    9.0408,    9.0756,    9.9954,   12.2900,   12.4810,   14.5690,   14.0466,   14.1120,   14.5498,   13.7516,   14.3349,   13.6150,   14.4867,   14.1917,   13.6191,   12.4260,   10.5728,    8.8275,    7.8831,    8.1108,    9.2984,    8.9239,    9.7325,   11.2217,
24-SEP-2002 08:28:27.90 ,   -6.9864,   -6.0522,   -5.5806,   -4.6697,   -3.2732,   -3.2888,   -2.2570,   -1.7143,   -1.0017,   -1.1695,   -2.1882,   -3.1997,   -2.8386,   -2.9428,   -2.1412,   -1.4467,   -0.9987,   -0.8603,   -0.5595,   -0.4968,   -0.3096,    0.1598,    0.3610,    0.1346,    0.5565,    0.7923,    0.9906,    1.7645,    2.7256,    4.7177,    6.0227,    6.0130,    5.6152,    6.1586,    5.4958,    5.3117,    6.5897,    7.1361,    7.7770,    8.6539,   10.1553,   10.6408,   10.1850,   10.7818,   11.5134,   12.8752,   13.3046,   14.3049,   14.8817,   14.5788,   13.6646,   13.6227,   13.5587,   14.2556,   13.9396,   12.9972,   12.7039,   10.4786,    8.8583,    8.1867,    8.2847,    9.0279,    8.5907,    8.3204,   10.1475,
24-SEP-2002 08:31:09.86 ,  -18.1445,   -5.0549,   -4.8603,   -3.1715,   -2.1712,   -1.9534,   -1.5865,   -1.1638,   -0.7674,   -1.4834,   -2.6723,   -3.6306,   -3.4926,   -2.4699,   -1.5330,   -1.5766,   -0.9847,   -0.4877,   -0.6784,   -0.7816,   -0.3724,    0.0571,    0.5051,    0.7977,    0.7040,    0.5807,    0.8952,    2.2781,    2.7355,    4.0648,    6.2148,    6.4104,    5.7370,    5.6235,    4.9269,    5.2087,    6.1606,    7.1809,    7.6337,    8.8817,    9.7638,   10.3023,   10.1605,   10.7810,   11.5868,   12.5689,   13.4273,   14.5295,   14.8174,   14.7499,   13.7239,   13.1213,   13.1312,   13.6142,   13.1155,   11.9853,   11.7976,    9.3350,    8.2397,    7.8695,    7.5528,    6.9209,    7.9865,    7.5398,    8.3216,
24-SEP-2002 08:33:51.00 ,  -21.4994,   -5.7153,   -3.8656,   -1.0798,   -0.4512,    0.8775,    0.8154,    1.0361,    0.9427,    0.5308,   -0.5459,   -1.2771,   -1.4973,   -1.2593,   -0.7940,   -0.7431,    0.1089,    0.4963,   -0.0296,   -0.0950,    0.2579,    0.7224,    1.2398,    1.3283,    1.0084,    1.5115,    2.4674,    2.4920,    2.9359,    4.2987,    5.9434,    6.5546,    6.7456,    6.6934,    5.2565,    4.9881,    6.0848,    7.4207,    7.1784,    8.4355,    9.6447,   10.6320,   10.6030,   10.5185,   10.3526,   10.9529,   11.9180,   13.7693,   14.6230,   13.8720,   13.7626,   13.3268,   12.1791,   12.3926,   12.9165,   11.7454,   10.0671,    9.3301,    7.4699,    7.0179,    6.9743,    7.4511,    7.9011,    7.5443,    8.7593,
24-SEP-2002 08:36:32.36 ,   -8.8103,   -7.7882,   -4.7482,   -1.7680,   -0.5664,   -0.1126,   -0.3543,    0.1767,    0.3589,    0.3244,   -0.1378,   -0.8748,   -1.3533,   -1.7210,   -1.2035,   -0.5473,    0.2312,    0.3552,    0.3593,    0.5191,    0.6513,    0.8716,   -3.1166,   -6.3665,   -2.3963,    1.2119,    1.7193,    1.7977,    3.3327,    5.6420,    6.5155,    6.0006,    5.6011,    5.6074,    5.6572,    5.4477,    5.9393,    6.9662,    6.1656,    8.7320,   10.2289,   10.5593,    9.6277,   10.2550,    9.9868,   -0.5760,   -2.0432,    3.2579,    4.3465,    7.3352,    9.1345,    8.9038,    6.0685,    4.8554,    5.9120,   18.3467,    2.4656,   15.4568,    1.5195,   13.5356,   11.8837,   11.8214,    9.3734,    8.0925,    9.0946,
24-SEP-2002 08:39:50.85 ,   -7.7815,   -7.7149,   -6.6610,   -4.8518,   -2.5861,   -1.3767,   -0.8252,   -0.3318,   -0.4776,   -1.5518,   -2.0419,   -2.8666,   -3.4684,   -3.3228,   -1.8916,   -1.1328,   -0.7598,   -0.3900,   -0.4859,   -0.3358,   -0.0071,   -0.0605,  -12.5903,  -24.3521,  -11.0826,    0.6589,    1.4196,    1.8048,    2.6803,    4.2607,    5.7390,    6.1279,    5.4322,    4.8858,    4.0509,    4.2818,    5.2162,    6.9484,    7.0923,    7.8686,    9.3858,    7.5523,    4.1720,    7.7333,   11.1271,  -20.7539,  -22.6685,  -23.3116,  -24.6771,  -14.6538,   -7.6507,   -8.0159,  -11.1002,  -18.0032,  -16.0096,   31.6196,  -18.7928,   29.5573,  -17.2712,   28.9435,   19.8228,   19.4412,   11.3070,    8.2934,    8.1613,
24-SEP-2002 08:42:32.69 ,   -7.2801,   -6.8649,   -5.7477,   -4.7536,   -1.6277,   -0.2769,    0.3921,    0.6182,    0.4374,   -1.4635,   -2.4412,   -2.7748,   -3.2798,   -2.8948,   -1.5210,   -0.7720,   -0.6504,   -0.3120,   -0.5410,   -0.2931,    0.2320,    0.2360,   -0.4849,   -0.3612,    0.1485,    0.9009,    1.1048,    1.2037,    2.1156,    2.9152,    4.0175,    4.6606,    4.4931,    4.8402,    4.4428,    4.1990,    5.3213,    7.2601,    8.0439,    9.0927,    8.0971,    9.3422,   10.2731,   10.7104,   10.8622,    7.6422,   11.9853,   13.5758,   13.5225,   13.2050,   13.2914,   13.0674,   14.1623,   14.7294,   14.1679,   11.8704,   10.9471,   10.4869,    8.6864,    8.3516,    8.2284,    8.1736,    7.7709,    7.0703,    7.5836,
24-SEP-2002 08:45:15.88 ,   -5.7742,   -5.2236,   -4.8700,   -2.2794,    0.3080,    0.9424,    0.7262,    0.9476,    1.0111,   -0.2422,   -1.4638,   -1.7690,   -2.0927,   -2.0464,   -1.2600,   -0.5004,   -0.3004,   -0.1046,   -0.1237,    0.2279,    0.8256,    1.2034,   -0.2029,   -0.1003,    0.4334,    1.4957,    2.1621,    1.9602,    1.8945,    3.2252,    5.8140,    7.3613,    7.0076,    5.9225,    5.1250,    5.2033,    6.7931,    7.8745,    8.6467,    9.5958,    7.1087,   10.2102,   11.0127,   10.4172,   11.2836,   12.1147,   12.6662,   13.6430,   13.3990,   13.3389,   11.9681,   12.9351,   13.2921,   14.0276,   13.0756,   11.4628,   10.2693,   10.6466,    9.6753,    8.5967,    9.0563,    8.1475,    7.3368,    6.6937,    7.1805,
24-SEP-2002 08:47:57.33 ,   -5.7174,   -4.0834,   -2.4731,   -0.3511,    0.4457,    0.1840,    0.0778,    0.1586,    0.1724,   -0.2472,   -1.2887,   -1.6749,   -2.0210,   -1.9932,   -1.5300,   -0.7600,   -0.1986,    0.2319,    0.4713,    0.5515,    0.8811,    1.2180,    0.2406,    0.4772,    0.5164,    1.7418,    2.9283,    3.6897,    4.5940,    5.5534,    6.5096,    6.8453,    6.3848,    5.8220,    5.1065,    5.2879,    6.3820,    8.2506,    9.2180,    9.8674,   10.5205,   11.2403,   11.4747,   11.2851,   12.1592,   13.1227,   13.3622,   14.5021,   14.5438,   14.2258,   13.6135,   13.4348,   13.7171,   13.6835,   13.5898,   11.2817,    9.8978,   10.3460,    9.3656,    9.2841,    9.5474,    9.4054,    7.4631,    6.2959,    9.1026,
24-SEP-2002 08:50:39.17 ,   -7.1097,   -5.6124,   -3.3401,   -2.8849,   -0.3617,    1.3659,    0.8856,    1.5298,    1.1383,    0.6871,   -0.4354,   -1.1244,   -1.7307,   -2.0623,   -1.5751,   -0.6058,    0.1808,    0.8274,    1.0122,    0.8796,    1.2268,    1.4171,    0.2604,    0.7042,    0.9896,    1.5965,    2.1515,    2.7594,    3.9541,    4.8444,    5.7018,    6.4623,    6.2443,    5.8264,    5.5703,    5.9454,    6.7916,    7.9368,    8.7492,    9.6275,   10.9372,   12.2159,   11.4559,   10.7594,   12.3952,   13.2486,   13.1960,   13.4194,   13.7564,   13.6629,   14.1532,   13.1804,   13.7408,   14.2749,   13.9566,   12.0304,   10.8685,   10.6004,    9.1087,    6.6868,    5.8685,    7.6018,    7.7801,    7.6072,    9.9306,
24-SEP-2002 08:53:21.51 ,   -7.1313,   -5.9189,   -5.4482,   -4.4087,   -0.5850,    1.3559,    1.8403,    2.6555,    2.2785,    1.1737,    0.9372,    0.3024,   -0.9392,   -1.8215,   -1.6000,   -0.9909,   -0.0289,    0.4371,    0.7701,    0.6881,    0.8372,    1.1000,    1.4458,    1.3305,    1.0322,    1.8560,    3.0579,    3.8006,    4.7612,    5.5379,    6.2983,    6.6224,    6.5855,    6.1223,    5.9731,    6.4326,    6.8899,    8.3647,    8.6156,   10.5290,   10.6762,   11.6282,   11.8225,   12.1782,   12.0571,   12.5705,   12.7686,   13.1762,   13.7666,   14.0506,   14.1674,   14.9519,   15.2676,   15.0982,   12.2740,   11.0797,   10.7909,   10.4508,    9.2350,    7.5019,    6.5836,    6.9713,    6.9832,    6.7936,    7.8233,
24-SEP-2002 08:56:03.30 ,   -5.4906,   -4.5821,   -3.7784,   -2.5713,   -0.7862,   -1.1662,    0.0200,    0.1453,   -0.1387,   -0.8334,   -0.5391,   -1.2111,   -1.8633,   -1.7105,   -0.8460,   -0.3384,   -0.0058,    0.1678,    0.2138,    0.2286,    0.3615,    0.4876,    0.6132,    0.8807,    0.9741,    6.1705,    1.7568,   -1.7162,    2.7284,    4.9197,    5.7470,    6.1886,    5.6469,    6.5511,    6.3715,    6.4172,    6.4537,    6.3914,    6.8162,    9.4803,   11.1304,   12.5707,   13.0484,   11.4783,   11.9398,   12.7885,   12.6654,   13.5490,   13.4054,   13.1935,   13.3794,   14.0427,   13.4226,   14.3276,   12.2596,   11.2521,   10.5032,   10.5969,    9.8663,    9.4887,    8.4341,    9.2876,    9.2281,    9.7420,   10.3223,
24-SEP-2002 08:58:44.88 ,  -12.8628,   -5.8485,   -1.2244,    0.7809,    0.8074,   -0.2773,   -1.1205,   -0.8759,   -0.8997,   -1.1832,   -1.7852,   -2.4912,   -2.9891,   -2.7508,   -1.4581,   -0.3703,   -0.4365,   -0.2253,   -0.2872,   -0.1608,    0.0942,    0.2756,    0.1753,    0.4813,    0.5561,   14.7931,   -1.0690,  -12.8011,   -0.1909,    4.9318,    5.6151,    6.0053,    5.9929,    6.3118,    5.5677,    5.1977,    5.7137,    4.4214,    6.0334,    8.3330,   10.3324,   10.9124,   11.0440,   10.7285,   11.5755,   12.1072,   12.9543,   13.4721,   12.5204,   11.7853,   12.4833,   12.9432,   13.9716,   15.2828,   13.4489,   10.8314,   10.8130,   11.8537,   12.3729,   12.0473,   10.5667,   12.4305,   12.4671,   11.7017,   13.1748,
24-SEP-2002 09:01:29.93 ,  -14.3924,   -4.9727,    0.9169,    3.2024,    2.9880,    2.2093,    0.2473,   -0.0133,   -0.1257,   -0.3561,   -1.7543,   -2.2236,   -2.8841,   -3.1675,   -1.9042,   -0.8244,   -0.6816,   -0.5952,   -0.5164,   -0.2646,   -0.0400,    0.1514,    0.0697,    0.9201,    1.0765,    1.4171,    1.8298,    2.5790,    3.7665,    4.8559,    5.3738,    5.9464,    5.9055,    5.9033,    5.9246,    5.5200,    5.4811,    4.7685,    4.9396,    5.4635,    8.4424,    9.5501,   10.0535,   11.2605,   11.2454,   11.8539,   12.9716,   13.3810,   11.6800,   11.8037,   11.9318,   12.1956,   12.8602,   13.8326,   11.6725,   10.5366,    8.7021,    8.3579,    8.7399,    7.7422,    5.7918,    6.4464,    6.1452,    4.2344,    7.7081,
24-SEP-2002 09:04:11.37 ,   -6.2291,   -4.9352,   -2.8859,   -0.8874,    0.5409,    1.0608,    0.0850,   -0.3441,   -0.4563,   -0.2638,   -1.8731,   -1.7727,   -2.2108,   -2.2618,   -1.1854,   -0.5385,   -0.2851,   -0.1596,   -0.1204,   -0.1431,   -0.1037,    0.3618,    0.0676,    0.5807,    0.6949,    1.8964,    2.7606,    3.2364,    4.1564,    6.1376,    7.1925,    7.3128,    7.1407,    7.0885,    7.1675,    7.1455,    6.1423,    7.2466,    9.2335,    9.9502,   10.0546,   10.4140,   10.3134,    9.7056,   10.6349,   11.4108,   12.2652,   13.1256,   11.6591,   11.5744,   11.7308,   11.9988,   13.5986,   13.7149,   12.2320,   10.2592,    7.8504,    7.0064,    7.0594,    7.0484,    7.8569,    7.7697,    8.1281,    8.0691,    9.5764,
24-SEP-2002 09:06:53.10 ,   -5.6380,   -4.3336,   -2.5515,   -1.1993,   -0.0998,   -0.1137,   -0.1373,   -0.4439,   -0.6349,   -0.1107,   -0.9838,   -0.9787,   -1.4549,   -1.8667,   -1.2804,   -0.6252,   -0.0768,    0.1325,    0.0385,   -0.0047,    0.2185,    0.7532,    0.3416,    0.6811,    0.4552,    0.9894,    2.0748,    3.2270,    4.3271,    5.9160,    6.2790,    6.7062,    7.4555,    7.0586,    6.4873,    6.0745,    6.3768,    5.8209,    7.8221,    9.7856,    9.8492,    9.8023,    9.9965,    7.3391,   11.0338,   11.7258,   11.0199,   11.5442,   11.1544,   11.7264,   12.2277,   12.9808,   14.3026,   14.1383,   13.0350,    9.5282,    7.9856,    8.2483,    8.4850,    7.5994,    7.9468,    7.6023,    7.7637,    6.7907,    8.0010,
24-SEP-2002 09:09:34.58 ,   -7.8597,   -5.8829,   -3.9820,   -3.0735,   -0.8185,   -0.2244,   -0.3686,   -0.0239,    0.0302,    0.1311,   -0.8350,   -1.0930,   -1.5351,   -2.5948,   -1.8475,   -0.8192,   -0.2369,   -0.0517,   -0.1678,   -0.3705,   -0.0957,    0.3876,   -0.1946,    0.3574,    4.7430,    0.3785,   -1.0846,    2.6589,    3.5165,    4.5950,    4.7479,    6.1486,    6.3563,    6.2736,    6.0943,    5.8771,    6.2755,    5.1149,    7.5516,   10.1776,   10.8879,   10.9622,   11.0621,   10.9901,   11.6987,   10.9929,   11.0649,   11.9409,   11.3463,   11.6049,   12.7009,   13.4832,   14.6535,   14.2720,   13.6250,   12.4115,    9.1181,    9.9414,    8.7824,    7.6601,    7.7886,    8.2991,    8.1940,    7.7001,    7.7920,
24-SEP-2002 09:12:16.04 ,  999.0000,  999.0000,  999.0000,  999.0000,   -0.0380,    0.6575,    0.3559,    0.9046,    1.3469,    0.5987,   -0.6571,   -1.3205,   -1.8071,   -2.0835,   -1.5519,   -0.8690,   -0.1536,   -0.0463,   -0.2803,   -0.7925,   -0.5624,    0.1462,   -0.2676,    0.5070,   13.7762,   -1.1929,   -7.0348,    3.3233,    3.6283,    4.7670,    5.8089,    6.2583,    6.5627,    6.3286,    6.2388,    5.9290,    5.6569,    3.8544,    6.9946,    9.6896,    9.9818,   10.6171,    9.7993,    8.6894,   11.2322,   10.4665,   10.8406,   11.7600,   12.1164,   11.9988,   12.6779,   14.0385,   14.8929,   15.7437,   17.4741,   17.7128,   11.1890,   11.0688,   14.2777,   13.5711,   13.7787,   12.7241,   11.6313,   11.5010,   12.5324,
24-SEP-2002 09:14:57.21 ,  999.0000,  999.0000,  999.0000,  999.0000,   -0.5896,   -0.5970,   -0.6175,   -0.2656,    0.3159,    0.1883,   -1.1142,   -1.8689,   -2.2641,   -1.5577,   -1.5246,   -1.5212,   -0.6390,   -0.5095,   -0.8115,   -1.1855,   -0.6211,    0.1988,   -0.2297,    0.6074,    0.6858,    1.4144,    2.5922,    3.2295,    3.4541,    4.7600,    5.1017,    5.4404,    6.2317,    6.0551,    5.7333,    5.5397,    5.1513,    4.9368,    8.2941,    9.3959,    9.7203,    9.7399,   10.1493,   10.9163,   12.1630,   11.1913,   10.7281,   11.1743,   10.1726,   11.1683,   12.0974,   13.4687,   13.6485,   19.3427,   26.0661,   28.1749,   10.8796,   14.0772,   24.7648,   24.2349,   21.3973,   20.0180,   19.2912,   18.6591,   19.8817,
24-SEP-2002 09:17:38.63 ,   -9.3502,   -7.7202,   -6.1546,   -4.4624,   -2.2000,   -1.0825,   -1.1299,   -0.5745,   -0.4007,   -0.3818,   -1.3374,   -1.9960,   -2.3834,   -2.3108,   -2.1723,   -1.8432,   -0.9225,   -1.0880,   -1.3037,   -1.3395,   -0.9258,   -0.0263,    0.1162,    0.1361,    0.4436,    1.0883,    2.7385,    3.7387,    4.0939,    5.3448,    5.2386,    5.4858,    5.6469,    5.2172,    5.2465,    4.3412,    4.6213,    5.1034,    7.4185,    9.0403,   10.7502,   10.9928,   10.9885,   11.1624,   11.4043,   11.2135,   11.5741,   11.3404,    9.0997,   10.2294,   12.6817,   12.2863,   13.6181,   12.5601,   10.9873,   11.5143,    7.7176,    7.3474,    6.0183,   20.8456,   20.6226,   19.3614,   18.2120,   14.8841,    3.1712,
24-SEP-2002 09:20:31.28 ,   -9.3822,   -7.7785,   -6.7542,   -5.7498,   -4.5263,   -2.7180,   -2.3282,   -1.6980,   -1.5038,   -1.7491,   -2.1746,   -2.1634,   -2.8140,   -3.1412,   -2.3521,   -1.8888,   -1.1553,   -1.1637,   -1.3639,   -1.2664,   -1.0693,   -0.3785,   -0.2312,   -0.1701,    0.1782,    0.9963,    2.7216,    4.2899,    4.8525,    5.1288,    5.6250,    5.7536,    6.0570,    5.6466,    5.8792,    4.7595,    4.2406,    4.4911,    5.8455,    8.5487,   10.0708,   10.2490,   10.0514,   11.1010,   11.7977,   11.0178,   11.4116,   11.3723,   10.0774,    8.5691,   12.4178,   10.3671,   12.2000,   15.5769,   11.7066,   13.3706,    0.6840,   -0.6137,    1.6963,   53.3084,   52.0413,   50.1816,   48.2329,   35.9103,   -2.3001,
24-SEP-2002 09:23:13.18 ,  999.0000,  999.0000,   -5.6501,   -4.5789,   -3.3499,   -2.5935,   -2.6043,   -2.4264,   -1.9662,   -2.0999,   -2.5625,   -2.4197,   -2.6062,   -2.7168,   -2.1481,   -1.6686,   -1.0480,   -0.7195,   -1.0425,   -1.2568,   -0.6179,   -0.0061,   -1.3627,    0.3197,    0.7372,    0.4446,    1.1234,    2.4081,    2.9988,    3.5053,    3.8499,    3.4739,    3.3609,    4.8841,    5.3926,    4.6505,    4.7368,    5.5765,    6.6444,    8.2331,    9.2094,    9.4135,   10.3256,   10.2444,   10.8164,    9.0426,   10.0901,   11.4135,   11.6644,    9.8478,   10.8348,   11.7666,   11.6943,   12.4940,   14.0069,   12.6347,   10.5404,    9.8076,    9.3174,    8.4623,    7.5808,    6.8183,    6.9458,    6.0678,    8.0877,
24-SEP-2002 09:25:54.80 ,  999.0000,  999.0000,   -8.0232,   -8.1826,   -7.2374,   -7.0322,   -7.6117,   -7.9247,   -8.8727,   -6.8180,   -4.6917,   -2.2374,   -0.7023,    0.6817,    1.4734,    3.5370,    6.3905,    8.4200,    8.2178,    7.2380,    6.9371,    5.6947,   -0.3842,   -0.1322,    0.3088,   -0.2877,   -1.4146,   -1.0166,    0.9370,    1.4761,    1.9445,    3.0045,    3.1652,    8.3607,    9.2553,    9.3295,   10.2295,   10.7703,   10.4004,   10.8555,   12.7274,   11.9316,   11.9924,   11.8630,   12.8448,   12.4642,   12.4580,   11.3810,   11.2747,    8.7015,   10.9018,   11.3813,   12.1294,   12.9767,   12.6153,   10.6704,   10.5140,    9.9297,   10.0158,    8.6777,    6.5427,    7.2835,    7.9032,    7.2660,    7.6107,
24-SEP-2002 09:28:36.83 ,  999.0000,  -12.5734,   -9.5308,  -10.5235,  -10.4036,  -10.0374,  -10.0078,  -10.1914,  -11.6595,   -8.3906,   -5.2879,   -2.1104,   -0.7089,    0.9709,    2.6460,    5.0317,    8.3042,   10.5447,   10.2917,    9.1402,    8.6148,    7.1238,    4.6013,    2.2498,    2.6532,    3.4784,    3.6989,    4.4574,    6.5073,    8.7608,   14.6882,   20.4145,   22.6918,   24.5695,   24.4318,   23.8643,   22.6156,   21.2858,   19.6377,   19.1017,   20.5024,   16.2145,   14.0948,   12.9808,   15.8659,   14.1168,   15.7674,   13.9972,   11.8599,    9.8674,   10.3327,   14.1078,   13.2540,   13.5390,   12.5156,   12.2143,   11.4624,   11.7079,   11.3653,    8.8478,    7.2931,    8.3570,    8.5024,    6.5896,    7.9547,
24-SEP-2002 09:31:27.71 ,  999.0000,   -4.8295,   -2.9807,   -2.4052,   -1.6557,   -0.7143,   -1.2700,   -1.6923,   -1.2130,   -0.6653,   -0.9125,   -1.6788,   -2.0054,   -1.7180,   -1.0708,   -0.5493,   -0.4106,   -0.4911,   -0.6715,   -1.1574,   -0.7011,    0.4051,    0.7914,   -0.1595,    0.2923,    1.6508,    2.4998,    3.2241,    4.1309,    5.0170,    5.9954,    6.3467,    5.8259,    5.2435,    4.7634,    3.9971,    4.1116,    4.5906,    4.9515,    7.4594,    8.8137,    9.8940,   10.1493,   12.4901,   11.9472,   12.3028,   12.0368,   13.0479,   13.2305,    9.8864,   10.2572,   12.7291,   11.4403,   12.0619,   12.0589,   12.1930,   12.2307,   11.4374,   10.0448,    8.0138,    7.8812,    9.1308,    8.8857,    7.4041,    8.7134,
24-SEP-2002 09:34:08.94 ,   -4.1673,   -3.8314,   -2.9854,   -2.4258,   -1.6170,   -0.9304,   -1.3924,   -1.7391,   -1.4566,   -0.9844,   -1.0099,   -1.4591,   -1.6933,   -1.5827,   -1.1033,   -0.7462,   -0.8140,   -0.7276,   -0.7162,   -1.0352,   -0.5201,   -0.1146,   -0.0670,    1.3501,    2.0691,    2.2895,    2.6457,    3.8101,    4.7353,    5.1348,    5.4446,    5.6979,    6.0698,    5.7808,    5.4042,    4.8863,    5.5185,    5.9306,    6.1019,    7.9200,    9.1600,   10.1659,   11.5763,   12.5863,   11.8600,   11.9957,   11.5718,   11.9120,   11.6399,   11.4516,   11.1633,   12.4250,   11.1454,   12.0232,   11.7982,   11.5284,   10.5589,   10.9038,    9.4300,    8.0552,    6.6079,    5.9725,    6.8878,    6.9028,    8.1859,
24-SEP-2002 09:36:51.11 ,   -2.5032,   -3.7396,   -3.2098,   -2.1098,   -0.4947,    0.5055,    0.1833,   -0.0930,   -0.2773,   -0.1247,   -1.0224,   -1.4760,   -1.6027,   -1.5878,   -1.1287,   -0.5427,   -0.8371,   -0.9517,   -1.1548,   -1.5810,   -1.1122,   -0.7825,   -0.2464,    1.2566,    1.7728,    2.8116,    3.0565,    3.6799,    4.0666,    4.7429,    5.4721,    6.4496,    7.0537,    6.9647,    6.2064,    6.0224,    7.0433,    7.2963,    7.6562,    8.4393,    9.7649,   10.6327,   11.9748,   12.6825,   11.2366,    8.8848,    8.9280,   10.7946,    8.8519,    9.8990,    9.7452,   10.8749,    9.6571,   11.5467,   12.0530,   10.2925,   10.2042,    9.5642,   10.2349,    9.0573,    8.2176,    7.5652,    7.7885,    7.9742,    9.6828,
24-SEP-2002 09:39:32.70 ,   -5.8516,   -5.8116,   -4.0182,   -2.6609,   -0.2518,    0.7950,    1.5945,    1.5653,    1.4643,    0.8921,   -0.3205,   -0.7909,   -0.8430,   -0.7885,   -0.5583,   -0.1860,   -0.3527,   -0.4403,   -0.7001,   -1.1471,   -1.1533,   -0.2977,    0.3695,    0.2255,    1.3838,    2.5382,    4.0032,    4.6396,    4.7417,    5.3273,    5.7172,    6.4774,    6.6311,    5.2031,    4.6500,    4.8757,    6.5219,    6.9467,    6.4859,    6.5797,    8.0880,    9.6043,   10.1585,   11.2875,   11.6589,    9.2118,    8.5605,    9.7501,    7.0187,    7.1497,    7.7142,    9.0840,    7.4046,    8.0837,    9.4048,    9.1950,    8.5814,    5.1350,    8.3360,    6.9234,    6.4314,    8.0141,    7.9099,    7.6427,    9.3698,
24-SEP-2002 09:42:14.47 ,   -6.2791,   -3.8549,   -2.4271,   -1.6024,   -0.4498,   -0.9602,   -0.0162,    0.2286,    0.6995,    0.1979,   -0.6218,   -1.1873,   -1.2943,   -0.9974,   -0.5896,   -0.7622,   -0.8481,   -1.0157,   -1.4165,   -1.3661,   -1.1976,   -0.4361,   -1.3557,   -0.1291,    0.7032,    2.0325,    3.3738,    3.8004,    4.0095,    5.4488,    6.8066,    6.5823,    6.2106,    5.4133,    4.2191,    4.6062,    5.6830,    6.3245,    5.8770,    6.9330,    9.2707,   10.2293,    9.8083,   11.2134,   11.8689,    6.9134,    7.5659,    9.4998,    6.0799,    5.8483,    4.2951,    5.3694,    6.8529,    7.4445,    8.4131,    8.1741,    8.0850,    7.7319,    7.6503,    7.0035,    5.3888,    8.3865,    8.1753,    7.0557,    8.0791,
24-SEP-2002 09:44:56.60 ,   -4.1257,   -2.1939,   -0.8405,   -0.8742,   -0.2457,   -1.1744,   -2.0983,   -2.0235,   -1.8585,   -1.3577,   -1.9237,   -2.7097,   -3.1700,   -2.5526,   -1.4547,   -1.4357,   -1.5276,   -1.8904,   -1.9619,   -1.3094,   -0.8216,   -0.4368,    0.4556,   -0.3494,    0.8883,    2.5888,    3.3613,    4.2902,    4.6362,    4.6166,    5.4424,    5.7649,    5.8404,    5.4192,    3.6023,    3.6280,    5.5731,    6.7567,    7.2291,    8.7176,    9.1839,    9.4448,   10.7920,   12.0815,   11.1142,    7.8374,    7.9817,    8.6967,    6.5677,    6.2620,    5.1613,    6.2825,    7.4364,    6.6138,    5.9354,    7.0838,    7.6451,    6.8309,    6.4167,    4.6514,    6.8973,    8.5587,    7.9200,    6.3874,    8.4875,
24-SEP-2002 09:47:38.68 ,   -4.1124,   -3.0605,   -2.2301,   -1.2905,   -0.1600,   -0.5110,   -2.0221,   -2.0140,   -2.0293,   -1.6663,   -2.3853,   -2.9289,   -3.2455,   -3.0089,   -2.1639,   -1.6045,   -1.5160,   -1.9169,   -2.0860,   -2.2566,   -1.7300,   -0.3943,   -2.3775,   -1.1230,    0.2570,    2.2535,    2.9781,    4.0611,    4.6710,    5.2543,    5.9333,    5.8209,    5.5187,    5.1657,    3.2314,    2.4957,    3.0914,    4.6337,    5.1395,    7.8706,    8.8888,    9.4151,    9.7827,   10.0792,    9.9839,    8.2655,    8.6942,    8.6946,    6.0379,    3.6217,    4.2641,    9.7011,    7.8270,   12.3293,   15.9569,   17.5283,   19.9220,   17.9193,   12.8234,   10.7008,   10.3855,    8.9612,    8.0455,    6.3107,    8.2002,
24-SEP-2002 09:50:20.41 ,   -1.7637,   -2.8759,   -3.8646,   -1.5441,   -0.5463,    0.3175,   -0.8179,   -1.2799,   -1.4268,   -1.8260,   -2.6084,   -3.1026,   -2.9237,   -2.7192,   -2.3927,   -1.7849,   -1.8488,   -2.0625,   -2.6335,   -3.2888,   -2.4802,   -0.5196,   -2.8821,   -0.9308,   -0.1553,    1.3717,    3.0102,    4.2952,    4.8268,    5.1603,    5.6000,    5.9023,    5.2847,    5.7351,    5.3952,    3.0188,    2.7874,    3.8447,    4.5062,    8.2809,    9.3219,    9.6009,   10.0192,    9.9394,    9.1077,    8.8249,    7.8434,    7.0975,    5.1640,    4.9314,    4.5574,   17.7599,   18.8506,   35.2825,   41.0549,   44.2359,   45.0626,   42.5780,   27.2351,   21.6844,   17.7362,    7.3987,    7.2528,    6.8496,    8.8161,
24-SEP-2002 09:53:01.80 ,   -0.3417,   -1.8794,   -3.8549,   -1.8335,   -0.3845,    0.7474,    0.2450,   -0.2032,   -0.1487,   -1.0897,   -2.0267,   -2.7635,   -2.9610,   -2.3306,   -1.9547,   -1.7408,   -2.2267,   -2.3830,   -2.7459,   -3.1075,   -2.0815,   -0.6119,    0.7346,   -0.8806,    1.0111,    2.1021,    2.5241,    3.6811,    3.2474,    4.5399,    5.8981,    5.5933,    4.9867,    4.9938,    3.1303,    4.1841,    4.5739,    4.1851,    3.7227,    7.1268,    8.0777,    7.9980,    8.4127,    9.0340,    8.1379,    8.6003,    5.5545,    5.6891,    5.6395,    4.6689,    4.0981,    5.3495,    7.6601,    8.7407,    5.1114,    8.1493,    6.9204,    5.8122,    6.0912,    5.7967,    7.1545,    7.4655,    6.9494,    7.6201,    8.8062,
24-SEP-2002 09:55:52.79 ,  -13.0643,  -17.3886,  -13.7762,   13.3230,   11.0835,    9.0245,    5.5967,    2.1592,   -0.3375,   -0.9330,   -2.1074,   -2.3805,   -2.6324,   -1.9449,   -1.5565,   -1.4726,   -2.0532,   -2.6400,   -2.9538,   -2.7153,   -1.7501,   -0.4344,   -2.2729,   -1.5408,    0.2393,    2.3771,    3.5150,    3.8518,    3.3639,    4.6598,    6.1772,    6.3399,    6.2047,    6.3905,    5.0776,    5.2144,    4.3367,    3.9073,    4.1785,    7.6352,    8.8512,    7.2492,    7.8185,    8.9623,    7.6274,    6.6008,    6.9488,    6.5855,    4.5813,    4.9748,    3.3080,    3.9199,    5.8328,    6.2423,    7.7999,    6.1004,    6.9910,    5.9905,    5.5041,    5.7971,    6.1410,    5.6504,    6.2410,    7.7104,    8.9260,
24-SEP-2002 09:58:34.08 ,  -15.5430,  -20.3320,  -15.6173,   17.0211,   14.1707,   10.5213,    6.3969,    2.3920,   -1.2323,   -1.2378,   -2.2305,   -2.4442,   -2.4053,   -2.0577,   -1.9584,   -1.6787,   -1.6107,   -2.1623,   -2.4942,   -2.1220,   -1.5396,   -0.5317,    0.5624,   -0.4231,    1.5189,    2.5963,    3.3585,    4.5676,    4.8587,    5.7814,    6.2041,    6.0416,    6.0297,    5.9408,    4.5430,    4.5916,    5.8638,    5.8712,    6.6752,    8.4642,    9.2944,    9.3956,    9.6230,    8.4548,    8.0353,    7.6902,    6.9539,    7.4791,    5.7275,    5.0390,    4.3309,    5.8804,    8.5074,    9.3397,    8.4940,    4.2313,    7.3562,    8.1874,    7.3314,    7.4172,    6.1889,    5.5596,    5.8926,    7.7891,    8.5460,
24-SEP-2002 10:01:27.14 ,   -3.3150,   -3.0363,   -3.9564,   -1.8531,   -0.3982,   -0.7605,   -1.0197,   -1.2881,   -1.0458,   -1.0545,   -1.3643,   -1.7220,   -1.8182,   -2.0621,   -2.0377,   -1.8087,   -1.4847,   -1.3582,   -1.6068,   -1.7611,   -1.0518,   -0.3102,   -1.3909,   -0.0084,    1.2444,    2.2027,    3.0473,    3.4010,    4.6872,    5.7708,    5.8281,    5.3549,    5.3056,    4.8411,    3.4189,    3.8083,    7.1663,    6.6462,    5.9864,    8.4742,   10.2773,   10.7033,   10.0592,    9.5445,    9.0925,    7.4375,    7.2453,    7.4001,    6.6929,    5.7743,    4.9852,    7.2022,    9.3593,    8.6032,    7.4824,    6.3761,    5.2213,    5.6583,    6.4981,    7.3330,    7.6761,    7.0345,    7.7261,    7.8529,    8.0360,
24-SEP-2002 10:04:08.75 ,   -2.2406,   -2.2451,   -3.1590,   -1.6542,   -0.3805,   -0.0422,   -0.7848,   -1.3595,   -0.9360,   -0.8625,   -0.7687,   -1.1236,   -1.5371,   -1.7340,   -1.5925,   -1.4833,   -1.9154,   -2.2033,   -2.0683,   -1.9278,   -1.1602,   -0.1345,    1.0315,    0.4585,    1.7688,    3.2477,    4.4575,    4.9947,    5.0491,    5.1437,    5.4947,    5.2735,    4.9047,    4.1648,    2.8082,    4.3397,    5.5615,    5.8490,    5.0732,    7.2220,   10.5331,   11.7559,   11.1286,   10.5573,   10.6150,    9.1532,    7.2939,    6.2566,    7.0841,    5.8784,    5.6216,    6.4936,    8.4346,    7.6314,    6.4621,    6.6674,    5.6225,    5.5138,    7.5527,    7.9095,    8.2833,    6.6332,    7.0994,    8.5607,    8.0987,
24-SEP-2002 10:06:52.69 ,   -2.8422,   -4.0373,   -3.1052,   -2.6946,   -0.7083,    0.1783,   -0.7669,   -0.9442,   -1.0539,   -1.1954,   -1.4628,   -1.9009,   -1.9872,   -1.6970,   -1.3675,   -1.2152,   -1.8702,   -2.1506,   -1.7771,   -1.6637,   -1.1123,   -0.0213,    1.5231,    0.0307,    1.1810,    3.6468,    5.2477,    5.3489,    5.1293,    6.0599,    6.5227,    6.3589,    5.5488,    5.3036,    4.7723,    5.3570,    7.3394,    6.5018,    7.4088,    8.9427,   10.6376,   11.1813,   10.4890,    9.2570,    8.6374,    7.0176,    7.7023,    7.5325,    7.6529,    5.3140,    7.2791,    7.2140,    7.2853,    7.7277,    6.8886,    7.0615,    7.0535,    4.3908,    7.0231,    8.2562,    8.1724,    8.1824,    6.6631,    8.3549,    8.2240,
24-SEP-2002 10:09:33.72 ,   -5.2934,   -5.3576,   -4.8734,   -3.5415,   -2.4353,   -1.2248,   -1.8638,   -1.6644,   -1.6707,   -1.8409,   -2.5816,   -3.3052,   -2.9680,   -2.1642,   -1.7036,   -1.2128,   -1.5438,   -1.1475,   -1.5204,   -2.4052,   -1.8107,   -0.1815,   -1.1947,    0.0106,    0.6858,    2.5586,    4.7094,    5.4088,    4.7609,    5.7737,    6.3007,    6.0329,    6.1436,    6.2835,    3.7967,    4.8253,    5.2367,    4.4370,    7.3780,    7.9418,    9.1761,   10.8222,   10.7777,    9.7397,    9.7352,    8.7094,    9.2975,    9.1365,    7.5779,    3.3819,    6.6914,    7.5095,    7.0082,    7.7889,    7.0941,    6.4792,    6.0788,    5.5630,    6.2532,    6.3525,    6.7840,    7.2460,    6.2193,    6.6928,    8.8711,
24-SEP-2002 10:12:14.94 ,   -6.7140,   -6.1636,   -5.8501,   -3.0084,   -2.9318,   -1.6331,   -2.2236,   -1.7289,   -1.2441,   -1.2317,   -1.9178,   -3.0213,   -3.5675,   -2.9933,   -2.5114,   -1.5479,   -1.5075,   -1.5588,   -2.1665,   -2.5374,   -1.6153,    0.2509,   -1.4291,    0.5682,    1.4262,    2.4836,    4.2333,    4.8108,    5.4734,    6.3662,    6.6932,    6.3049,    5.8988,    5.9147,    4.2356,    4.1960,    4.4777,    4.3834,    4.6798,    6.9286,    8.7169,    9.4334,    8.7296,    9.0826,    8.1017,    7.2738,    7.6855,    6.2441,    4.6517,    2.6545,    3.2288,    5.9522,    5.7248,    7.5062,    8.3901,    8.1926,    7.3988,    6.3985,    5.9266,    6.0590,    6.8837,    6.4070,    6.5342,    7.5817,    9.5819,
24-SEP-2002 10:14:56.06 ,   -5.1911,   -4.7576,   -4.3135,   -3.4131,   -1.9711,   -0.7919,   -0.6916,   -0.5141,   -0.5351,   -0.6489,   -1.1137,   -2.1402,   -3.3212,   -3.2143,   -2.8930,   -2.1649,   -1.7860,   -2.0510,   -2.3548,   -1.9447,   -1.1393,    0.0176,   -1.2642,    0.1396,    1.2104,    2.4608,    4.5109,    5.3153,    5.7919,    5.6290,    5.5910,    5.6443,    5.7680,    5.9124,    4.5895,    3.8891,    2.5135,    2.5595,    3.7341,    7.4597,    8.9496,    9.2532,    9.2474,    8.9026,    6.2792,    6.2508,    5.6981,    5.0749,    3.5900,    3.5346,    4.0358,    3.3870,    4.7699,    7.0321,    7.6651,    5.5072,    3.6052,    5.9890,    6.4742,    5.6642,    7.4295,    7.2792,    8.8162,    9.1742,   11.0432,
24-SEP-2002 10:17:38.09 ,   -5.2968,   -4.6226,   -4.3061,   -3.6850,   -1.8425,   -0.9386,   -0.0635,   -0.4784,   -0.1856,   -0.6057,   -1.3992,   -2.3181,   -2.7792,   -2.5524,   -2.2550,   -1.9436,   -1.7982,   -2.1606,   -2.3349,   -2.0035,   -1.5017,   -0.2958,   -1.2339,   -0.0650,    0.9984,    2.3381,    3.8308,    4.2027,    4.3961,    4.7968,    5.4911,    6.1578,    6.7388,    6.3480,    4.3859,    4.3084,    3.6069,    3.1853,    4.2591,    6.7554,    7.5980,    8.9816,    8.9054,    7.1108,    6.2579,    5.6569,    4.9734,    4.5208,    4.6969,    2.4832,    3.0590,    3.0496,   -2.7148,    0.0140,    2.2707,    3.9315,    5.6576,    7.6242,   13.6354,   13.7317,   13.8637,   13.9944,   11.7549,    8.9300,   10.8765,
24-SEP-2002 10:20:19.51 ,  999.0000,   -5.0755,   -4.4717,   -3.6204,   -1.3446,   -0.5741,   -0.3623,    0.1520,    0.0251,   -1.0963,   -1.2325,   -2.2422,   -2.6774,   -2.3007,   -2.1567,   -1.8527,   -1.9547,   -2.0216,   -2.0071,   -2.2349,   -2.0302,   -0.5280,    1.7104,    0.9590,    1.9155,    2.1096,    3.5128,    4.6401,    4.1557,    4.9668,    5.8044,    6.0393,    5.7062,    5.4154,    4.2132,    3.5483,    3.7389,    4.8404,    5.3351,    6.0355,    5.8815,    7.8092,    6.6968,    1.7704,    4.0599,    1.8349,    1.5194,    2.3418,    2.3773,    2.1959,    3.1528,    5.6284,  -15.4492,   -7.8747,   -2.0566,    3.1511,   15.3692,   17.1336,   34.8517,   35.1173,   35.9956,   33.8055,   22.1179,   12.4844,   12.4468,
24-SEP-2002 10:23:00.84 ,  999.0000,  -13.3165,   11.4908,    8.1790,    5.4949,    3.1875,    0.7039,   -0.2168,   -0.9444,   -1.8094,   -1.1037,   -2.1505,   -2.5579,   -2.3840,   -2.2940,   -1.7478,   -2.0470,   -1.9468,   -1.4948,   -2.0923,   -2.3369,   -1.1899,    1.4974,    1.4718,    2.3138,    3.1346,    3.3076,    3.9218,    3.5307,    4.4104,    5.4088,    5.7197,    5.8197,    5.7100,    5.0864,    4.1859,    5.1808,    6.1600,    6.2207,    6.3698,    7.5915,    6.3446,    1.9422,   -6.2426,   -2.6927,   -9.0693,   -7.9536,   -3.2956,   -3.5018,   -0.0930,    4.3055,    9.8660,   14.4313,   19.0387,   23.4362,   24.0591,   27.7774,   25.9964,   27.0247,   27.7191,   26.9108,   23.7915,   18.3302,   12.0931,   12.4918,
24-SEP-2002 10:25:53.77 ,  -17.3901,  -15.1207,   13.1997,    9.9902,    7.1722,    4.6178,    1.2877,   -1.0441,   -1.1283,   -1.4063,   -1.2925,   -2.1012,   -2.4537,   -2.8842,   -3.1275,   -2.0712,   -1.8325,   -2.3355,   -2.5085,   -2.2358,   -1.8389,   -0.9236,    1.0963,    1.9733,    2.9880,    4.3492,    3.5259,    3.6589,    4.7695,    5.2918,    5.7655,    6.0477,    6.7259,    6.6010,    6.2188,    4.5487,    6.0345,    6.2396,    6.2694,    6.8503,    7.4111,    7.9748,    8.4013,    8.4592,    8.1299,    5.2994,    4.4583,    6.4348,    4.5779,    3.2391,    2.6606,    3.5120,    2.9637,    4.0138,    5.1891,    4.7066,    4.3348,    4.9280,    4.4418,    6.7269,    7.5606,    6.3780,    7.2433,    9.6425,   11.0926,
24-SEP-2002 10:28:35.17 ,    2.4691,  -19.0655,  -13.2304,  -10.9828,   -7.4385,   -5.4487,   -3.8556,   -3.0513,   -1.9261,   -1.7607,   -2.2507,   -2.5734,   -2.8325,   -3.2895,   -3.7087,   -2.8102,   -2.3078,   -2.6011,   -3.0733,   -2.2828,   -1.8959,   -1.3116,    0.5325,   -0.4303,    1.0250,    2.4777,    3.8015,    4.2951,    5.5908,    6.1785,    5.6894,    5.8583,    5.4368,    5.3629,    4.5447,    3.6596,    3.8133,    4.6499,    4.9246,    9.0259,   11.4917,   12.8738,   15.8116,   16.6492,   18.3995,    5.6794,    4.6220,    6.0748,    5.8825,    5.1902,    5.4434,    4.9404,    4.7297,    7.5840,    6.6122,    7.4006,    5.1580,  -10.0982,    4.8874,    2.2601,    3.0548,    6.1002,    5.5706,    8.3885,   11.2125,
24-SEP-2002 10:31:28.46 ,    5.4953,  -23.1922,  -15.7917,  -13.8896,  -10.1778,   -8.6829,   -6.1965,   -4.5424,   -3.0180,   -2.3467,   -2.5512,   -2.9262,   -3.6513,   -3.8650,   -3.4152,   -2.7656,   -2.2459,   -2.3350,   -2.5576,   -1.3193,   -0.7295,   -0.2936,   -2.0535,   -0.8887,    1.4087,    2.5508,    3.0569,    3.8831,    4.1632,    4.5767,    4.7614,    5.5505,    4.5680,    4.5492,    4.1950,    2.5899,    1.8189,    2.7568,    2.9785,   11.4232,   18.4782,   23.9122,   28.6783,   29.2476,   49.3013,   12.3376,   10.8971,   12.3694,   13.3904,   -2.6139,   -3.3501,    0.5587,    1.0175,    1.7749,    1.9414,    3.4236,   -3.0403,  -49.3456,    0.3526,   -3.5364,   -5.9844,    1.3069,    1.6760,    6.8617,   10.9917,
24-SEP-2002 10:34:09.96 ,   -7.4923,   -6.2781,   -5.3027,   -3.8734,   -2.6265,   -2.9355,   -2.2111,   -2.1734,   -1.6898,   -1.6829,   -1.9686,   -2.8971,   -3.6656,   -3.4265,   -2.4905,   -1.9769,   -1.7679,   -2.0120,   -2.5357,   -1.5968,   -0.2964,    0.6231,    1.1752,   -0.7445,    1.2107,    2.7567,    2.9502,    3.6963,    4.1954,    4.1259,    3.6541,    3.3828,    3.9981,    4.2376,    4.1808,    4.0847,    4.0586,    3.1697,    2.9914,    4.6953,    7.2131,    5.7966,   -5.3660,  -14.3454,   26.0326,   30.9722,   28.4915,   28.6116,   28.1096,  -23.2625,  -23.4515,  -19.8995,  -18.2952,  -16.1877,  -11.2344,   -8.5926,   -5.3595,    1.9944,    4.6390,    3.8847,    8.4228,    7.9953,    7.1509,    7.6832,    8.8902,
24-SEP-2002 10:36:51.14 ,  -10.4843,   -7.3594,   -6.3324,   -4.4801,   -2.8052,   -2.8314,   -1.1517,   -1.6897,   -0.9827,   -1.0091,   -2.0123,   -3.0870,   -3.4972,   -3.0977,   -2.3347,   -1.8927,   -2.2148,   -2.3539,   -2.5661,   -2.5905,   -2.0531,   -0.8395,   -2.2455,   -1.1337,    0.2978,    1.9690,    3.0542,    3.8682,    4.8797,    5.2049,    4.2878,    3.6775,    3.8855,    4.1468,    4.2599,    5.0220,    4.7361,    4.3450,    4.7806,    6.1892,    6.6935,    6.7395,    6.3577,    6.5156,    5.9276,    3.9419,    4.4589,    5.7911,    6.2414,    5.6029,    5.0166,    6.3341,    5.0598,    5.9784,    6.6378,    6.8438,    5.6349,    5.0540,    5.1301,    5.4597,    7.8206,    7.9495,    7.9123,    8.3068,    9.8932,
24-SEP-2002 10:39:32.86 ,   -7.5128,   -5.3829,   -5.6698,   -4.1095,   -2.2287,   -1.1949,   -0.4045,   -1.2744,   -0.9771,   -0.7499,   -1.5764,   -2.5108,   -2.5972,   -2.2160,   -1.9279,   -1.4360,   -1.5987,   -1.6849,   -1.7181,   -1.5727,   -1.1811,   -0.2296,    1.3335,   -0.0339,    0.8429,    2.9190,    4.4939,    4.8043,    4.5636,    4.2919,    4.4377,    4.7588,    4.7036,    4.3859,    4.5074,    4.7095,    3.7930,    4.4215,    5.0876,    5.7314,    6.2255,    6.4959,    7.3337,    7.8387,    5.0970,    3.5362,    4.9599,    6.5092,    6.3031,    5.4403,    4.4701,    7.0451,    6.6301,    8.6352,    6.7754,    6.7099,    5.7569,    5.3578,    3.9824,    5.7079,    7.4322,    8.6239,    8.4903,    6.7919,   10.3351,
24-SEP-2002 10:42:14.95 ,    7.5524,    7.7936,  -16.9992,  -11.1378,   -6.0967,    0.7631,    0.1354,   -0.3989,   -0.5664,   -0.4745,   -1.3610,   -2.4163,   -2.2855,   -1.5637,   -1.1954,   -0.8695,   -0.7687,   -1.1274,   -1.4525,   -0.6917,    0.1340,    0.5273,   -0.7327,    1.5824,    3.6354,    5.6861,    6.3281,    6.0228,    5.6842,    6.9115,    7.9051,    8.7252,   10.2689,   12.2683,   13.5372,   14.9647,   14.6383,   15.4253,   16.0194,   17.6480,   17.8733,   18.0855,   19.5916,    3.4799,    0.4044,    1.5276,    0.6407,    1.0681,    0.4198,   -0.4534,   -0.1263,    0.4647,    0.8214,    1.5729,    0.6394,    2.3587,    3.4025,    4.3662,    4.4962,    4.3795,    5.0222,    4.6983,    4.8787,    5.2339,    7.4271,
24-SEP-2002 10:44:57.26 ,   10.7209,    9.1315,  -18.5213,  -12.6126,   -6.2927,    0.4173,   -0.4403,   -1.0884,   -1.1144,   -0.8904,   -1.9431,   -2.9588,   -2.9347,   -1.9666,   -1.6740,   -1.2600,   -0.9857,   -1.5275,   -2.0545,   -1.1728,   -0.0276,    0.2696,   -0.3681,    2.2328,    7.1978,   10.8220,    9.8723,    8.8523,    8.5758,   11.6029,   14.5270,   17.8496,   22.7254,   27.5794,   31.9984,   36.4350,   39.4703,   40.4700,   38.2229,   41.9301,   39.8010,   41.6484,   46.2774,   -3.6193,  -13.1487,   -9.7826,  -11.0470,  -11.1116,  -12.2950,  -12.8876,  -13.1789,  -12.1019,  -13.6342,  -11.9574,  -10.7142,   -9.3368,   -0.0597,    0.7903,   -1.0506,   -0.3496,    0.4455,    0.9529,    1.2372,    1.3291,    1.0366,
24-SEP-2002 10:47:39.09 ,   -4.8421,   -5.5698,   -4.0692,   -3.3300,   -1.1468,   -0.8026,   -0.7090,   -1.1875,   -1.2772,   -0.7615,   -1.4089,   -2.2309,   -2.2675,   -1.7668,   -1.5656,   -1.2189,   -0.9274,   -1.2922,   -2.2092,   -2.3344,   -1.2540,   -0.2491,   -1.2714,   -0.9867,    1.1398,    3.4574,    3.7658,    4.3391,    4.4926,    4.5169,    4.7168,    4.4736,    3.9583,    3.4372,    3.2337,    3.7657,    4.1709,    4.2364,    3.7268,    5.0552,    5.6442,    5.3079,    7.0837,    7.7648,    5.3158,    2.7056,    2.0882,    6.3859,    5.8350,    3.9794,    2.6778,    3.8137,    4.2915,    5.2285,    5.3783,    2.7225,    4.6103,    5.0107,    4.1670,    2.9630,    4.7448,    6.6480,    7.3361,    7.6156,    9.0853,
24-SEP-2002 10:50:20.86 ,   -6.7799,   -7.1214,   -6.3914,   -4.1911,   -1.9175,   -2.0180,   -0.4099,   -0.9985,   -0.9255,   -0.3529,   -0.6758,   -1.2676,   -1.4546,   -1.2079,   -0.8586,   -0.8330,   -1.1593,   -1.7400,   -2.2502,   -2.2269,   -1.2891,   -0.5323,   -1.0924,   -0.3025,    0.8116,    2.3308,    2.8666,    3.9505,    4.5272,    4.6332,    4.4946,    4.0796,    4.0299,    3.8239,    3.7500,    3.7052,    3.8942,    4.1469,    4.0464,    5.0770,    5.8420,    6.0517,    6.6608,    7.2925,    5.4258,    2.3062,    3.4705,    6.3277,    3.0419,    2.5934,    2.7569,    2.9676,    5.9054,    5.9493,    3.1922,    3.1276,    3.9491,    3.8977,    5.6564,    2.9129,    2.9743,    5.1669,    5.6249,    6.6032,    8.4562,
24-SEP-2002 10:53:03.28 ,   -4.8540,   -4.8183,   -5.1042,   -3.8968,   -1.7516,   -1.2855,   -0.4683,   -1.2603,   -0.6401,   -0.7731,   -1.2465,   -1.9623,   -2.0129,   -1.4268,   -1.1404,   -1.1493,   -1.2518,   -1.3758,   -1.6783,   -2.1067,   -1.7451,   -0.9893,   -0.1056,    0.1254,    3.2014,    7.9219,    2.9489,   -0.0621,    4.0213,    5.2017,    4.5066,    4.0166,    3.6676,    3.1976,    2.8371,    3.1414,    3.8466,    4.1462,    4.3611,    5.2789,    5.3974,    4.8254,    6.4355,    6.3053,    5.0207,    2.6531,    3.9033,    6.9215,    4.7954,    4.2442,    3.8172,    5.1818,    5.3751,    4.9049,    5.6389,    4.0990,    4.1153,    2.7480,    3.4588,    3.6277,    2.3882,    4.3755,    5.5339,    6.3140,    8.5668,
24-SEP-2002 10:55:55.91 ,   -4.0137,   -3.1113,   -2.8539,   -2.7312,   -0.8246,   -0.4601,   -0.4506,   -0.7457,   -0.3699,   -0.9408,   -1.9120,   -2.5972,   -2.0049,   -1.7369,   -1.5405,   -1.4884,   -2.0181,   -2.0469,   -2.2567,   -2.5392,   -1.9934,   -1.0037,   -1.0229,   -0.6441,    6.9655,   20.3796,   -0.4083,  -12.3797,   -0.3982,    4.5414,    4.9900,    4.7796,    3.5151,    3.0201,    3.0024,    2.2866,    2.5477,    3.0382,    3.9855,    4.5650,    5.4391,    4.5719,    5.0104,    3.4612,    4.8108,    5.3724,    5.4536,    7.9006,    7.3032,    6.5242,    4.5061,    6.8766,    6.0412,    6.5375,    4.1411,    5.1092,    4.4810,    3.7211,    4.6171,    3.3675,    2.7231,    5.9172,    7.8866,    8.3285,    8.3857,
24-SEP-2002 10:58:37.50 ,   -7.1047,   -6.0311,   -4.6531,   -3.6277,   -2.1434,   -1.6312,   -1.1385,   -1.4048,   -1.2886,   -1.2440,   -2.1744,   -3.0012,   -2.5083,   -2.1248,   -2.2131,   -1.1960,   -1.3976,   -2.4248,   -2.4820,   -2.2242,   -1.2551,   -0.6700,   -0.9840,   -0.9051,    0.3916,    2.2702,    3.6901,    4.1176,    3.6144,    3.3027,    4.0821,    4.1223,    3.7728,    3.4920,    3.1440,    2.5424,    2.7218,    2.8270,    3.1417,    4.3283,    5.2566,    5.9820,    6.3915,    6.3360,    6.0209,    6.6886,    6.9945,    9.0132,    7.6462,    6.2400,    5.0006,    5.6092,    5.8086,    5.7963,    4.7295,    6.1725,    6.1925,    4.5480,    4.6611,    5.0487,    3.2721,    5.4292,    7.1875,    8.5796,    9.1672,
24-SEP-2002 11:01:21.31 ,   -5.1599,   -4.9388,   -5.1962,   -3.9787,   -1.9442,   -1.2274,   -0.9836,   -1.3503,   -1.2928,   -1.1622,   -1.6860,   -2.7404,   -3.2170,   -2.2542,   -2.3769,   -1.1054,   -0.4245,   -1.4773,   -1.7764,   -1.8189,   -1.3420,   -0.7563,   -1.0814,   -0.5619,    0.6130,    2.3151,    3.8982,    4.5987,    4.9420,    5.0924,    4.4239,    3.7341,    3.2503,    2.6999,    3.0604,    3.3101,    3.4862,    3.3497,    3.5545,    4.1657,    4.6469,    4.4622,    3.8805,    3.9117,    4.2484,    5.8973,    5.7716,    6.9030,    6.0057,    5.0421,    3.0887,    3.7427,    4.5515,    4.0884,    3.8982,    5.8676,    6.0182,    5.8224,    5.4648,    5.0921,    5.4320,    4.9565,    6.7602,    8.0677,    9.3217,
24-SEP-2002 11:04:02.70 ,  999.0000,  999.0000,  999.0000,  999.0000,   -0.5737,   -0.4667,   -0.8793,   -1.0089,   -1.0609,   -1.1684,   -1.6537,   -2.3655,   -3.0628,   -2.0057,   -1.9583,   -1.5166,   -1.1632,   -1.0607,   -1.4296,   -1.5115,   -1.0551,   -0.4096,   -1.8476,   -0.8006,    0.4171,    1.0788,    2.2749,    3.8620,    4.4004,    4.5548,    3.5787,    2.9876,    3.3986,    3.7248,    3.7740,    3.1254,    2.7265,    2.9953,    2.7694,    3.7308,    4.5460,    5.6064,    5.2627,    4.9815,    4.2583,    6.0741,    7.2754,   10.0359,    8.9753,    7.5456,    5.8632,    4.1803,    3.3952,    4.7271,    3.6698,    4.4231,    4.9348,    5.3333,    4.6570,    4.1383,    2.6836,    4.9213,    6.8808,    7.5069,    8.8260,
24-SEP-2002 11:06:44.50 ,  999.0000,  999.0000,  999.0000,  999.0000,   -0.2788,   -0.3238,   -0.6259,   -0.6105,   -0.7696,   -1.2728,   -2.5812,   -3.1384,   -3.2411,   -1.0354,   -0.8361,   -1.8649,   -1.4464,   -1.6312,   -2.0252,   -1.8187,   -1.2268,   -0.3268,   -0.4660,   -0.0562,    0.5129,    1.9568,    2.8966,    4.1277,    5.0207,    4.4687,    3.5507,    3.7083,    3.8203,    4.1404,    4.3266,    2.8030,    2.6727,    3.0776,    2.8932,    4.4924,    5.0866,    7.3793,    6.9601,    4.7177,    4.2503,    4.8996,    6.6178,    8.6087,    7.3290,    6.2566,    3.7425,    3.1348,    4.1013,    5.9726,    2.7888,    4.2683,    5.5471,    6.8215,    6.1882,    7.6192,    5.2410,    6.9145,    7.6422,    8.5444,    9.2542,
24-SEP-2002 11:09:25.99 ,   -4.9703,   -3.4802,   -4.6730,   -3.4748,   -2.0673,   -0.9087,   -1.8069,   -1.2613,   -1.0088,   -1.0957,   -2.1316,   -2.5471,   -2.2266,   -0.4328,   -0.5484,   -1.7825,   -1.3596,   -1.8593,   -2.5274,   -2.5763,   -2.0173,   -0.6767,   -1.4385,   -0.5714,    0.1762,    1.3424,    3.3229,    4.2741,    4.9310,    4.5036,    3.3004,    3.5105,    4.1218,    4.5489,    5.0156,    3.3104,    3.5347,    4.3476,    4.7111,    4.9963,    5.4897,    8.0072,    8.7718,    5.7729,    6.1715,    8.4365,    8.8932,    8.8002,    6.5880,    2.7633,    3.5318,    3.2004,    4.6522,    4.8776,    2.6241,    3.0076,    2.4678,    4.5759,    5.3556,    5.4422,    6.4725,    6.7896,    6.5968,    7.6436,    8.4414,
24-SEP-2002 11:12:09.26 ,   -3.5258,   -3.5350,   -3.3596,   -3.1812,   -1.4997,   -0.4323,   -1.4469,   -1.2214,   -1.3478,   -0.8758,   -1.0694,   -1.1781,   -0.9189,   -1.0889,   -1.7126,   -1.6176,   -1.3698,   -1.4986,   -2.2394,   -2.6532,   -2.0418,   -0.6313,   -1.9458,   -1.1910,    0.1196,    1.5747,    2.9987,    3.8885,    4.5482,    4.7068,    3.5868,    3.1080,    3.5566,    3.5559,    3.8641,    3.2035,    3.8638,    4.9413,    4.3638,    5.4337,    6.0480,    9.9010,   10.2440,   13.4169,   13.6654,   14.7405,    0.1230,   -4.5013,   -8.1431,  -14.9509,  -12.7906,    2.8714,    4.3098,    3.6764,    3.8292,    1.4153,    0.2849,    3.1544,    2.7709,    2.2230,    6.0827,    7.5780,    7.4805,    7.3512,    7.6057,
24-SEP-2002 11:14:51.01 ,   -2.8619,   -3.7640,   -1.6582,   -1.5142,   -0.1212,   -0.1368,   -0.2204,   -0.7621,   -1.1552,   -0.8976,   -0.8423,   -0.4930,    0.2077,    0.6592,    0.6156,    0.6279,    1.0163,    0.7969,   -0.2647,   -1.1998,   -1.2096,    0.0679,   -1.8331,   -0.5217,    0.6735,    1.4007,    2.4066,    2.8824,    3.8666,    3.7505,    2.4258,    2.2718,    2.3328,    2.1915,    2.2329,    2.1566,    3.3358,    3.7940,    4.1817,    6.0751,    5.6928,   13.1728,   14.4195,   21.4404,   22.8359,   22.5905,  -22.3189,  -32.6308,  -38.6061,  -48.3738,  -45.9113,    2.4784,    6.7807,    5.5691,    5.4220,    1.4501,   -0.6285,    1.1387,    0.0577,   -0.4549,    6.9237,    7.6013,    7.1906,    8.7272,    8.6885,
24-SEP-2002 11:17:32.68 ,   -3.7492,   -5.1818,   -3.1213,   -3.3431,   -2.0006,   -1.1432,   -0.6680,   -1.0793,   -0.9359,   -0.9127,   -1.2302,   -0.9477,   -0.0691,    0.6322,    0.7124,    1.1225,    1.1311,    0.6754,   -0.2042,   -1.3862,   -1.7957,   -0.0483,    1.1883,    1.3341,    2.3745,    3.5108,    4.2607,    4.9572,    4.3415,    4.8003,    2.9383,    2.4482,    2.7079,    2.8272,    2.8328,    2.8459,    2.4049,    2.7540,    1.8567,    2.4873,    3.1784,    3.6282,    2.4310,    2.5002,    3.3502,    2.7644,    3.8748,    4.4055,    1.5948,    1.2902,    0.7185,    3.4522,    3.3741,    3.9161,   19.9342,   19.4231,   18.9948,   19.7599,   19.7483,   19.4963,   18.8381,   13.1772,   11.1635,   10.1091,    8.2755,
24-SEP-2002 11:20:25.60 ,    8.9815,    6.4361,  -20.6507,  -17.2138,  -11.6429,   -7.0007,   -3.1288,   -0.4382,   -1.3790,   -1.8388,   -2.5429,   -3.1592,   -2.8108,   -2.3153,   -2.3160,   -1.9746,   -2.2712,   -2.7316,   -3.2925,   -3.7627,   -3.3380,   -1.3914,   -0.3614,   -0.0632,    2.1976,    2.2693,    2.4735,    3.4147,    4.3116,    4.5248,    2.9681,    2.2043,    2.4387,    2.5159,    2.2546,    2.9035,    2.9131,    2.7543,   -1.5867,   -1.6125,   -2.1798,   -4.4056,   -6.2141,   -4.6403,   -3.2181,   -3.6116,   -2.7759,   -3.1863,   -4.4638,   -3.5931,   -2.3578,   -2.8918,    1.5694,    2.2314,   44.8038,   44.1807,   43.8032,   43.8274,   44.2753,   43.3359,   41.2640,   33.8633,   23.6927,   14.1767,    7.6577,
24-SEP-2002 11:23:07.17 ,   10.9736,    8.7591,  -21.2438,  -16.6098,  -11.0912,   -6.7769,   -3.2932,   -0.2437,   -1.2157,   -1.7256,   -2.3730,   -3.2209,   -2.9930,   -2.2733,   -2.1072,   -2.1765,   -2.1389,   -2.4802,   -3.0509,   -2.9858,   -2.6225,   -1.9853,   -2.2725,   -1.4427,   -0.2903,    1.9777,    2.8287,    3.8157,    4.8325,    5.0892,    3.7859,    2.5172,    2.7931,    3.1765,    3.0137,    3.9967,    4.1133,    3.8167,    3.9973,    4.8605,    5.8267,    6.6116,    4.9067,    3.6059,    4.0405,    1.1082,    1.4281,    0.3229,    0.0840,    0.0987,   -1.3981,    0.4508,    3.5644,    4.4379,    6.4347,    5.9210,    6.9158,    7.4051,    6.0467,    6.6382,    6.8785,    7.1320,    6.8734,    7.0778,    8.4503,
24-SEP-2002 11:25:51.04 ,   -6.5858,   -5.0493,   -3.9349,   -3.3930,   -2.6599,   -1.6250,   -0.9729,   -0.6624,   -1.1097,   -1.2173,   -1.7934,   -2.8090,   -2.8132,   -2.2338,   -1.8023,   -1.9182,   -1.8210,   -1.9669,   -2.3927,   -2.6427,   -2.4132,   -1.6019,   -1.9827,   -0.8123,   -0.0756,    1.0897,    2.2735,    3.1111,    3.4982,    4.0990,    3.0999,    1.9340,    3.2192,    4.4740,    4.2792,    3.7781,    3.6321,    3.9326,    4.1467,    4.3465,    5.6274,    5.9572,    3.0601,    0.3416,   -1.8834,   -4.3899,   -6.2933,   -9.3309,   -8.7008,   -7.0634,   -7.8706,   -2.0059,    1.1504,    0.9515,    3.6651,    2.0471,    5.7387,    6.5915,    4.7685,    5.8692,    4.6796,    5.9699,    6.9826,    6.8921,    8.6520,
24-SEP-2002 11:28:32.55 ,   -9.4760,   -7.5151,   -6.5011,   -5.9093,   -5.1146,   -3.8245,   -1.9895,   -1.2811,   -1.8660,   -2.3464,   -2.6105,   -3.4381,   -3.0635,   -2.1474,   -1.8499,   -1.8498,   -1.8922,   -2.1022,   -2.5699,   -2.8139,   -2.3402,   -1.3725,   -0.0605,   -0.7181,   -0.2342,    0.3744,    1.2222,    2.0685,    2.3335,    2.7518,    2.6755,    1.9853,    2.9899,    4.0033,    3.3766,    2.1047,    0.3492,    0.7000,    2.1441,    0.4257,    3.7125,    2.9847,    3.5149,    0.5994,    2.3372,    1.8768,    1.3898,   -2.0588,   -2.6757,   -1.9227,   -2.4056,    1.6447,    1.2328,    4.0275,    4.4160,    4.7089,    6.1990,    6.9214,    3.9879,    5.6793,    3.4887,    7.1957,    6.3829,    6.4460,    7.9040,
24-SEP-2002 11:31:14.22 ,   -6.1493,   -4.5345,   -4.4801,   -3.4185,   -2.5014,   -2.0686,   -0.8997,   -0.2206,   -0.5235,   -1.2213,   -1.8278,   -2.4181,   -1.8979,   -1.1958,   -1.4384,   -1.7191,   -1.8787,   -2.0991,   -2.3019,   -2.0502,   -1.7730,   -1.1592,   -0.4686,    0.1301,    1.3922,    1.0134,    2.1208,    3.2665,    4.2466,    4.6769,    4.0435,    3.4885,    3.6172,    3.7332,    1.6887,   -0.0665,   -3.0469,   -5.0792,   -4.8036,   -7.3238,   -0.6215,   -6.1543,    0.2962,   -5.5195,   -4.9949,   -6.7876,   -9.7667,  -13.9780,  -15.7755,  -17.7751,  -15.1413,  -10.5144,   -7.1959,   -3.5871,   -0.0643,    2.9881,    5.8105,    7.8155,    7.5990,    7.0704,    6.9634,    5.9136,    5.0435,    6.3149,    7.0708,
24-SEP-2002 11:33:55.81 ,    6.3612,   11.3304,    7.7265,  -16.5006,  -12.1064,   -8.4874,   -5.6536,   -2.2482,   -0.4306,   -0.5140,   -1.1519,   -1.6326,   -1.7464,   -1.2107,   -1.4257,   -1.3022,   -1.2278,   -1.8422,   -2.0369,   -1.9500,   -1.4935,   -0.4595,   -1.8250,   -0.9783,    0.0064,    1.2784,    2.5838,    2.9804,    3.6995,    4.7426,    4.9070,    3.9554,    3.4401,    3.4442,    4.0674,    4.1622,    3.6814,    3.0428,    3.9431,    5.1034,    7.0067,    6.8938,    6.1491,    4.9047,    3.2189,    4.1250,    5.9660,    3.3972,    4.7396,    4.9613,    4.2158,    4.3569,    4.6945,    5.4662,    6.0502,    5.4894,    5.3271,    4.8970,    4.7864,    5.6172,    5.2022,    4.6089,    5.5600,    7.0423,    7.2889,
24-SEP-2002 11:36:38.93 ,    8.4930,   13.3581,    9.4539,  -20.7176,  -15.5552,  -10.5296,   -6.9669,   -3.6560,   -1.1381,   -1.0940,   -1.5291,   -2.2504,   -2.3280,   -1.5465,   -1.8512,   -1.6666,   -1.4742,   -2.1487,   -2.0191,   -1.6589,   -1.3815,   -0.5510,   -2.5171,   -1.6511,   -0.7311,   -0.0816,    1.4486,    2.7745,    3.6518,    4.0630,    4.1078,    3.6820,    3.8399,    3.9266,    3.7275,    3.1745,    2.3849,    2.1171,    3.5406,    4.6138,    6.0627,    7.1564,    6.0916,    4.9029,    2.6417,    1.9916,    4.4047,    3.3276,    4.7475,    4.1243,    2.3956,    3.1279,    4.3412,    4.7298,    5.3818,    4.0984,    3.0973,    4.6478,    6.1351,    6.5648,    7.0868,    6.7055,    6.5409,    7.1900,    7.4976,
24-SEP-2002 11:39:20.93 ,  999.0000,  999.0000,  999.0000,  999.0000,   -1.8840,   -0.8331,   -0.7700,   -1.0202,   -0.5785,   -0.9136,   -1.9062,   -2.4833,   -2.0855,   -1.4527,   -1.8637,   -1.7355,   -1.4584,   -1.7250,   -1.9928,   -1.7810,   -1.4619,   -0.7798,   -1.2853,   -0.9811,   -0.4394,    0.5111,    1.8749,    2.9676,    3.9268,    4.6585,    4.3451,    4.0709,    3.8521,    3.5959,    3.5227,    3.5344,    2.6661,    1.8974,    3.0898,    3.5203,    4.5504,    6.3523,    6.6794,    6.2650,    3.1825,    4.2187,    5.1058,    3.7919,    4.2209,    4.1531,    4.6593,    2.9674,    3.0833,    5.9771,    5.9641,    5.7303,    5.6623,    6.7258,    5.9435,    6.2471,    6.7260,    6.0106,    4.6539,    6.0504,    7.5465,
24-SEP-2002 11:42:09.33 ,  999.0000,  999.0000,  999.0000,  999.0000,   -2.4448,   -1.7353,   -1.8094,   -1.5011,   -0.9882,   -1.3213,   -2.1509,   -1.6372,   -1.4303,   -1.5597,   -1.6907,   -1.1466,   -1.0779,   -1.4263,   -2.2373,   -2.0348,   -1.5695,   -0.6717,   -1.2273,   -0.5186,    0.5343,    1.0384,    1.9351,    2.9768,    3.8128,    5.0926,    5.1215,    3.6946,    3.2984,    3.0584,    2.8479,    3.2957,    3.2908,    2.9215,    3.7413,    4.5655,    5.8246,    6.4043,    5.5716,    6.5243,    5.7207,    4.1243,    4.9011,    4.4415,    5.3082,    4.7689,    4.6836,    1.1856,    3.1132,    7.6828,    6.7392,    7.2416,    6.6256,    7.7769,    7.2170,    6.2779,    7.8258,    7.3223,    6.5773,    7.2857,    7.8861,
24-SEP-2002 11:44:50.91 ,   -6.5355,   -6.5554,   -5.4348,   -3.9827,   -3.0002,   -2.6275,   -2.0941,   -2.0000,   -1.5075,   -1.6885,   -2.4936,   -2.2466,   -1.4577,   -1.7219,   -1.6778,   -1.4742,   -1.5059,   -1.9573,   -2.2541,   -2.5967,   -2.0479,   -0.7200,   -1.3355,   -1.1926,   -0.0663,    0.5873,    2.2179,    3.5194,    3.7788,    4.2385,    4.1674,    3.7633,    3.6879,    3.6336,    2.9186,    2.6493,    2.1467,    2.0680,    2.8751,    3.8324,    5.7073,    5.2565,    5.1370,    6.9451,    3.6329,    1.8584,    2.8517,    2.4721,    4.0483,    4.3369,    4.3261,    4.3457,    4.1515,    6.9677,    5.4902,    3.8712,    4.8015,    6.3767,    7.6832,    8.2834,    7.4900,    5.9534,    5.5692,    6.5512,    7.2630,
24-SEP-2002 11:47:32.87 ,   -3.7960,   -4.0058,   -2.8274,   -3.8223,   -2.5819,   -2.3776,   -2.1806,   -2.0537,   -1.6088,   -1.8487,   -2.9272,   -3.1043,   -2.0266,   -2.0270,   -1.9662,   -2.0016,   -1.5780,   -2.2265,   -2.5846,   -3.1473,   -2.6662,   -1.8345,   -0.5563,   -1.3542,   -0.2733,    0.4628,    0.7443,    1.6366,    2.7862,    3.7380,    3.5427,    3.3788,    3.8312,    3.1601,    3.7655,    3.6712,    2.5744,    3.2137,    2.9075,    3.1216,    3.8795,    4.8677,    3.9225,    6.0881,    3.9271,    3.5151,    4.6252,    4.2166,    3.8639,    5.3476,    5.8267,    5.7005,    5.6962,    6.2115,    5.7868,    7.0766,    7.5104,    9.0203,    9.6176,    8.6882,    8.6248,    7.2620,    5.9887,    7.3261,    8.7823,
24-SEP-2002 11:50:20.15 ,   -3.1478,   -3.7906,   -3.1166,   -4.4433,   -2.0239,   -1.5928,   -1.9735,   -1.6080,   -1.3193,   -1.6099,   -2.5394,   -2.8413,   -2.3200,   -2.4203,   -2.1219,   -1.8701,   -1.7983,   -2.2136,   -2.3140,   -2.4131,   -2.6253,   -2.2145,   -1.7685,   -1.4517,   -0.4385,    0.5828,    1.2261,    1.8470,    2.8439,    3.8421,    3.8213,    3.3817,    2.7621,    3.2412,    3.4930,    2.9093,    2.0121,    1.2165,    3.1890,    3.7669,    4.5681,    5.3096,    3.7630,    5.6483,    5.2031,    3.7626,    4.4572,    3.7527,    5.1565,    5.4930,    5.0723,    5.7557,    7.5537,    9.1525,    8.1534,    8.9525,    8.0171,    8.0790,    7.6446,    6.7083,    8.0507,    7.5833,    7.7873,    9.0056,    9.2188,
24-SEP-2002 11:53:01.20 ,   -4.7961,   -4.0490,   -4.1769,   -4.3864,   -2.1942,   -1.6761,   -1.6594,   -1.5543,   -1.5034,   -2.2454,   -2.8852,   -2.9852,   -2.1500,   -2.0367,   -1.7633,   -1.3166,   -1.5264,   -1.6971,   -1.8854,   -1.9889,   -1.9337,   -1.5202,   -0.7350,   -0.0228,    0.2942,    1.0574,    1.0805,    1.5922,    2.9719,    3.9005,    3.1940,    2.6599,    2.8843,    3.3153,    3.4256,    2.7669,    1.6272,    1.1278,    2.6879,    3.8592,    4.3992,    4.9586,    4.1035,    5.1583,    4.4705,    4.7283,    5.8361,    4.8640,    6.2461,    7.2662,    7.5838,    7.2918,    8.7999,    9.5840,    9.5706,    8.5598,    8.3782,    8.3125,    8.0584,    8.6114,    7.1814,    7.5521,    7.5506,    7.8910,    7.9365,
24-SEP-2002 11:55:42.78 ,   -3.6126,   -2.8441,   -3.2112,   -3.0163,   -1.6734,   -1.2225,   -0.9337,   -0.9841,   -1.0396,   -1.7163,   -2.4938,   -2.8979,   -1.8456,   -1.8454,   -1.4592,   -0.9714,   -0.8576,   -0.8868,   -1.5291,   -1.9594,   -1.9479,   -1.8876,   -2.5802,   -1.8568,   -1.4437,   -0.9469,   -0.0302,    1.1364,    1.9855,    3.1050,    2.5163,    1.7009,    1.8078,    2.3026,    2.7525,    2.0607,    1.2955,    1.9241,    2.4439,    3.1053,    3.6474,    4.4243,    4.9549,    4.3642,    4.6418,    5.0875,    6.7022,    5.2230,    6.1237,    7.1675,    7.1222,    6.8936,    7.1181,    7.7668,    6.0176,    3.8654,    4.6659,    5.6956,    4.9168,    5.6127,    6.2613,    6.4838,    6.3692,    7.9415,    6.3900,
24-SEP-2002 11:58:24.73 ,   -4.1862,   -3.6579,   -3.0879,   -2.6836,   -1.9112,   -1.2063,   -0.5098,   -0.4636,   -0.5062,   -1.1910,   -1.9627,   -2.8032,   -2.4142,   -2.2438,   -1.9427,   -1.6070,   -1.3638,   -1.7091,   -1.6370,   -1.7135,   -2.4968,   -2.3544,   -1.4403,   -2.1215,   -2.1137,   -1.6053,   -0.9814,   -1.0461,   -0.1772,    0.8487,    1.1128,    1.0580,    1.3926,    1.5727,    1.8807,    2.5305,    1.3851,    1.6643,    1.3293,    2.8048,    3.8965,    5.3420,    5.8192,    6.2663,    5.0989,    5.3559,    6.1974,    8.8460,    6.5347,    8.9675,   10.2246,    9.3582,    9.9742,   12.0672,   10.0439,    7.8791,    5.2684,    9.0566,    4.9292,    2.0128,    5.0903,    7.3674,    5.4113,    6.0744,    2.6496,
24-SEP-2002 12:01:08.08 ,  -10.0956,   -8.3055,   -6.0060,   -3.7755,   -2.9313,   -2.0751,   -1.4888,   -1.2708,   -1.8700,   -2.4071,   -3.3513,   -3.4248,   -2.8675,   -2.3176,   -1.9227,   -1.5909,   -1.6898,   -2.1246,   -1.7623,   -1.6542,   -2.1588,   -2.2275,   -1.7089,   -3.9116,   -3.7084,   -3.4977,   -2.6898,   -3.2617,   -3.2246,   -2.4010,   -1.9582,   -1.5587,    0.2728,    0.1301,   -1.0372,    1.2224,    0.6986,   -0.5894,   -1.5206,    3.5606,    6.0489,    9.6743,   10.2208,   11.0192,    6.4041,    3.8681,    6.0088,   12.0487,   13.1716,   17.5853,   22.8612,   20.6084,   17.5292,   19.3345,   17.8483,   16.2134,   14.6555,   11.6890,   11.6186,   10.7389,    8.4804,    7.7017,    8.2068,    8.0663,    8.1531,
24-SEP-2002 12:03:49.33 ,  -22.3967,  -19.9495,    5.8373,    4.1998,    1.6395,   -0.1516,   -1.8835,   -1.6423,   -1.9925,   -2.0496,   -3.2936,   -3.7161,   -2.9898,   -2.3385,   -1.7844,   -1.3526,   -1.4303,   -1.9181,   -2.3849,   -2.3873,   -2.0254,   -1.9377,   -2.0859,   -1.3192,   -1.3190,   -0.4991,    1.2071,    1.7224,    2.0489,    2.9640,    3.0032,    2.3081,    1.7578,    3.0363,    3.6828,    4.1356,    3.4779,    2.0291,    2.6554,    4.1155,    5.5730,    7.4789,    8.2484,    7.9614,    7.1846,    4.4030,    6.4632,    4.4448,    6.3545,    7.0137,    6.4666,    6.7964,    7.0751,   10.3591,    8.0031,    9.4917,    8.1458,    7.6404,    8.7028,    9.0459,    7.5890,    7.8202,    8.7098,    8.6496,    8.6485,
24-SEP-2002 12:06:35.90 ,  -16.0676,  -15.8890,   12.3525,    6.4839,    2.2400,   -0.1932,   -1.6821,   -2.0110,   -1.7480,   -1.8496,   -2.6436,   -3.7175,   -2.9517,   -2.3189,   -1.8235,   -1.2039,   -1.1798,   -1.9137,   -2.1910,   -1.9479,   -2.0808,   -1.7436,   -1.0287,   -1.7130,   -1.2794,   -0.4735,    1.0663,    1.3249,    2.2117,    2.9710,    3.3892,    2.8718,    2.7276,    3.3029,    3.9011,    3.9286,    2.6434,    2.2389,    2.4560,    3.1529,    3.9211,    5.3047,    4.8322,    6.0420,    4.2484,    2.5914,    5.4428,    5.0093,    5.8060,    6.3808,    7.4479,    6.0109,    6.0904,    7.5549,    8.3160,    8.4197,    8.2014,    7.9857,    9.1283,    8.8831,    8.5440,    9.2113,    9.4755,    9.3535,    9.3703,
24-SEP-2002 12:09:17.44 ,    1.3883,   -0.6168,   -1.9045,   -2.6515,   -2.5190,   -1.9656,   -1.7826,   -2.0529,   -1.8785,   -1.7130,   -2.7826,   -3.4988,   -2.5281,   -2.1894,   -1.3875,   -0.5970,   -0.7680,   -1.3528,   -1.3694,   -1.5981,   -2.3801,   -2.1383,   -1.0752,   -1.5754,   -0.4410,    0.2863,    0.8290,    1.4100,    2.0349,    2.4654,    3.1759,    3.4761,    3.2143,    3.7308,    3.9537,    3.7814,    3.0090,    2.2428,    2.3617,    2.7754,    4.4583,    5.7327,    6.2824,    6.4482,    4.2900,    4.9917,    6.3849,    5.7473,    6.4423,    6.5007,    5.4708,    5.9992,    8.2002,    8.4198,    8.4071,    7.6537,    7.2288,    7.1580,    7.8494,    8.2302,    8.0825,    9.6578,   10.8251,   10.5453,    9.5293,
24-SEP-2002 12:11:59.24 ,   -2.1722,   -2.9373,   -3.0206,   -2.4262,   -2.5180,   -2.0468,   -2.4016,   -2.1147,   -1.4554,   -1.4844,   -2.4012,   -2.9309,   -2.7779,   -2.3426,   -1.4978,   -0.7082,   -1.1043,   -1.4497,   -1.5965,   -1.8597,   -2.0300,   -1.7765,   -1.5547,   -1.2430,   -0.6846,   -0.3857,    0.4241,    1.1293,    1.2751,    2.1508,    2.9494,    3.4791,    3.2229,    3.6645,    3.7273,    3.6761,    2.6659,    1.7924,    2.4413,    3.5409,    5.1928,    5.9045,    5.9180,    6.7340,    3.9486,    2.8613,    4.8504,    3.3266,    4.8265,    6.6432,    4.8299,    2.9335,    8.5098,    7.1713,    7.6059,    8.1475,    8.4353,    8.2399,    8.5206,    9.6794,    9.4778,   10.0404,   10.3324,    8.9916,    8.9733,
24-SEP-2002 12:14:40.67 ,   -4.2378,   -4.4824,   -3.2878,   -2.9741,   -2.4830,   -2.3875,   -2.2863,   -2.0052,   -1.7810,   -2.2666,   -2.6249,   -3.1308,   -3.1722,   -2.9765,   -2.4159,   -1.4905,   -1.7569,   -1.9799,   -2.0623,   -2.2756,   -2.1733,   -1.8964,   -1.6048,   -1.1045,    0.1670,    1.3235,    1.1566,    2.0744,    2.0277,    2.9360,    3.5063,    3.2907,    2.8679,    3.5578,    4.6645,    4.5551,    3.4640,    1.5247,    1.3980,    2.0860,    4.4460,    5.7344,    5.7578,    7.0755,    4.5624,    4.8378,    6.2416,    3.5129,    5.3953,    6.7664,    6.8241,    7.5280,    8.5257,    4.5507,    7.6476,    8.2328,    8.1534,    7.0914,    8.1857,    9.6165,   10.3137,   10.5118,   10.6966,    8.7777,    9.2182,
24-SEP-2002 12:17:34.06 ,   -2.8143,   -3.6157,   -2.7324,   -2.7306,   -1.4515,   -1.3850,   -1.5406,   -1.8136,   -1.7843,   -2.1656,   -2.5820,   -3.2897,   -3.0164,   -2.8052,   -2.4605,   -1.8239,   -1.6965,   -1.9534,   -1.9071,   -2.1347,   -1.9007,   -1.1966,   -2.0537,   -1.7750,   -0.3856,    0.6039,    1.2938,    2.0426,    2.5450,    3.0866,    3.3023,    4.0436,    3.7680,    3.8953,    4.4958,    4.6435,    4.6372,    2.0797,    1.6045,    3.4081,    5.1741,    5.9358,    6.0580,    7.4503,    5.5401,    2.9061,    3.7093,    5.9173,    6.6476,    5.7434,    6.8331,    6.7335,    8.9181,    9.3989,    8.5418,    8.3171,    8.4593,    7.2518,    6.9406,    8.7077,   10.1888,   10.5026,    9.9547,    9.0219,    9.6197,
24-SEP-2002 12:20:17.71 ,   -1.3688,   -1.1242,   -1.2646,   -1.6879,   -0.9770,   -0.0606,   -0.3323,   -1.2211,   -0.9754,   -1.7681,   -2.7395,   -3.4169,   -2.6441,   -2.5420,   -2.3638,   -2.2455,   -1.6864,   -2.1107,   -1.9401,   -1.8590,   -1.6099,   -1.0316,   -1.1359,   -1.2222,   -0.6625,    0.2298,    0.8492,    1.2808,    1.8510,    2.9275,    2.9664,    2.8711,    3.3741,    4.0662,    4.4078,    4.0153,    3.6983,    2.2600,    2.5450,    3.4836,    5.2847,    4.8112,    6.3573,    7.2498,    5.4951,    4.1678,    5.9206,    5.0346,    5.2318,    4.5038,    4.9874,    5.3988,    9.2945,    7.9546,    8.3406,    7.0609,    6.8538,    6.8415,    6.4861,    8.0823,   10.1190,   10.2657,    9.5983,   10.1015,   10.0461,
24-SEP-2002 12:23:00.37 ,   -1.1053,   -0.8955,   -1.1460,   -1.4042,   -1.0259,   -0.3924,    0.2124,   -0.8700,   -1.0540,   -2.3588,   -3.6136,   -3.9546,   -3.1803,   -3.0595,   -2.4624,   -2.2908,   -1.5492,   -1.5391,   -1.5692,   -1.9069,   -1.6937,   -0.9070,   -0.8891,   -1.3048,   -0.8827,    0.0115,    0.6678,    1.2423,    1.8928,    1.5545,    1.6610,    1.9948,    2.2413,    3.3811,    3.6133,    3.0191,    2.1869,    1.2453,    1.9062,    3.7029,    4.6406,    5.1862,    5.6034,    5.7410,    3.8688,    2.3555,    4.2796,    2.6722,    3.2546,    4.2780,    4.6627,    5.9768,    7.0121,    7.5931,    8.0781,    7.5126,    6.1628,    6.8626,    7.9036,    9.0560,    9.9586,    9.7491,    9.4012,    8.4389,    8.6837,
24-SEP-2002 12:25:42.02 ,   -2.4565,   -2.3706,   -2.2574,   -2.7581,   -1.1316,   -0.3813,   -0.3298,   -0.6266,   -0.9263,   -2.2634,   -3.8551,   -3.6050,   -3.1421,   -2.8574,   -2.2652,   -1.8388,   -1.7400,   -1.4350,   -1.3598,   -1.8514,   -1.7390,   -0.7663,   -0.8919,   -1.0360,   -1.1157,   -0.2952,    0.5484,    1.0746,    1.8275,    2.2606,    2.8201,    2.7263,    2.6582,    3.1064,    2.6225,    2.5778,    2.2123,    2.4849,    1.8785,    3.1686,    4.5290,    6.3379,    7.9895,    7.5480,    5.6952,    3.4590,    2.0336,    2.3364,    3.6394,    6.5021,    5.8693,    4.8179,    4.5533,    5.7584,    6.3626,    6.5921,    5.5128,    5.7131,    6.4964,    9.2751,   10.6479,    9.7428,    9.3948,    7.1074,    7.2946,
24-SEP-2002 12:28:23.41 ,   -4.7235,   -4.7396,   -3.5109,   -3.9482,   -2.6576,   -1.2757,   -1.2445,   -0.8054,   -1.2110,   -2.3152,   -3.7696,   -3.6900,   -3.4048,   -3.0387,   -2.1818,   -1.7959,   -1.6935,   -1.7737,   -1.6070,   -1.5060,   -1.4810,   -0.7787,   -0.6974,   -0.4674,   -0.3499,    0.0370,    0.8214,    1.4477,    2.6902,    3.3405,    4.0404,    3.2021,    2.6020,    3.2828,    3.2553,    2.3212,    1.8121,    2.5614,    1.9584,    3.4210,    4.8467,    6.6790,    7.5111,    6.7451,    7.5595,    5.1710,    2.2348,    3.7479,    3.6989,    5.6596,    6.3452,    7.3736,    5.0443,    6.2626,    8.0696,    7.2814,    5.7108,    5.3640,    2.6719,    8.3867,   11.1046,   10.5061,    7.8557,    7.1893,    6.7534,
24-SEP-2002 12:31:28.29 ,  999.0000,  999.0000,  999.0000,  999.0000,  999.0000,   -1.7981,   -1.7939,   -1.8786,   -1.7259,   -2.8249,   -4.0409,   -4.1078,   -3.4766,   -2.5959,   -1.9136,   -1.6756,   -1.6127,   -1.8773,   -1.5465,   -1.2320,   -1.6095,   -1.2082,   -0.9432,   -0.4353,   -0.2048,    0.2024,    0.8082,    1.2848,    2.3547,    3.5732,    3.8165,    3.3016,    3.2829,    3.3222,    3.0316,    2.3018,    2.0575,    1.2426,    2.1187,    2.9859,    3.9474,    5.6758,    7.4976,    7.3743,    8.4694,    3.8347,    5.8173,    6.4190,    6.8156,    7.6052,    8.4913,    8.8428,    9.4161,    6.5166,    8.3485,    7.9620,    6.6733,    5.5561,    7.3604,    8.4386,    9.3274,   11.9466,   10.1144,    9.0610,    8.4752,
24-SEP-2002 12:34:09.76 ,  999.0000,  999.0000,  999.0000,  999.0000,  999.0000,   -0.8767,   -1.3700,   -1.6385,   -1.3032,   -2.2879,   -3.6524,   -3.5570,   -2.6475,   -1.8756,   -1.7746,   -1.5221,   -1.4536,   -1.7065,   -1.6326,   -1.4431,   -1.7793,   -1.1370,   -1.1645,   -0.9664,   -0.8916,    0.3282,    0.9978,    0.7585,    1.1450,    1.8988,    2.1193,    1.8372,    3.4270,    4.2165,    3.6162,    2.8635,    2.7493,    2.1373,    2.6804,    3.4188,    3.5153,    6.9197,    8.6468,    9.7986,    8.8771,    8.3931,    7.7083,    6.3237,    7.6467,    8.8077,    9.4343,    8.8926,    9.2127,    5.9417,    7.3456,    8.2704,    4.4370,    5.3748,    8.0137,   10.8171,   10.9785,   11.6395,   11.6422,    9.6736,    9.0967,
24-SEP-2002 12:36:57.43 ,   -5.8270,   -4.6488,   -3.7726,   -1.9788,   -2.1683,   -1.0479,   -0.8962,   -0.5033,   -0.7672,   -2.3239,   -3.4228,   -3.0457,   -2.2547,   -1.5894,   -1.5841,   -2.1206,   -2.0474,   -2.0533,   -1.8718,   -1.7908,   -1.7530,   -0.9745,   -1.7087,   -1.3400,   -0.6774,    0.4462,    0.9435,    0.9253,    1.5480,    2.1628,    2.2408,    2.5515,    2.9519,    3.5807,    3.7455,    3.4178,    3.3749,    3.0621,    3.7664,    3.6444,    3.7004,    6.5747,    8.5501,    8.5204,    8.3022,    7.3728,    6.5907,    5.1550,    5.9539,    6.8686,    7.8804,    8.4707,    8.1242,    6.2918,    6.5325,    7.6130,    2.2235,    6.2877,    8.4616,    9.7045,   10.6805,   10.9739,   10.2157,    8.7116,    9.1930,
24-SEP-2002 12:39:39.10 ,   -4.6910,   -3.7200,   -2.9316,   -2.4309,   -2.4628,   -2.0098,   -1.3215,   -1.1157,   -1.2441,   -2.1395,   -3.2360,   -3.1744,   -2.6508,   -2.2703,   -1.6822,   -2.1419,   -2.3880,   -2.1646,   -1.6884,   -1.8351,   -1.8476,   -1.2994,   -0.9353,   -0.9634,   -0.3843,    0.4101,    0.7678,    0.8697,    1.5015,    1.4333,    0.9224,    1.9309,    2.8774,    3.5110,    3.0668,    2.8857,    2.6055,    2.5871,    3.7107,    3.9855,    4.3344,    6.7070,    7.7970,    6.0397,    6.7729,    4.4398,    6.6588,    3.0178,    5.2016,    6.2967,    4.6912,    6.3995,    7.2703,    5.9430,    7.2753,    6.7023,    7.7154,    6.2915,    4.9688,    8.3560,   10.8396,    9.7582,    9.2696,    8.1558,    7.9794,
24-SEP-2002 12:42:20.98 ,   -4.4053,   -3.5843,   -3.0554,   -2.7662,   -2.5363,   -1.9658,   -1.7201,   -1.5852,   -0.8073,   -1.3409,   -2.7730,   -3.1646,   -3.0257,   -3.1193,   -2.3466,   -2.3389,   -2.6477,   -2.4474,   -1.8429,   -1.5338,   -1.7901,   -1.4662,   -0.9356,   -1.8591,   -1.2467,   -0.3584,    0.0114,    0.5068,    1.4276,    2.1208,    1.5634,    1.9540,    1.6518,    2.3706,    2.3901,    2.1750,    1.9327,    1.6053,    2.0941,    3.2914,    4.3316,    4.9464,    6.8408,    7.3161,    6.3839,    3.6892,    6.4002,    5.1954,    5.3287,    5.6517,    3.8920,    5.5587,    7.1450,    4.4293,    5.7739,    6.3994,    6.7627,    3.9800,    5.2111,    8.4248,   10.8155,    9.3249,    9.2453,    9.1671,    8.5339,
24-SEP-2002 12:45:03.66 ,   -4.4728,   -4.4320,   -3.7131,   -3.3502,   -2.3216,   -1.7479,   -1.1448,   -0.8697,   -0.2014,   -1.0783,   -1.9049,   -2.6510,   -2.7983,   -2.4468,   -2.0475,   -2.2826,   -2.5295,   -2.2875,   -1.9479,   -1.8317,   -1.8331,   -1.9963,   -1.5079,   -1.2128,   -1.1278,   -0.3526,    0.6280,    0.9376,    1.4766,    2.5279,    2.3710,    2.5791,    4.1274,    4.2278,    3.6460,    3.4013,    2.2269,    1.1231,    1.9399,    3.0666,    4.8670,    5.1694,    6.0262,    5.3404,    6.4622,    4.0169,    5.1521,    4.3379,    4.6735,    6.8983,    5.9096,    6.2271,    6.8067,    3.9977,    5.6543,    4.6119,    4.6911,    5.3269,    7.0590,    9.1803,   10.2010,    9.5941,    9.7847,    9.4685,    9.5128,
24-SEP-2002 12:47:45.07 ,  999.0000,  999.0000,  999.0000,   -3.2119,   -2.1968,   -1.4338,   -0.7763,   -0.5131,   -0.0485,   -0.8077,   -1.3827,   -2.5722,   -2.3443,   -1.8414,   -1.4948,   -1.2575,   -1.5417,   -1.2299,   -1.5149,   -2.2213,   -2.2306,   -2.0371,   -0.8957,   -1.1300,   -1.3869,   -0.5130,    0.5185,    0.8025,    0.8058,    1.3629,    1.7802,    2.0547,    3.5417,    4.2670,    3.9653,    3.2183,    2.4567,    0.8017,    1.5738,    3.0670,    4.4450,    6.1930,    6.2517,    6.2599,    7.0680,    5.9156,    4.6756,    2.7356,    5.2731,    6.7190,    5.2964,    6.3646,    7.0094,    4.2432,    7.4098,    6.4298,    4.7891,    4.7713,    8.1060,    9.3153,    8.9202,    7.7935,    6.5257,    7.4473,   21.8233,
24-SEP-2002 12:50:37.30 ,  999.0000,  999.0000,  999.0000,   -2.8058,   -2.4582,   -1.0847,   -0.8366,   -0.8477,   -0.3951,   -1.1380,   -2.3993,   -3.1297,   -3.1312,   -2.6638,   -2.0165,   -1.8610,   -1.9823,   -1.9209,   -1.8189,   -2.3452,   -3.1537,   -2.8125,   -1.5797,   -1.2228,   -1.3624,   -0.7168,    0.5132,    0.9458,    1.0985,    1.3738,    1.9030,    2.2753,    3.6450,    3.4154,    2.6151,    2.7828,    1.0067,    0.3334,    1.7216,    3.0672,    4.1245,    4.7062,    4.3980,    4.1652,    4.7450,    2.9970,    3.3124,    2.5563,    3.0481,    1.5949,    1.7444,    0.1184,   -2.7317,   -3.5394,   -1.5233,   -0.0982,   -6.1850,   -2.3114,   -1.0935,    0.5545,   -1.5874,   -6.2694,  -12.1142,   -8.5020,   32.6392,
24-SEP-2002 12:53:18.93 ,   -5.5638,   -5.4627,   -4.9382,   -3.7596,   -3.7044,   -2.0641,   -1.4157,   -1.4205,   -1.3304,   -1.6267,   -2.6860,   -3.1969,   -3.4105,   -3.0776,   -2.5067,   -2.7435,   -2.4478,   -2.4251,   -2.5032,   -2.9871,   -3.6702,   -3.4344,   -1.6809,   -1.6503,   -1.5208,   -1.2171,    0.1220,    1.0353,    1.0572,    1.2544,    2.0680,    2.6315,    3.7568,    4.0525,    3.4791,    2.3769,    1.2430,    0.7515,    2.1362,    2.5421,    2.2408,    3.9483,    4.3527,    4.0656,    4.8659,    2.8987,    2.9709,    3.1947,    1.2833,   -7.7206,   -4.6178,   -9.8592,  -15.4035,  -19.4168,  -27.4520,  -24.5922,  -25.6181,  -18.5577,  -21.1577,  -18.7070,  -13.0807,  -13.3067,  -13.1368,  -14.7380,  -13.2989,
24-SEP-2002 12:56:06.40 ,   -6.6112,   -5.8976,   -5.4298,   -4.6650,   -4.3969,   -3.1304,   -1.6740,   -0.9658,   -1.2592,   -1.6054,   -2.4344,   -3.1482,   -3.1685,   -2.7803,   -2.2929,   -2.5556,   -2.3750,   -2.2684,   -2.6951,   -3.0633,   -3.1941,   -3.0624,   -2.8322,   -2.4432,   -1.9269,   -1.3277,   -0.2592,    0.5521,    0.5733,    0.9546,    1.7240,    2.2803,    4.0291,    4.4002,    3.9144,    2.8188,    0.8897,    0.8502,    1.8724,    1.7273,    1.9451,    3.3150,    3.6660,    3.2358,    3.9619,    1.5495,    3.4078,    4.2803,    3.5659,    1.9852,    3.2453,    4.9653,    6.1755,    5.3897,    4.9582,    7.2649,    6.8804,    7.1568,    8.0212,    8.9182,    9.5964,   10.2746,   10.2520,    9.2065,    8.0024,
24-SEP-2002 12:58:47.64 ,   -6.8384,   -5.7227,   -5.4388,   -4.6094,   -3.7883,   -2.5659,   -1.5289,   -0.6037,   -0.3869,   -1.2598,   -2.3534,   -3.2751,   -3.4087,   -2.8030,   -1.8823,   -2.0597,   -2.3032,   -2.4540,   -2.3507,   -2.1740,   -2.2728,   -2.7080,   -1.5299,   -1.3199,   -1.4825,   -1.3103,   -0.4397,    0.3276,    0.6787,    1.2435,    1.8259,    2.2208,    3.5024,    4.5255,    4.0233,    2.9307,    0.7609,    0.6173,    1.2881,    1.4065,    2.4190,    3.2285,    4.1962,    3.8384,    3.4055,    3.5519,    2.9295,    2.6347,    3.7029,    2.4976,    3.5901,    3.9536,    6.8145,    6.8795,    6.8728,    7.1788,    7.1626,    7.6408,    9.1966,    9.7577,    9.7035,    9.6215,    9.3719,    8.8400,    8.8718,
24-SEP-2002 13:01:30.41 ,   -5.9391,   -5.1296,   -4.7087,   -4.3288,   -3.3286,   -1.8535,   -1.1810,   -1.0739,   -1.2956,   -1.7659,   -2.6687,   -3.2331,   -3.3140,   -2.6947,   -1.6793,   -1.5351,   -1.4948,   -1.6422,   -1.7540,   -1.9312,   -1.8502,   -1.7383,   -2.1759,   -1.9590,   -6.0348,   -0.5553,    2.1552,   -0.1721,    0.7495,    1.3738,    2.3402,    3.5479,    3.8876,    3.8978,    3.4734,    2.8229,    1.4362,    1.1410,    1.3425,    1.3436,    2.3359,    2.7989,    2.2364,    2.9913,    4.1330,    4.5022,    3.8429,    3.5542,    3.9969,    3.5306,    4.7520,    6.2676,    6.1659,    7.3133,    8.1038,    8.3603,    7.2831,    7.5474,   12.2416,   12.6793,   -0.2186,    0.0942,   -0.8138,   -0.8294,   -0.3268,
24-SEP-2002 13:04:11.66 ,   -8.0299,   -5.7799,   -5.1609,   -3.7638,   -3.8047,   -2.0792,   -0.8634,   -0.9655,   -1.5663,   -1.9892,   -3.6541,   -3.8014,   -3.9845,   -3.2386,   -1.9227,   -1.6028,   -1.3957,   -1.5687,   -2.1212,   -2.6813,   -2.6150,   -2.0549,   -2.3771,   -2.7116,  -15.2950,    1.5671,    9.3510,    0.3880,    0.7686,    1.2255,    2.4594,    3.6784,    4.3894,    3.8463,    3.7445,    3.7570,    1.1761,    0.4746,    1.0591,    1.3230,    1.4238,    1.7684,    1.6564,    2.2462,    3.0493,    2.5399,    2.7765,    3.4701,    2.4646,    2.5667,    2.5398,    5.9922,    3.8006,    6.9422,    8.1755,    9.1075,    6.5947,    8.0231,   21.0774,   20.2589,  -18.0162,  -16.4456,  -17.1513,  -17.9788,  -16.0268,
24-SEP-2002 13:06:53.83 ,   -8.4546,   -5.4916,   -5.0063,   -3.0238,   -3.5441,   -2.0615,   -1.5712,   -1.4753,   -1.4692,   -2.0253,   -3.4757,   -3.4671,   -3.5051,   -3.2458,   -2.3673,   -1.9890,   -2.0299,   -2.3541,   -2.7087,   -2.8178,   -2.8347,   -2.7461,   -2.7322,   -2.8076,   -2.5656,   -1.4466,   -0.5874,    0.2300,    0.7514,    0.8643,    2.3887,    3.1682,    3.8596,    2.9969,    2.9687,    2.1319,    0.6511,   -0.0126,    0.0072,    0.6957,    1.0620,    2.0280,    2.5389,    3.4015,    3.3972,    3.8084,    2.9591,    3.1382,    4.0722,    4.9288,    3.1897,    3.8339,    5.6567,    5.1832,    5.7772,    6.1001,    4.9424,    5.8804,    9.1984,    9.2973,    8.5714,   10.3744,    9.2022,    9.6367,    9.7553,
24-SEP-2002 13:09:35.25 ,   -5.4271,   -4.8126,   -4.1923,   -3.6446,   -3.4688,   -2.3303,   -1.7750,   -2.0506,   -1.9249,   -1.8935,   -1.8064,   -1.4207,   -1.3542,   -1.5084,   -1.7886,   -1.7039,   -2.0006,   -2.3400,   -2.4733,   -2.4970,   -2.4607,   -2.2565,   -1.0586,   -0.8342,   -1.2821,   -0.9654,   -0.0900,    0.5293,    0.9996,    1.1214,    2.4745,    2.4267,    3.0584,    2.2673,    1.8250,    0.9189,    0.1693,   -0.0428,    0.3234,    0.3937,    0.8159,    1.5133,    1.5375,    3.0062,    4.4162,    2.0409,    2.4809,    3.5061,    4.3045,    5.2763,    5.0093,    4.1623,    5.2513,    5.3607,    6.3787,    6.2010,    4.4351,    6.3335,    6.8738,    7.3892,    8.1547,    9.8297,   10.5324,   10.4217,   10.0516,
24-SEP-2002 13:12:16.58 ,   -5.9615,   -5.3411,   -5.1244,   -4.4908,   -4.0096,   -2.9539,   -2.8505,   -3.6319,   -3.4973,   -3.4371,   -3.3391,   -2.8324,   -2.4475,   -1.8445,   -2.2095,   -2.6720,   -2.7781,   -2.5270,   -2.6140,   -3.0672,   -2.7665,   -2.1864,   -2.0877,   -1.2462,   -2.1464,   -1.3169,    0.4710,    0.4944,    0.4362,    1.2978,    2.5657,    3.4307,    3.1260,    3.2615,    3.7190,    2.3188,    1.2350,    0.3809,    0.5481,    0.9269,    1.6331,    2.1261,    1.5758,    3.1094,    4.1881,    3.2632,    3.7064,    3.9409,    2.3382,    3.8009,    4.1542,    3.5941,    4.3640,    4.7971,    6.3013,    6.1008,    5.8240,    4.9734,    7.2946,    8.0482,    7.6066,    8.9749,    9.6902,   10.1364,    9.0040,
24-SEP-2002 13:14:58.12 ,   -6.7199,   -5.1758,   -5.2788,   -4.4556,   -4.0561,   -2.5058,   -3.0023,   -3.8776,   -3.8326,   -4.2518,   -4.6371,   -4.6585,   -4.0368,   -3.3164,   -2.9341,   -2.8456,   -2.8045,   -2.4028,   -2.1534,   -2.4188,   -2.5934,   -2.2355,   -3.0259,   -2.5451,   -1.6403,   -0.5585,    0.1503,    0.0691,    0.1647,    1.0621,    1.8266,    2.2678,    3.1462,    3.2795,    2.7865,    2.1572,    1.1590,    0.5707,    0.2219,    0.2796,    0.9685,    1.2000,    1.4174,    2.9997,    2.9840,    2.8522,    3.4191,    3.1284,    3.3381,    3.0005,    4.2137,    3.4830,    4.8091,    5.6968,    6.9092,    6.8148,    7.0925,    5.8120,    6.8140,    7.6145,    7.3427,    8.6047,    8.8849,    8.8878,    8.4972,
24-SEP-2002 13:17:50.62 ,   -5.3788,   -3.5752,   -3.4545,   -3.5175,   -3.1920,   -1.4106,   -0.8203,   -1.3362,   -1.5023,   -1.9241,   -2.6178,   -3.4239,   -3.6555,   -3.5418,   -3.0291,   -2.2936,   -2.4508,   -2.5863,   -2.7248,   -2.6649,   -3.2411,   -3.0586,   -2.7145,   -3.2347,   -3.0951,   -1.9394,   -0.8207,    0.4744,    1.0439,    0.8811,    1.3817,    2.4974,    4.2381,    4.1300,    3.1604,    0.8310,   -0.2125,   -0.0301,    0.8253,    0.8822,    1.2688,    2.0374,    1.8228,    2.1035,    2.8150,    3.2592,    3.1321,    3.1121,    3.1099,    3.7259,    4.5656,    4.2534,    5.9576,    7.1099,    8.3081,    6.6653,    7.2457,    6.7294,    6.9282,    7.3851,    8.2280,    8.8547,    8.6170,    9.1049,    9.2650,
24-SEP-2002 13:20:32.46 ,   -4.4044,   -3.7747,   -3.6440,   -3.1086,   -2.2856,   -1.1018,   -0.8549,   -1.4390,   -1.5429,   -1.6812,   -2.0866,   -2.7200,   -3.4634,   -3.2197,   -3.0774,   -2.3797,   -2.5402,   -2.7461,   -3.2431,   -3.2452,   -3.2952,   -3.1130,   -2.9271,   -3.0463,   -2.5452,   -2.1718,   -1.9895,   -0.3704,    0.7198,    0.7542,    1.2664,    1.9866,    3.1657,    1.5550,    1.2739,    0.2701,    0.1837,    0.3015,   -0.0887,    0.0110,    0.0564,    0.8990,    1.4780,    1.8475,    2.9216,    1.5465,    1.4253,    0.1325,    1.8115,    3.5143,    4.4600,    3.7351,    5.0851,    6.5835,    7.6362,    8.5066,    8.2992,    8.3560,    8.7184,    9.2572,    8.4987,   10.3130,    9.2619,    9.6483,    9.6706,
24-SEP-2002 13:23:14.03 ,   -6.4690,   -5.1875,   -4.6090,   -3.6814,   -2.3176,   -1.0130,   -1.3027,   -1.7108,   -1.3846,   -1.7288,   -2.3044,   -2.7158,   -3.2092,   -2.6270,   -2.6913,   -2.2216,   -2.2500,   -2.3962,   -2.5715,   -2.7943,   -2.5144,   -2.4140,   -2.6087,   -2.6386,   -2.5675,   -2.2888,   -1.8060,   -0.2176,    0.6987,    0.7555,    1.3756,    2.5722,    3.7604,    2.5690,    1.7195,    1.1291,    0.8089,    0.8673,    0.5890,    0.1572,    0.5769,    1.1107,    2.0728,    3.2821,    4.0823,    1.9069,    2.1864,    1.0215,    1.7781,    2.8304,    3.4540,    3.8452,    4.7091,    6.2673,    7.0674,    7.9477,    7.4567,    7.4597,    8.0063,    8.9145,    7.1315,    8.7585,    8.1330,    8.3971,    8.7011,
24-SEP-2002 13:25:55.75 ,   -7.6382,   -6.0841,   -5.1841,   -4.2083,   -3.2577,   -2.3312,   -2.3308,   -2.0619,   -1.5635,   -1.8029,   -2.3147,   -2.4268,   -2.1611,   -1.7661,   -1.6336,   -1.5684,   -1.7696,   -1.8660,   -1.9017,   -2.6806,   -2.5493,   -2.1077,   -2.6109,   -2.5624,   -2.7822,   -2.3545,   -1.0440,    0.5280,    1.4067,    1.4261,    1.8554,    3.2583,    4.2135,    1.8893,    1.6143,    1.2156,    0.7649,    0.1982,    0.6419,    0.8634,    1.2481,    1.6519,    1.6576,    3.1583,    2.0241,    1.4221,    1.5601,    3.0895,    4.5938,    4.0775,    3.2579,    4.9284,    4.5887,    5.4323,    6.5221,    5.1193,    5.4740,    7.1463,    6.5085,    8.4909,    9.4605,    6.5082,    7.7563,    8.3531,    8.3843,
24-SEP-2002 13:28:37.39 ,   -4.9728,   -4.3499,   -4.1599,   -3.6577,   -3.3610,   -2.9676,   -2.0986,   -1.9992,   -2.2223,   -2.6129,   -2.7655,   -3.0701,   -2.8508,   -1.9076,   -1.4730,   -1.5608,   -1.4131,   -1.3713,   -1.9336,   -2.6205,   -2.6969,   -2.3729,   -2.3644,   -2.1002,   -1.8360,   -1.6233,   -1.1236,   -0.6826,    1.0673,    1.9579,    2.1769,    3.0420,    4.3885,    4.0095,    2.4367,    1.7087,    1.0060,    0.9379,    1.1857,    1.7615,    1.9679,    1.5375,    0.7264,    1.2456,    2.1550,    2.0900,    1.3505,    1.5267,    2.6904,    3.7132,    4.1482,    4.7465,    5.3542,    4.3323,    6.1763,    6.5176,    6.4612,    7.0065,    5.0207,    7.6603,    8.1344,    8.3532,    9.7737,   10.0431,    9.5599,
24-SEP-2002 13:31:19.98 ,   -3.2585,   -2.9059,   -2.8288,   -2.7568,   -3.0561,   -1.8709,   -0.9900,   -1.3135,   -1.7533,   -2.6183,   -3.3195,   -4.2855,   -4.4604,   -3.4311,   -3.6228,   -3.5224,   -3.0115,   -2.7499,   -3.0036,   -3.2074,   -3.3082,   -3.0162,   -2.8774,   -2.5752,   -2.5136,   -2.1006,   -0.9898,   -0.2652,    0.3629,    1.0815,    1.5571,    4.0887,    4.8004,    3.9073,    3.2538,    2.9285,    1.5598,    1.9218,    2.2735,    2.0134,    2.2414,    1.9301,    0.5223,    0.9161,    2.0074,    1.5619,    1.2064,    1.6060,    2.2331,    3.8819,    3.5197,    3.9627,    5.5025,    6.7847,    7.0854,    7.3788,    5.8915,    6.7222,    7.4249,    7.3054,    8.0227,    7.9052,    8.2950,    9.5151,   10.0559,
24-SEP-2002 13:34:01.69 ,   -3.6499,   -3.4583,   -3.1516,   -3.0071,   -3.1891,   -1.9197,   -1.5973,   -1.6417,   -2.1320,   -2.9145,   -3.3586,   -4.1044,   -4.5309,   -3.7672,   -4.1144,   -4.0403,   -3.6325,   -3.1244,   -3.3280,   -3.4750,   -3.3307,   -3.0446,   -2.1734,   -2.0257,   -1.8653,   -1.6460,   -0.9179,   -0.4448,    0.4055,    1.2338,    1.5545,    3.7829,    5.2334,    4.9599,    3.9706,    3.1728,    1.6963,    0.7507,    0.8111,    2.3587,    1.9367,    2.5203,    0.9211,    1.4000,    2.1126,    1.3898,    2.1546,    1.8995,    2.2776,    3.0779,    2.8908,    3.7366,    4.3538,    6.0224,    7.1493,    6.4293,    5.3174,    6.2353,    6.1057,    5.7507,    5.9767,    7.2865,    8.1349,   10.1900,   10.9919,
24-SEP-2002 13:37:06.52 ,   -4.5744,   -4.3544,   -3.6522,   -2.8284,   -2.2939,   -1.9488,   -1.6882,   -0.9802,   -2.1885,   -2.5077,   -3.1589,   -3.3507,   -3.3705,   -2.7164,   -2.9025,   -2.8702,   -2.5209,   -2.3187,   -2.6349,   -2.7428,   -2.4447,   -2.0904,   -3.1512,   -3.3896,   -3.0601,   -1.9464,   -1.0289,   -0.7947,   -0.2398,    0.7763,    1.6695,    3.6166,    4.5409,    3.7564,    2.6925,    2.4650,    2.2720,    1.5401,    1.6121,    2.1639,    1.3353,    1.4968,    1.7124,    0.6298,    0.9861,    1.2955,    3.3592,    3.7133,    3.8145,    4.4164,    4.5506,    4.3708,    4.6467,    4.3587,    6.4350,    5.0995,    4.6854,    5.0553,    3.6931,    6.2084,    6.3148,    7.0840,    8.1724,    9.7255,   11.4180,
24-SEP-2002 13:39:48.69 ,   -4.8828,   -4.4646,   -3.5330,   -3.4844,   -3.0839,   -2.8368,   -2.2459,   -1.2574,   -1.9690,   -1.9407,   -2.9058,   -3.3425,   -3.5001,   -3.1803,   -3.1059,   -2.9328,   -2.5525,   -2.2890,   -2.4404,   -2.7141,   -2.6952,   -2.1804,   -2.1207,   -2.7232,   -2.4779,   -1.7172,   -0.9940,   -0.2311,   -0.3980,    0.5948,    1.8243,    3.3846,    4.2806,    3.0572,    1.8662,    1.1515,    0.5739,    0.5736,    0.9432,    1.0030,    0.5308,    1.0322,    0.6845,    1.3001,    0.8451,    0.6158,    2.4380,    3.4438,    3.7540,    4.1007,    4.8341,    5.3206,    5.0005,    3.1786,    5.5979,    4.7245,    5.2125,    3.6508,    5.3840,    7.0005,    6.8045,    5.8995,    8.9129,   10.0262,   11.0104,
24-SEP-2002 13:42:32.64 ,   -4.7204,   -4.8560,   -4.2014,   -4.2454,   -3.3703,   -2.8087,   -2.4611,   -1.8412,   -1.4957,   -1.6518,   -2.2609,   -3.1380,   -3.6799,   -4.0194,   -3.5309,   -3.4191,   -2.6589,   -1.9076,   -2.3835,   -2.7897,   -2.7125,   -2.5736,   -2.4067,   -2.3880,   -2.5480,   -1.5187,   -0.4478,    0.5363,    0.5966,    1.7339,    3.0975,    4.0278,    4.9120,    3.9463,    2.1478,    1.2999,    0.3802,   -0.1410,    0.5746,    1.6321,    1.1611,    1.6246,    1.0428,    1.4448,    2.2745,    1.0585,    1.8062,    2.3518,    2.6935,    1.6510,    3.1757,    3.5355,    5.1648,    4.2663,    3.7888,    5.9984,    6.1962,    5.3012,    5.0061,    5.6850,    6.5288,    6.8134,    9.4026,    8.5176,    8.2588,
24-SEP-2002 13:45:14.94 ,   -2.9476,   -4.2270,   -4.1875,   -3.6045,   -3.6892,   -3.4032,   -2.8701,   -2.1068,   -1.5864,   -1.7187,   -2.1730,   -2.3521,   -2.5559,   -2.9958,   -2.8907,   -2.8953,   -2.4475,   -1.9704,   -2.2385,   -2.4636,   -2.3249,   -2.3260,   -1.8039,   -2.2384,   -1.1923,   -0.3668,   -0.0683,    0.5138,    1.3482,    3.0525,    3.5188,    3.5076,    3.9577,    3.2233,    2.2647,    1.8667,    0.3370,    0.1293,    0.8203,    0.6782,    0.6303,    0.0805,    0.0167,    1.0052,    1.5634,    1.5817,    2.1302,    3.0031,    3.1324,    3.2418,    3.8325,    3.7453,    6.1615,    4.7654,    5.9086,    6.3929,    6.2895,    6.6279,    6.6734,    6.6107,    6.2971,    5.9922,    6.6295,    7.1284,    7.9632,
24-SEP-2002 13:47:57.86 ,    7.9233,    5.8023,  -18.6454,  -15.1761,  -10.8214,   -7.8395,   -4.8089,   -2.6680,   -2.4784,   -2.6478,   -3.0648,   -2.7386,   -2.4661,   -2.6966,   -2.7938,   -2.9110,   -2.8943,   -2.8051,   -2.5657,   -2.4369,   -2.3201,   -2.1603,   -2.4837,   -2.6239,   -1.5709,   -0.0558,    0.8116,    1.4720,    2.7198,    3.7924,    4.2274,    4.1754,    3.2544,    2.6207,    2.1003,    0.7645,   -1.6536,   -3.1976,   -4.4872,   -5.9617,   -7.6783,   -8.6806,    4.3012,    6.4912,    5.2547,    4.5044,    3.6475,    4.3956,    4.1002,    4.2006,    3.7825,    4.7264,    5.5145,    3.8402,    5.4411,    6.0976,    5.7036,    5.4503,    6.5671,    7.3908,    6.9549,    6.6031,    6.7188,    6.6322,    6.7447,
24-SEP-2002 13:50:41.05 ,    9.3040,    7.8653,  -20.8613,  -16.5314,  -10.7350,   -7.0653,   -3.9873,   -2.3621,   -2.5745,   -3.1272,   -3.6889,   -3.5499,   -3.4439,   -3.6467,   -3.5018,   -3.2902,   -2.8581,   -2.7336,   -2.9272,   -2.9786,   -3.0031,   -2.3950,   -1.8473,   -2.3856,   -1.6317,   -0.7120,   -0.2700,    0.4351,    1.4654,    2.2389,    3.3744,    4.2093,    3.0479,    1.7829,    1.7820,   -1.5160,   -6.0732,  -10.7921,  -15.3240,  -20.6791,  -25.4745,  -26.2943,   13.0720,   17.2833,   10.9817,    9.1453,    7.2620,    6.7903,    4.0111,    3.2213,    2.8953,    3.1330,    4.7368,    5.4990,    6.1423,    6.0814,    5.6738,    6.6662,    7.5856,    8.1244,    8.7369,    8.6221,    9.3276,   10.0507,    8.1203,
24-SEP-2002 13:53:22.55 ,   -5.4995,   -4.6721,   -3.9563,   -2.7157,   -2.5575,   -2.2204,   -1.5766,   -1.6193,   -1.8699,   -2.8664,   -4.0562,   -4.0298,   -4.8502,   -4.6549,   -3.8209,   -3.5577,   -3.0268,   -2.8926,   -3.4120,   -3.3870,   -3.1611,   -3.1060,   -2.5304,   -2.3829,   -1.8793,   -0.8505,   -0.3176,    0.4385,    1.5861,    2.5506,    3.4012,    3.7741,    3.3573,    2.3921,    2.6541,    1.9171,    1.4666,    1.0303,    1.8493,    2.1414,    2.7866,    2.2288,    1.1139,    1.4041,    0.7213,    0.5199,    0.8229,    1.3503,    2.2095,    1.6973,    1.1338,    2.0497,    3.9300,    4.3643,    5.1845,    4.6870,    5.2065,    5.4042,    6.5324,    9.6171,    9.1434,    9.5686,    9.8215,    9.8851,    7.6506,
24-SEP-2002 13:56:04.53 ,   -5.7973,   -5.1666,   -4.2935,   -2.7566,   -2.2411,   -2.0249,   -1.1838,   -0.7956,   -1.1793,   -2.2137,   -3.4017,   -3.7186,   -4.3776,   -3.6413,   -2.7182,   -2.7564,   -2.6753,   -2.8322,   -3.0779,   -3.2073,   -2.8009,   -3.3707,   -2.3206,   -2.7098,   -2.6777,   -1.9067,   -0.6886,    0.5066,    1.2238,    2.9488,    4.0547,    4.0992,    3.3843,    2.7384,    3.4643,    2.4203,    1.2674,    1.8283,    1.9482,    1.4635,    1.7523,    2.1519,    1.2923,    0.9682,    1.6225,    0.2539,   -0.4336,    0.0578,    0.6241,    0.8127,    1.4701,    3.2464,    2.8552,    3.4069,    5.5296,    6.6685,    5.4240,    6.6590,    7.5394,    7.4360,    6.6771,    8.0680,    9.6030,    9.3295,    8.2802,
24-SEP-2002 13:58:46.37 ,   -5.0137,   -4.8168,   -4.0369,   -3.3087,   -2.3661,   -2.0484,   -1.6746,   -1.5870,   -1.1976,   -1.7794,   -2.4064,   -3.2667,   -3.0174,   -2.6622,   -2.3255,   -2.2016,   -1.8829,   -1.9534,   -2.1502,   -2.6037,   -2.8153,   -2.6711,   -2.6825,   -2.6854,   -2.7157,   -1.8850,   -0.6961,    0.6113,    1.3678,    2.5173,    3.6177,    3.5842,    2.7449,    2.9897,    3.2285,    2.0195,    1.1215,    2.1898,    2.4976,    1.6863,    1.3929,    1.0864,    0.6102,    0.3689,    0.0968,    0.1430,   -0.2186,    0.2273,    0.6515,    1.7735,    1.1624,    3.0629,    4.2836,    5.5599,    6.2256,    7.3904,    5.8473,    7.5712,    8.3552,    7.9241,    7.5905,    8.1546,    9.6843,    9.9684,    7.3833,
24-SEP-2002 14:01:38.84 ,   -6.1264,   -5.3358,   -4.6294,   -3.9053,   -2.6841,   -1.9531,   -2.4743,   -2.1233,   -0.9186,   -0.7137,   -1.4830,   -1.7993,   -1.7226,   -1.7921,   -2.1915,   -2.0510,   -1.9990,   -2.1379,   -2.2751,   -2.6069,   -2.6994,   -1.6892,   -2.2710,   -1.7624,   -1.7861,   -1.2132,   -0.5498,    1.5840,    2.4886,    2.9953,    4.1354,    4.3880,    3.1809,    2.8983,    1.9967,    1.2858,    1.2145,    2.1221,    2.6488,    1.3337,    0.6470,    0.6367,    0.2400,   -0.1709,   -0.1685,    0.1166,   -0.1800,    0.2467,    2.2628,    1.9017,    2.4714,    3.8983,    4.3737,    4.7438,    5.7740,    5.9687,    5.7598,    7.0077,    8.0565,    8.9208,    8.5300,    9.1797,   11.6967,   10.8105,    9.8706,
24-SEP-2002 14:04:20.49 ,   -5.9531,   -5.1865,   -4.5851,   -3.9712,   -3.2582,   -2.3210,   -3.2310,   -2.6226,   -1.8989,   -2.3924,   -2.7217,   -2.5904,   -2.7855,   -2.9446,   -3.3205,   -3.0675,   -3.0373,   -3.1418,   -2.9735,   -2.9043,   -2.7022,   -1.9203,   -1.5514,   -2.7126,   -2.5610,   -1.9545,   -1.1732,    0.3043,    1.0830,    2.6352,    4.0647,    4.0896,    2.9419,    2.5941,    2.4606,    1.6099,    1.6964,    1.6526,    1.8225,    1.5811,    1.1627,    1.0559,    0.7275,    0.6393,    0.7959,    0.3397,    0.5771,    2.0543,    3.4363,    3.1805,    4.5244,    2.7962,    3.7640,    4.7830,    4.4358,    4.9525,    6.5513,    7.3567,    7.9598,    8.7576,    9.0784,   10.2682,   11.6926,   10.2187,   10.4247,
24-SEP-2002 14:07:03.72 ,   -5.4724,   -5.0786,   -4.5584,   -4.1636,   -3.4687,   -2.4321,   -2.4853,   -1.8359,   -1.8951,   -2.7386,   -3.1237,   -3.2330,   -3.2456,   -3.7404,   -4.1625,   -4.1194,   -3.7552,   -3.6276,   -3.4762,   -3.2962,   -3.1690,   -2.7021,   -3.0752,   -3.1709,   -2.5793,   -1.5001,   -0.3516,    0.5345,    1.3215,    2.7490,    3.6820,    3.2222,    2.2307,    2.3438,    2.7132,    2.3165,    1.2943,    1.7801,    1.6549,    2.6024,    2.6611,    2.4339,    2.6550,    2.0111,    2.4797,    0.4878,    1.8589,    2.5430,    2.1533,    2.2633,    3.2336,    3.0347,    4.4318,    4.8516,    5.2825,    5.5783,    7.8274,    7.7788,    7.5887,    7.1777,    7.6541,    8.1033,    9.0396,   10.1655,   11.0122,
24-SEP-2002 14:09:45.26 ,    5.3622,   -5.2474,   -4.9887,   -4.8446,   -4.3827,   -3.2448,   -3.2641,   -3.2273,   -3.1210,   -3.1652,   -3.6245,   -4.0819,   -3.7381,   -3.9073,   -4.3326,   -4.0798,   -3.5238,   -3.6363,   -3.3438,   -3.3175,   -3.3798,   -2.9721,   -2.7317,   -2.6643,   -2.2056,   -1.0818,   -0.1994,    0.3881,    1.5422,    2.9255,    3.6194,    2.6380,    1.8217,    2.0294,    1.7692,    1.2234,    0.4494,    1.5220,    1.7699,    2.0859,    1.1567,    2.0000,    2.4367,    1.1860,    0.7830,    0.0774,    0.4202,    1.1097,    1.1969,    1.9119,    1.5856,    1.4398,    2.5369,    3.4723,    5.0984,    5.0850,    6.0039,    5.6242,    6.6702,    5.9098,    8.2547,    7.9728,    8.4176,    9.6322,    9.9792,
24-SEP-2002 14:12:26.78 ,    8.3596,   -4.8780,   -4.7265,   -3.9687,   -3.2266,   -2.4925,   -2.8126,   -2.7968,   -2.3816,   -2.7241,   -2.4565,   -2.5370,   -2.9050,   -2.9859,   -3.4122,   -3.5723,   -3.3914,   -3.4439,   -3.1173,   -3.3017,   -3.4286,   -3.2958,   -2.8406,   -2.4420,   -2.2368,   -1.5144,   -0.5010,    0.0407,    1.6566,    1.2687,    1.7387,    2.0047,    1.3978,    1.4895,    1.6960,    0.9306,    1.3459,    1.8872,    2.3052,    1.6781,    1.3018,    1.2533,    1.0819,    0.8903,    0.5636,    0.1145,    0.2656,    1.2634,    2.0612,    1.5083,    0.9591,    0.8332,    0.6334,    2.8269,    4.0111,    5.1893,    5.5391,    5.1876,    4.7229,    5.7735,    7.7868,    7.6907,    7.4828,    8.3325,    8.5122,
24-SEP-2002 14:15:08.81 ,   -5.5099,   -5.2545,   -5.0368,   -4.2070,   -2.9081,   -2.3180,   -2.5063,   -1.7607,   -0.8767,   -1.2827,   -1.6580,   -1.9828,   -2.8237,   -2.9429,   -3.3853,   -4.0526,   -3.9191,   -3.5839,   -3.4561,   -3.5942,   -3.5641,   -3.5204,   -2.9250,   -2.6831,   -2.6550,   -2.2475,   -0.8190,   -0.2708,    0.8720,    1.6362,    1.0214,    0.8312,    1.2068,    1.2288,    1.0258,    0.8593,    0.2704,    0.6101,    1.8517,    2.2569,    0.6529,    0.6075,    1.0819,    1.4359,    1.3602,    0.9070,    0.8345,    1.0554,    1.4910,    2.6713,    2.4612,    0.6293,    2.2778,    3.6671,    4.2622,    4.5516,    3.8630,    4.4254,    4.3853,    6.3153,    6.9705,    6.5414,    6.8948,    7.8934,    8.9261,
24-SEP-2002 14:17:56.41 ,   -7.0604,   -5.8691,   -5.4946,   -4.9604,   -4.1706,   -3.4501,   -3.6369,   -3.2288,   -2.8082,   -3.0116,   -4.1177,   -4.8252,   -4.6427,   -4.5569,   -5.0032,   -4.8513,   -4.1623,   -3.8021,   -3.7283,   -3.5495,   -3.3018,   -3.1906,   -3.8894,   -3.3488,   -2.9185,   -2.5352,   -0.7377,    0.6428,    1.6163,    1.7157,    1.2226,    2.0528,    2.2803,    2.4181,    1.5354,    0.4432,   -0.2748,    0.2833,    1.1098,    1.4531,    0.5196,    1.0157,    1.4000,    1.5388,    1.0171,    2.4371,    0.6784,    0.6409,    0.3459,    0.6420,    1.8286,    1.4745,    1.8144,    2.2392,    3.5562,    5.3391,    4.5399,    4.0783,    5.1477,   -8.3912,   -7.1620,   -8.3649,   -9.6070,   -7.2224,   -4.9718,
24-SEP-2002 14:20:40.39 ,   -6.2584,   -5.0744,   -4.8519,   -3.6459,   -3.7667,   -2.8686,   -2.5077,   -2.5074,   -2.0208,   -2.2603,   -3.0214,   -3.3421,   -3.4756,   -3.9475,   -4.4532,   -4.0827,   -3.3937,   -3.1956,   -2.7861,   -2.0786,   -1.7015,   -1.6172,   -2.2284,   -2.3873,   -2.6290,   -1.9321,   -0.4531,    0.6443,    1.4542,    1.7593,    1.6071,    2.0512,    1.4719,    1.6103,    1.6815,    0.8685,    0.3352,    1.3460,    1.3846,    2.5709,    2.7033,    2.7181,    2.4591,    0.9849,    0.2620,    0.5153,    1.1037,    0.7110,   -0.8341,   -0.8454,   -0.3460,    2.5088,    2.6273,    3.0634,    3.2999,    3.2622,    2.1649,    3.0862,    4.9216,  -37.6932,  -37.5987,  -40.1322,  -38.8400,  -38.9796,  -35.3308,
24-SEP-2002 14:23:22.06 ,   -5.4770,   -5.1695,   -4.4605,   -3.1457,   -2.9143,   -2.1462,   -1.7421,   -1.7476,   -1.3141,   -1.9975,   -2.9587,   -3.3349,   -3.6108,   -4.1373,   -4.2104,   -3.6604,   -3.1339,   -2.8012,   -2.1843,   -1.5039,   -1.4447,   -1.3720,   -1.6970,   -1.9397,   -1.7055,   -0.7078,    0.5603,    0.9814,    1.0594,    0.8839,    0.9452,    0.6635,    0.4860,    0.8469,    0.6942,    0.3795,    0.6141,    0.6620,    1.8697,    2.3127,    2.1702,    1.9965,    1.9459,    1.0957,    0.6941,    0.9472,    0.6076,    0.4422,   -1.2505,   -0.1904,   -0.0782,    0.2002,    1.4940,    3.5276,    3.5121,    4.0904,    4.1431,    3.9762,    4.2509,    4.0421,    5.9915,    6.4359,    7.4591,    8.8433,    9.3430,
24-SEP-2002 14:26:03.57 ,   -3.7985,   -5.0809,   -4.1111,   -3.6743,   -3.3106,   -3.4907,   -3.7413,   -3.6363,   -3.6384,   -3.6288,   -4.1161,   -4.4306,   -4.2216,   -4.5188,   -4.4960,   -4.0179,   -3.9926,   -3.6605,   -2.7882,   -2.1861,   -1.9037,   -1.7687,   -1.3765,   -1.0009,   -1.0204,   -0.0810,    1.1309,    1.0122,    0.4718,   -0.0680,   -0.5664,   -0.6766,   -0.5784,    0.2828,    0.8133,    0.5290,    0.7808,    1.2744,    1.8788,    2.1988,    1.8453,    1.3386,    1.3531,    1.1683,    0.6505,    0.9091,    1.1766,    0.4998,   -1.2084,    1.1343,    0.4607,    1.1723,    2.2151,    3.0811,    3.1968,    4.5303,    6.7623,    7.1315,    7.1745,    7.1438,    7.5200,    9.8570,    7.4581,    8.7395,   10.4137,
24-SEP-2002 14:28:45.03 ,   -3.1442,   -3.9974,   -3.5273,   -3.1060,   -3.3503,   -3.1480,   -3.2794,   -3.3663,   -3.7257,   -2.9472,   -3.1258,   -3.4036,   -3.1559,   -3.5936,   -3.5870,   -3.4864,   -3.9528,   -4.1750,   -3.2384,   -2.5033,   -2.2780,   -1.9775,   -1.9692,   -1.4958,   -1.1150,   -0.5797,    0.3019,    0.1175,   -0.0627,    0.2632,    0.1263,    0.1927,    0.5341,    1.2834,    1.1925,    0.9119,    1.4373,    2.1713,    1.5171,    1.8199,    1.2557,    0.9371,    1.2347,    0.4983,    0.7855,    3.5385,    2.0531,    1.9585,    1.4785,    1.5107,    0.0794,    0.9505,    1.4144,    3.0017,    3.2308,    3.0671,    4.7503,    5.2356,    7.2337,    8.8419,    8.8032,    8.4039,    7.1760,   10.5670,   10.6051,
24-SEP-2002 14:31:26.42 ,   -4.0558,   -4.0267,   -3.2309,   -2.4443,   -2.1991,   -2.3644,   -2.5192,   -2.6035,   -2.6163,   -3.0277,   -3.4952,   -3.6600,   -3.2680,   -3.9074,   -3.6817,   -3.3875,   -3.4000,   -3.6318,   -3.3133,   -2.7057,   -2.8200,   -2.6439,   -2.1176,   -1.6399,   -1.0571,   -0.2240,    0.9873,    0.9506,    0.4173,    0.6344,    0.4293,   -0.1369,    0.1556,    0.9403,    1.1474,    1.2874,    1.9755,    1.7621,    2.9322,    3.3018,    3.3609,    2.5711,    2.1553,    0.5712,    1.8229,    1.8648,    1.7470,    2.0452,    1.2673,    0.5950,   -0.2032,   -0.6260,    2.2737,    3.5430,    3.6755,    3.1113,    4.7900,    4.5911,    6.8488,    7.2957,    7.7194,    7.2481,    9.4060,   10.6125,    9.4051,
24-SEP-2002 14:34:09.22 ,  999.0000,  999.0000,   -4.1592,   -2.5433,   -1.9956,   -2.2472,   -2.4450,   -2.6086,   -2.6065,   -3.5006,   -3.8761,   -3.8602,   -3.5304,   -3.8894,   -3.7506,   -3.6229,   -3.5625,   -3.2753,   -2.9827,   -2.4327,   -2.5371,   -2.4626,   -2.4314,   -2.5616,   -2.0775,   -0.8604,    0.3738,    0.7876,    0.5550,    1.0528,    0.7988,    0.4616,    0.6248,    0.7398,    0.8758,    1.1777,    1.1727,    0.9926,    2.1079,    2.0061,    1.5482,    0.7901,    0.5019,    0.6764,    1.1725,    0.8128,    1.0618,    0.4241,    0.2418,    0.7670,    1.0414,    0.1516,    1.6853,    3.8681,    4.7458,    4.5196,    4.6334,    4.5391,    5.7590,    7.5279,    7.7392,    7.4212,   10.8222,   11.4313,    9.6274,
24-SEP-2002 14:36:51.20 ,  999.0000,  999.0000,   -5.2008,   -3.6962,   -3.3905,   -2.9934,   -3.0407,   -3.2683,   -3.3133,   -3.4843,   -4.0016,   -4.3439,   -3.8759,   -3.6738,   -3.8838,   -3.9080,   -3.9839,   -3.8081,   -3.2576,   -2.9587,   -2.9980,   -2.4953,   -2.7556,   -2.7902,   -2.3296,   -1.6130,    0.2168,    1.0046,    1.0808,    1.2888,    0.7389,   -0.3266,   -0.0988,    0.5826,    0.5909,    0.8655,    1.2320,    1.2408,    1.2746,    1.0125,    1.3375,    1.4089,    0.8469,    1.6103,    1.1698,    1.4005,    2.2729,    0.6237,    0.2783,    0.8983,    1.2674,    0.9007,    0.7435,    3.9874,    4.2318,    5.6027,    5.9042,    4.9805,    5.6990,    5.7298,    6.9237,    6.6656,    7.8514,    7.7230,    8.9084,
24-SEP-2002 14:39:32.68 ,  -13.1302,  -11.2348,   13.5409,   10.2389,    6.8487,    3.8917,    0.7884,   -1.5673,   -2.5981,   -2.6824,   -3.2661,   -4.3707,   -4.0297,   -3.9293,   -4.1799,   -3.9949,   -4.1204,   -4.1417,   -3.5805,   -3.7118,   -3.3783,   -2.5851,   -3.4901,   -2.8650,   -2.0861,   -0.9165,   -0.1044,    0.7570,    0.2718,   -0.7605,   -1.5652,   -3.6949,   -4.0070,   -4.1868,   -4.2969,   -3.5818,   -2.3916,   -2.1158,   -2.5428,   -2.6585,   -1.8590,   -2.5695,   -0.6430,    1.3579,  -13.2769,  -15.6089,  -14.4659,  -14.4387,  -14.1463,  -12.3399,  -10.9597,  -11.2116,   -8.2573,   -4.4167,   -1.0561,    2.4827,    4.9013,    4.8743,    4.3640,    4.4411,    5.1153,    5.3336,    7.2464,    8.9768,    8.3305,
24-SEP-2002 14:42:14.65 ,  -14.0590,  -11.7221,   18.7055,   14.0143,    9.5046,    5.5624,    1.8402,   -1.0927,   -2.7310,   -2.2037,   -2.4254,   -3.3213,   -3.1076,   -3.3822,   -3.5921,   -3.6639,   -4.1031,   -4.2521,   -3.8774,   -4.0177,   -3.4636,   -2.4801,   -3.0531,   -3.0817,   -1.9177,   -0.2690,   -0.1895,   -0.2041,   -2.2114,   -5.2397,   -7.3653,  -11.6629,  -12.7736,  -13.6544,  -14.3198,  -12.2436,  -10.2195,   -9.7583,   -9.3441,  -10.4002,   -8.6815,   -9.6441,   -3.7639,    1.0516,  -42.5631,  -51.7220,  -48.2473,  -46.1909,  -44.3440,  -40.0583,  -36.9653,  -33.5060,  -26.5363,  -18.6391,   -9.5694,   -0.7667,    3.6564,    5.1331,    5.8929,    5.7853,    4.5068,    4.1999,    4.9190,    7.6162,    6.7819,
24-SEP-2002 14:44:56.22 ,   -3.0065,   -3.4036,   -2.7321,   -2.4855,   -2.5045,   -2.7092,   -2.8909,   -2.6811,   -2.2498,   -1.2115,   -1.8130,   -2.2197,   -2.1541,   -2.3911,   -2.5028,   -2.5961,   -2.8145,   -3.1126,   -3.3923,   -3.5064,   -2.9995,   -2.3733,   -2.6785,   -2.3010,   -1.4801,   -0.2521,   -0.0059,   -0.4774,    0.1227,    0.4890,   -0.0152,   -0.9519,    0.0078,    0.4856,    0.9619,    1.0646,    2.4497,    1.9112,    2.0253,    2.0025,    1.9680,    0.5509,   -0.0904,    0.7518,    1.1464,    1.6424,    1.8794,    1.5546,    1.7679,    1.1009,    1.5809,    1.2883,    1.7024,    3.8513,    5.7921,    5.3076,    4.0191,    5.2040,    5.5359,    5.8054,    5.2434,    5.3643,    6.3751,    7.6028,    7.6673,
24-SEP-2002 14:47:38.47 ,   -4.4767,   -4.6593,   -3.5020,   -3.1869,   -3.4860,   -4.0431,   -4.2163,   -3.4879,   -2.0799,   -1.0208,   -1.9872,   -2.6987,   -2.6370,   -2.3172,   -2.3502,   -2.3418,   -2.6409,   -3.0266,   -3.2205,   -3.2592,   -2.8165,   -2.3541,   -1.9546,   -1.7193,   -0.8218,    0.6629,    1.3497,    1.1544,    0.9112,    0.3182,   -0.1146,   -1.0660,   -0.2814,    0.2255,    0.3754,    0.6229,    0.4456,    0.3766,    0.5015,    0.2386,    1.6821,    1.8210,    0.5689,    1.2463,    1.2448,    2.2571,    1.1337,    0.5996,    1.5245,    0.6576,    1.4681,    1.2263,    0.9406,    2.4977,    3.5671,    5.0031,    5.6335,    5.9942,    5.2224,    4.3684,    5.1662,    5.7617,    6.3131,    7.3776,    7.0845,
24-SEP-2002 14:50:20.69 ,   -5.5726,   -4.6750,   -4.0807,   -3.7806,   -3.9820,   -4.2061,   -4.1034,   -3.6910,   -2.5923,   -1.0449,   -0.8519,   -0.3964,    0.8889,    1.9378,    1.7637,    1.7479,    1.6094,    1.9808,    2.3578,    1.4386,    1.1956,    1.8593,    2.5545,    3.5543,   -0.2921,    0.4650,    1.0324,    1.0894,    0.9838,    0.4443,   -0.0021,   -0.5138,   -0.1627,    0.1331,   -0.3496,    0.0790,    0.2517,   -0.1967,   -0.3435,   -0.9487,   -0.1642,    0.3859,    0.0519,    0.2919,    0.9750,    1.1575,    0.4265,   -0.0441,   -0.2904,    0.0201,   -0.6122,   -0.3330,    0.4929,    1.3225,    2.0596,    2.3666,    3.7866,    5.8223,    4.8679,    4.6176,    4.2583,    4.4703,    5.0649,    6.7891,    9.1151,
24-SEP-2002 14:53:04.96 ,   -3.8597,   -3.3032,   -3.3510,   -3.4815,   -3.0430,   -2.8915,   -3.0886,   -3.1585,   -1.7499,   -0.9221,   -0.1561,    0.9166,    2.2418,    2.9146,    2.6910,    2.9591,    3.3571,    3.9541,    4.4593,    3.2623,    2.7173,    3.2578,   -1.0098,   -0.9190,   -0.9212,   -0.4945,    0.0016,    0.2455,    0.0441,   -0.4421,   -1.0626,   -0.8286,   -0.2156,   -0.6074,   -0.6797,    0.3695,    1.0108,    0.9217,    0.2351,    0.0957,    0.2072,   -0.2130,   -0.4401,    0.4198,    1.2409,    0.6365,   -3.1549,   -6.3251,   -7.0017,   -6.5520,   -6.5985,   -6.8938,   -7.1331,   -6.3536,   -4.8015,   -5.9695,   -4.4687,   -3.0691,   -3.6893,   -1.0816,   -0.8016,    1.4421,    5.5041,    6.9691,    8.0877,
24-SEP-2002 14:55:47.56 ,  999.0000,  999.0000,  999.0000,  999.0000,  999.0000,  999.0000,   -4.0130,   -4.0974,   -3.0973,   -3.3423,   -3.3975,   -4.8058,   -4.0712,   -2.8738,   -3.0626,   -3.2062,   -2.9439,   -2.8570,   -2.5788,   -2.0867,   -1.7406,   -1.2123,   -0.8361,   -0.9240,   -0.8830,   -0.5175,   -0.0746,    0.2455,    0.0315,   -0.9396,   -1.9106,   -1.1039,   -0.4712,   -1.7163,   -1.6727,   -0.4106,    1.0553,    1.9661,    0.8165,    0.7037,    1.0969,    0.3364,    0.0636,    0.8055,    1.8990,    0.7950,  -11.2143,  -20.5721,  -21.5832,  -22.5558,  -22.1337,  -22.3892,  -22.0705,  -20.2558,  -20.6323,  -20.9734,  -19.0288,  -19.5185,  -18.6612,  -11.8904,   -8.8695,   -5.2018,    5.2808,    6.1598,    6.8343,
24-SEP-2002 14:58:29.39 ,  999.0000,  999.0000,  999.0000,  999.0000,  999.0000,  999.0000,   -3.9984,   -3.9376,   -3.2280,   -3.1558,   -3.9208,   -5.1969,   -4.7707,   -3.1522,   -3.3795,   -3.5852,   -3.2994,   -3.1473,   -2.7545,   -2.1454,   -1.7634,   -1.1768,   -5.0104,   -7.3094,   -3.1322,   -0.4304,   -0.2922,   -0.0027,    0.0329,   -0.6025,   -1.1455,   -0.9108,   -0.4985,   -0.9904,   -0.7633,    0.2584,    0.1209,   -0.0816,    0.2136,    0.2393,    0.4206,    0.2649,   -0.0979,    0.9227,    1.9939,    2.0938,    0.8996,    2.0231,    1.0355,    0.9020,    2.0026,    1.1847,    2.3262,    2.0728,    2.6141,    2.6298,    4.7816,    4.8591,    5.0605,    3.2393,    2.6964,    4.7882,    6.5859,    7.8298,    7.9780,
24-SEP-2002 15:01:10.81 ,   -2.7076,   -3.3248,   -3.8882,   -3.6384,   -3.1251,   -2.9056,   -3.1152,   -2.9712,   -1.9253,   -2.4363,   -3.8696,   -4.1273,   -4.2521,   -3.8332,   -3.8410,   -3.7236,   -3.0300,   -2.7639,   -2.9123,   -2.3521,   -2.1334,   -1.6139,  -13.0810,  -21.3548,   -9.2968,   -0.4449,   -0.3558,   -0.1936,   -0.1252,   -0.7085,   -0.8997,   -0.5376,   -0.5119,   -1.0112,   -0.5437,    0.5185,    0.5846,    0.5607,    0.6926,    0.8553,    1.4916,    0.9494,    0.7293,    1.0450,    1.4201,    2.8285,    2.8596,    1.3880,    0.5485,    0.7620,    3.3169,    2.5274,    2.1341,    1.1929,    2.4988,    3.8129,    5.0437,    0.7235,   -0.6730,   -0.8718,    1.1872,    1.8056,    6.5043,   10.7876,    8.8373,
24-SEP-2002 15:03:52.37 ,   -2.7782,   -3.3454,   -3.4421,   -3.5105,   -3.4805,   -3.2297,   -3.3107,   -3.0285,   -2.5022,   -2.8571,   -3.8765,   -4.4060,   -3.9159,   -3.9120,   -3.9410,   -3.8596,   -3.2997,   -3.2287,   -3.3654,   -2.5550,   -2.5687,   -2.1516,   -2.9712,   -2.5018,   -2.0712,   -1.4406,   -1.4884,   -1.5872,   -1.3959,   -1.4121,   -1.2110,   -1.2132,   -2.1387,   -2.1328,   -0.9952,   -0.0766,   -0.2697,   -0.1115,    1.0798,    1.6396,    1.3932,    1.5580,    0.7308,    0.5309,   -1.2605,   -1.3478,   -1.6613,   -3.3424,   -4.9377,   -3.3894,   -2.6334,   -0.4631,   -0.8900,   -1.7377,   -0.4202,    1.4711,    3.8204,  -11.4750,  -13.2368,  -11.3220,   -6.2796,   -8.6502,    1.9379,   10.2677,    7.8505,
24-SEP-2002 15:06:46.03 ,   -4.1383,   -4.5265,   -3.6451,   -3.6456,   -3.4624,   -3.4173,   -3.4013,   -3.0461,   -2.4866,   -3.1335,   -4.1521,   -4.2492,   -3.7015,   -3.5269,   -3.4570,   -3.4489,   -3.3444,   -3.2365,   -3.0702,   -2.7949,   -2.7404,   -2.2975,   -1.9745,   -2.1964,   -1.9671,   -1.9298,   -1.6325,   -2.1124,   -2.5532,   -2.5001,   -2.2520,   -2.6997,   -2.1838,   -1.3256,   -0.2858,    0.9709,    2.1148,    3.0266,    3.5146,    4.0735,    3.1321,    2.2334,    1.1667,    0.2430,   -5.5809,   -7.3253,   -7.5597,  -13.4925,  -16.8027,  -14.8221,  -16.2646,  -12.9506,  -10.9683,   -8.8797,   -6.6616,   -2.1899,    3.2541,    5.9609,    5.7254,    4.6259,    4.5380,    5.6949,    6.9751,    8.2843,    8.5691,
24-SEP-2002 15:09:27.97 ,   -6.4496,   -6.7561,   -5.1921,   -5.0538,   -4.5616,   -4.2387,   -3.4748,   -2.5774,   -0.8881,   -1.2426,   -3.1025,   -3.5892,   -3.3800,   -3.0486,   -2.8898,   -3.0632,   -2.8321,   -2.3000,   -2.2985,   -2.6512,   -2.7280,   -2.3872,   -2.4506,   -2.5624,   -1.7204,   -1.2539,   -1.1070,   -1.1792,   -1.3982,   -1.1312,   -0.8659,   -0.3743,   -0.5064,   -0.9217,   -0.6446,   -0.4338,   -0.6006,   -0.5878,   -0.3753,   -0.3354,   -0.2330,    0.0249,    0.3767,    0.3385,    0.4126,    1.2442,    0.4703,    0.3348,    0.4863,    0.6356,    0.9707,    1.5726,    3.4958,    4.8195,    3.8181,    5.1124,    5.6817,    7.0490,    6.7221,    6.5214,    3.8370,    7.2800,    8.0945,    8.8287,    9.5282,
24-SEP-2002 15:12:11.94 ,   -6.4290,   -6.3594,   -5.6358,   -5.2271,   -5.2423,   -5.0457,   -3.7812,   -2.7946,   -0.9858,   -0.5002,   -2.6340,   -3.2871,   -3.6750,   -3.3605,   -3.0033,   -3.3942,   -3.3826,   -2.7508,   -2.5582,   -2.7987,   -2.8327,   -2.3196,   -2.3552,   -1.9919,   -1.4688,   -1.2483,   -1.0393,   -1.2247,   -1.8242,   -1.9432,   -1.8785,   -1.5946,   -1.8671,   -2.0420,   -2.1331,   -1.7517,   -1.3654,   -1.0918,   -0.8555,   -0.6365,   -0.2976,   -1.0323,   -0.3900,   -0.0103,   -0.0067,    0.6263,    0.0482,    1.4014,    0.2977,    1.4251,    1.5733,    1.9654,    2.8387,    3.7387,    4.5960,    5.2737,    6.6690,    7.7081,    7.1452,    5.5667,    3.6185,    7.3653,    7.4797,    7.3107,    8.7724,
24-SEP-2002 15:14:53.36 ,   -3.3727,   -3.5620,   -3.5628,   -3.2174,   -3.9164,   -4.3226,   -3.8958,   -3.4345,   -2.3539,   -1.9109,   -3.5827,   -4.9452,   -5.6133,   -5.3972,   -4.6804,   -5.0094,   -5.2313,   -4.6879,   -4.1940,   -3.8335,   -3.9172,   -3.8012,   -3.9824,   -2.5555,   -1.8627,   -2.0844,   -1.3811,   -1.6433,   -2.0437,   -2.1042,   -1.9811,   -2.2893,   -1.8921,   -1.0344,   -1.3244,   -0.6091,   -0.2073,    0.0271,   -0.2324,   -1.0286,   -0.8215,   -1.3872,   -0.7242,    0.2779,    0.7134,    1.2979,    1.3772,    0.2194,    0.2868,    0.5686,    1.6951,    2.0912,    2.7732,    4.6126,    3.6731,    4.5479,    6.2934,    3.4840,    2.2644,   -0.7388,   -2.6081,   -0.9035,   -0.1742,    0.4984,    2.9250,
24-SEP-2002 15:17:35.11 ,   -3.3758,   -3.8625,   -4.0117,   -3.6936,   -4.2789,   -4.2189,   -4.2471,   -4.2476,   -3.2055,   -2.7118,   -3.2459,   -4.9611,   -5.6091,   -5.5411,   -4.8189,   -4.5394,   -4.5745,   -4.5110,   -4.1142,   -3.9134,   -4.0410,   -3.6063,   -3.6077,   -3.2854,   -3.0523,   -2.8076,   -1.5839,   -0.5696,   -0.9428,   -1.2807,   -1.6670,   -2.1120,   -1.9664,   -1.8958,   -1.6928,   -1.4942,   -1.0088,   -1.1730,   -1.3089,   -1.2830,   -1.0106,   -1.2181,   -1.0871,   -1.1179,   -1.1163,   -0.9083,   -0.1305,    0.0021,    0.2374,    1.5576,    1.6165,    2.1154,    1.2484,    3.7032,    3.9061,    4.6468,    5.2555,    0.2641,   -4.1516,   -9.8489,  -13.5968,  -15.2887,  -13.3006,  -11.6809,  -10.6124,
24-SEP-2002 15:20:16.71 ,   -4.1934,   -3.9972,   -4.3484,   -3.8858,   -3.9139,   -3.5646,   -3.2561,   -2.6824,   -2.2720,   -1.5545,   -1.3693,   -2.6675,   -3.8986,   -4.2737,   -4.6093,   -4.1601,   -3.6590,   -3.8974,   -3.7524,   -3.4977,   -3.0001,   -2.0538,   -2.8089,   -2.5593,   -1.8257,   -1.4864,   -0.7717,   -0.6436,   -0.5627,   -0.1447,   -0.2655,   -0.6592,   -0.6751,   -0.8752,   -0.3355,   -0.2271,   -0.6050,   -0.7846,   -0.4587,   -0.0782,   -1.0170,   -2.1518,   -0.8752,   -0.5437,   -0.7676,   -0.6851,   -0.9826,    0.4340,    0.8682,    0.4209,    1.1177,    1.3053,    1.2713,    2.7819,    2.4805,    2.0904,    4.6087,    5.8087,    4.8238,    4.2272,    3.5971,    4.3118,    7.1013,    7.8053,    8.2435,
24-SEP-2002 15:22:58.06 ,    6.2874,   10.1032,    6.9225,  -18.4876,  -15.7003,  -12.6550,   -8.5456,   -4.7051,   -2.4584,   -0.7150,   -1.5254,   -2.1577,   -3.3051,   -4.2229,   -5.1526,   -5.1894,   -4.5274,   -4.1613,   -3.5325,   -3.1209,   -2.5411,   -2.3837,   -2.5138,   -2.0507,   -2.4195,   -2.5236,   -1.2713,   -0.8958,   -0.1187,    0.1700,   -0.0597,   -0.3738,   -1.1012,   -1.5789,   -0.8994,   -0.4814,   -0.2708,   -0.1459,   -0.1533,    0.2564,   -0.0582,   -1.1201,   -0.0545,    0.3474,    0.2877,    0.9721,    0.5767,    0.9245,    0.4380,   -0.0392,    2.1908,    2.0695,    0.9949,    2.5780,    2.3949,    2.5028,    4.7170,    7.1016,    6.0787,    2.4177,    1.4534,    3.1428,    6.6989,    7.5605,    8.4794,
24-SEP-2002 15:25:39.85 ,    8.4973,   12.4564,    8.7798,  -22.7429,  -19.9214,  -15.3335,  -11.1552,   -6.5314,   -3.6034,   -2.4661,   -3.9804,   -4.1475,   -3.7091,   -4.5273,   -4.8941,   -4.7013,   -4.3719,   -4.0184,   -3.3981,   -3.3676,   -3.2833,   -2.7823,   -2.5406,   -2.6945,   -2.1205,   -1.9765,   -1.7541,   -1.2787,   -0.7200,   -0.4745,   -0.1516,   -0.8718,   -1.1960,   -0.8887,   -0.4046,   -0.7058,   -0.4298,   -0.4473,   -0.1372,   -0.2858,   -0.1525,   -1.1571,   -0.0636,    0.6846,    0.9232,    1.2275,    0.5043,    0.6703,    1.3897,    0.8849,    1.8146,    2.3216,    1.5872,    1.9152,    3.2403,    3.3122,    6.1268,    6.2177,    4.9803,    4.4411,    1.8269,    4.2230,    5.8931,    8.5250,    8.0576,
24-SEP-2002 15:28:21.46 ,    5.4880,    8.4122,   12.1299,    6.7558,  -17.8032,  -13.2642,   -9.6223,   -4.0193,   -5.1814,   -3.5255,   -4.3959,   -4.1736,   -3.7881,   -4.0654,   -3.8835,   -3.5995,   -3.4871,   -3.1649,   -2.9725,   -2.7360,   -2.5094,   -1.9259,   -2.8599,   -2.1465,   -1.3041,   -1.1486,   -0.9658,   -0.6481,   -0.1728,    0.1432,    0.1214,   -0.5079,   -1.1637,   -0.8815,   -0.9095,   -1.3570,   -0.7109,   -0.3477,    0.0858,   -0.3208,   -0.4506,   -0.9350,   -0.8380,   -0.7460,   -0.8572,   -0.2715,   -0.5793,   -0.4070,    0.2518,    0.6761,    1.2014,    2.4389,    2.0229,    1.9409,    2.0393,    3.0637,    4.3454,    4.0648,    3.7988,    4.5389,    3.7609,    4.7372,    5.5359,    8.3159,    7.2946,
24-SEP-2002 15:31:04.96 ,    5.9717,    9.1313,   13.4585,    9.2501,  -19.5994,  -15.2879,  -10.5547,   -5.2361,   -6.3201,   -4.1708,   -4.5206,   -4.1927,   -4.0601,   -4.0958,   -3.7498,   -3.3338,   -3.2724,   -3.2853,   -3.2388,   -2.6947,   -2.6433,   -2.6640,   -3.5506,   -3.4585,   -3.2005,   -2.6814,   -2.3920,   -2.2385,   -2.3071,   -1.9750,   -1.0755,   -0.9626,   -3.0868,   -3.2675,   -2.3487,   -1.2021,   -1.9266,   -1.2835,   -0.5709,   -0.8532,   -1.2304,   -0.4533,   -1.2158,   -1.2895,   -1.1489,   -1.4269,   -0.6141,   -0.4024,    0.3162,    1.4477,    1.5041,    2.5313,    1.3935,    3.3188,    3.2043,    3.4317,    4.4700,    4.8783,    4.9156,    6.6483,    6.3157,    5.3933,    6.2351,    8.6166,    8.3637,
24-SEP-2002 15:33:47.08 ,   -4.1063,   -4.3537,   -4.7379,   -4.0378,   -3.7993,   -3.7411,   -3.7419,   -3.6337,   -3.2598,   -3.2505,   -4.2049,   -5.0997,   -4.7199,   -4.4534,   -4.1336,   -3.3275,   -3.1051,   -3.6442,   -4.3328,   -3.9179,   -3.6396,   -3.6875,   -3.8830,   -3.5880,   -3.6725,   -4.0932,   -4.1056,   -4.1242,   -3.5716,   -2.5221,   -1.7258,   -2.1120,   -3.1555,   -3.0988,   -1.8799,   -0.5074,   -1.4667,   -1.4258,   -1.6202,   -1.9651,   -1.7366,   -0.0615,    0.1143,    0.3164,    0.9258,    2.1278,    0.4338,    2.0812,    2.6166,    3.5995,    2.5791,    3.1829,    2.5906,    5.5305,    3.5576,    4.5402,    5.9451,    6.9078,    7.9555,    8.5878,    7.4797,    4.1408,    7.6321,    8.0414,    8.7269,
24-SEP-2002 15:36:28.24 ,   -2.3777,   -1.8421,   -2.3530,   -3.2724,   -3.6841,   -3.4424,   -3.4469,   -3.3799,   -3.0561,   -2.4737,   -3.8694,   -5.0072,   -4.0888,   -3.6118,   -3.7071,   -2.8376,   -2.6421,   -3.2435,   -3.7737,   -3.2168,   -2.9476,   -2.8920,   -2.6785,   -2.6615,   -2.0958,   -2.6988,   -3.2498,   -2.8871,   -2.0140,   -1.5994,   -0.9367,   -1.0951,   -2.9129,   -2.2411,   -1.3851,    0.0146,    0.5554,    0.8783,    0.3214,    0.0011,    0.2820,    1.1354,    2.0044,    2.4239,    3.4144,    1.6606,    1.2124,    1.7457,    2.6694,    2.9565,    3.4472,    3.0335,    3.0752,    3.7701,    3.1024,    7.8727,    8.5050,    8.3974,    8.2645,    8.7364,    8.4140,    7.2005,    5.8541,    7.3718,    8.4425,
24-SEP-2002 15:39:10.31 ,   -0.2854,   -0.1458,   -0.7055,   -2.5624,   -2.9729,   -2.3758,   -2.4197,   -2.2130,   -1.8134,   -2.7444,   -3.8827,   -3.8239,   -3.0741,   -2.8299,   -2.9850,   -2.1782,   -2.1097,   -2.9201,   -3.1340,   -3.0020,   -3.2672,   -3.1866,   -2.3565,   -2.5104,   -2.3249,   -2.3924,   -3.1988,   -3.1136,   -2.6985,   -2.0051,   -1.4111,   -1.7281,   -2.2566,   -1.8431,   -0.7161,    0.0701,    0.6440,    0.3304,    0.4198,    1.3606,    1.8026,    1.9756,    2.2343,    2.4547,    3.2268,    0.3354,    0.1541,    2.3805,    2.7727,    3.1950,    2.6574,    2.4458,    2.0533,    2.5837,    5.6933,    6.4667,    4.6346,    6.2386,    6.8868,    7.2262,    7.7005,    4.8753,    6.2426,    7.5508,    7.4567,
24-SEP-2002 15:41:58.06 ,   -0.3066,   -1.3113,   -1.6805,   -2.5675,   -2.5199,   -2.6984,   -2.6824,   -2.4711,   -1.5959,   -2.3346,   -3.1055,   -3.2125,   -3.0586,   -2.8438,   -2.5609,   -2.0735,   -1.8491,   -2.1614,   -2.6670,   -3.5085,   -3.7630,   -3.4693,   -3.1680,   -3.5585,   -3.6274,   -3.3733,   -3.5232,   -3.5838,   -3.4602,   -2.4808,   -1.4317,   -1.5794,   -1.9336,   -1.1896,   -0.6290,    0.1313,    0.1017,    0.2688,    0.8900,    1.0687,    0.5227,    0.5823,    0.9521,    1.6870,    1.8488,    0.2722,   -0.2628,    0.1597,    3.1794,    3.7041,    1.0568,    1.1960,    1.1938,    1.8874,    4.0002,    3.9220,    3.9627,    6.9176,    6.8081,    6.8881,    5.5043,    5.7057,    6.9938,    7.3169,    7.1533,
24-SEP-2002 15:44:40.52 ,   -3.6291,   -4.6246,   -5.2031,   -5.2259,   -5.0390,   -5.2913,   -4.9351,   -4.7834,   -4.2043,   -3.7692,   -4.0617,   -4.6798,   -4.8418,   -4.5777,   -3.8031,   -3.0838,   -2.7458,   -2.6152,   -2.9676,   -3.7233,   -3.8696,   -3.4825,   -3.0890,   -3.0849,   -3.2050,   -3.4900,   -3.4931,   -3.2467,   -2.6216,   -2.5292,   -1.2866,   -0.1548,   -0.8913,   -1.6673,   -1.6254,   -0.9908,   -1.1218,   -1.4301,   -1.0872,   -1.3910,   -1.0195,   -0.3431,    0.3550,    1.4828,    2.2186,    0.7443,    0.1807,    1.0284,    1.5276,    1.8005,    2.1903,    2.2922,    1.8134,    2.1348,    4.4432,    4.2816,    5.8013,    6.4569,    6.7277,    5.8641,    6.3204,    6.0658,    5.6193,    6.7035,    6.7989,
24-SEP-2002 15:47:22.43 ,   -6.0308,   -5.7510,   -6.1215,   -5.8749,   -5.5597,   -5.1955,   -4.7604,   -4.3137,   -4.3183,   -4.0030,   -4.0718,   -4.4051,   -4.3594,   -4.5319,   -4.3892,   -4.0201,   -3.9246,   -3.7832,   -3.6329,   -3.8785,   -4.2654,   -4.3039,   -3.9385,   -3.9209,   -3.7055,   -3.7759,   -3.5810,   -3.1145,   -2.6617,   -2.0127,   -1.6079,   -1.2564,   -2.0268,   -2.1264,   -1.7278,   -0.3962,    0.0479,   -0.2222,   -0.3340,   -0.4809,   -0.6877,    0.0524,    0.3948,    1.8445,    1.3865,    0.2249,    0.2317,    2.1035,    2.9819,    3.0557,    4.4574,    4.5128,    2.9323,    4.7622,    4.6183,    5.2950,    6.5518,    6.6983,    7.5963,    8.1230,    8.6973,    7.2927,    6.5791,    5.8835,    5.6243,
24-SEP-2002 15:50:07.83 ,    4.7784,   -0.0979,   -3.6336,   -4.8790,   -4.6821,   -4.1965,   -3.9437,   -3.7169,   -3.9324,   -3.2366,   -3.9849,   -3.5795,   -3.1815,   -3.4188,   -3.5778,   -3.5190,   -3.3278,   -3.0653,   -2.8165,   -3.2817,   -3.6093,   -3.6667,   -3.4585,   -3.8098,   -3.5880,   -4.0584,   -4.4246,   -4.2461,   -4.3036,   -3.9755,   -2.5850,   -2.4943,   -2.3257,   -2.1861,   -1.4359,   -0.5504,   -0.2389,   -0.0503,   -0.4800,   -1.1009,   -0.5722,    0.2067,    0.7349,    0.3050,   -0.0451,    0.4851,    0.4962,    0.5998,    1.8369,    1.9710,    2.2304,    3.2847,    2.6439,    2.7956,    3.5781,    4.3788,    6.6443,    6.3391,    8.8688,    7.8334,    6.8896,    6.3577,    5.7691,    6.0528,    6.6211,
24-SEP-2002 15:52:49.30 ,   10.2414,    2.8319,   -1.7675,   -3.9105,   -3.7370,   -3.1167,   -3.3436,   -3.6528,   -3.5033,   -3.3159,   -4.6753,   -4.6090,   -4.5734,   -4.4215,   -4.1974,   -3.9579,   -3.5082,   -3.1164,   -3.2337,   -3.7564,   -3.9187,   -4.0711,   -4.1325,   -4.1267,   -4.2066,   -4.6529,   -4.0489,   -3.1320,   -2.8525,   -2.9755,   -2.3259,   -1.6315,   -1.8735,   -1.8151,   -1.2243,   -0.5880,   -0.2278,   -0.2008,   -0.7349,   -1.0769,   -0.1587,   -0.5701,    0.1013,   -0.5271,   -0.6827,   -0.2784,   -0.2618,    0.7666,    3.0806,    2.5151,    1.5389,    0.7718,    1.8900,    2.9231,    4.3000,    5.5121,    5.4875,    5.6531,    7.2478,    7.8147,    6.4714,    5.8985,    5.5760,    6.0513,    7.4522,
24-SEP-2002 15:55:55.34 ,   -3.3751,   -3.3974,   -3.1461,   -3.3400,   -3.5805,   -3.0930,   -3.9727,   -3.6970,   -2.5758,   -4.1066,   -5.0196,   -5.1621,   -4.7055,   -4.7637,   -4.7255,   -4.5140,   -4.1337,   -4.1578,   -4.4462,   -4.3074,   -4.6391,   -5.0462,   -4.9516,   -5.0885,   -5.3031,   -5.9570,   -5.4797,   -4.7667,   -4.2886,   -3.6326,   -3.2011,   -2.7790,   -2.1933,   -1.6957,   -1.1103,   -1.1393,   -0.6950,   -0.0289,   -0.1445,   -0.5116,   -0.6618,   -0.3717,   -0.6502,   -1.1628,   -1.3151,   -0.3523,    0.0001,    0.0755,    0.8804,    1.5561,    1.7684,    0.3724,   -0.0268,    1.6329,    3.8537,    4.2966,    5.2824,    6.0324,    7.8136,    8.4734,    7.4243,    6.8628,    5.7624,    6.9960,    6.5336,
24-SEP-2002 15:58:36.63 ,   -3.7043,   -3.8472,   -4.1625,   -4.2029,   -4.7270,   -4.8528,   -5.1766,   -4.7901,   -3.7693,   -4.3428,   -4.4770,   -4.0492,   -3.2469,   -3.3267,   -3.5562,   -3.6119,   -3.4288,   -3.4696,   -3.6343,   -3.6579,   -3.9736,   -4.5710,   -4.1856,   -4.2758,   -4.7397,   -5.0810,   -4.8262,   -4.5299,   -4.2732,   -4.2007,   -3.4973,   -3.6050,   -3.4624,   -3.5462,   -3.1299,   -2.6194,   -1.3660,   -0.7844,   -0.9757,   -1.7018,   -2.5944,   -1.4186,   -1.4266,   -0.9648,   -0.8243,   -0.2239,   -0.1218,   -0.0598,   -0.1696,    1.2003,    3.1570,    1.4552,   -0.2273,    3.1104,    4.9277,    4.0630,    6.1712,    6.7947,    8.8969,   10.2094,    9.0246,    6.6932,    6.1823,    6.5762,    6.5146,
24-SEP-2002 16:01:18.01 ,   -4.3574,   -4.5418,   -5.0109,   -4.7946,   -4.8090,   -5.0347,   -4.8069,   -4.5566,   -4.0964,   -4.0251,   -3.8307,   -3.4372,   -3.1123,   -3.3516,   -3.7332,   -3.4069,   -2.9055,   -2.8849,   -2.5963,   -2.8098,   -3.3192,   -4.1354,   -4.4630,   -4.0610,   -5.0989,   -4.9147,   -4.3079,   -3.9242,   -3.8412,   -3.4563,   -2.8667,   -3.1220,   -3.5273,   -2.9159,   -2.3124,   -2.6245,   -1.8475,   -1.7063,   -1.2751,   -0.9521,   -1.4990,   -1.2215,   -1.4244,   -1.8008,   -1.5520,   -0.3765,   -0.0639,    0.7360,    1.1960,    2.3524,    2.3563,    1.6252,    0.2479,    2.9010,    3.9172,    4.3212,    5.8264,    7.5526,    8.8650,   10.5499,   10.1933,    8.5914,    8.8439,    9.5594,    8.5965,
24-SEP-2002 16:03:59.57 ,   -3.5286,   -3.3485,   -3.7716,   -3.9526,   -3.8306,   -3.8491,   -3.6423,   -3.3884,   -3.0518,   -4.0736,   -4.1148,   -4.0178,   -4.3532,   -4.7134,   -4.9971,   -4.2826,   -3.4238,   -3.6629,   -3.5793,   -3.3199,   -3.3987,   -4.0443,   -3.4306,   -4.7140,   -5.1289,   -4.8568,   -4.3931,   -4.1823,   -4.1284,   -4.0587,   -3.2361,   -2.9423,   -2.8349,   -1.2485,   -0.3466,   -0.5141,   -0.1187,    0.2118,   -0.7852,   -1.0647,   -0.8341,   -0.9166,   -1.1621,   -1.5755,   -0.7514,   -0.3004,   -0.1369,    0.9844,    1.5909,    1.6799,    1.5045,    2.3818,    1.4691,    1.5378,    5.2140,    5.1986,    5.4628,    6.1359,    8.3683,    8.6115,    8.1747,    7.7913,    8.4053,    8.4415,    7.7601,
24-SEP-2002 16:06:41.37 ,   -3.3781,   -3.4525,   -3.5969,   -3.5598,   -3.0626,   -2.8391,   -2.3355,   -1.4979,   -1.1925,   -2.4879,   -3.3441,   -3.3876,   -3.9269,   -4.1700,   -4.4642,   -4.3187,   -3.5081,   -2.9622,   -3.1236,   -3.1189,   -3.0817,   -3.4164,   -3.7854,   -4.1744,   -4.3921,   -3.7544,   -3.2298,   -3.3260,   -3.4729,   -2.6348,   -1.2778,   -1.3940,   -1.5686,   -1.1563,   -1.0511,   -1.3212,   -0.8326,   -0.3734,   -0.1749,   -0.2714,    0.1533,   -0.3869,   -0.7832,   -1.0414,   -0.6669,   -0.0548,    0.3741,    0.1254,    0.6591,    0.8390,    1.0784,    0.6255,    0.2736,    1.0445,    3.9066,    4.8128,    5.5120,    6.1232,    7.5252,    7.6863,    6.3160,    5.4040,    6.3733,    7.3179,    6.9889,
24-SEP-2002 16:09:34.11 ,   -4.6742,   -4.6285,   -4.5440,   -4.2580,   -3.2560,   -2.4828,   -2.2680,   -1.3449,   -1.0630,   -2.0031,   -3.1486,   -3.6752,   -4.1659,   -4.3403,   -4.4304,   -4.3138,   -3.8644,   -3.3814,   -3.2014,   -3.1909,   -3.4741,   -3.9409,   -4.0563,   -3.5829,   -3.8224,   -3.0411,   -2.5144,   -2.5074,   -2.5265,   -2.4330,   -1.9962,   -1.8983,   -1.6354,   -1.5746,   -0.9051,   -1.3887,   -1.5324,   -1.2604,   -0.4830,   -0.5929,   -0.7346,   -0.3261,   -0.5249,   -0.4681,   -0.8108,    0.2166,   -0.2909,   -0.4022,   -0.3717,   -0.5434,    0.1998,   -0.0780,    0.1298,    1.0994,    3.4265,    4.3903,    5.3803,    6.7101,    8.7709,    7.1190,    5.1929,    4.6311,    6.0499,    7.7859,    7.2523,
24-SEP-2002 16:12:16.01 ,   -4.8769,   -4.5246,   -4.6865,   -4.4865,   -3.6714,   -2.8564,   -3.2377,   -2.7982,   -3.2567,   -3.5693,   -3.7621,   -4.1979,   -4.5336,   -5.0213,   -5.1212,   -5.1167,   -5.0456,   -4.8837,   -4.4735,   -4.2931,   -4.1498,   -4.5145,   -4.3383,   -4.9889,   -5.3562,   -4.6955,   -4.1039,   -3.9848,   -3.3706,   -3.1236,   -3.0944,   -3.3924,   -2.7653,   -2.3475,   -1.8587,   -1.9147,   -1.9504,   -0.9835,   -0.6331,   -1.1200,   -2.1077,   -1.6807,   -0.9156,   -0.8857,   -1.3951,   -0.6109,   -0.6364,   -1.4555,   -0.5665,   -0.3654,    0.2420,   -0.0802,   -0.0556,    0.7391,    3.6126,    4.5915,    4.4914,    5.6699,    7.4702,    8.8385,    9.4937,    7.6147,    8.0000,    9.0738,    8.0594,
24-SEP-2002 16:14:59.60 ,   -4.0803,   -3.5119,   -3.7736,   -3.3505,   -2.9890,   -2.2757,   -2.3430,   -2.0890,   -3.0144,   -4.3607,   -4.5913,   -5.0543,   -5.4856,   -5.8224,   -5.7025,   -5.5476,   -5.1072,   -4.6882,   -4.4592,   -4.4849,   -4.7390,   -5.1745,   -5.6032,   -5.2810,   -5.3678,   -4.7605,   -4.2182,   -4.3496,   -4.3748,   -4.5976,   -4.2338,   -3.8907,   -2.9047,   -1.9713,   -1.7802,   -1.1402,   -1.1240,   -0.9001,   -0.6038,   -0.9948,   -0.8032,   -1.7412,   -1.8570,   -1.8561,   -1.1908,   -0.7294,   -0.2421,   -1.4763,   -0.5101,   -0.1160,    0.5837,    0.5623,   -0.2090,    0.8036,    2.1030,    2.2613,    2.0930,    3.6219,    6.1787,    6.4232,    7.7746,    6.4590,    6.6793,    8.0288,    7.0832,
24-SEP-2002 16:17:41.57 ,   -3.9036,   -3.8600,   -3.9618,   -3.5780,   -3.3336,   -2.7195,   -2.2724,   -2.0263,   -2.4325,   -4.0273,   -4.3841,   -4.5027,   -4.6508,   -4.7152,   -4.9505,   -5.0369,   -4.4335,   -3.9298,   -4.0513,   -4.3970,   -4.7401,   -4.8864,   -6.7298,   -4.9874,   -7.0755,  -10.2764,   -2.5879,    1.5594,   -2.4928,   -4.2907,   -4.2724,   -4.2059,   -2.5709,   -1.3761,   -0.5563,   -0.2222,   -0.0670,   -0.1805,   -1.0340,   -1.4740,   -0.5763,   -0.8828,   -1.7696,   -1.5840,   -1.5957,   -1.0706,   -0.1790,   -0.6024,   -1.1147,   -1.0728,   -0.8980,   -0.9740,   -0.0106,   17.5706,    2.1610,    4.1489,    3.4812,    4.2460,    5.3931,    5.8326,    5.5849,    4.8702,    5.8454,    6.5213,    5.7254,
24-SEP-2002 16:20:23.01 ,   -1.7383,   -0.9575,   -0.2971,    0.3541,   -0.2900,   -0.8293,   -1.4227,   -2.0682,   -2.6971,   -3.2468,   -3.5960,   -3.7005,   -3.5733,   -3.9100,   -4.4333,   -4.8434,   -4.6513,   -4.3354,   -4.2771,   -4.6056,   -4.6357,   -4.3311,   -6.4734,   -4.4341,  -10.8169,  -22.3215,   -0.2274,   12.3473,    0.4076,   -4.3579,   -4.3056,   -4.0980,   -3.3305,   -2.4641,   -3.8817,   -3.6485,   -4.0028,   -3.2053,   -6.2826,   -6.4498,   -5.6924,   -5.4667,   -7.5880,   -5.6116,   -4.2333,   -4.3779,   -3.7573,   -3.9868,   -3.0293,   -2.1630,   -4.3299,   -4.6938,   -0.2210,   51.5169,   -0.2927,    4.9143,   18.0354,   15.7017,    0.0410,   -0.1006,   -0.3918,    0.4552,    1.1182,    0.9689,    0.9498,
24-SEP-2002 16:23:04.39 ,   -1.3795,    0.0862,    0.8899,    1.3970,    0.7972,    0.5270,   -1.0440,   -1.7334,   -1.9121,   -3.0003,   -3.3749,   -3.9225,   -3.8798,   -4.1751,   -4.4030,   -4.4793,   -4.5907,   -4.6206,   -4.4392,   -4.3125,   -4.2213,   -4.0593,   -4.1730,   -4.2775,   -4.4929,   -3.6714,   -3.6912,   -3.7676,   -4.2674,   -4.7173,   -4.2976,   -3.7100,   -3.9747,   -4.5980,  -10.6247,  -10.3543,  -11.4413,   -8.2048,  -16.0659,  -15.5333,  -15.4353,  -13.9385,  -16.6003,  -13.5189,  -10.0830,  -11.4965,   -9.8632,   -8.8910,   -8.6727,   -5.9551,   -6.0220,   -4.3019,    0.7188,    3.8702,   -0.0296,   -2.0322,   53.8561,   48.3830,    0.6498,    1.1082,    0.5634,    3.3748,    4.7994,    3.4585,    5.4646,
24-SEP-2002 16:25:46.39 ,   -4.6779,   -4.2732,   -4.2033,   -4.2524,   -3.7565,   -3.4687,   -4.2411,   -4.0968,   -3.2079,   -3.5953,   -4.1268,   -4.7089,   -4.5503,   -4.8385,   -5.2942,   -5.1929,   -5.1788,   -4.9718,   -4.2439,   -4.0421,   -4.2515,   -4.1731,   -3.2612,   -3.6708,   -3.9252,   -4.4769,   -4.8887,   -4.8205,   -4.4695,   -4.4673,   -4.5813,   -4.0060,   -3.1038,   -1.6223,   -0.8560,   -0.4748,   -0.2007,   -1.0318,   -1.2877,    0.0308,   -0.1453,    0.0266,    0.1688,    0.3847,   -0.1509,   -0.7793,   -0.2235,   -0.1796,   -0.3582,   -0.2515,    0.8242,    0.3362,    0.1235,    1.9034,    2.6870,    2.8507,    5.1665,    6.4298,    5.7674,    7.5539,    6.5659,    7.2857,    6.7317,    6.7218,    7.4273,
24-SEP-2002 16:28:28.05 ,   -4.7539,   -4.9803,   -5.0613,   -4.5777,   -4.2148,   -3.5939,   -3.5988,   -3.2509,   -3.1673,   -3.0135,   -3.7158,   -4.1195,   -4.0526,   -4.5650,   -5.2619,   -5.3705,   -5.4822,   -5.2557,   -4.3553,   -3.9624,   -4.4500,   -4.4576,   -4.6368,   -4.5486,   -4.8727,   -4.6611,   -3.7657,   -3.6424,   -3.8853,   -3.8678,   -4.0515,   -3.7481,   -2.9005,   -1.4880,   -0.2788,    0.0292,    0.0686,   -0.3753,   -0.4511,   -0.3134,   -0.2065,   -0.1929,    0.0414,    1.1699,    0.3920,   -0.9404,   -0.1102,   -0.2734,   -0.2877,   -0.2277,    0.6746,    0.2932,    0.0907,    1.5215,    2.7152,    1.6029,    3.4285,    4.3903,    4.4600,    5.3950,    5.5271,    5.6614,    5.6677,    7.1760,    7.1239,
24-SEP-2002 16:31:09.65 ,   -4.2425,   -4.3187,   -4.3460,   -4.0292,   -3.6063,   -2.2714,   -2.4297,   -2.0074,   -1.7868,   -1.9169,   -2.9246,   -3.6083,   -3.7069,   -4.3032,   -4.6273,   -4.9841,   -5.2055,   -5.1599,   -4.8263,   -4.6178,   -4.7693,   -4.8651,   -4.6658,   -4.3722,   -4.4431,   -4.0853,   -3.7101,   -3.5930,   -3.2194,   -2.6439,   -2.2129,   -1.4895,   -1.3851,   -0.7146,   -0.3363,   -0.3619,   -0.4268,   -0.4761,   -0.2567,   -0.0464,   -0.0121,    0.4039,   -0.0173,   -0.1615,   -0.0597,    0.4750,    0.0951,    0.1520,   -0.3704,   -0.2548,    1.1975,    0.8259,    0.1716,    0.4126,    1.6080,   -0.0223,    0.7710,    2.6678,    4.0124,    6.0188,    5.5377,    5.8974,    5.8482,    6.0721,    6.4593,
24-SEP-2002 16:34:02.30 ,   -4.6303,   -4.4105,   -4.3169,   -3.9451,   -3.2333,   -2.7678,   -2.5354,   -2.7306,   -2.6511,   -2.4774,   -3.4950,   -4.1092,   -4.6117,   -5.0679,   -5.0324,   -5.4027,   -5.1456,   -4.6665,   -4.6111,   -4.6901,   -4.5431,   -4.4683,   -4.7698,   -4.2529,   -3.3260,   -2.2587,   -1.9591,   -2.7587,   -2.4834,   -2.2909,   -1.7549,   -1.4761,   -2.4490,   -1.6746,   -0.8792,   -1.0697,   -1.0378,   -1.1642,   -1.7322,   -0.9159,   -0.3328,    0.0766,   -0.0675,   -0.5412,   -0.4354,   -0.1184,    0.2253,   -0.3236,   -0.9164,   -0.4000,    0.0517,    1.0501,    0.6477,    1.2816,    0.8409,    0.2192,    1.2194,    5.1529,    6.4069,    6.7979,    5.9897,    5.6971,    4.6606,    5.3808,    5.3015,
24-SEP-2002 16:36:44.07 ,   -4.7539,   -4.7481,   -4.7631,   -4.2384,   -3.7256,   -2.8100,   -2.8463,   -2.5390,   -2.4069,   -3.0101,   -3.4145,   -4.1622,   -4.7478,   -5.1458,   -5.1489,   -5.1683,   -4.7784,   -4.3524,   -4.3641,   -4.3949,   -4.3033,   -4.3609,   -6.5440,   -8.2990,   -5.6680,   -3.5493,   -2.9559,   -2.5303,   -2.4849,   -2.4517,   -2.6638,   -3.2293,   -2.2226,   -1.2126,   -0.7779,   -0.4440,   -0.1947,   -0.4300,   -0.4132,   -0.5754,   -0.6672,   -0.5821,   -0.2272,    0.0881,   -0.3476,   -0.0949,    0.1355,   -0.7190,   -0.6232,   -0.1857,    0.3137,    2.1741,    1.4732,    2.3600,    1.3432,    0.8126,    2.7766,    5.3102,    6.5708,    7.1439,    5.7078,    4.2424,    1.9936,    4.8578,    5.2253,
24-SEP-2002 16:39:25.41 ,   -4.3808,   -3.8442,   -3.5811,   -3.2656,   -3.2105,   -2.2493,   -2.6960,   -2.3637,   -1.3505,   -2.7439,   -3.0698,   -3.7283,   -4.0702,   -4.4620,   -4.6433,   -4.5237,   -4.2168,   -4.0141,   -4.3234,   -4.4636,   -4.5411,   -4.8600,  -10.9432,  -15.5036,   -7.9550,   -3.2596,   -2.4141,   -1.2296,   -1.1087,   -2.0007,   -2.0829,   -2.3123,   -2.4697,   -2.0089,   -1.8201,   -1.1080,   -0.7232,   -0.6529,   -0.9454,   -0.5435,   -0.8523,   -0.7553,    0.1808,    0.4604,   -0.0585,   -0.0797,   -0.3969,    0.1035,    0.1906,    0.5292,    0.1027,    0.7903,    0.9106,    1.5992,    2.0472,    1.7752,    1.7147,    4.0745,    5.2397,    5.7936,    5.5861,    5.5570,    4.5731,    4.4386,    5.1275,
24-SEP-2002 16:42:07.92 ,   -4.2190,   -3.8589,   -2.9496,   -2.5664,   -2.9879,   -2.9629,   -3.2952,   -3.4151,   -2.7334,   -3.5558,   -4.2084,   -4.5663,   -4.5004,   -4.6592,   -5.1039,   -5.1687,   -4.9269,   -4.8754,   -5.0667,   -5.0203,   -4.7307,   -4.8281,   -5.8185,   -5.5719,   -4.8719,   -4.6314,   -3.1311,   -1.9634,   -2.0734,   -2.3337,   -2.5527,   -2.3337,   -1.9908,   -1.5719,   -0.9056,   -0.8944,   -1.4418,   -1.2299,   -1.4664,   -1.4119,   -0.4831,   -0.0015,   -0.1937,   -0.5184,   -0.6899,   -0.0167,   -0.6649,   -1.4602,   -0.1762,    0.4975,    1.9574,    0.3356,    0.6125,    1.1828,    1.4151,    1.6150,    1.9595,    3.7178,    4.1222,    4.5427,    6.1481,    6.5244,    5.2046,    5.8182,    5.9181,
24-SEP-2002 16:44:49.57 ,   -3.9680,   -3.4046,   -2.9581,   -3.1034,   -3.2275,   -3.4992,   -4.1541,   -4.4651,   -3.7542,   -3.8665,   -4.7298,   -5.0570,   -5.0139,   -5.2349,   -5.3983,   -5.3382,   -5.2276,   -5.4128,   -5.4643,   -5.4326,   -5.3359,   -5.1876,   -5.1243,   -4.8559,   -4.6794,   -4.8798,   -4.7538,   -4.6237,   -3.6708,   -3.3829,   -3.3539,   -2.9664,   -2.9480,   -3.4005,   -2.3213,   -1.5760,   -1.4713,   -1.0931,   -1.0827,   -1.1014,   -0.2438,    0.3436,   -0.5019,   -0.3409,   -0.3249,   -0.0499,   -0.2335,   -0.0492,    0.5140,    0.9250,    0.1560,    0.2202,    0.6823,    2.8693,    1.9522,    1.8269,    3.7471,    5.7830,    6.5238,    5.1482,    5.3636,    5.1306,    5.6823,    6.4306,    6.0547,
24-SEP-2002 16:47:31.34 ,   -3.7036,   -2.9371,   -3.2187,   -3.3300,   -2.7445,   -2.7866,   -3.2981,   -3.5765,   -3.3003,   -3.6862,   -4.0321,   -3.9699,   -4.3146,   -4.5659,   -4.7666,   -5.0222,   -5.0456,   -5.0834,   -5.3696,   -5.6035,   -5.9174,   -5.9036,   -6.2037,   -5.8938,   -4.9192,   -4.3659,   -4.5112,   -4.5502,   -3.8816,   -3.8080,   -3.3941,   -2.9737,   -3.5249,   -3.2583,   -2.9846,   -1.8169,   -1.0758,   -1.2200,   -1.5478,   -1.0836,   -0.6182,   -0.1082,   -1.0138,   -0.6035,   -0.3500,   -0.4893,   -0.8888,    0.0099,    0.3979,    0.2580,    0.2652,    1.0566,    1.4381,    4.9112,    2.4238,    0.7405,    2.8650,    4.1469,    4.5097,    3.8818,    2.6782,    1.2452,    3.5528,    4.7746,    5.4819,
24-SEP-2002 16:50:24.34 ,  -13.1060,  -11.7133,   12.3506,    9.3352,    7.0147,    4.9964,    1.6819,   -1.8759,   -2.1934,   -3.8737,   -3.8658,   -3.5258,   -3.5886,   -3.6178,   -3.9782,   -4.2005,   -3.9744,   -3.5844,   -3.8481,   -4.2952,   -5.1336,   -5.3736,   -5.9150,   -5.9702,   -5.5888,   -5.1464,   -4.9359,   -5.0217,   -4.2583,   -3.5714,   -3.4879,   -4.1088,   -4.5609,   -4.1177,   -4.5517,   -2.7714,   -0.9394,   -0.7642,   -1.9060,   -1.6430,   -0.8882,   -0.3245,   -2.6132,   -2.3171,   -2.3489,   -5.4191,   -7.7862,   -8.9681,  -10.0069,  -10.7591,  -10.3800,   -9.8448,  -10.4306,   -6.8973,    2.5774,  -16.4890,  -17.5848,  -16.7122,   -2.4584,   -2.4422,   -1.9413,   -3.0000,   -1.6451,   -2.2553,   -3.2205,
24-SEP-2002 16:53:05.99 ,  -16.1841,  -14.4025,   17.4341,   12.8758,    9.4085,    6.5746,    2.3384,   -2.6347,   -2.1923,   -4.4508,   -4.3827,   -4.0131,   -3.8633,   -3.9774,   -4.1270,   -3.5517,   -3.4183,   -3.5396,   -3.6259,   -4.0236,   -5.1465,   -5.5205,   -5.8349,   -5.8001,   -7.4478,  -10.3462,   -3.8403,   -0.7189,   -3.1844,   -4.3010,   -4.8326,   -4.8292,   -4.4689,   -4.1596,   -3.4641,   -3.3237,   -2.1972,   -2.5613,   -3.0246,   -2.7119,   -0.9697,   -0.3939,   -0.3782,   -1.5108,   -6.8686,  -16.6455,  -22.8700,  -29.7579,  -34.2893,  -30.3361,  -32.6254,  -36.8350,  -44.4938,  -44.6971,    3.4443,  -54.9286,  -52.6172,  -44.2096,    1.8151,    0.5909,    2.4213,    2.7620,    5.4687,    3.6371,    2.6166,
24-SEP-2002 16:56:12.74 ,   -4.0382,   -3.8373,   -4.0501,   -4.4169,   -4.6781,   -4.5018,   -4.7411,   -4.6525,   -3.9551,   -4.8733,   -5.0799,   -5.0414,   -4.6540,   -5.1544,   -5.3599,   -4.5093,   -4.9578,   -5.4231,   -5.5049,   -5.9943,   -6.5232,   -6.6858,   -7.0332,   -7.1448,  -13.2660,  -24.4269,   -2.3257,   10.4443,   -0.5492,   -4.2612,   -4.5017,   -4.4814,   -4.4980,   -4.4332,   -4.4425,   -4.1027,   -3.2937,   -3.1590,   -2.6914,   -2.3923,   -1.3434,   -0.0598,    0.3139,   -2.0198,   -4.3204,   -7.6207,  -11.7396,  -12.2591,  -13.3765,   -3.4121,    0.6117,   -0.5533,   -3.7403,   -6.7653,  -15.8316,  -21.8868,  -16.4143,    0.6318,    5.5290,    3.8838,    8.3141,   11.2728,   16.9984,   18.3598,   19.1225,
24-SEP-2002 16:58:54.89 ,   -3.1205,   -2.9786,   -3.4227,   -3.5778,   -3.7259,   -3.4868,   -3.5053,   -3.1965,   -2.6438,   -3.5972,   -4.3573,   -5.0542,   -4.5109,   -4.8548,   -4.9211,   -4.5175,   -4.8210,   -4.7876,   -5.1597,   -5.9848,   -6.4644,   -6.7537,   -6.6029,   -6.3676,   -6.5652,   -6.6689,   -6.0645,   -5.5565,   -5.5665,   -5.0872,   -5.0512,   -4.6320,   -4.2666,   -4.1130,   -4.0386,   -3.6963,   -2.6206,   -2.4731,   -2.3498,   -1.5751,   -0.2003,    0.2898,    0.0426,    0.1349,   -0.4364,   -0.1652,   -0.1732,   -0.1476,    0.1216,    1.1293,    0.2359,    0.0933,    0.1468,    1.0538,    2.3476,    2.0046,    3.2906,    5.3125,    6.0817,    5.8558,    5.8046,    4.8441,    3.7909,    4.5320,    4.9791,
24-SEP-2002 17:01:36.78 ,   -3.3835,   -3.0128,   -3.6032,   -3.7315,   -3.3705,   -3.1778,   -2.9359,   -2.6420,   -2.3553,   -2.5750,   -3.2822,   -4.1770,   -4.3700,   -4.0580,   -3.4750,   -3.8752,   -4.0265,   -4.1736,   -4.7416,   -5.6901,   -6.3171,   -6.9609,   -6.0614,   -5.2629,   -5.4075,   -5.6774,   -5.5287,   -5.3949,   -5.8279,   -5.3040,   -4.4808,   -3.8030,   -3.6392,   -3.7506,   -3.9192,   -3.6032,   -2.2315,   -1.9649,   -2.0996,   -1.1277,   -0.5020,   -0.0555,   -0.3276,   -0.6430,   -1.9264,   -0.4433,   -0.5373,   -0.7452,    0.5119,    1.8728,    1.0408,    0.6382,   -0.4418,    0.5460,    1.0358,    0.9368,    2.9362,    4.4816,    6.4015,    5.0021,    8.0260,    6.5526,    4.8866,    5.1280,    6.0223,
24-SEP-2002 17:04:19.32 ,   -4.5332,   -4.1385,   -4.3854,   -4.7419,   -4.2565,   -3.5781,   -3.1718,   -3.0147,   -3.0085,   -3.2182,   -3.6010,   -4.2285,   -4.7810,   -4.7746,   -4.1696,   -4.5420,   -4.7502,   -5.1183,   -5.1667,   -5.8237,   -6.4071,   -7.0422,   -7.4556,   -5.8192,   -5.9958,   -5.8894,   -5.5923,   -5.4809,   -5.4991,   -4.7923,   -4.3282,   -4.6837,   -4.5499,   -4.6045,   -5.0489,   -4.4791,   -3.8034,   -2.9162,   -2.7282,   -2.0350,   -1.1967,   -0.2464,   -0.1924,   -0.1906,   -0.2972,   -0.2268,   -0.1404,   -1.0706,   -0.6812,    1.1262,    1.9462,    1.2708,   -0.1812,    0.8324,    0.8090,    1.0204,    1.6270,    4.6650,    4.9387,    4.4140,    5.5267,    5.3503,    5.8190,    5.9060,    5.6294,
24-SEP-2002 17:08:19.09 ,   -3.8689,   -3.7345,   -3.6731,   -3.9506,   -3.5846,   -3.4121,   -3.5327,   -3.3142,   -2.7783,   -3.0751,   -3.5905,   -4.2372,   -4.8517,   -5.4318,   -5.3656,   -5.0695,   -5.3296,   -6.0933,   -6.2711,   -6.5516,   -6.8994,   -6.9972,   -7.6129,   -7.6085,   -7.4190,   -7.4389,   -6.8357,   -6.0758,   -4.9286,   -4.3502,   -4.3956,   -4.4162,   -4.3453,   -4.5883,   -4.4536,   -4.3602,   -4.0197,   -1.7523,   -2.3162,   -2.7626,   -1.1673,   -0.3094,   -0.2755,   -0.5887,   -0.9558,   -0.5765,   -0.0257,   -2.1397,   -0.9748,   -0.1751,    0.1117,    0.5788,    0.2205,    1.9304,    5.3042,    5.8840,    7.4954,    9.1442,    6.8039,    7.3422,    6.7625,    4.3411,    3.6006,    4.4155,    3.8860,
24-SEP-2002 17:11:00.63 ,   -4.1805,   -3.8567,   -4.0613,   -3.8179,   -2.7521,   -3.4324,   -3.4726,   -3.0087,   -2.1709,   -2.1649,   -2.8357,   -3.6712,   -4.0980,   -4.4164,   -4.6017,   -4.2476,   -4.7982,   -5.7284,   -6.0001,   -6.4975,   -7.0522,   -6.9445,   -6.8031,   -6.7580,   -6.9971,   -7.4839,   -7.1718,   -6.2272,   -5.1901,   -4.7688,   -4.8502,   -5.2567,   -4.6465,   -4.6912,   -4.8258,   -4.9248,   -3.5418,   -2.6518,   -3.7544,   -3.9819,   -2.5236,   -1.2632,   -1.1695,   -0.2129,   -0.3784,    1.4346,    3.6242,    2.4036,    6.0628,    7.3942,    8.5570,   10.9421,   10.5341,   16.2046,   26.2754,   26.8079,   27.4832,   26.7253,   17.2468,   16.6745,   14.9060,    9.7643,    6.4439,    5.3376,    4.8794,
24-SEP-2002 17:13:42.03 ,   -4.3396,   -4.2381,   -4.4498,   -4.3532,   -3.5932,   -2.9574,   -2.2968,   -1.6856,   -1.3562,   -2.3332,   -3.1544,   -3.3621,   -3.8372,   -4.0005,   -4.1643,   -3.9105,   -4.7230,   -5.9226,   -6.1982,   -6.9314,   -7.7183,   -7.3444,   -6.6244,   -5.9819,   -6.4357,   -7.5978,   -7.6382,   -6.6618,   -4.6738,   -3.8811,   -4.3794,   -4.4498,   -3.3840,   -3.3247,   -3.8550,   -4.2651,   -4.7099,   -4.3994,   -6.4235,   -7.2914,   -5.1446,   -3.3567,   -3.3733,    0.5454,    3.3582,    7.5291,   12.1542,   16.3003,   21.6788,   23.2408,   26.9698,   28.8339,   30.2010,   33.0990,   31.0928,   31.1095,   31.3203,   31.0219,   25.3678,   21.3607,   17.2578,    7.4730,    6.4214,    4.7345,    4.6620,
24-SEP-2002 17:16:23.33 ,   -4.9555,   -4.3654,   -4.2633,   -4.3325,   -3.9938,   -3.2293,   -2.9455,   -2.5986,   -2.4421,   -2.4375,   -2.9555,   -3.5679,   -3.7820,   -3.8899,   -3.7505,   -3.7452,   -4.0642,   -4.4502,   -5.0436,   -6.0868,   -7.2941,   -7.7306,   -6.1639,   -5.9532,   -7.0959,   -7.4803,   -6.7979,   -6.6867,   -5.2087,   -3.8688,   -3.8559,   -3.8634,   -3.8999,   -3.8190,   -3.3337,   -3.0573,   -3.6182,   -2.7270,   -3.1411,   -3.2913,   -2.7255,   -1.5560,   -0.8537,   -0.4629,   -1.5502,   -0.6671,   -0.1012,   -1.5140,   -0.1924,    0.3616,    0.7505,    1.4036,    1.0015,    1.6109,    1.0574,    1.4096,    2.7043,    3.4864,    4.3080,    4.2422,    6.8446,    4.6340,    4.0942,    3.7425,    4.0533,
24-SEP-2002 17:19:11.07 ,   -4.1685,   -4.3263,   -4.4892,   -4.0884,   -3.4174,   -2.9277,   -2.1873,   -2.1376,   -2.6662,   -2.5532,   -2.8407,   -3.5754,   -3.7014,   -3.8942,   -3.7700,   -3.7561,   -3.8708,   -3.9813,   -4.4483,   -4.8044,   -5.7769,   -6.3886,   -6.0441,   -5.4003,   -5.9867,   -6.9715,   -7.0477,   -6.5577,   -4.6616,   -3.6918,   -3.9167,   -4.1967,   -3.7366,   -3.8396,   -3.3946,   -3.0573,   -2.0612,   -1.6854,   -2.3574,   -2.6418,   -1.4027,   -0.3484,    0.0204,   -0.7466,   -0.2490,    0.1016,   -0.0577,   -1.2732,   -0.2162,    0.1972,    1.1555,    2.2511,    0.9260,    0.6440,    1.7231,    2.0564,    2.4200,    3.8815,    4.9050,    5.7568,    6.5904,    5.1960,    4.0464,    4.0743,    3.6698,
24-SEP-2002 17:21:52.42 ,  -13.1967,  -11.3160,   13.4413,   11.0474,    8.2265,    5.6810,    2.9786,   -0.3141,   -3.1903,   -3.1429,   -3.4346,   -3.4563,   -3.6622,   -3.9633,   -3.9863,   -4.0978,   -4.2242,   -4.1263,   -4.3756,   -4.4135,   -4.7623,   -5.0486,   -4.7772,   -4.6935,   -5.9488,   -6.4626,   -6.1308,   -4.5255,   -3.6095,   -3.1054,   -3.0932,   -3.3396,   -3.6785,   -3.1714,   -2.7592,   -2.4254,   -0.5676,   -1.8037,   -3.3889,   -4.7680,   -5.5532,   -6.4524,    7.5471,    9.1534,    9.8086,   10.0652,    9.9758,   10.7346,   12.8621,   14.1280,   17.0866,   -0.3384,    0.0671,    0.0943,   17.3602,   -0.1641,    0.8011,    1.1113,    1.6936,    2.2160,    3.8748,    3.1002,   17.0983,    4.2454,    2.2674,
24-SEP-2002 17:24:39.62 ,  -15.8565,  -13.1495,   16.3059,   13.0318,    9.6454,    7.2574,    3.4808,   -0.9004,   -3.8771,   -3.6324,   -3.4908,   -3.1258,   -3.2822,   -3.6912,   -3.7032,   -3.7351,   -4.0233,   -4.4786,   -4.8416,   -4.5478,   -4.4862,   -6.0619,   -6.6540,   -4.6658,   -6.2714,   -7.5530,   -6.2835,   -4.0908,   -3.6318,   -3.1700,   -2.9770,   -2.8072,   -3.4868,   -2.4203,   -2.2277,   -1.6908,    0.4280,   -1.0093,   -6.0635,  -11.7361,  -17.6482,  -21.2807,   22.7322,   31.2456,   31.2599,   32.0011,   31.1728,   33.9053,   42.3176,   45.8515,   52.8658,   -2.8864,   -3.7575,   -1.6728,   51.5266,   -4.0443,   -3.6069,   -6.9044,   -7.6519,   -7.9479,   -4.3152,   -1.6241,   42.1051,    1.8915,   -3.8424,
24-SEP-2002 17:27:20.90 ,   -4.8467,   -4.7412,   -4.8449,   -4.6014,   -4.4228,   -3.1436,   -3.0206,   -2.9588,   -3.0445,   -3.1682,   -3.2949,   -2.8845,   -3.1143,   -3.5192,   -3.6530,   -3.6217,   -3.7809,   -4.6775,   -5.6904,   -5.7406,   -5.1988,   -6.2752,   -5.1881,   -5.8419,   -6.5689,   -6.9578,   -5.9596,   -4.5715,   -4.3062,   -3.4133,   -2.4194,   -2.6670,   -2.9356,   -3.1501,   -3.5865,   -3.6844,   -2.5647,   -2.1049,   -2.4140,   -2.1287,   -1.9745,   -1.7782,   -1.1922,   -1.0756,   -0.6620,   -0.1266,   -0.0202,   -0.7914,   -0.5514,    1.1650,    0.9352,    1.3824,    0.5687,    2.7366,    1.1077,    0.9410,    1.7958,    2.9282,    4.0157,    3.7705,    4.4999,    4.6550,    5.3464,    6.6289,    6.6580,
24-SEP-2002 17:30:03.02 ,   -4.3980,   -4.2992,   -4.5662,   -3.3343,   -3.6707,   -3.4197,   -3.2149,   -2.6416,   -2.7374,   -2.6966,   -2.8397,   -2.8945,   -3.5110,   -3.7203,   -3.6763,   -3.7908,   -3.8954,   -4.3587,   -5.4634,   -6.2402,   -6.1198,   -6.6339,   -6.1526,   -6.8318,   -7.5252,   -7.6921,   -6.1219,   -4.9882,   -4.9072,   -4.1893,   -2.7121,   -2.5736,   -2.8869,   -3.1551,   -3.2008,   -2.6645,   -2.0730,   -1.7338,   -1.9491,   -1.4451,   -1.2908,   -1.7409,   -1.6107,   -1.7433,   -1.4090,   -0.4392,    0.2763,   -0.0995,   -0.2822,    0.4493,   -0.0721,    1.2059,    1.2752,    1.7112,    0.5318,    0.6841,    1.6495,    3.7468,    4.5326,    5.3591,    5.6196,    7.3627,    5.1255,    5.3012,    5.4259,
24-SEP-2002 17:32:44.57 ,   -4.4283,   -4.6423,   -4.5786,   -3.4362,   -3.0863,   -2.4431,   -2.3715,   -2.0985,   -1.7371,   -1.7568,   -1.8949,   -2.5638,   -3.2907,   -3.7168,   -3.5816,   -3.6652,   -3.8916,   -4.1476,   -4.8604,   -5.5256,   -5.7141,   -6.7476,   -5.3092,   -5.5873,   -7.2720,   -7.6265,   -6.6836,   -5.9842,   -5.3033,   -4.3551,   -3.1154,   -3.4493,   -3.8672,   -2.9145,   -2.3370,   -2.3413,   -5.5152,   -8.1834,   -8.5031,   -7.2986,   -6.0449,   -5.6076,   -4.2302,   -2.2281,    0.0113,   -0.7655,   14.6924,   15.4138,   14.8273,   12.6673,   12.2947,   11.9607,   10.9214,   10.2676,    9.9060,    9.9075,   11.5938,    9.2811,   -2.4631,   -2.4670,   -3.0352,   -2.5962,   -1.5863,   -0.0419,   -0.1499,
24-SEP-2002 17:35:29.56 ,   -5.6212,   -5.5389,   -5.0781,   -4.7145,   -4.2444,   -2.6955,   -2.8186,   -2.1060,   -1.8021,   -1.4182,   -1.8770,   -3.0042,   -3.5479,   -3.8106,   -3.7975,   -3.8314,   -4.1536,   -4.4425,   -4.8474,   -5.7517,   -6.2010,   -7.0148,   -8.3876,   -9.0902,   -7.6443,   -7.7262,   -7.9535,   -6.9082,   -6.3670,   -5.0003,   -4.5441,   -4.8062,   -3.8350,   -3.2586,   -2.8261,   -2.3257,  -13.2134,  -22.8969,  -24.1985,  -20.9706,  -17.9398,  -14.7522,   -8.4227,   -3.6705,    2.3139,   -1.6680,   45.9510,   47.2908,   45.5737,   38.4156,   36.7789,   35.2021,   33.4186,   31.3126,   29.0042,   28.7109,   33.5448,   25.4150,  -12.3776,  -11.5874,  -12.9377,  -15.4924,  -12.4713,   -5.0470,   -5.0467,
24-SEP-2002 17:38:12.19 ,   -5.1280,   -5.2986,   -5.2440,   -4.7449,   -4.5548,   -3.2178,   -3.4799,   -2.3291,   -1.9870,   -1.7162,   -2.0080,   -3.3481,   -3.8538,   -3.9230,   -3.9145,   -4.1029,   -4.4239,   -4.6370,   -4.9615,   -5.9902,   -6.8870,   -8.0035,   -9.3910,   -4.2054,   -5.2449,   -5.1891,   -5.0664,   -5.7004,   -6.0267,   -5.1017,   -4.7339,   -5.1287,   -4.1905,   -3.7314,   -3.4182,   -2.1010,   -1.8202,   -1.6498,   -1.7808,   -2.4682,   -3.2045,   -3.0672,   -2.9291,   -1.9383,   -1.0615,   -0.2672,   -0.4402,   -0.3595,    0.6933,    1.1464,    0.4482,    3.2130,    0.8841,    0.8075,    0.0953,    1.3846,    7.1838,   11.0400,   15.3323,   19.7741,   22.1855,   21.8004,   23.1834,   24.8754,   24.8740,
24-SEP-2002 17:41:20.94 ,   -4.7784,   -5.5580,   -5.7178,   -5.2738,   -4.9384,   -4.9895,   -4.3671,   -1.9639,   -2.3592,   -2.9960,   -2.8499,   -2.9517,   -3.2068,   -3.7623,   -3.8449,   -4.0345,   -4.4682,   -4.9208,   -5.0315,   -5.2793,   -6.3996,   -7.4773,   -5.9784,   -5.4386,   -6.6764,   -7.4557,   -7.5238,   -7.7471,   -6.4909,   -4.6105,   -3.9868,   -4.1842,   -3.6252,   -3.3064,   -2.3968,   -2.5150,   -2.1808,   -1.9619,   -1.4901,   -1.6665,   -2.0891,   -2.0987,   -1.7574,   -0.5803,   -2.1826,   -3.4463,   -4.7150,   -7.7262,   -8.8756,   -9.7168,  -12.5466,  -11.7187,  -12.5645,  -14.6351,  -15.0762,    1.2393,  -14.0034,  -12.3775,  -13.8594,  -11.3141,    5.1710,    6.0239,    2.8914,   -9.8607,    3.2029,
24-SEP-2002 17:44:02.26 ,   -5.8704,   -6.0232,   -6.1947,   -5.6278,   -4.7016,   -4.7840,   -4.6791,   -2.1754,   -2.3477,   -2.5259,   -2.0743,   -2.0304,   -2.3525,   -2.8995,   -3.0473,   -3.3558,   -4.0611,   -4.8050,   -5.0146,   -5.3352,   -6.2649,   -6.9955,   -5.2935,   -4.5333,   -5.3767,   -7.4682,   -8.1559,   -7.5932,   -5.6643,   -4.4684,   -3.9781,   -3.7840,   -4.1640,   -3.8138,   -2.6168,   -1.8303,   -1.3092,   -1.5239,   -1.2008,   -0.5165,   -0.3801,   -0.5166,   -1.5457,   -1.2141,   -5.3222,  -10.4620,  -15.2814,  -21.6334,  -28.0827,  -31.2073,  -40.1959,  -42.5275,  -40.4319,  -46.6821,  -46.5712,    1.6843,  -47.0311,  -44.1458,  -46.4976,  -41.8122,    8.6631,   11.1037,    1.1052,  -37.4992,    5.2647,
24-SEP-2002 17:46:46.22 ,   -5.6069,   -5.6841,   -5.1810,   -4.1792,   -3.0573,   -3.0944,   -3.7044,   -3.0701,   -2.9491,   -2.6141,   -1.8732,   -1.8885,   -2.2962,   -2.5753,   -2.7829,   -3.3366,   -4.2476,   -4.8900,   -4.9991,   -5.2138,   -6.1690,   -7.6598,   -4.5743,   -5.0896,   -6.6697,   -7.6261,   -7.0272,   -6.7516,   -6.7624,   -5.8324,   -5.2136,   -4.7647,   -4.6839,   -3.8769,   -2.3676,   -1.2519,   -1.0132,   -1.0639,   -0.8731,   -1.2707,   -1.4233,   -2.2922,   -2.1691,   -1.2481,   -0.6233,   -0.8628,   -1.0253,   -0.7854,   -0.5353,    0.2682,    0.2917,   -0.2615,   -0.2321,   -0.0783,    0.4913,    1.9886,    2.7857,    3.0576,    4.9230,    6.4330,    6.3649,    7.0703,    6.3049,    5.6447,    4.9694,
24-SEP-2002 17:49:28.40 ,   -3.9057,   -4.3866,   -3.9343,   -3.6946,   -3.4904,   -3.6988,   -4.3165,   -4.8380,   -4.7446,   -3.5694,   -2.8146,   -2.8803,   -2.6770,   -2.7837,   -3.1222,   -3.6055,   -4.4982,   -5.0164,   -4.9811,   -5.2215,   -6.2255,   -7.5574,   -5.1705,   -5.7886,   -7.2647,   -7.3204,   -6.8636,   -7.0063,   -7.7472,   -6.3377,   -5.4520,   -5.4349,   -4.6372,   -3.4406,   -2.6981,   -1.7911,   -1.4018,   -1.4165,   -1.5308,   -2.1446,   -2.6611,   -2.8022,   -2.1673,   -1.2014,   -0.5044,   -0.6246,   -0.6651,    0.0410,    0.0406,    0.5278,    0.6907,   -0.1015,    0.1823,   -0.1213,    0.1241,   -0.3648,    1.5757,    2.9482,    4.8880,    5.3394,    6.9585,    7.5035,    6.7455,    6.3133,    5.2838,
24-SEP-2002 17:52:10.60 ,   -3.2727,   -4.0689,   -4.2386,   -4.0597,   -5.3053,   -5.3758,   -5.2340,   -5.4800,   -4.6430,   -3.7904,   -3.2610,   -3.2967,   -3.0196,   -2.6845,   -3.1775,   -3.8468,   -4.8433,   -5.3469,   -5.2458,   -5.5789,   -6.5200,   -7.4741,   -6.7077,   -7.9260,   -8.0432,   -8.9495,   -8.9815,   -8.4909,   -8.1809,   -6.3979,   -5.2495,   -5.5947,   -5.2439,   -4.7824,   -3.8604,   -3.3864,   -2.2215,   -2.3588,   -2.2222,   -2.2796,   -2.6993,   -2.8812,   -2.7453,   -1.1026,   -0.8170,   -0.3689,   -1.0849,    0.2083,    0.1871,   -0.0850,    0.9206,    1.5010,    1.4474,    0.7974,    0.7355,    0.6551,    2.3972,    3.4377,    4.9862,    4.9076,    6.7632,    7.3910,    5.5510,    5.7424,    6.0129,
24-SEP-2002 17:54:51.80 ,   -5.1562,   -4.9565,   -4.7129,   -3.5824,   -5.4841,   -4.9960,   -3.8697,   -5.3456,   -4.5343,   -4.1780,   -3.5092,   -3.1073,   -3.1779,   -2.9637,   -3.2548,   -4.0489,   -5.0500,   -5.6665,   -5.3282,   -5.5175,   -6.3624,   -7.2496,   -5.6099,   -7.6098,   -7.8764,   -8.4920,   -8.1726,   -7.6130,   -6.8121,   -5.7278,   -5.1135,   -4.7696,   -4.2401,   -3.8295,   -3.6013,   -4.1424,   -3.2702,   -2.3517,   -1.6710,   -1.8875,   -3.3122,   -4.0831,   -3.8002,   -1.8234,   -1.6364,   -0.9979,   -1.0614,   -1.7436,   -1.1987,   -0.6471,   -0.2564,    1.5211,    0.1946,    0.5932,    0.4968,    1.0389,    1.5135,    2.8700,    3.7558,    3.7470,    6.8440,    7.5162,    6.6914,    6.0048,    4.6635,
24-SEP-2002 17:57:33.55 ,   -5.6154,   -5.5188,   -5.4082,   -5.0374,   -5.8076,   -4.9414,   -3.9466,   -4.4935,   -3.9873,   -3.7885,   -3.7897,   -3.0625,   -3.0569,   -3.3106,   -3.2697,   -3.7583,   -4.4937,   -5.0896,   -4.6522,   -4.6290,   -5.5767,   -6.6733,   -7.4682,   -7.6941,   -8.1569,   -7.9808,   -7.5476,   -7.4463,   -6.8526,   -5.8650,   -5.6332,   -5.3712,   -4.6428,   -3.8696,   -1.7165,    0.3461,    2.3505,    4.3021,    7.4574,    7.1567,    6.3610,    6.3938,    4.5204,    3.1510,    2.3826,    1.2427,    1.5986,   -0.2139,   -0.0574,    0.0618,    0.8049,   -0.1476,    0.2208,    0.2834,    0.0059,    1.2724,    1.4884,    3.4790,    6.1215,    4.5535,    6.8249,    7.1681,    6.7707,    4.7842,    4.2251,
24-SEP-2002 18:00:14.68 ,   -4.5744,   -4.9442,   -5.0093,   -5.0989,   -5.6880,   -5.0661,   -4.3638,   -3.8306,   -2.6929,   -2.6682,   -3.2371,   -2.4287,   -2.2709,   -2.3928,   -2.5231,   -3.2449,   -4.0495,   -4.4402,   -4.4862,   -4.7298,   -5.5305,   -6.6454,   -5.7895,   -6.3027,   -6.8163,   -7.3471,   -7.6457,   -7.4955,   -6.5941,   -6.2466,   -5.9150,   -5.3015,   -3.8528,   -2.8566,    2.8471,    8.5923,   14.0213,   18.3769,   23.6513,   24.5614,   25.1492,   26.5521,   21.2927,   10.4573,    8.7077,    6.4022,    5.0248,   -0.3560,    0.1532,    0.1251,    0.4247,    0.8360,    0.9557,    0.0001,    0.2801,    0.8433,    1.3012,    2.5205,    4.1369,    5.5347,    5.8255,    6.2719,    7.1112,    5.9337,    4.8473,
24-SEP-2002 18:02:55.87 ,   -4.4715,   -4.7076,   -4.7671,   -4.6898,   -4.8505,   -4.9247,   -4.9203,   -4.2767,   -3.0851,   -2.7692,   -2.5247,   -2.1443,   -2.0911,   -2.0869,   -2.5732,   -3.4856,   -3.9596,   -4.1773,   -4.5311,   -5.0943,   -6.1711,   -7.2783,   -5.7150,   -6.2109,   -7.0875,   -7.8598,   -7.5350,   -6.9511,   -6.5336,   -6.4355,   -6.4973,   -5.6061,   -3.9616,   -3.1519,   -2.6154,   -1.8565,   -1.7589,   -2.3044,   -2.4348,   -2.0517,   -1.6712,   -1.2078,   -1.3163,   -0.4967,   -0.1352,   -0.1731,    0.1611,   -0.6276,    0.8350,    0.9153,    1.7609,   -0.4912,   -5.6717,   -6.4481,   -6.8104,   -6.4366,   -4.9582,   -4.4845,   -6.1160,   -3.4401,   -3.4019,   -4.4324,   -6.2338,   -8.0295,   -9.7217,
24-SEP-2002 18:05:37.36 ,   -4.7410,   -5.1319,   -5.6659,   -6.2443,   -6.0513,   -5.2193,   -5.3355,   -5.1860,   -4.6406,   -4.1771,   -3.4545,   -2.1372,   -2.3330,   -2.4872,   -2.8178,   -3.1503,   -3.4672,   -3.9494,   -4.0569,   -4.3980,   -5.9738,   -7.1733,   -5.4613,   -6.6081,   -7.3733,   -7.6891,   -7.3325,   -6.4907,   -5.9798,   -5.9640,   -5.8374,   -4.4421,   -3.5552,   -3.2894,   -2.8660,   -1.9635,   -1.5899,   -2.4851,   -2.1478,   -2.5032,   -2.3148,   -1.8618,   -1.2138,   -0.5385,   -0.3900,   -0.5041,    0.6051,    0.0140,    0.5686,    0.9285,    0.9526,   -9.2504,  -11.4502,  -20.7251,  -20.9047,  -21.3803,  -17.9706,  -18.8915,  -26.6082,  -24.0070,  -22.9251,  -23.1731,  -29.2081,  -32.8918,  -36.6083,
24-SEP-2002 18:08:18.75 ,   -4.0582,   -5.2005,   -5.3469,   -5.3031,   -5.9376,   -5.1454,   -5.7199,   -6.2786,   -5.6954,   -5.8071,   -5.1184,   -3.3973,   -3.3683,   -3.3187,   -3.0869,   -2.7929,   -3.2934,   -3.6926,   -3.5132,   -3.9735,   -5.0786,   -6.2283,   -4.5610,   -5.9238,   -6.6744,   -7.2517,   -7.1102,   -5.9767,   -5.3428,   -5.6753,   -5.0007,   -3.9634,   -3.3278,   -3.4335,   -3.1976,   -2.4208,   -1.5150,   -2.3357,   -1.6129,   -1.8915,   -1.9447,   -2.0195,   -1.3037,   -0.5531,   -0.7582,   -0.5817,    0.4455,    0.6655,    1.2664,    0.8457,    0.7563,    0.3498,    2.5067,    0.9466,    1.3840,    1.4799,    1.9763,    1.7492,    4.6908,    5.4526,    5.9199,    6.0902,    5.8143,    4.8052,    4.2315,
24-SEP-2002 18:10:59.95 ,   -4.3739,   -5.2146,   -4.7423,   -4.1138,   -4.4706,   -5.0705,   -5.3151,   -5.6989,   -5.2702,   -5.6779,   -4.7513,   -4.6122,   -4.2138,   -4.0559,   -3.6561,   -3.7032,   -4.3731,   -4.5728,   -4.3253,   -4.8609,   -5.3153,   -5.9736,   -5.0027,   -5.6734,   -6.4739,   -7.7826,   -7.8386,   -6.7291,   -5.6632,   -6.1281,   -5.7696,   -4.3258,   -3.9086,   -3.3416,   -1.9960,   -0.8009,   -1.5146,   -1.2716,   -1.0215,   -0.7719,   -0.4859,   -0.8597,   -1.0014,   -1.4301,   -0.8250,   -0.7167,   -0.2369,    0.5809,    2.0760,    2.1473,    1.3069,    1.1924,    1.0471,    1.6185,    1.7702,    0.8898,    1.8078,    3.6349,    5.6224,    6.8881,    7.5997,    7.2861,    6.3151,    4.2053,    4.9586,
24-SEP-2002 18:13:41.44 ,   -5.0081,   -4.9145,   -4.3773,   -3.7883,   -4.5709,   -4.9769,   -4.4599,   -4.3157,   -4.7943,   -4.3708,   -4.2312,   -4.7795,   -4.3575,   -4.4687,   -4.4244,   -4.6394,   -5.2452,   -5.2487,   -5.3340,   -5.8381,   -5.9919,   -6.2991,   -6.4275,   -6.4745,   -6.6339,   -7.2463,   -7.3980,   -6.8838,   -5.9659,   -6.0959,   -5.4019,   -3.8054,   -3.2692,   -2.4157,   -2.1477,   -1.8237,   -1.7019,   -1.2694,   -1.1563,   -0.6473,   -0.5991,   -1.2878,   -1.7292,   -1.4716,   -0.9435,   -0.5529,   -0.1687,    0.5292,    1.1238,    0.2773,   -0.1547,    1.8781,    1.7580,    1.6187,    1.5490,    1.3380,    1.8288,    1.1025,    4.0391,    6.1954,    6.8514,    8.1910,    7.9900,    7.1192,    5.0879,
24-SEP-2002 18:16:22.80 ,   -4.6040,   -4.5374,   -4.7183,   -3.6186,   -4.0641,   -4.2464,   -3.8992,   -3.6519,   -4.3059,   -3.5591,   -3.6591,   -3.5374,   -3.8095,   -4.4603,   -4.5546,   -4.5223,   -5.2630,   -5.3504,   -5.0911,   -5.4404,   -6.0483,   -6.7185,   -5.3026,   -5.7807,   -6.8815,   -7.7076,   -7.4197,   -6.5265,   -6.2863,   -6.7282,   -5.8847,   -4.7218,   -3.6145,   -2.6993,   -2.2122,   -0.8881,   -1.7123,   -1.7852,   -1.0039,   -0.7072,   -0.6366,   -1.5174,   -1.0220,   -1.2667,   -1.3634,   -0.8496,   -0.1940,    0.0933,   -0.0479,   -0.4853,    0.3981,    1.6765,    0.8400,    1.5166,    1.4542,    1.0801,    0.7430,    2.4653,    4.0434,    6.1431,    6.5749,    6.3849,    6.2904,    7.0173,    5.3314,
24-SEP-2002 18:19:04.77 ,   -4.5192,   -4.2070,   -4.1865,   -3.8664,   -3.7141,   -3.6806,   -4.2494,   -3.8866,   -4.1213,   -4.2224,   -3.2184,   -2.9969,   -3.2632,   -3.7638,   -3.9479,   -4.1376,   -4.7911,   -5.2910,   -5.1602,   -5.2714,   -6.2753,   -6.7720,   -6.7891,   -7.3771,   -7.2636,   -7.7539,   -7.3832,   -6.8606,   -5.9378,   -5.8279,   -5.7023,   -4.7294,   -4.1942,   -3.5337,   -2.5164,   -0.7455,   -0.2102,   -1.2470,   -1.3069,   -0.7982,   -1.0002,   -1.2853,   -0.6217,   -1.8738,   -2.7662,   -1.2100,   -0.9787,   -0.3010,    0.4662,    0.1191,   -0.7405,    1.4462,    0.4062,    2.7040,    0.1326,    1.0473,    1.0286,    1.6944,    2.2862,    4.3182,    5.1866,    4.4842,    3.9829,    3.6339,    2.8017,
24-SEP-2002 18:21:45.91 ,   -5.0834,   -4.3161,   -4.2748,   -4.4104,   -3.8220,   -3.0177,   -3.9068,   -3.4601,   -3.9045,   -3.9540,   -3.1002,   -3.3300,   -3.2352,   -3.2436,   -3.6004,   -3.6089,   -4.1606,   -4.7088,   -4.9349,   -5.3169,   -6.2606,   -6.6403,   -4.7631,   -5.7478,   -5.8302,   -6.2467,   -6.1513,   -5.5813,   -5.2960,   -5.7639,   -6.2989,   -5.2916,   -4.5777,   -2.9196,   -1.8400,   -0.6703,   -0.2686,   -1.2541,   -0.9180,   -0.8634,   -1.5186,   -0.7268,   -0.4718,   -0.6733,   -2.0640,   -0.9630,   -1.2495,   -1.6246,   -0.5858,    0.7935,   -0.4453,    1.5218,    1.1634,    0.9351,    0.1145,    0.7867,    0.6649,    2.0389,    2.7207,    3.5953,    5.5875,    5.8011,    5.0856,    4.1361,    4.3392,
24-SEP-2002 18:26:50.07 ,   -5.4495,   -4.2312,   -4.2220,   -4.2339,   -4.9227,   -5.6932,   -5.4256,   -4.0338,   -4.0363,   -3.3148,   -3.0362,   -2.4096,   -3.1815,   -3.2832,   -3.3426,   -3.5997,   -4.4730,   -4.9196,   -5.0497,   -5.2693,   -5.8771,   -6.2698,   -3.9331,   -6.0417,   -6.3405,   -7.7737,   -8.2401,   -7.5495,   -6.1092,   -5.3798,   -5.7017,   -5.4206,   -4.0456,   -3.2861,   -2.8694,   -2.1479,   -2.0227,   -1.6298,   -1.7535,   -1.6910,   -1.2930,   -1.1340,   -0.9152,   -0.2095,   -0.1184,    0.5313,   -0.2821,   -0.0543,    0.1899,    1.2668,    2.0084,    1.7162,    1.6415,    1.3915,    1.3552,    1.0397,    1.1789,    2.8619,    3.2416,    3.7538,    4.3289,    5.0035,    5.5834,    3.7084,    3.8742,
24-SEP-2002 18:29:31.22 ,   -6.0992,   -4.8085,   -4.1427,   -3.9451,   -5.0006,   -6.0361,   -5.3747,   -3.6563,   -3.0527,   -3.0103,   -2.8484,   -2.2842,   -3.0823,   -2.7354,   -2.8256,   -3.0644,   -3.9807,   -4.6044,   -4.5961,   -4.6160,   -5.6258,   -6.3357,   -6.6554,    0.5338,   -3.8677,   -7.4140,   -7.0979,   -6.3428,   -5.9466,   -5.5330,   -4.9202,   -4.6983,   -4.4353,   -3.9668,   -3.1016,   -2.1938,   -2.4109,   -2.0418,   -2.2878,   -1.9293,   -1.6040,   -0.9673,   -1.4078,    0.8364,    1.4904,    1.8229,   -0.0486,    0.5636,    1.5037,    0.7461,    1.6159,    1.5566,    1.5283,    1.1263,    0.6504,    1.3415,    3.7750,    6.3924,    8.8647,   12.4217,   13.9501,   12.7046,   16.5435,   15.4622,   16.3559,
24-SEP-2002 18:32:12.86 ,   -6.0401,   -5.5782,   -5.2850,   -4.5814,   -5.0598,   -5.8064,   -4.9675,   -3.0642,   -2.1053,   -2.1713,   -2.3450,   -2.5192,   -2.9297,   -2.7287,   -2.4149,   -3.0031,   -3.3066,   -3.6589,   -3.5983,   -3.6669,   -4.8695,   -5.4956,    6.5470,   14.7366,    2.5484,   -6.3361,   -6.3569,   -6.0040,   -5.8555,   -5.3673,   -4.5847,   -4.9598,   -4.2872,   -3.2900,   -2.7459,   -1.9582,   -1.1510,   -1.7648,   -1.9755,   -1.5457,   -1.4883,   -1.1970,   -0.3133,    0.1557,   -0.0151,    0.1084,    0.4687,    0.7123,    0.8553,    0.2240,    0.5399,    1.3089,    1.0881,    0.8634,    1.0897,    1.2691,    7.6113,   11.9874,   21.6731,   28.3999,   33.4970,   31.4732,   40.3838,   40.1256,   41.5939,
24-SEP-2002 18:34:55.30 ,   -5.4259,   -5.0874,   -4.8247,   -4.5443,   -4.6005,   -4.8515,   -4.0608,   -2.7484,   -2.4861,   -2.0028,   -1.8139,   -2.1128,   -2.7330,   -2.7286,   -2.5542,   -3.2297,   -3.4036,   -3.4393,   -3.5910,   -3.7646,   -4.2457,   -4.7980,   -4.4658,   -5.1193,   -5.4892,   -5.4701,   -5.2141,   -5.3318,   -5.5079,   -5.5307,   -5.0673,   -3.9503,   -2.7258,   -2.3382,   -1.9308,   -1.8738,   -2.0235,   -1.7120,   -1.8118,   -1.5781,   -0.9016,   -0.3579,   -0.1724,   -0.5537,   -0.8952,   -0.3482,   -0.8964,   -1.0977,    0.2131,    0.0356,    0.2760,    0.4091,    0.7544,    1.3457,    1.8545,    1.5564,    1.7730,    2.7659,    1.9054,    3.8268,    3.8285,    3.9206,    4.2958,    3.2261,    3.7810,
24-SEP-2002 18:37:36.40 ,   -5.6425,   -5.2625,   -4.7514,   -4.6444,   -4.5861,   -4.0610,   -2.8105,   -2.1912,   -1.8302,   -1.5127,   -1.3287,   -1.4354,   -1.6370,   -1.9742,   -2.2285,   -2.6422,   -2.8567,   -3.3436,   -3.8724,   -3.7673,   -3.8020,   -4.7658,   -3.2757,   -4.1105,   -4.7846,   -5.3981,   -5.9397,   -6.3422,   -6.1544,   -5.4622,   -5.1058,   -3.8809,   -2.6016,   -2.2530,   -1.9658,   -1.5773,   -2.2960,   -2.3309,   -1.1560,   -0.4523,   -1.2518,   -0.8810,   -0.4814,   -0.5977,   -0.3658,    0.1736,   -0.6264,   -0.8631,    0.6850,    1.2288,    0.7407,    0.1671,    0.7135,    1.7526,    3.1405,    3.4043,    3.4457,    3.8874,    2.6645,    4.8824,    4.4459,    4.2121,    3.9166,    4.4258,    4.5578,
24-SEP-2002 18:40:17.81 ,   -5.8956,   -5.8627,   -5.9684,   -5.8779,   -5.7846,   -5.0238,   -3.3627,   -2.1112,   -1.8914,   -1.6656,   -1.3017,   -1.1931,   -1.2931,   -1.7379,   -2.1920,   -2.5206,   -2.6359,   -3.5832,   -4.0438,   -3.4781,   -3.7762,   -5.1931,   -6.0259,   -4.6625,   -5.5404,   -5.6740,   -5.2149,   -5.5472,   -5.7161,   -5.7611,   -5.6475,   -3.7133,   -2.4464,   -2.8267,   -3.0218,   -2.8347,   -2.6268,   -2.3069,   -1.4107,   -1.4444,   -2.0153,   -1.2530,   -0.5135,   -0.6121,   -0.3841,    0.1017,   -0.8734,   -0.2889,    0.4018,    2.0550,    0.8474,   -0.0137,    0.5541,    0.9600,    1.4235,    1.5518,    2.2570,    4.6474,    3.9932,    3.8602,    3.7512,    3.8098,    3.1028,    3.5076,    3.1334,
24-SEP-2002 18:42:59.35 ,   -5.7100,   -5.7899,   -5.9272,   -6.0806,   -6.3235,   -5.8510,   -4.8659,   -3.9435,   -3.1512,   -2.5066,   -2.0589,   -1.7584,   -1.6020,   -1.8075,   -2.0436,   -2.1868,   -2.6286,   -3.4356,   -3.4672,   -3.0985,   -3.6134,   -4.5830,   -3.6914,   -4.4815,   -5.0266,   -5.4929,   -4.7835,   -5.0260,   -5.7471,   -6.0206,   -5.3714,   -4.4362,   -3.4961,   -2.7597,   -2.6781,   -3.1185,   -2.7677,   -1.9681,   -1.9457,   -1.7485,   -0.8119,   -1.1822,   -0.7823,   -0.9182,    0.0198,    0.0453,   -0.2557,   -0.7774,    0.4266,    1.0320,    1.1389,    1.8317,    1.5816,    1.4582,    2.0036,    1.6645,    0.3221,    1.9317,    3.6846,    3.0279,    2.7732,    1.8497,    2.6638,    3.4098,    3.6164,
24-SEP-2002 18:45:40.79 ,   -5.3970,   -6.0427,   -5.7904,   -6.4389,   -6.9188,   -6.3948,   -5.3905,   -5.7749,   -5.5647,   -4.3000,   -2.6378,   -2.1449,   -1.7298,   -2.0412,   -2.4090,   -2.4248,   -2.5812,   -3.1969,   -3.1297,   -2.9460,   -3.3119,   -3.7690,   -2.8970,   -3.8413,   -4.6823,   -5.1274,   -5.2757,   -5.1889,   -4.8645,   -4.7698,   -4.6856,   -3.5695,   -2.0311,   -1.7391,   -2.2664,   -1.9973,   -2.0830,   -2.1874,   -2.8966,   -1.5726,   -0.8634,   -0.6728,   -0.5458,   -1.3685,   -1.2252,   -0.5012,   -0.5616,   -1.2936,    0.6895,    0.7336,    1.2456,    1.6296,    2.8278,    2.9294,    3.7161,    4.3704,    1.8390,    2.2292,    2.2983,    1.8586,    1.2467,    1.8318,    3.5420,    3.9825,    5.9408,
24-SEP-2002 18:48:22.35 ,   -6.4543,   -6.9054,   -6.4659,   -6.8500,   -6.4596,   -5.9091,   -5.7723,   -6.1285,   -6.7707,   -4.9731,   -2.5496,   -2.8970,   -2.4818,   -2.3595,   -3.1505,   -2.9201,   -2.7059,   -3.6789,   -3.3281,   -2.7983,   -3.0807,   -4.1332,   -5.3945,   -3.6648,   -4.9129,   -5.5908,   -5.1187,   -4.6892,   -4.5624,   -4.3633,   -4.6054,   -4.2822,   -3.0660,   -2.1274,   -1.9694,   -1.8141,   -2.0230,   -2.0169,   -2.1868,   -2.4368,   -1.0348,   -0.7455,   -1.2015,   -1.9210,   -1.5144,   -0.9863,   -0.7818,   -1.8891,   -0.3325,    1.3251,    1.2861,    0.7695,    1.3201,    2.2839,    1.8953,    3.9602,    2.8308,    3.4026,    3.0553,    2.9210,    3.0885,    2.6741,    2.7130,    4.3481,    4.2390,
24-SEP-2002 18:51:03.81 ,   -7.4506,   -7.2106,   -6.7653,   -6.8645,   -6.2399,   -5.5769,   -5.9495,   -6.2194,   -5.9293,   -4.7973,   -3.1538,   -3.6845,   -3.2236,   -2.9293,   -3.3188,   -3.1743,   -3.1260,   -3.9198,   -3.5041,   -3.0382,   -3.2920,   -4.2032,   -3.4047,   -3.5368,   -4.3502,   -4.4365,   -4.1526,   -4.2875,   -4.2231,   -4.4693,   -4.8288,   -4.0986,   -3.5345,   -2.8143,   -2.9247,   -3.1192,   -2.8623,   -2.9373,   -3.0864,   -2.7505,   -1.0504,   -0.7817,   -1.2542,   -1.8491,   -2.6400,   -1.7861,   -1.4860,   -2.0844,    0.0742,    0.9828,    1.2755,    0.6288,    1.1981,    1.3955,    1.7357,    2.0952,    2.3552,    2.6596,    2.6612,    2.1901,    3.1425,    2.3396,    4.4375,    5.4014,    4.8777,
24-SEP-2002 18:53:45.29 ,   -6.4460,   -5.9448,   -5.8498,   -6.0933,   -6.4904,   -6.3178,   -5.9850,   -5.5472,   -5.4882,   -5.1540,   -3.7934,   -3.6321,   -3.3325,   -3.1764,   -2.7737,   -2.5467,   -3.1380,   -3.7528,   -3.7681,   -3.3958,   -3.1522,   -4.0493,   -5.0426,   -5.3148,   -4.3990,   -5.1082,   -5.1892,   -4.9406,   -4.9261,   -5.1236,   -4.8812,   -4.6121,   -4.1115,   -3.0062,   -3.3074,   -3.2965,   -3.2225,   -3.2609,   -3.0546,   -2.3199,   -1.1567,   -1.4379,   -2.3150,   -1.5042,   -0.6749,   -0.5309,   -1.4821,   -2.3273,    0.0349,    0.3458,    1.4880,    0.8954,    1.1422,    1.1266,    0.8441,    1.6601,    1.9094,    2.0679,    2.3040,    2.3034,    2.9478,    4.2660,    3.9477,    4.1377,    4.2728,
24-SEP-2002 18:56:28.44 ,   -8.2838,   -7.2438,   -6.6673,   -6.2416,   -5.1512,   -5.3128,   -4.6219,   -4.3577,   -4.3315,   -3.5424,   -2.7099,   -2.8077,   -3.0744,   -3.2899,   -2.6071,   -2.1192,   -2.9267,   -3.4462,   -3.3700,   -3.1480,   -3.0303,   -3.9460,   -3.3481,   -3.4089,   -4.2507,   -5.1520,   -4.8654,   -4.8253,   -4.9456,   -5.0213,   -4.3828,   -3.8335,   -3.0100,   -2.0403,   -2.1474,   -2.8813,   -2.9203,   -2.9654,   -1.8865,   -0.5636,   -0.5461,    0.0212,   -0.7151,   -0.9288,    0.4349,    0.2530,    1.0323,    1.5453,    3.4931,    5.8716,    7.0482,    3.1684,    3.8568,    2.0393,    1.0593,    1.4096,    1.0955,    0.1654,   -0.0774,   -1.4800,    0.8928,    4.3597,   19.4212,   15.7300,    1.7574,
24-SEP-2002 18:59:09.62 ,   -8.7468,   -7.7251,   -7.0111,   -6.6895,   -4.8995,   -4.7636,   -3.6953,   -3.2080,   -2.9063,   -2.6430,   -2.6939,   -2.6938,   -3.2992,   -3.6429,   -3.2910,   -2.9013,   -3.1868,   -3.2684,   -2.8665,   -2.6208,   -2.8692,   -3.6574,   -4.4839,   -4.0140,   -4.5038,   -4.9940,   -5.0977,   -5.1190,   -5.3834,   -5.0581,   -4.1064,   -3.6029,   -2.8185,   -1.8851,   -2.7081,   -3.0403,   -2.9363,   -3.2846,   -2.3702,   -1.7218,   -1.1193,    0.2748,   -0.9152,   -1.9989,   -0.0959,    0.6257,    1.8267,    5.2174,   11.5500,   15.1796,   19.3979,    7.9314,    8.8420,    3.6162,    2.0260,    2.1553,    0.3841,   -2.6786,   -3.6681,   -6.7503,   -5.6000,    0.2025,   51.5390,   40.7897,   -2.6785,
24-SEP-2002 19:01:50.88 ,   -5.9972,   -5.3932,   -5.1879,   -5.7301,   -5.8485,   -5.1650,   -4.2707,   -2.9080,   -2.7973,   -2.8759,   -3.1378,   -3.0853,   -3.3365,   -3.1762,   -2.9653,   -3.0374,   -3.1821,   -3.2763,   -3.2050,   -2.9186,   -2.9048,   -3.9628,   -3.9136,   -4.4668,   -5.0098,   -5.4656,   -5.2986,   -5.0182,   -4.9653,   -5.2626,   -4.9361,   -3.8472,   -3.1780,   -2.3625,   -2.7500,   -3.0974,   -3.4088,   -3.1843,   -2.8818,   -1.9423,   -1.7708,   -0.8448,   -1.1817,   -1.0838,    0.5396,    0.5538,    0.1555,   -0.2441,    1.6332,    1.9880,    3.0779,    2.7605,    2.5499,    2.3987,    1.1365,    1.4781,    1.8060,    2.8538,    1.4924,    0.8081,    1.3682,    0.9222,    1.3499,    1.9528,    3.1374,
24-SEP-2002 19:04:32.05 ,   -5.2768,   -4.6693,   -4.0301,   -4.0737,   -4.2493,   -4.5333,   -4.2446,   -4.0620,   -4.0322,   -3.4701,   -2.5320,   -2.5533,   -2.8150,   -2.3822,   -1.7942,   -2.2393,   -3.1638,   -3.8345,   -3.8692,   -3.1261,   -2.8451,   -4.0574,   -5.0494,   -3.7430,   -5.3540,   -5.8576,   -5.5870,   -5.5122,   -5.2402,   -5.5330,   -5.4942,   -4.0798,   -3.5917,   -2.3744,   -2.5231,   -2.5039,   -2.9723,   -3.0591,   -2.7605,   -1.5848,   -1.1411,   -1.7450,   -1.9296,   -0.5533,   -0.3088,    0.3868,    0.4323,   -0.4778,    1.5774,    0.8438,    1.9181,    0.8066,    0.0798,    0.6294,    0.5065,    1.1597,    0.8364,    0.8074,    1.1831,    0.2040,    0.8304,    0.5847,    2.0841,    2.3011,    2.6062,
24-SEP-2002 19:07:13.23 ,   -4.3984,   -3.8844,   -3.9119,   -4.1685,   -3.8463,   -4.9736,   -5.0060,   -5.1409,   -5.2345,   -4.6016,   -3.2464,   -2.9694,   -3.0514,   -2.5339,   -1.8319,   -2.1427,   -3.0157,   -3.8534,   -3.8549,   -3.2410,   -3.4462,   -4.2512,   -5.1064,   -3.4474,   -4.7868,   -5.0126,   -5.2055,   -5.8483,   -6.2731,   -5.6504,   -4.2349,   -3.7848,   -3.4508,   -2.5764,   -1.9440,   -1.9493,   -2.8845,   -3.3425,   -2.8934,   -1.9007,   -0.8640,   -1.3422,   -1.0628,   -0.4691,   -0.9133,    0.1985,    0.6763,   -0.2336,    1.1416,    1.7910,    2.3112,    1.7474,    0.1695,    2.7234,    0.6824,    0.1286,   -0.5095,    0.5186,    1.2499,    0.6940,    1.3707,    0.7128,    2.6959,    4.1806,    3.6179,
24-SEP-2002 19:09:54.36 ,   -4.8775,   -4.3360,   -4.5911,   -5.2089,   -4.8292,   -5.1516,   -4.8474,   -5.0049,   -5.2051,   -4.5387,   -3.6847,   -3.7935,   -3.9122,   -3.7800,   -3.2542,   -3.4330,   -3.7965,   -3.8171,   -3.6634,   -3.2312,   -4.1117,   -4.7616,   -3.6144,   -4.3349,   -4.6813,   -4.8900,   -5.0725,   -4.8979,   -4.6895,   -4.5929,   -3.7235,   -3.3599,   -3.2899,   -3.1044,   -2.1275,   -3.1341,   -4.1778,   -4.5933,   -3.9476,   -3.0007,   -2.1071,   -1.4671,   -0.5167,   -1.4116,   -0.8816,    0.2145,    0.2507,    0.1343,   -0.2246,    1.2999,    2.2597,    0.4145,    0.4642,    0.6323,    0.6936,    0.2170,    0.0650,    1.5305,    2.6254,    1.1993,    0.8056,    0.9562,    2.3431,    3.2123,    3.9087,
24-SEP-2002 19:12:35.77 ,   -5.7875,   -5.6186,   -4.7540,   -4.9370,   -5.5649,   -5.8392,   -4.8338,   -4.6551,   -4.5911,   -4.0683,   -3.6915,   -4.2981,   -4.4366,   -4.2366,   -3.3054,   -3.7710,   -4.1319,   -4.0740,   -3.8660,   -3.1716,   -3.6786,   -4.5523,   -3.0020,   -3.8821,   -4.2974,   -4.5268,   -4.3811,   -4.0271,   -3.8995,   -3.8435,   -4.0461,   -3.2813,   -3.3216,   -2.8149,   -2.2550,   -3.0981,   -4.1382,   -5.0376,   -5.5079,   -5.1460,   -3.0118,   -1.3276,   -0.9201,   -0.7785,   -0.2677,    0.6051,    0.1598,    0.0405,    0.3711,    0.9954,    3.6865,    2.5140,    1.7648,    1.8719,    1.9690,    0.8472,    1.6588,    3.2767,    2.4321,    2.2360,    2.6923,    2.6116,    1.5796,    2.4900,    4.1972,
24-SEP-2002 19:15:17.70 ,   -5.7518,   -5.5182,   -4.8084,   -4.6569,   -4.6179,   -4.7383,   -4.1276,   -3.5767,   -3.5731,   -3.7116,   -3.8968,   -4.2823,   -4.0709,   -3.6659,   -3.1596,   -3.9524,   -4.3113,   -4.4351,   -4.3365,   -3.9508,   -3.9037,   -4.4632,   -3.4463,   -4.2398,   -4.6270,   -4.2030,   -4.0021,   -3.8415,   -3.7998,   -3.6718,   -3.7434,   -3.1946,   -2.7512,   -1.5468,   -2.5484,   -3.4623,   -3.8637,   -3.7971,   -3.8881,   -3.4220,   -1.5903,   -0.2876,    0.1837,    0.1387,    1.6879,    1.2174,    0.6821,   -0.1257,    0.6581,    1.4168,    1.7102,    0.5099,    1.1142,    1.5976,    1.7782,    2.4049,    2.0443,    1.3459,    1.5464,    0.8577,    1.6546,    2.0237,    1.2990,    1.1682,    3.9564,
24-SEP-2002 19:17:58.71 ,   -5.0865,   -5.4234,   -5.2209,   -5.3355,   -5.3365,   -4.8890,   -4.4680,   -4.1116,   -3.9137,   -3.7144,   -3.8162,   -3.6524,   -3.7354,   -3.5333,   -3.5990,   -4.3551,   -5.0544,   -4.6519,   -3.9741,   -3.7480,   -3.8578,   -4.0531,   -3.6123,   -3.5709,   -3.3686,   -3.6513,   -3.5242,   -3.1518,   -3.6449,   -3.4527,   -2.1022,   -2.1558,   -2.8813,   -2.1814,   -1.3639,   -2.1750,   -3.4966,   -3.2042,   -2.7535,   -2.1509,   -1.9392,   -0.3826,    0.3020,   -0.5265,   -5.7151,   -6.1077,   -5.7839,   -4.2072,   -3.3719,   -1.9290,   15.1016,   13.9014,   12.2244,   13.4070,   12.2410,   11.5027,   12.3605,    9.9890,    8.7280,    7.2074,    5.4697,    3.7192,    1.5904,    2.2629,    3.1019,
24-SEP-2002 19:20:40.25 ,  -16.6042,   -5.5658,   -4.9499,   -4.7752,   -4.9658,   -4.7767,   -4.4895,   -4.0154,   -3.8601,   -3.2100,   -3.3469,   -3.9180,   -4.4673,   -4.0132,   -3.6325,   -4.0772,   -4.8652,   -4.0923,   -3.5286,   -3.6798,   -3.6772,   -3.6685,   -3.6941,   -4.2341,   -3.6694,   -3.6881,   -3.8982,   -3.8120,   -3.0661,   -3.0309,   -3.1641,   -3.4118,   -2.8450,   -1.8650,   -1.1907,   -1.9812,   -2.2893,   -2.0671,   -2.1913,   -1.3898,   -1.4233,   -0.7541,    1.1791,    0.3154,  -18.0575,  -21.1873,  -17.4431,  -12.0857,  -10.4769,   -9.8642,   42.9531,   41.4982,   35.5520,   34.7595,   31.3287,   27.8621,   28.8781,   22.7010,   16.1079,   13.4620,   24.6753,   19.4180,   13.6557,   15.1597,   16.5680,
24-SEP-2002 19:23:21.86 ,  -18.3229,   -4.3899,   -3.7142,   -3.4164,   -2.8919,   -2.9177,   -2.6614,   -2.5507,   -2.5878,   -2.3789,   -3.0759,   -4.1836,   -4.5876,   -4.5785,   -4.5421,   -4.6296,   -4.6198,   -3.7041,   -3.6333,   -3.7260,   -3.9816,   -4.1149,   -3.8196,   -4.5647,   -3.8265,   -3.6793,   -4.0103,   -3.9795,   -3.5724,   -3.9664,   -4.0894,   -4.3187,   -3.8680,   -2.5484,   -1.8878,   -1.9551,   -2.1350,   -2.0191,   -1.8446,   -1.5798,   -0.9434,   -0.4972,    1.0311,    1.2665,    1.3442,    1.7470,    1.2352,    0.2175,   -0.2047,   -0.5883,   -1.7393,   -3.1030,   -4.7827,   -5.9508,   -7.0946,   -7.9011,   -8.8777,   -8.7551,  -12.6701,   -1.2863,   43.3109,   38.8009,   34.7365,   40.6399,   44.5884,
24-SEP-2002 19:26:03.08 ,   -4.6795,   -4.7330,   -4.4174,   -5.0016,   -4.1451,   -3.8811,   -3.5322,   -3.4096,   -2.9649,   -2.8469,   -3.3646,   -3.9436,   -3.7989,   -4.0694,   -4.3360,   -4.4593,   -4.5295,   -4.2553,   -3.9188,   -3.6096,   -3.8285,   -3.9674,   -4.0135,   -3.9246,   -3.8164,   -3.3780,   -3.4267,   -3.9941,   -3.7263,   -3.2992,   -3.3517,   -3.6482,   -2.9912,   -2.6089,   -2.0069,   -1.5185,   -1.3552,   -1.8277,   -1.7166,   -1.0979,   -0.0611,    0.2378,    1.4664,    2.0787,    1.6409,    1.0816,    1.6828,    0.2049,    0.4800,    2.2697,    1.9163,    2.9712,    3.4376,    5.2775,    5.2399,    5.8724,    4.8824,    5.4149,    5.9987,    6.0390,    7.7016,    5.9440,    4.6329,    6.1393,    6.6444,
24-SEP-2002 19:28:44.67 ,   -5.8004,   -5.4868,   -5.1234,   -5.4746,   -5.2610,   -5.0080,   -4.3728,   -4.1931,   -3.8232,   -3.6262,   -3.7041,   -3.5935,   -3.5729,   -3.3832,   -3.1907,   -3.3876,   -4.1305,   -4.5452,   -3.8935,   -3.6242,   -4.0192,   -3.6716,   -3.1977,   -3.4947,   -3.2365,   -3.1976,   -3.3624,   -3.6068,   -3.4437,   -3.0945,   -3.3497,   -3.5869,   -3.6446,   -3.0887,   -2.4464,   -1.5163,   -0.8333,   -1.4421,   -1.7494,   -1.4653,    0.1377,    1.7397,    0.9185,    0.5977,    1.6915,    1.6199,    3.7741,    1.2041,    1.3411,    6.6125,    5.2380,    9.0260,   10.8901,   13.5108,   14.5204,   17.1179,   13.1315,   15.8619,   15.4210,   14.9035,   14.9846,   14.7341,   14.1416,   14.1965,   14.9373,
24-SEP-2002 19:31:25.72 ,   -5.8500,   -5.3904,   -4.8609,   -5.1868,   -5.3654,   -5.3552,   -4.3077,   -3.6182,   -3.7755,   -3.7521,   -3.6589,   -3.4017,   -3.2923,   -3.1199,   -3.2606,   -3.8047,   -4.2710,   -3.8839,   -3.0504,   -3.0310,   -3.4699,   -3.0052,   -4.1424,   -3.6374,   -3.3886,   -3.4260,   -3.3238,   -3.1025,   -3.1930,   -3.0705,   -3.2438,   -3.8059,   -3.9838,   -3.2473,   -2.2602,   -1.5827,   -1.2219,   -1.7565,   -2.4397,   -2.0537,   -0.6322,    1.5953,    1.1702,    0.8608,    1.6644,    1.0942,    0.9639,    0.9836,    1.2126,    2.5679,    3.2133,    4.0018,    2.4673,    1.9554,    1.5463,    1.0329,    0.8992,    2.0217,    0.6799,   -0.5862,    0.4263,    0.8400,    0.5307,    2.7295,    4.7256,
24-SEP-2002 19:34:07.75 ,   -4.9475,   -4.7760,   -4.7290,   -5.1938,   -5.3970,   -5.8302,   -4.9608,   -4.0280,   -4.0092,   -3.4471,   -3.1927,   -3.1087,   -2.9962,   -2.9633,   -3.4752,   -3.9865,   -4.1175,   -3.3937,   -2.9471,   -3.0595,   -3.0513,   -2.4919,   -3.3044,   -2.7393,   -2.8148,   -3.2463,   -3.8479,   -3.6466,   -3.7828,   -3.8940,   -4.0430,   -4.1625,   -4.2650,   -3.3529,   -2.4522,   -1.6865,   -1.8567,   -1.7584,   -1.9043,   -2.4023,   -1.8458,    0.4766,    0.5949,   -0.1023,    0.7287,    0.8788,    0.6583,    0.7869,    1.1508,    1.6579,    0.7477,    0.6925,    0.9847,    0.8861,    1.2637,    0.7288,    0.7010,    1.1043,    0.7675,    0.4213,    0.9427,    1.0789,    0.9110,    2.0528,    2.6539,
24-SEP-2002 19:36:49.23 ,   -4.5345,   -4.0601,   -4.3473,   -5.1751,   -5.6342,   -5.5834,   -4.0801,   -4.0417,   -4.0170,   -3.4311,   -2.7651,   -2.6929,   -2.6373,   -2.8046,   -3.4015,   -3.8670,   -4.2370,   -3.7934,   -3.2199,   -3.2908,   -2.9926,   -2.2650,   -2.8700,   -2.9030,    0.3050,    5.0334,   -1.9732,   -5.0540,   -3.1174,   -3.4161,   -4.0452,   -4.7479,   -4.5288,   -3.7602,   -2.4396,   -2.6424,   -3.6556,   -3.7127,   -3.5056,   -2.4374,   -1.2366,    0.1950,   -0.0468,   -0.1315,    0.4516,    1.5723,    1.5210,    1.0174,    0.8587,    2.0722,    0.5537,    1.4272,    1.0834,    1.4289,    2.6177,    1.1105,    0.1123,    0.7602,    1.2702,    1.0680,    2.2631,    1.4755,    1.2812,    2.8653,    2.4404,
24-SEP-2002 19:39:30.29 ,   -4.7312,   -4.1145,   -4.6146,   -5.2155,   -5.4215,   -5.3143,   -4.1251,   -4.1203,   -4.0460,   -4.0549,   -3.6233,   -3.5533,   -3.1955,   -2.7746,   -3.3314,   -4.2159,   -4.9862,   -4.6163,   -4.1514,   -3.9234,   -3.1465,   -2.4428,   -3.2556,   -3.1024,    6.1618,   19.9886,   -1.9739,  -10.2537,   -3.0803,   -3.3953,   -4.1018,   -4.7689,   -4.5541,   -4.4808,   -3.0651,   -2.0840,   -3.3753,   -3.3856,   -3.2253,   -2.8475,   -1.9717,   -1.0917,   -0.2400,   -0.1225,    0.1919,    1.8540,    0.6564,    0.2245,    0.5590,    0.2324,    1.0306,    0.9898,    1.0278,    0.9374,    1.4125,    1.9613,    0.3126,    1.1320,    0.9706,    0.2188,    0.4921,   -0.7487,    0.1534,    1.1902,    2.4428,
24-SEP-2002 19:42:12.34 ,   -5.3832,   -5.3825,   -4.6720,   -4.8138,   -4.9463,   -4.8677,   -4.3429,   -4.5133,   -4.6867,   -4.3968,   -4.0533,   -3.9115,   -3.4974,   -2.8627,   -3.2852,   -4.3933,   -4.7440,   -4.2190,   -4.4206,   -4.1819,   -3.0642,   -2.3181,   -3.1242,   -3.1161,   -3.3851,   -3.9424,   -3.8144,   -3.6883,   -4.1532,   -4.3636,   -4.4603,   -4.4300,   -4.2064,   -4.1250,   -2.7655,   -1.5420,   -2.2255,   -2.3332,   -2.9983,   -2.9005,   -1.0794,   -0.4702,   -0.1050,   -0.0417,    0.1805,    1.1296,    0.5252,    0.0981,    1.2201,    0.1301,    1.3255,    0.7513,    1.1958,    0.7876,    0.7702,    0.4065,    0.3699,    0.1120,    1.0959,    0.2516,    0.2247,    0.2224,   -0.4923,    0.7722,    2.3354,
24-SEP-2002 19:44:53.95 ,   -6.0463,   -5.9559,   -4.5104,   -5.1494,   -5.0711,   -4.8112,   -3.5727,   -3.2543,   -4.2252,   -3.9258,   -3.4179,   -3.3660,   -3.4830,   -3.5512,   -3.8854,   -4.5308,   -4.5375,   -3.7618,   -3.7102,   -3.5702,   -2.6341,   -1.6406,   -3.3893,   -2.3456,   -2.2065,   -2.7225,   -2.4649,   -2.3264,   -3.0912,   -3.7185,   -4.3221,   -4.6970,   -4.8632,   -4.5151,   -3.2907,   -2.2841,   -1.9811,   -2.2893,   -2.4173,   -2.0519,   -0.4499,   -0.5217,    0.1825,    0.1858,   -0.7290,    0.5586,  -16.2154,  -18.1640,  -17.5981,   -0.7570,  -16.7992,  -14.6860,  -12.7185,  -11.8231,  -10.5936,  -10.8962,   -8.0178,   -6.6871,    8.9651,   10.7610,   10.0944,   10.2534,    7.4211,    7.0077,    7.9075,
24-SEP-2002 19:47:35.11 ,   -5.0631,   -4.5163,   -4.2901,   -5.2851,   -4.5050,   -4.3622,   -3.7701,   -3.5192,   -3.8594,   -3.8955,   -3.7693,   -3.6792,   -3.9679,   -4.0172,   -4.3180,   -4.6676,   -4.7938,   -4.6904,   -4.5393,   -4.1574,   -3.1067,   -2.1665,   -2.2970,   -2.4625,   -2.5839,   -2.8212,   -2.8013,   -2.4556,   -3.0019,   -3.5256,   -3.3468,   -4.0848,   -4.2678,   -3.8757,   -3.2039,   -2.3443,   -1.6904,   -1.8923,   -1.3815,   -0.8107,    1.1133,    0.7363,    0.0967,    0.0048,   -3.8692,   -0.8654,  -50.5005,  -56.0123,  -55.4064,   -2.4505,  -52.7448,  -49.5472,  -47.4449,  -42.0533,  -37.6791,  -33.4163,  -27.6138,  -22.6782,   26.9823,   29.5620,   28.2067,   25.7505,   22.7824,   19.1762,   17.4562,
24-SEP-2002 19:50:16.48 ,   -4.7235,   -4.3210,   -4.2457,   -4.9226,   -4.1472,   -3.7633,   -3.7706,   -4.2494,   -3.5027,   -3.5911,   -3.5615,   -3.6736,   -3.8255,   -3.8164,   -4.0885,   -4.6111,   -5.1021,   -5.3893,   -5.3148,   -4.7464,   -3.6964,   -2.8744,   -4.1900,   -3.2750,   -2.6366,   -2.6824,   -2.7499,   -3.1578,   -3.7818,   -4.3128,   -4.2715,   -4.7862,   -4.8191,   -4.8157,   -4.2315,   -2.3130,   -1.9498,   -2.6281,   -2.1719,   -1.1095,   -1.0651,   -0.6134,    0.2246,    0.7532,   -0.5241,   -0.0341,    0.6397,    0.0277,   -0.0049,   -0.3622,   -0.1191,    0.4332,    0.8255,    0.3917,   -0.0534,    0.0289,    0.0105,    0.4078,    1.7439,    0.3167,    0.5797,    1.5065,    1.3816,    1.8821,    2.3466,
24-SEP-2002 19:52:58.35 ,   -5.1719,   -4.8241,   -4.5088,   -4.7787,   -4.3022,   -3.7604,   -3.3681,   -3.0877,   -3.2340,   -3.4247,   -3.3288,   -3.3723,   -3.3500,   -3.3068,   -3.1788,   -3.8196,   -5.0538,   -5.2554,   -5.1187,   -4.7336,   -4.2897,   -3.8839,   -2.9871,   -3.5404,   -2.7322,   -2.9046,   -3.1680,   -3.5546,   -4.2072,   -4.4492,   -5.2975,   -5.2339,   -4.4472,   -4.8638,   -3.6234,   -2.0502,   -2.3400,   -2.4188,   -1.9081,   -1.6115,   -0.9804,   -0.0362,   -0.8329,   -1.0639,   -1.0924,   -0.4278,    0.4095,    0.8059,    0.1655,   -0.0234,    0.5722,    0.0271,    0.4363,    0.5113,    0.3156,    0.4857,    0.1389,    0.7300,    1.1892,    0.5394,    0.0599,    0.3867,   -0.3971,    1.8898,    2.8689,
24-SEP-2002 19:55:39.51 ,   -4.8985,   -5.1746,   -5.0872,   -4.2926,   -3.7278,   -3.5859,   -3.7310,   -3.4267,   -3.7051,   -3.7451,   -3.6761,   -3.7662,   -3.8512,   -3.5480,   -2.9445,   -3.2962,   -4.5688,   -4.7538,   -4.4639,   -4.1565,   -3.7759,   -3.7716,   -3.8553,   -3.2230,   -3.0696,   -3.6594,   -3.8942,   -3.8506,   -4.3553,   -4.1722,   -4.7818,   -5.4460,   -5.3812,   -5.5160,   -4.7075,   -3.5149,   -2.6718,   -2.1484,   -2.3488,   -2.2102,   -1.9446,   -0.4061,   -1.2519,   -1.2883,   -0.6425,    0.1592,    1.0710,    1.4528,   -0.3542,   -0.4467,    1.2758,    0.0456,    0.2384,    0.8074,    1.1349,    0.4727,   -0.2149,    0.3294,    0.3936,    0.2425,   -0.1911,    0.3643,    1.2303,    2.0603,    2.3736,
24-SEP-2002 19:58:20.80 ,   -5.2113,   -5.6467,   -5.8429,   -4.6241,   -3.4743,   -3.2141,   -3.5555,   -3.4309,   -3.7511,   -3.4428,   -3.2911,   -3.6411,   -3.5575,   -3.2830,   -2.5430,   -2.9136,   -4.1133,   -4.3798,   -4.0598,   -3.6454,   -2.9196,   -2.2746,   -2.9936,   -2.2404,   -1.7649,   -2.3158,   -3.3132,   -3.4908,   -3.8786,   -4.5611,   -4.7810,   -4.7849,   -4.8795,   -4.6342,   -4.0655,   -2.5485,   -2.4443,   -2.5842,   -2.4061,   -1.8069,   -1.1196,   -0.3719,   -0.0004,   -1.0410,   -0.0035,    0.9042,    1.0637,    0.5999,   -0.7361,   -0.6315,    0.9849,    0.9482,    2.3007,    1.7978,    1.5897,    0.6565,    0.3139,    0.2824,    0.2539,   -0.2099,    0.2845,    0.4587,    0.4349,    0.9678,    1.9911,
24-SEP-2002 20:01:02.63 ,   -5.1896,   -5.4330,   -5.6930,   -4.8226,   -3.5149,   -2.8619,   -3.1637,   -3.7575,   -4.0469,   -3.6844,   -3.1916,   -2.6809,   -2.3514,   -2.0972,   -1.7263,   -2.4092,   -3.3239,   -3.5039,   -3.8796,   -3.7996,   -2.7700,   -1.2942,   -2.4048,   -1.2784,   -0.8519,   -0.8663,   -2.2800,   -3.5033,   -4.0018,   -4.4061,   -4.4378,   -3.3029,   -3.0951,   -2.6709,   -2.0472,   -1.4437,   -1.9741,   -2.5568,   -2.5110,   -2.1494,   -1.9147,   -0.7127,   -0.3915,   -0.9727,   -0.1841,    0.9604,    0.7261,   -0.7986,   -1.9429,   -1.1515,    0.0632,    0.2509,    1.6305,    1.7549,    0.1671,   -0.4183,   -1.1382,   -0.7570,    0.0831,   -0.7419,   -1.1014,   -0.3411,    1.0825,    1.3754,    1.8354,
24-SEP-2002 20:03:43.94 ,   -4.9822,   -5.2925,   -5.0667,   -4.6215,   -3.1195,   -3.1615,   -3.3047,   -3.9837,   -4.5316,   -3.6714,   -2.7940,   -1.4821,   -1.2616,   -1.0544,   -1.1474,   -2.2769,   -2.6258,   -2.6612,   -3.4637,   -3.7819,   -2.8390,   -1.2791,   -2.3436,   -1.6862,   -1.2159,   -1.0615,   -1.5475,   -3.2064,   -4.1622,   -4.4667,   -4.9707,   -4.2270,   -3.2576,   -3.4454,   -3.2750,   -1.5286,   -0.8038,   -1.7255,   -2.4671,   -1.8773,   -1.5714,   -1.1447,   -0.4794,   -0.4476,   -0.6369,    0.3632,    0.2841,   -0.7844,   -0.8301,   -0.9027,   -0.5916,   -0.5287,    0.3371,   -0.1755,   -0.6751,   -0.4608,   -0.7436,   -0.6473,    0.0178,    0.0921,   -0.8457,   -0.9050,    0.7767,    1.0664,    0.8063,
24-SEP-2002 20:06:25.67 ,   -4.8844,   -4.9265,   -4.4072,   -4.1871,   -2.9528,   -3.5572,   -3.7103,   -3.8820,   -4.8254,   -4.6102,   -3.2725,   -1.1672,   -0.8085,   -0.0501,   -0.3472,   -1.6067,   -2.0539,   -2.4608,   -2.9170,   -3.0104,   -2.1011,   -1.0442,   -2.1637,   -1.4878,   -0.5272,   -0.5830,   -0.9651,   -2.2908,   -3.6519,   -4.1477,   -3.7862,   -3.5883,   -3.6734,   -3.5588,   -3.1327,   -1.3137,   -0.7343,   -1.8729,   -2.0936,   -1.7778,   -1.2856,   -1.3643,   -0.7315,   -0.3913,   -0.8982,   -0.1847,    0.0253,   -0.7682,   -1.1164,   -1.3472,   -0.6294,   -0.1584,    0.6327,    1.6287,    0.0499,   -0.0352,   -0.1157,    1.0009,    0.1089,    0.5394,    0.0228,   -0.4035,   -0.0711,    0.5445,    0.9204,
24-SEP-2002 20:09:07.38 ,   -4.4333,   -4.4735,   -4.2322,   -3.5799,   -3.1406,   -3.4354,   -3.5824,   -3.8162,   -4.4687,   -5.4752,   -3.9919,   -1.9242,   -1.9341,   -0.3398,   -0.6057,   -1.4545,   -1.8789,   -2.4504,   -2.7763,   -2.3043,   -1.4580,   -0.6966,   -2.0398,   -1.6166,   -0.6214,   -0.9633,   -1.7278,   -2.5217,   -2.9661,   -2.6949,   -2.5059,   -3.8335,   -3.8387,   -2.2513,   -1.2452,   -0.7072,   -1.2327,   -1.4861,   -1.4948,   -1.5449,   -1.0934,   -1.3139,   -1.2932,   -0.9021,   -0.5672,   -0.0781,   -0.2971,   -0.6810,   -2.3097,   -1.8541,   -0.6950,    0.0789,    1.7587,    3.2756,    0.4854,    0.4349,    0.2883,    0.1113,   -0.0966,   -0.0295,   -0.3569,    0.4253,    1.4201,    2.0738,    1.8530,
24-SEP-2002 20:52:38.28 ,   -3.8428,   -2.9221,   -2.1001,   -2.2992,   -2.8844,   -2.9631,   -3.1267,   -3.7393,   -4.2481,   -3.6317,   -3.2907,   -3.1414,   -2.9234,   -3.0220,   -3.3576,   -3.4641,   -3.1828,   -3.5044,   -4.2929,   -4.2547,   -4.3619,   -4.6548,   -3.9645,   -4.6687,   -4.7953,   -4.1488,   -3.0911,   -2.8495,   -3.6878,   -3.9545,   -3.8898,   -2.9546,   -2.1699,   -2.1563,   -1.5534,   -0.4566,   -0.9367,   -0.7451,   -1.0025,   -0.6583,   -0.4154,   -0.2084,    0.4598,    0.5632,   -0.0109,   -0.1194,   -0.1857,   -1.2033,   -0.3810,    0.0121,   -0.2503,   -0.1743,    2.4848,    0.9028,    0.8302,    1.7211,   -0.3203,   -1.6024,   -0.5433,   -1.3620,   -1.9997,   -1.1831,    0.0374,    0.5919,    0.0545,
24-SEP-2002 20:55:20.49 ,   -4.3560,   -3.5966,   -2.6828,   -2.7584,   -3.3445,   -3.4603,   -3.7223,   -3.8877,   -4.2681,   -3.9561,   -3.2423,   -3.3384,   -3.5334,   -3.4754,   -3.9614,   -4.0443,   -3.7444,   -3.8917,   -4.2180,   -4.2241,   -3.9996,   -4.1694,   -3.2640,   -3.6584,    1.6778,    0.4450,   -3.9386,   -3.5850,   -3.8705,   -3.9168,   -2.9766,   -2.9470,   -3.1328,   -2.9951,   -2.2731,   -1.6154,   -0.8411,   -1.0310,   -1.9059,   -1.0358,   -0.5863,   -0.4975,   -0.0081,   -0.1290,   -0.4854,   -0.0405,    0.3316,    0.2147,    0.1508,   -0.1377,    0.6457,    0.6552,    0.8003,    0.5239,    1.2491,    2.5529,    0.1802,   -0.4802,   -0.4555,   -0.1344,   -0.7434,   -1.2417,    0.0635,    0.5546,   -1.7905,
24-SEP-2002 20:58:02.92 ,   -5.7617,   -4.7822,   -4.2427,   -3.9675,   -4.0260,   -4.5670,   -4.4925,   -4.7872,   -4.7809,   -4.2756,   -3.0798,   -2.9482,   -3.2682,   -3.5745,   -4.2039,   -4.2301,   -4.1266,   -4.0856,   -4.2173,   -4.2893,   -3.9238,   -4.1808,   -3.0002,   -3.1236,   12.7144,    8.8243,   -3.9158,   -3.4361,   -3.3520,   -3.0757,   -2.5503,   -2.6894,   -3.1733,   -2.2231,   -1.2253,   -2.1004,   -1.9236,   -1.0121,   -0.9355,   -0.9290,   -1.6151,   -0.8633,   -0.5632,   -0.5503,   -1.5143,   -0.8539,    0.8036,    0.3148,    0.1082,    0.2095,    1.8237,    1.0252,    1.0509,    0.6093,    0.5397,    0.1681,   -0.2691,   -0.5622,   -0.1049,   -0.1260,   -0.9973,   -2.1351,   -1.3199,   -0.2892,   -0.6714,
24-SEP-2002 21:00:44.23 ,   -4.9522,   -4.3047,   -4.0311,   -3.3710,   -3.7042,   -4.6975,   -4.4975,   -4.6476,   -4.3344,   -4.1978,   -3.4368,   -2.8972,   -3.5116,   -3.8492,   -4.3367,   -4.3690,   -4.0501,   -3.8702,   -4.1040,   -4.0415,   -4.0211,   -4.7119,   -3.3710,   -3.3483,   -3.9189,   -3.9488,   -3.4236,   -3.0730,   -2.8747,   -2.6657,   -2.9795,   -3.2684,   -3.2613,   -2.1855,   -1.5474,   -1.1888,   -1.8902,   -0.8425,   -0.9660,   -1.5424,   -1.9103,   -1.2721,   -0.5648,   -0.5064,    0.3882,    0.5260,    0.3807,    0.5834,   -0.0620,   -0.2842,    0.5702,    0.4956,    0.6648,    0.5381,    0.8457,    0.3517,   -0.6455,   -0.7960,   -0.7865,   -1.0758,   -1.7436,   -2.8027,   -1.2693,   -0.4685,   -0.6073,
24-SEP-2002 21:03:25.41 ,   -3.6836,   -3.2582,   -2.8418,   -2.5017,   -3.9230,   -4.4271,   -4.3146,   -4.4178,   -4.6311,   -4.1216,   -3.5448,   -3.2890,   -3.5216,   -3.8308,   -4.4072,   -4.2574,   -4.0125,   -3.6285,   -3.5442,   -3.5916,   -3.4740,   -4.2801,   -3.4851,   -3.5740,   -4.0023,   -4.0109,   -3.4216,   -3.5220,   -3.0821,   -2.4858,   -3.2690,   -3.7892,   -2.5064,   -1.5728,   -1.7673,   -1.7898,   -1.3723,   -0.8679,   -0.7486,   -1.0542,   -1.0091,   -0.8394,    0.1070,    0.3406,    0.7480,    1.2393,    0.0675,   -0.4702,   -0.2254,   -0.6067,   -0.1195,   -0.1007,    0.3532,    0.7045,    1.2077,   -0.0691,   -0.4890,   -0.5983,   -0.6665,   -1.0233,   -1.5458,   -1.8202,   -1.3779,   -0.7450,   -1.0125,
24-SEP-2002 21:06:07.37 ,   -4.3488,   -3.1725,   -2.6928,   -2.4747,   -3.5852,   -4.0913,   -4.1851,   -4.7431,   -5.0067,   -4.1500,   -3.6660,   -3.6306,   -3.4556,   -3.7229,   -3.9221,   -3.3906,   -3.1044,   -2.9520,   -3.0486,   -3.4911,   -3.6939,   -4.3586,   -3.8761,   -3.7578,   -3.7482,   -3.0537,   -2.5776,   -2.3499,   -2.0384,   -2.6098,   -3.2766,   -3.0973,   -2.2862,   -1.2438,   -0.9856,   -1.0287,   -1.0859,   -1.2950,   -1.2922,   -2.1943,   -2.1027,   -0.8504,    0.0542,    0.1049,   -0.0109,   -0.1948,   -0.2247,   -0.9706,    0.3221,    0.5313,   -0.3169,    0.0728,    0.4400,    0.0311,    1.0736,    0.3341,   -0.4979,   -1.1825,   -0.4632,   -0.6852,   -2.0756,   -2.4460,   -2.1698,   -0.4720,   -1.7532,
24-SEP-2002 21:08:48.66 ,   -4.0424,   -3.4023,   -2.3048,   -2.3278,   -2.8142,   -3.1539,   -3.3660,   -4.0789,   -4.3698,   -4.0259,   -3.6839,   -3.5664,   -3.5202,   -3.5469,   -3.2143,   -2.8172,   -2.5758,   -2.5516,   -2.8773,   -2.9601,   -3.2342,   -4.2089,   -3.2509,   -3.7622,   -3.8899,   -2.5020,   -1.9832,   -2.2774,   -1.8638,   -2.3197,   -2.6581,   -3.2140,   -3.3187,   -2.4962,   -1.8798,   -2.7385,   -2.3797,   -1.9831,   -2.3041,   -2.6659,   -2.2912,   -1.1887,    0.7707,    0.1543,   -0.9695,   -0.0000,   -0.2846,   -0.1882,    1.5096,    1.2654,   -0.6243,   -0.2628,    0.1683,   -0.6756,    2.1344,    1.3572,   -0.9237,   -0.9025,   -0.2662,   -0.9128,   -1.2247,   -2.5087,   -2.2482,   -1.3185,   -0.4584,
24-SEP-2002 21:11:30.00 ,   -3.5518,   -3.7861,   -2.6057,   -2.5405,   -2.4158,   -2.8966,   -3.3363,   -3.9752,   -4.1168,   -3.5171,   -2.8502,   -2.6390,   -2.9511,   -2.7830,   -2.5775,   -2.9198,   -2.7025,   -2.6858,   -2.9947,   -2.6578,   -2.7643,   -3.8107,   -2.3563,   -2.7171,   -2.0536,   -1.4955,   -2.0881,   -2.4625,   -2.1607,   -2.1165,   -2.7923,   -3.8688,   -4.1777,   -3.7740,   -3.1680,   -2.2520,   -2.2006,   -1.7779,   -2.1431,   -3.1063,   -2.4775,   -1.8701,   -1.0349,   -0.0911,   -0.5759,   -0.5911,   -0.0754,    0.4029,   -0.2018,   -0.4402,   -0.8897,   -0.6425,   -0.2454,    0.9617,    2.5934,    2.2543,    0.9165,   -0.8900,    0.5362,    0.7995,   -1.2061,   -1.2255,   -1.6772,   -1.4388,    0.0735,
24-SEP-2002 21:14:11.42 ,   -3.3413,   -3.1488,   -2.4821,   -2.4527,   -2.1186,   -3.2713,   -4.1941,   -4.9044,   -3.3665,   -2.5304,   -1.9716,   -1.7642,   -2.1304,   -2.0839,   -2.4919,   -2.7943,   -2.4632,   -2.4223,   -2.6554,   -2.5626,   -2.8240,   -3.5137,   -2.2361,   -2.2487,   -2.1146,   -1.7108,   -1.7933,   -1.8758,   -2.0647,   -1.3554,   -2.6397,   -3.2617,   -3.4550,   -3.1048,   -2.6143,   -2.7112,   -2.2786,   -1.7495,   -3.0702,   -2.7766,   -2.2139,   -2.4624,   -2.3397,   -1.3148,   -0.2839,   -0.4245,   -0.4410,    0.1533,   -0.2786,   -0.0049,   -0.3135,   -0.0374,   -0.0223,    1.9311,    2.9380,    2.6923,    1.1523,   -0.6121,    1.4873,    1.5850,   -1.1903,   -1.6537,   -2.4796,   -1.5757,    0.3235,
24-SEP-2002 21:16:52.68 ,   -3.1509,   -2.3759,   -1.7247,   -1.8656,   -2.0395,   -3.0107,   -3.8969,   -4.8083,   -2.4671,   -1.7813,   -1.5285,   -1.7057,   -1.6855,   -2.1015,   -2.3832,   -2.1727,   -2.1434,   -2.1531,   -2.3872,   -2.5765,   -2.7391,   -3.1384,   -2.1481,   -1.5736,   -1.8456,   -1.2800,   -1.0491,   -1.3088,   -1.7508,   -1.8430,   -2.5791,   -2.7767,   -2.7243,   -2.8056,   -3.1349,   -2.9335,   -2.4335,   -2.2977,   -2.6322,   -2.3845,   -2.4014,   -1.9452,   -1.1446,   -0.0408,    0.1110,   -0.4024,   -0.0343,    0.5061,   -0.0042,    0.2560,    0.5491,    0.7885,    1.1024,    1.3808,    2.5339,    0.9965,    0.1748,   -0.1616,   -0.0408,    0.2195,   -1.3680,   -1.6544,   -1.5740,   -1.1680,   -0.2386,
24-SEP-2002 21:19:34.16 ,   -4.1784,   -2.5062,   -1.9003,   -2.0051,   -2.5663,   -3.9885,   -4.7544,   -5.0859,   -3.5155,   -2.4225,   -1.5552,   -1.8060,   -1.9527,   -2.2540,   -2.2568,   -2.0653,   -2.1468,   -2.2932,   -2.4969,   -2.5115,   -2.7791,   -3.0973,   -2.8742,   -2.4189,   -2.4725,   -1.7599,   -1.8095,   -2.1402,   -2.2806,   -1.8504,   -1.7650,   -2.6051,   -3.1093,   -3.0410,   -2.2213,   -1.8597,   -2.7203,   -2.4087,   -2.6375,   -2.7159,   -1.5397,   -0.7468,   -0.0528,    0.3782,   -0.0326,   -0.7211,   -0.0804,   -0.0542,    0.6416,    0.2970,    0.0038,    0.2967,    0.8424,    0.6930,    0.5106,    0.2964,    1.2475,    0.2015,   -0.1828,   -0.1190,   -0.9687,   -1.7189,   -1.3620,   -1.1223,   -0.5418,
24-SEP-2002 21:22:15.23 ,   -3.6865,   -2.7324,   -1.7802,   -1.8913,   -2.6269,   -4.5648,   -5.1112,   -4.9904,   -3.9097,   -2.1624,   -1.2706,   -1.3565,   -1.8674,   -2.3045,   -2.3243,   -2.2111,   -2.1046,   -2.1727,   -2.5064,   -2.6987,   -2.6030,   -2.6920,   -3.1452,   -2.6749,   -2.6956,   -1.6570,   -1.7268,   -1.8489,   -1.5006,   -1.7311,   -2.0857,   -2.7729,   -3.0848,   -1.8742,   -0.4605,   -0.6050,   -1.5011,   -2.2447,   -1.9353,   -2.0743,   -1.4841,   -0.6146,   -0.4105,   -0.8252,   -0.3991,   -0.3394,   -0.4501,   -0.1659,    0.3613,    0.3827,    0.8537,    0.3707,    0.7435,    1.2793,    1.3412,    0.2061,   -0.0282,    0.0149,    0.7187,    0.1568,   -1.5582,   -2.7538,   -1.9158,   -0.8747,    0.0234,
24-SEP-2002 21:24:56.67 ,   -3.2463,   -2.7901,   -1.7478,   -2.1251,   -3.1902,   -4.3403,   -4.8013,   -4.7137,   -3.4125,   -1.8607,   -1.3296,   -1.9262,   -2.2210,   -2.5055,   -2.9178,   -2.9476,   -2.3988,   -2.2481,   -2.4100,   -2.8574,   -2.9475,   -2.9024,   -2.9384,   -2.9467,   -2.9051,   -2.5363,   -1.9224,   -1.5265,   -1.6650,   -2.1219,   -3.3872,   -3.0502,   -2.6203,   -1.6025,   -0.8203,   -1.4447,   -2.0746,   -3.5230,   -2.6303,   -2.0678,   -1.6776,   -0.7069,   -0.6629,   -0.5865,   -0.5367,    0.0345,   -0.0872,   -0.6291,   -1.0106,   -0.5226,   -0.0220,   -0.7145,    1.1321,    0.2525,    2.0890,    0.1416,   -0.3362,   -0.7868,   -1.5059,   -2.1338,   -3.4796,   -4.1465,   -2.4834,   -1.5877,   -0.8436,
24-SEP-2002 21:27:38.09 ,   -3.2276,   -2.4450,   -1.8288,   -2.0131,   -2.8410,   -3.6488,   -4.1599,   -4.1831,   -3.4145,   -2.1677,   -1.3254,   -2.1957,   -2.3997,   -2.5979,   -2.8636,   -2.9242,   -2.5540,   -2.4485,   -2.3380,   -2.4200,   -2.9110,   -3.1709,   -3.0671,   -2.4961,   -2.1196,   -2.3755,   -2.6891,   -2.9407,   -2.9008,   -1.8143,   -2.6148,   -3.9619,   -4.3217,   -3.1949,   -1.9457,   -2.6412,   -3.0172,   -2.1405,   -1.8771,   -2.1607,   -1.7551,   -1.3841,   -0.8813,   -0.3821,   -0.3589,   -0.3192,   -0.3222,   -0.3932,   -0.5171,   -0.4831,   -0.0017,   -0.3486,    0.1132,    2.3041,    1.6419,    0.7938,    0.1771,   -0.7784,   -0.5272,   -1.2221,   -3.2843,   -2.5677,   -1.8752,   -2.2309,   -2.1369,
24-SEP-2002 21:30:19.34 ,   -3.1776,   -1.8196,   -1.6845,   -1.6996,   -2.2405,   -3.4540,   -4.1109,   -4.0872,   -4.0499,   -2.9007,   -1.6394,   -1.7451,   -1.8690,   -2.2176,   -2.3380,   -2.5578,   -2.5379,   -2.6385,   -2.7818,   -2.6521,   -2.6256,   -2.6769,   -2.9751,   -2.5814,   -1.8080,   -1.8291,   -2.5263,   -2.7564,   -2.3213,   -2.1912,   -3.1655,   -3.5553,   -3.2872,   -2.8976,   -2.2284,   -3.8266,   -4.0111,   -1.8313,   -2.2614,   -2.1022,   -1.4349,   -1.8537,   -1.1438,   -0.7610,   -0.3741,   -0.5191,   -0.1533,   -0.0250,    0.1091,   -0.2912,    0.2674,    0.7865,    1.0962,    2.0267,    1.2518,    0.1396,   -0.2407,   -2.1519,   -1.6335,   -1.6090,   -3.0462,   -2.4985,   -3.2733,   -2.7807,   -1.9520,
24-SEP-2002 21:33:00.53 ,   -4.2812,   -2.4909,   -1.8088,   -2.0215,   -2.4931,   -4.1202,   -4.3458,   -4.1110,   -3.8468,   -2.8983,   -1.6731,   -1.4629,   -1.3525,   -1.7219,   -2.2012,   -2.7377,   -2.9618,   -2.9736,   -3.1831,   -3.2110,   -2.8637,   -2.7946,   -3.0815,   -2.6991,   -2.1912,   -1.7197,   -1.9744,   -2.1446,   -1.7035,   -1.7259,   -2.1632,   -2.4010,   -2.5444,   -2.4121,   -2.5270,   -2.8408,   -3.0150,   -1.9546,   -3.9446,   -3.4699,   -2.1701,   -1.4295,   -1.4178,   -0.7243,   -0.0050,   -0.0122,    0.3566,    0.4894,    0.7872,   -0.3646,   -0.3672,    0.3902,    0.7771,   -0.2485,    0.5579,   -0.0540,   -1.2154,   -1.3501,   -1.5212,   -1.9480,   -4.0397,   -3.6769,   -2.4457,   -2.2668,   -2.0092,
24-SEP-2002 21:35:41.61 ,   -3.8910,   -3.1523,   -2.4151,   -2.4188,   -3.1042,   -5.0544,   -4.9532,   -4.5907,   -4.0649,   -3.3026,   -1.9301,   -2.0960,   -1.8329,   -2.1350,   -2.5365,   -2.9298,   -3.2039,   -3.2169,   -3.1997,   -3.1867,   -2.8617,   -2.8934,   -3.0780,   -2.3470,   -1.6704,   -1.8494,   -2.5961,   -2.2643,   -2.1501,   -2.2405,   -2.3627,   -2.4272,   -2.5924,   -3.4409,   -2.7847,   -2.9470,   -3.1751,   -1.8695,   -3.3076,   -2.4736,   -1.7211,   -0.7125,   -0.5264,   -0.8940,   -0.5846,   -0.6278,   -0.9066,   -0.0367,    0.4209,   -0.3759,    0.1487,    1.0397,    0.0489,    0.3170,    0.3025,    0.5447,   -1.1526,   -2.4042,   -2.6113,   -4.6870,   -4.6309,   -3.0844,   -3.2403,   -2.4712,   -2.6125,
24-SEP-2002 21:38:22.79 ,   -3.4002,   -3.2591,   -3.3563,   -3.4945,   -4.0350,   -5.5301,   -5.7692,   -4.9840,   -4.2021,   -3.2595,   -2.2890,   -2.4214,   -2.5587,   -2.6360,   -2.7568,   -2.8752,   -3.1489,   -3.3800,   -3.3146,   -3.0942,   -2.5893,   -2.6877,   -2.2540,   -1.9245,   -2.0141,   -2.2505,   -2.5018,   -2.4628,   -2.3715,   -2.9352,   -3.1542,   -4.1061,   -4.7278,   -4.6844,   -3.9796,   -4.0801,   -4.1821,   -2.4902,   -2.9771,   -2.6148,   -2.4488,   -1.7085,   -1.1395,   -1.5380,   -1.1162,   -0.6011,   -1.5962,   -0.3026,   -0.1298,   -0.7672,   -0.2513,    2.0139,   -0.2365,   -0.2601,    0.7338,    0.6301,   -0.9750,   -1.2190,   -3.3772,   -3.4236,   -4.6528,   -3.2787,   -3.1060,   -1.4913,   -1.7741,
24-SEP-2002 21:41:04.13 ,   -3.3254,   -2.9340,   -2.8658,   -2.3712,   -3.9656,   -5.2982,   -5.5994,   -5.0123,   -4.1565,   -3.0888,   -3.0805,   -3.2576,   -2.9657,   -3.1318,   -3.1268,   -2.9656,   -3.1480,   -3.3535,   -3.4475,   -3.2640,   -2.6818,   -2.6412,   -1.4850,   -1.7133,   -1.8347,   -1.6195,   -1.2460,   -1.4636,   -1.8492,   -1.5760,   -2.7036,   -3.1527,   -2.7480,   -2.0525,   -2.1983,   -3.2337,   -3.1972,   -1.2247,   -1.5056,   -1.5768,   -2.9191,   -1.9453,   -0.6554,   -0.9207,   -1.1383,   -0.4236,   -0.8893,   -0.4123,   -1.1975,   -1.1448,    0.2518,    1.0365,    1.0994,    0.1200,    0.2654,   -0.1422,   -0.4457,   -0.2156,   -1.7150,   -2.2739,   -3.7626,   -3.9574,   -3.7952,   -2.5471,   -3.0836,
24-SEP-2002 21:43:45.23 ,   -3.6937,   -2.5358,   -1.5016,   -0.9674,   -2.4213,   -3.6117,   -4.3229,   -4.4038,   -4.2493,   -2.9492,   -2.8063,   -2.9120,   -2.3848,   -2.9352,   -3.4134,   -3.4695,   -3.5975,   -3.5654,   -3.7092,   -3.4408,   -2.7874,   -2.6693,   -1.7788,   -2.1949,   -2.3857,   -2.5415,   -2.3466,   -1.4563,   -1.4500,   -2.0862,   -2.7646,   -3.1009,   -2.5297,   -2.1697,   -2.2858,   -2.3673,   -2.5609,   -2.5023,   -4.2166,   -4.4294,   -3.5542,   -3.0794,   -2.0793,   -1.7642,   -1.0587,   -0.9057,    0.1105,   -0.2231,   -1.2881,   -1.1399,    0.8632,    0.5744,    0.3518,   -0.1366,   -0.3982,    0.0197,   -0.3552,   -0.2149,   -0.0118,   -1.2375,   -2.7736,   -2.8084,   -3.7911,   -2.8823,   -2.7409,
24-SEP-2002 21:46:26.85 ,   -4.7074,   -3.5199,   -2.0343,   -2.2095,   -1.7457,   -3.2637,   -3.9367,   -3.4339,   -3.2542,   -2.1262,   -1.7659,   -1.4781,   -1.5793,   -2.2184,   -2.8619,   -2.9283,   -3.2494,   -3.5222,   -3.7095,   -3.3164,   -2.5864,   -2.6604,   -2.6485,   -2.4152,   -2.7596,   -2.7904,   -2.8080,   -1.7131,   -1.7083,   -3.3047,   -3.5673,   -3.5539,   -3.3153,   -3.7479,   -4.0781,   -2.0325,   -1.2221,   -2.6729,   -4.2070,   -5.0351,   -3.8552,   -3.3604,   -1.9882,   -0.8612,   -1.2407,   -1.2323,   -0.6658,   -0.1846,    0.1876,    0.5016,    0.7620,    0.4215,    0.0539,    0.5164,   -0.1446,    0.7323,   -0.0476,   -0.9125,    0.4903,   -1.0099,   -3.2348,   -3.8502,   -3.5002,   -3.3631,   -3.3882,
24-SEP-2002 21:49:09.06 ,   -4.5311,   -3.7173,   -2.6409,   -2.5293,   -2.0508,   -3.7338,   -4.1315,   -4.0369,   -3.3555,   -2.2755,   -2.0525,   -1.9590,   -2.2282,   -2.7160,   -2.7756,   -2.5242,   -2.8440,   -3.0305,   -2.8216,   -2.5709,   -2.5500,   -2.6591,   -2.5385,   -2.4611,   -2.1861,   -2.0946,   -1.7959,   -1.3282,   -1.8307,   -2.7628,   -2.8164,   -2.9708,   -2.5752,   -2.4179,   -1.7525,   -1.7238,   -1.9139,   -2.1593,   -1.8661,   -3.2058,   -3.1879,   -3.0337,   -1.0349,   -0.2089,   -0.3881,   -0.5575,   -1.2675,   -0.4409,   -0.3824,    0.6720,    0.3522,    0.6444,    0.5167,    0.9094,    0.3314,    0.4287,    0.2519,   -0.4740,   -0.3716,   -1.5288,   -2.9005,   -3.5301,   -4.5651,   -5.4652,   -3.5052,
24-SEP-2002 21:51:50.45 ,  999.0000,  999.0000,  999.0000,  999.0000,   -2.4816,   -2.9321,   -3.0505,   -3.7698,   -3.5747,   -2.2089,   -2.1066,   -2.2692,   -2.0959,   -2.6597,   -2.4513,   -2.3897,   -2.6369,   -2.6405,   -2.2196,   -2.2347,   -2.9423,   -3.2618,   -2.4173,   -2.6391,   -2.5949,   -1.7185,   -1.6527,   -1.4896,   -1.4327,   -2.4557,   -3.2195,   -3.9581,   -3.1461,   -2.6174,   -2.8575,   -2.5876,   -1.9188,   -1.8259,   -3.1765,   -2.7235,   -2.2761,   -2.0051,   -1.1554,   -0.1985,    0.2301,    0.1556,    0.1166,   -0.4426,   -0.8808,   -1.0488,    0.6865,    1.1027,    0.8349,    0.3516,   -0.0220,    1.4074,   -0.0381,   -0.7977,   -1.1685,   -2.6931,   -3.7181,   -3.4148,   -4.0754,   -5.3379,   -4.6619,
24-SEP-2002 21:54:31.52 ,  999.0000,  999.0000,  999.0000,  999.0000,   -4.1810,   -4.8874,   -5.4099,   -4.8778,   -3.1186,   -3.2528,   -2.6830,   -2.0336,   -1.6177,   -2.1890,   -2.3585,   -2.6728,   -2.6976,   -2.7170,   -2.5440,   -2.6536,   -3.3817,   -3.8557,   -2.3458,   -2.6175,   -3.1087,   -2.6261,   -2.0182,   -1.5821,   -1.4622,   -2.4532,   -3.1147,   -3.0252,   -2.9008,   -2.7601,   -2.8258,   -2.2829,   -1.6821,   -0.8423,   -1.6718,   -2.0962,   -1.6966,   -1.4464,   -0.4391,   -0.5308,   -0.0996,   -0.2173,   -0.3947,   -1.2128,   -1.8127,   -1.8286,   -0.1570,    0.0768,   -0.2731,    0.7365,    0.4841,    0.5942,   -0.3925,   -1.6560,   -2.8668,   -2.6431,   -3.9926,   -5.2374,   -4.3203,   -5.2832,   -5.6776,
24-SEP-2002 21:57:12.88 ,   -5.5550,   -4.8864,   -3.8189,   -3.0601,   -4.1925,   -5.7214,   -6.7065,   -5.5693,   -3.1255,   -3.0543,   -2.3432,   -1.5180,   -1.4920,   -2.1109,   -2.2344,   -2.5497,   -2.6184,   -2.4689,   -2.5992,   -3.0011,   -3.4980,   -3.7211,   -3.1875,   -2.9590,   -2.9060,   -2.5934,   -2.9618,   -3.1250,   -2.1775,   -2.3331,   -3.2259,   -3.6285,   -3.6334,   -3.1293,   -3.1029,   -2.9649,   -2.7667,   -1.4425,   -1.9245,   -2.2671,   -1.4478,   -1.0757,   -0.5071,    0.0496,    0.3731,   -0.1298,   -0.5626,   -1.2882,   -2.0481,   -1.2978,   -0.1032,   -0.1105,    0.3070,    1.3570,   -0.1712,   -0.5940,    0.1533,   -0.2931,   -1.0169,   -2.6290,   -3.3692,   -3.3251,   -3.2542,   -4.4266,   -4.0924,
24-SEP-2002 21:59:54.12 ,   -4.0785,   -2.9253,   -1.9842,   -1.2021,   -3.3661,   -4.6335,   -5.1511,   -4.6015,   -3.7733,   -2.5161,   -1.7913,   -1.1186,   -0.9320,   -1.5150,   -1.5372,   -1.8241,   -1.9798,   -1.8638,   -2.3533,   -2.6897,   -2.7507,   -2.9095,   -2.9515,   -2.5099,   -2.2932,   -2.4479,   -2.4451,   -2.2026,   -1.7930,   -2.4949,   -3.4409,   -4.0820,   -4.3703,   -3.9381,   -3.3540,   -2.6218,   -1.8462,   -0.5297,   -1.1868,   -1.4499,   -1.1091,   -1.6673,   -2.1155,   -0.5469,   -0.0376,   -0.3003,   -1.0797,   -1.2139,   -0.9757,   -0.8249,   -0.2365,   -0.1085,    1.4364,    0.7127,   -1.2735,    0.0023,   -0.6456,   -0.6813,   -0.5386,   -2.6200,   -5.1307,   -3.3547,   -3.0063,   -3.9543,   -4.4112,
24-SEP-2002 22:02:35.89 ,   -3.9737,   -3.1382,   -1.3576,   -1.2960,   -3.4475,   -3.6579,   -3.7786,   -4.1308,   -4.4045,   -3.6167,   -2.7856,   -2.0055,   -2.0036,   -2.2530,   -2.1294,   -2.0594,   -2.1025,   -2.0704,   -2.2833,   -2.3786,   -2.4118,   -2.8974,   -3.1589,   -3.4445,   -3.2227,   -2.8350,   -2.8759,   -2.5608,   -1.7067,   -2.8754,   -3.5317,   -3.6355,   -3.6541,   -3.6460,   -3.0833,   -2.9213,   -1.6991,   -0.6861,   -1.5270,   -1.9701,   -2.3295,   -2.6235,   -3.6132,   -2.0154,   -0.2592,   -0.5586,   -1.0502,   -1.3674,   -1.2033,   -1.0673,    0.2887,   -0.6303,   -0.4850,   -0.3441,    0.0842,    0.1688,   -1.0509,   -0.6163,   -0.8399,   -3.0027,   -5.6969,   -5.2160,   -2.8944,   -2.0464,   -4.4795,
24-SEP-2002 22:05:17.21 ,   -3.2703,   -2.6418,   -1.1382,   -0.9979,   -2.5271,   -3.7880,   -3.5110,   -3.8246,   -4.2887,   -3.7171,   -2.9007,   -2.3909,   -2.6113,   -2.9194,   -2.6599,   -2.3413,   -2.2226,   -2.5026,   -2.6673,   -2.7363,   -2.9171,   -3.6869,   -3.3682,   -3.9562,   -4.2935,   -4.5034,   -3.6857,   -3.1394,   -2.8008,   -2.9297,   -2.9430,   -3.3406,   -4.2709,   -4.2261,   -3.0942,   -3.3972,   -1.8035,   -1.6000,   -0.8655,   -2.1587,   -1.8908,   -1.7781,   -1.9936,   -0.7788,   -0.1541,   -0.2601,   -1.0108,   -1.8290,   -2.0400,   -1.1706,   -0.3605,    0.4036,    0.5997,    1.4577,   -0.2435,   -0.5530,   -0.9127,   -1.2594,   -0.8469,   -3.5456,   -4.1540,   -3.6504,   -2.9048,   -2.8737,   -4.6842,
24-SEP-2002 22:07:58.16 ,   -3.9136,   -3.1205,   -2.1525,   -2.2518,   -2.9850,   -4.7546,   -3.9670,   -3.8519,   -3.8371,   -3.4953,   -2.6863,   -2.1181,   -2.3013,   -2.6447,   -2.6043,   -2.6350,   -2.7925,   -3.0890,   -3.2571,   -3.2396,   -3.3076,   -3.9048,   -2.4908,   -3.3918,   -3.9741,   -3.7649,   -2.5228,   -2.4722,   -2.7238,   -2.7975,   -3.0396,   -3.2637,   -3.1478,   -3.1572,   -3.2733,   -2.3586,   -1.5586,   -0.9482,   -0.3100,   -2.3639,   -2.2718,   -2.3851,   -2.0102,   -0.7725,   -0.4355,   -0.5206,   -1.2112,   -2.1848,   -2.5665,   -0.4841,    0.3901,    1.2847,   -0.0726,    0.9604,    0.0989,    0.0608,   -0.3837,    0.1513,   -0.7292,   -2.2816,   -3.1272,   -1.6541,   -1.7958,   -3.7064,   -6.0947,
24-SEP-2002 22:10:39.79 ,   -4.9802,   -3.6528,   -2.7147,   -2.8677,   -3.7111,   -3.9014,   -3.6673,   -3.7622,   -3.4283,   -3.3745,   -2.8009,   -2.2801,   -2.3040,   -2.1959,   -2.1391,   -2.2534,   -2.6575,   -3.0704,   -3.3291,   -3.1579,   -3.0244,   -3.6520,   -2.9973,   -2.9724,   -3.1111,   -3.1566,   -2.3488,   -2.4658,   -2.8424,   -3.3671,   -3.6876,   -3.4024,   -3.4090,   -3.8035,   -3.8459,   -3.1813,   -3.3594,   -2.4284,   -0.5970,   -1.7349,   -2.6045,   -3.0035,   -3.1477,   -0.6737,   -0.7313,   -0.6866,   -0.3587,   -2.1583,   -1.1113,   -0.6901,    0.0079,    0.2456,    0.4957,    0.5566,    0.2089,   -0.1098,   -0.2222,   -0.0190,   -1.8424,   -3.0436,   -3.0349,   -1.6314,   -1.8261,   -3.1043,   -4.2789,
24-SEP-2002 22:13:20.92 ,   -3.6403,   -2.4188,   -1.9524,   -1.3067,   -3.0365,   -3.3759,   -3.4748,   -3.6246,   -3.0675,   -2.8593,   -2.2506,   -2.3718,   -2.5896,   -2.2417,   -1.9410,   -1.9564,   -2.1368,   -2.6727,   -2.9427,   -2.9436,   -3.0504,   -3.5453,   -3.1841,   -3.4869,   -3.7227,   -3.4466,   -2.2066,   -2.1950,   -2.6726,   -3.4487,   -3.6700,   -3.5867,   -3.7223,   -3.5082,   -2.9043,   -2.5742,   -3.1991,   -1.8194,   -0.3174,   -1.2022,   -2.1706,   -3.5110,   -4.2470,   -1.3284,   -0.6398,   -0.6193,   -0.5404,   -1.6071,   -1.5213,   -0.4538,   -0.2249,   -0.2615,   -0.1975,    0.1365,   -0.3256,   -1.1572,   -1.0421,   -0.7275,   -2.4466,   -3.2490,   -2.6348,   -2.2866,   -2.3557,   -4.3715,   -5.9193,
24-SEP-2002 22:16:02.04 ,   -3.7941,   -3.4350,   -3.6452,   -3.3920,   -4.7276,   -5.0806,   -4.9023,   -4.4488,   -3.8534,   -3.2213,   -2.7480,   -2.8860,   -3.4254,   -3.0961,   -2.5210,   -2.0610,   -1.8432,   -2.0592,   -2.5876,   -3.0343,   -3.3068,   -3.6483,   -3.3538,   -3.6366,   -3.9911,   -3.5156,   -2.5941,   -2.0209,   -2.0413,   -1.8312,   -2.2926,   -2.8532,   -3.0832,   -3.2876,   -2.7904,   -2.1122,   -2.2499,   -0.5452,   -0.3021,   -0.5747,   -1.2983,   -2.1050,   -2.1773,   -1.1246,   -1.1415,   -1.3395,   -1.2723,   -1.9294,   -1.6983,   -1.1950,    0.1532,    0.5220,    0.4332,    1.7502,   -0.0169,   -0.6482,   -0.5586,   -0.9838,   -1.0277,   -2.2920,   -3.7696,   -3.7571,   -2.4323,   -3.7675,   -5.4281,
24-SEP-2002 22:18:43.63 ,   -4.0576,   -3.4724,   -3.7240,   -3.6033,   -4.8240,   -4.9536,   -4.7805,   -4.5957,   -3.8318,   -3.3107,   -3.1385,   -3.2849,   -3.4581,   -3.0991,   -2.5668,   -1.9367,   -1.8763,   -2.2141,   -2.7492,   -3.6424,   -3.9882,   -3.8551,   -4.1148,   -4.3211,   -4.7187,   -3.9187,   -2.9351,   -2.1494,   -2.3748,   -2.7241,   -2.9462,   -3.3937,   -3.7447,   -3.3989,   -3.1797,   -2.9270,   -2.7273,   -0.8709,   -0.8014,   -1.1926,   -1.4577,   -2.2507,   -3.1155,   -1.6606,   -1.5538,   -2.3359,   -2.5110,   -3.2240,   -2.0375,   -1.9569,   -0.2525,   -0.3622,    0.2850,    0.2174,   -0.0329,    0.4252,   -0.6656,   -1.9207,   -2.2528,   -3.9806,   -4.2344,   -5.5115,   -4.9157,   -5.3485,   -5.4363,
24-SEP-2002 22:21:24.78 ,   -3.9005,   -2.6050,   -1.8424,   -1.5683,   -3.5815,   -3.8280,   -4.2753,   -4.4670,   -3.6884,   -3.0304,   -2.6568,   -3.0544,   -3.1170,   -2.8853,   -2.5336,   -2.2064,   -2.4322,   -2.8349,   -3.1026,   -3.6929,   -3.8732,   -4.0045,   -4.1173,   -4.1885,   -4.2433,   -3.6797,   -2.8092,   -2.6699,   -2.6245,   -2.9565,   -3.2337,   -3.6362,   -3.9662,   -3.5457,   -3.0555,   -2.9501,   -2.4653,   -1.7315,   -1.5181,   -0.5165,   -0.8848,   -1.3743,   -1.6923,   -2.0645,   -2.1412,   -1.6665,   -2.3811,   -2.7883,   -2.3204,   -1.8499,   -0.5021,   -0.2706,   -0.1938,   -0.6218,   -0.0727,   -0.4169,   -1.6348,   -2.8945,   -3.2302,   -4.5580,   -5.0197,   -5.2808,   -4.5798,   -4.7063,   -3.6463,
24-SEP-2002 22:24:06.03 ,   -4.8212,   -3.5692,   -2.9186,   -1.7795,   -3.6588,   -4.2506,   -5.1035,   -4.8222,   -4.1276,   -3.3545,   -2.7658,   -3.2014,   -3.4361,   -3.2992,   -2.8914,   -2.4953,   -2.7456,   -2.8252,   -3.0293,   -3.2275,   -3.4350,   -4.2442,   -4.2134,   -4.7217,   -4.2224,   -3.6137,   -3.2736,   -3.3629,   -3.2418,   -2.7883,   -2.8167,   -3.8055,   -4.3639,   -4.2171,   -2.9160,   -1.9037,   -2.4161,   -1.8162,   -2.4267,   -0.8454,   -1.0841,   -2.4529,   -2.1588,   -1.5371,   -1.1993,   -1.7632,   -1.8586,   -2.8642,   -2.8937,   -2.9143,   -1.2579,   -0.2718,   -0.3201,   -1.0004,    0.6835,    0.2047,   -1.2108,   -1.9196,   -1.3921,   -3.5710,   -4.2635,   -4.2200,   -4.0157,   -4.4492,   -4.6357,
24-SEP-2002 22:26:47.22 ,   -4.2177,   -3.8807,   -2.6012,   -1.3168,   -2.4522,   -3.5581,   -4.6127,   -3.7522,   -3.5772,   -3.2548,   -3.1730,   -3.3836,   -3.6095,   -3.4409,   -2.6889,   -2.1567,   -2.6240,   -2.7224,   -3.0082,   -3.4642,   -4.1146,   -4.0186,   -4.0608,   -4.1603,   -3.7351,   -3.0853,   -2.6119,   -2.2434,   -1.9687,   -2.1166,   -2.7691,   -3.3489,   -3.9655,   -3.8000,   -3.0845,   -1.9063,   -1.7490,   -0.7364,   -1.0962,   -0.4104,   -1.5007,   -2.4404,   -2.0340,   -1.4254,   -1.7687,   -1.6058,   -1.4022,   -2.5719,   -1.6354,   -2.5396,   -0.7688,   -0.8470,   -0.7816,   -1.1235,   -1.1643,   -0.2865,   -0.8227,   -1.0135,   -2.8256,   -4.3326,   -4.8028,   -5.0155,   -3.9669,   -3.1826,   -3.4906,
24-SEP-2002 22:29:28.33 ,   -3.3412,   -2.3472,   -1.5678,   -1.2551,   -1.2957,   -2.0238,   -2.6570,   -2.2427,   -2.4993,   -2.6549,   -3.0594,   -3.1894,   -3.4366,   -3.4114,   -2.5629,   -2.0568,   -2.3928,   -2.4501,   -2.6951,   -3.2652,   -4.0821,   -3.4816,   -3.7278,   -3.6339,   -2.8674,   -1.9164,   -1.2467,   -0.8944,   -1.2027,   -2.4333,   -3.0446,   -3.0128,   -3.1313,   -3.5535,   -3.0943,   -1.6801,   -1.7441,   -0.6651,   -0.6885,   -0.6260,   -0.3807,   -0.8140,   -1.5392,   -0.7238,   -0.7442,   -1.1722,   -2.1153,   -2.6239,   -1.3240,   -1.1132,   -0.2475,    0.3658,    0.9105,   -0.5266,   -0.6226,   -0.2467,   -0.4195,    0.0116,   -1.5752,   -2.8649,   -5.3483,   -3.8938,   -2.9780,   -3.3234,   -3.5499,
24-SEP-2002 22:32:09.61 ,   -4.0187,   -1.7937,   -1.0020,   -1.0614,   -2.2959,   -2.6362,   -2.5076,   -2.7495,   -2.7443,   -2.6630,   -2.8072,   -2.8136,   -3.1773,   -3.0053,   -2.4547,   -2.1132,   -2.0080,   -2.0171,   -2.1633,   -2.9496,   -3.5150,   -3.2411,   -2.8536,   -3.2680,   -2.6299,   -3.1027,   -3.0150,   -2.6533,   -2.4037,   -2.1334,   -2.0671,   -2.6742,   -3.0720,   -2.4806,   -2.1872,   -1.2159,   -1.2450,   -0.4519,   -0.6583,   -1.5278,   -0.2425,   -1.7962,   -3.5802,   -2.8408,   -1.8216,   -2.9100,   -1.9079,   -2.5305,   -1.6688,   -0.9320,   -0.9430,   -0.6541,    0.2836,   -1.3742,   -1.3545,   -0.1432,   -1.3469,   -1.1430,   -2.5473,   -3.3639,   -5.3295,   -3.8085,   -3.4228,   -4.0586,   -4.3972,
24-SEP-2002 22:34:50.87 ,   -3.7712,   -2.6007,   -1.8954,   -2.1489,   -2.8622,   -3.4868,   -3.8414,   -3.9014,   -3.2124,   -2.7874,   -2.4930,   -2.7032,   -3.0652,   -2.8444,   -1.9551,   -1.7387,   -1.7966,   -1.9503,   -2.1561,   -2.5443,   -2.7920,   -2.8428,   -3.2658,   -2.5092,   -1.9123,   -2.9223,   -3.8409,   -3.3128,   -2.0751,   -2.1633,   -2.5178,   -3.1669,   -3.2868,   -3.0932,   -3.0334,   -2.4577,   -2.3524,   -1.0523,   -2.0217,   -1.5814,   -0.6874,   -2.2914,   -2.2563,   -1.4981,   -1.5690,   -3.0955,   -0.5961,   -1.1565,   -1.7152,   -1.9762,   -2.6258,   -1.6384,   -1.7874,   -1.7029,   -2.0817,   -1.3237,   -1.9832,   -1.5948,   -2.7674,   -4.2581,   -4.5267,   -4.1006,   -3.7181,   -3.4471,   -3.5854,
24-SEP-2002 22:37:32.08 ,   -4.5230,   -3.9154,   -3.3133,   -3.2252,   -2.8225,   -3.4137,   -3.7399,   -3.8394,   -3.1938,   -2.9911,   -2.3385,   -2.7458,   -2.6000,   -2.5549,   -1.6691,   -1.3026,   -1.3486,   -1.6852,   -2.3008,   -2.3319,   -2.6750,   -2.8158,   -2.4403,   -1.9943,   -1.8724,   -2.3032,   -3.0176,   -2.7988,   -2.1116,   -2.2950,   -2.9141,   -2.9976,   -2.8272,   -3.0204,   -2.8965,   -2.4467,   -2.5389,   -0.8131,   -1.2146,   -1.6641,   -1.3711,   -2.6464,   -2.2125,   -1.9511,   -1.4489,   -0.4679,   -0.1182,   -0.7798,   -2.2370,   -1.8402,   -2.3083,   -2.8944,   -0.7621,   -1.4496,   -1.1006,   -1.2810,   -1.6368,   -2.8015,   -3.7463,   -5.1068,   -5.2909,   -4.8846,   -4.2737,   -3.6071,   -3.5773,
24-SEP-2002 22:40:14.61 ,   -3.8129,   -3.1895,   -2.1856,   -2.2473,   -2.9877,   -3.0871,   -3.1655,   -3.2958,   -3.0889,   -2.9635,   -2.4008,   -2.7497,   -2.8037,   -2.6200,   -1.7661,   -1.4121,   -2.0550,   -2.3452,   -2.8334,   -3.0458,   -3.4464,   -3.6310,   -2.9663,   -3.0370,   -2.9984,   -2.4135,   -2.3651,   -2.7408,   -3.0326,   -2.9080,   -2.4502,   -2.3547,   -2.6924,   -3.1779,   -2.5057,   -3.0107,   -3.4460,   -0.9897,   -2.1351,   -1.4722,   -0.8652,   -2.4867,   -2.6685,   -2.6337,   -1.6620,   -1.2871,   -0.6973,   -2.1123,   -2.5144,   -2.4792,   -3.4640,   -3.4660,   -1.0465,   -2.0559,   -1.0065,   -0.9409,   -2.0202,   -3.2786,   -3.5680,   -4.9530,   -4.6606,   -4.0775,   -3.9234,   -4.9902,   -5.0187,
24-SEP-2002 22:42:55.84 ,   -3.3016,   -2.8720,   -1.6401,   -1.5730,   -2.4069,   -2.4376,   -2.6515,   -3.0749,   -2.8260,   -2.7287,   -2.3131,   -2.3877,   -3.0134,   -2.6921,   -1.9478,   -2.0066,   -2.9229,   -3.1685,   -3.2579,   -3.4339,   -3.4342,   -3.5420,   -3.5857,   -3.8245,   -3.3564,   -2.6699,   -2.9032,   -3.6437,   -3.7596,   -3.3818,   -3.0431,   -3.5919,   -3.9599,   -4.2132,   -3.7662,   -3.7153,   -3.3347,   -1.4658,   -2.5437,   -3.1351,   -2.8593,   -3.2518,   -1.5420,   -1.5430,   -1.2996,   -1.5548,   -1.8253,   -3.2517,   -1.4892,   -1.9095,   -1.5542,   -1.6659,   -1.9994,   -1.4398,   -2.3729,   -1.3285,   -1.9942,   -3.4678,   -5.1376,   -5.5608,   -5.3896,   -4.6591,   -2.7530,   -5.4455,   -6.3691,
24-SEP-2002 22:45:37.06 ,   -3.8181,   -3.0485,   -2.3932,   -2.0837,   -2.8362,   -2.5822,   -2.8227,   -2.9792,   -2.7454,   -2.6862,   -2.3851,   -2.1701,   -2.6086,   -2.2638,   -2.0153,   -2.5255,   -2.8889,   -3.2339,   -3.4958,   -3.6283,   -3.4604,   -3.1573,   -3.8466,   -3.5175,   -3.0198,   -3.5839,   -4.0672,   -2.6348,   -1.5881,   -2.4984,   -2.2993,   -2.9566,   -3.5206,   -3.2269,   -3.5259,   -3.7255,   -3.4751,   -3.3932,   -3.6742,   -4.2857,   -3.1467,   -3.4242,   -2.1240,   -1.8603,   -1.1373,   -1.4582,   -1.6618,   -0.9275,   -1.3312,   -1.5834,   -0.9403,   -0.7032,   -0.7605,   -1.2378,   -1.6807,   -1.1709,   -1.3247,   -1.6303,   -3.8263,   -3.9341,   -4.3154,   -3.8632,   -3.5249,   -3.5595,   -5.4405,
24-SEP-2002 22:48:18.20 ,   -3.3250,   -2.2770,   -2.0386,   -2.2247,   -3.0273,   -2.8044,   -3.0539,   -2.5294,   -2.2455,   -1.9456,   -1.8412,   -2.4111,   -2.7149,   -2.3450,   -2.0478,   -2.7411,   -3.1492,   -3.3904,   -3.7842,   -3.9658,   -3.8909,   -3.5232,   -2.3761,   -2.2730,   -2.5413,   -2.9607,   -2.9763,   -2.5321,   -2.3666,   -3.0363,   -2.3892,   -2.7606,   -3.5324,   -4.0853,   -4.3031,   -3.0434,   -2.7906,   -2.2731,   -2.3550,   -2.6154,   -3.1328,   -3.2407,   -1.0105,   -1.7827,   -0.9685,   -2.2776,   -2.3926,   -0.6553,   -1.5935,   -1.5672,   -0.4980,    0.0451,    0.0611,   -0.8725,   -0.9818,   -1.4397,   -1.1579,   -0.8202,   -2.8736,   -4.6541,   -5.2832,   -4.9410,   -4.4285,   -4.1756,   -4.5963,
24-SEP-2002 22:50:59.59 ,   -3.5679,   -2.3673,   -1.9988,   -2.3510,   -2.7979,   -2.9778,   -2.9300,   -1.8429,   -1.4739,   -1.1682,   -1.3974,   -2.2696,   -2.7224,   -2.2182,   -1.6719,   -2.4143,   -3.0895,   -3.1773,   -3.3995,   -3.6979,   -3.9716,   -3.9914,   -2.7504,   -2.5042,   -3.0467,   -3.1732,   -2.9776,   -2.6903,   -2.7667,   -2.7416,   -2.8875,   -3.0684,   -3.0532,   -3.7210,   -3.6393,   -2.9531,   -3.0528,   -2.4046,   -1.7007,   -2.0982,   -2.6072,   -3.8785,   -2.6972,   -2.1513,   -1.5975,   -1.8156,   -2.7132,   -2.0586,   -1.9438,   -2.9158,   -1.5783,   -1.0242,   -0.2445,   -0.6514,   -1.3151,   -1.7779,   -2.3522,   -1.5400,   -3.2172,   -4.8196,   -5.7476,   -4.7897,   -4.3539,   -4.5560,   -5.0156,
24-SEP-2002 22:53:41.33 ,   -3.5971,   -2.6953,   -2.3577,   -2.5168,   -3.4610,   -3.6707,   -3.2736,   -1.7931,   -1.4400,   -1.3268,   -1.5005,   -2.1103,   -2.3775,   -1.9992,   -1.7080,   -2.3537,   -3.0784,   -3.2964,   -3.4277,   -3.5503,   -3.9219,   -4.2568,   -3.3737,   -3.5689,   -3.4023,   -3.4759,   -3.8054,   -3.5532,   -2.4090,   -2.2948,   -2.7114,   -2.6939,   -2.7226,   -4.5053,   -4.5475,   -2.8082,   -3.0304,   -2.4859,   -1.6078,   -1.7797,   -2.2590,   -2.4254,   -2.8840,   -2.6476,   -1.6277,   -0.9288,   -2.0843,   -1.5914,   -1.9076,   -1.7092,   -1.0483,   -1.2057,    0.2561,   -0.5607,   -1.1263,   -1.6380,   -1.1321,   -0.9026,   -2.1716,   -4.4254,   -4.6490,   -4.1418,   -4.3726,   -4.4548,   -5.0232,
24-SEP-2002 22:56:22.86 ,   -3.3812,   -3.0838,   -2.2736,   -2.5471,   -3.4772,   -3.4189,   -3.0876,   -2.0697,   -1.8360,   -1.6357,   -1.7414,   -2.5212,   -2.4336,   -1.9148,   -1.5064,   -1.9714,   -2.6417,   -2.8711,   -3.1138,   -3.0750,   -3.0823,   -3.1938,   -2.6893,   -2.8629,   -2.9150,   -2.9249,   -3.1911,   -3.1617,   -2.5620,   -2.1273,   -2.7706,   -3.3940,   -3.3618,   -3.6678,   -3.9130,   -3.2952,   -3.2514,   -2.8870,   -1.8534,   -0.5757,   -0.9101,   -1.0756,   -1.9114,   -2.5101,   -1.0734,   -1.5296,   -1.4664,   -1.6324,   -1.9880,   -1.5694,   -1.5342,   -1.1750,   -0.0612,   -0.7813,   -1.1078,   -1.7864,   -1.8936,   -2.9650,   -2.9379,   -3.4458,   -4.1880,   -3.8317,   -3.5159,   -4.2130,   -4.0730,
24-SEP-2002 22:59:03.78 ,   -3.6789,   -3.3845,   -2.6172,   -3.0301,   -3.4669,   -3.2677,   -2.9762,   -2.1287,   -1.9172,   -1.9067,   -2.3701,   -2.7563,   -2.3577,   -1.4781,   -1.0949,   -1.1178,   -1.7387,   -2.0458,   -2.1319,   -2.0989,   -2.2117,   -2.4514,   -1.6906,   -2.4748,   -3.1102,   -2.8686,   -3.1620,   -3.5538,   -3.3958,   -2.6765,   -2.8013,   -3.3211,   -3.3994,   -3.0927,   -3.8494,   -2.3976,   -1.8820,   -1.9110,   -2.7503,   -1.3457,   -1.5289,   -2.1527,   -2.5839,   -3.2898,   -1.4253,   -1.5391,   -1.3673,   -1.3009,   -2.1021,   -2.8615,   -1.5734,   -0.1958,   -0.5079,   -1.2293,   -1.0260,   -1.0451,   -2.6826,   -4.0859,   -3.7208,   -4.0101,   -3.9961,   -3.6495,   -3.4243,   -3.5288,   -2.6848,
24-SEP-2002 23:01:44.91 ,   -4.1373,   -3.1029,   -3.0378,   -3.5029,   -3.5895,   -3.6979,   -3.3151,   -2.1995,   -1.7759,   -2.0436,   -2.5317,   -2.6348,   -2.5024,   -1.7363,   -1.2858,   -1.1764,   -1.6335,   -2.1487,   -2.0438,   -1.7474,   -1.9122,   -2.4433,   -2.0737,   -2.1698,   -2.8469,   -3.0696,   -3.1908,   -2.8030,   -2.3773,   -1.6822,   -0.8239,   -1.5675,   -2.6476,   -3.2573,   -3.6481,   -1.9534,   -1.2985,   -1.4060,   -1.2000,   -1.5242,   -1.6080,   -1.3725,   -1.5329,   -1.4979,   -1.3535,   -1.0534,   -1.5013,   -1.7458,   -2.3743,   -3.2169,   -2.3028,   -0.3296,    0.4546,   -0.4110,   -1.2525,   -2.3217,   -1.9076,   -2.3452,   -3.3256,   -4.3512,   -4.0308,   -3.4940,   -3.2467,   -2.8778,   -2.8397,
24-SEP-2002 23:04:26.12 ,   -4.4797,   -3.3581,   -3.3283,   -3.4084,   -3.6379,   -3.3367,   -3.1645,   -2.4904,   -1.9723,   -1.9192,   -2.0258,   -2.3822,   -2.7648,   -2.4295,   -1.9832,   -2.2312,   -2.6815,   -3.1503,   -3.1204,   -2.6947,   -2.4745,   -2.5917,   -3.3698,   -2.8048,   -3.2821,   -3.8799,   -3.7049,   -3.2593,   -2.7917,   -2.4334,   -1.7040,   -1.8180,   -2.0790,   -2.7219,   -4.1830,   -3.2535,   -2.0800,   -1.3008,   -1.9778,   -2.0684,   -1.6584,   -1.7257,   -2.2561,   -2.0074,   -1.3751,   -1.0528,   -1.9101,   -2.1170,   -2.2311,   -1.8342,   -1.7210,   -0.4741,   -1.3425,   -1.0354,   -0.8315,   -1.7017,   -1.3250,   -1.8197,   -3.5592,   -3.2327,   -2.7476,   -2.4972,   -1.8718,   -2.4215,   -3.4860,
24-SEP-2002 23:07:07.23 ,   -4.2219,   -3.2129,   -3.3769,   -3.7446,   -3.8652,   -3.2894,   -3.0030,   -3.0889,   -2.5831,   -2.2208,   -2.4251,   -3.0702,   -3.1050,   -2.6220,   -2.9047,   -3.4227,   -3.8241,   -4.2463,   -4.3373,   -3.7975,   -3.2071,   -3.2895,   -3.2129,   -2.0041,   -2.0424,   -2.5532,   -2.4091,   -2.7295,   -2.9327,   -2.3881,   -1.5801,   -1.7408,   -2.2841,   -2.8997,   -4.4356,   -3.7973,   -2.7565,   -2.1858,   -2.2631,   -2.0188,   -1.7925,   -2.0915,   -2.5338,   -2.7271,   -1.8777,   -2.4472,   -3.5892,   -2.2058,   -2.9301,   -3.1351,   -3.3565,   -1.5516,   -1.6824,   -2.1867,   -1.4932,   -2.6509,   -0.6373,   -2.9937,   -2.9254,   -2.8345,   -2.8614,   -2.3822,   -1.1047,   -2.1450,   -3.0703,
24-SEP-2002 23:09:49.06 ,   -3.2955,   -2.3769,   -2.3815,   -3.0839,   -3.4077,   -2.8746,   -2.4974,   -2.6889,   -1.9281,   -1.9403,   -2.7908,   -3.6791,   -3.1710,   -2.6108,   -2.9198,   -3.1886,   -3.7677,   -4.2748,   -4.1738,   -3.4985,   -2.9409,   -3.3812,   -3.3911,   -2.7493,   -3.1530,   -3.4997,   -3.2723,   -2.5520,   -2.1851,   -1.5874,   -1.9852,   -2.6484,   -3.3180,   -2.9207,   -4.0777,   -4.8650,   -5.1204,   -3.8482,   -3.2027,   -3.4907,   -4.2372,   -4.2945,   -3.0163,   -3.0594,   -3.0579,   -3.7249,   -3.6858,   -4.2169,   -4.2256,   -3.3995,   -2.7389,   -1.2230,   -1.1521,   -1.8529,   -1.7020,   -1.4891,   -1.4494,   -3.4605,   -2.6871,   -1.6817,   -2.2403,   -1.8591,   -2.0665,   -1.3759,   -2.1838,
24-SEP-2002 23:12:30.29 ,   -3.2135,   -2.0117,   -1.3339,   -1.4230,   -2.6714,   -2.1899,   -1.9592,   -1.5167,   -1.8592,   -2.3545,   -3.7216,   -4.7046,   -3.9034,   -3.0034,   -2.7201,   -2.7144,   -3.5395,   -4.0211,   -3.9380,   -3.3783,   -3.2181,   -3.7015,   -3.0831,   -3.2889,   -2.8515,   -2.9579,   -3.3229,   -3.4738,   -3.0986,   -1.4333,   -1.3476,   -1.5603,   -2.9157,   -3.2386,   -4.5313,   -4.1496,   -4.4096,   -2.6306,   -3.0502,   -3.2175,   -2.5746,   -2.6924,   -2.3272,   -2.5884,   -1.7054,   -3.0978,   -4.5825,   -4.3650,   -3.9308,   -2.3890,   -1.8144,   -1.1448,   -0.9529,   -1.6331,   -2.0555,   -1.7086,   -2.2643,   -3.3990,   -3.1615,   -2.2801,   -2.3832,   -3.1075,   -2.5148,   -2.4141,   -1.6055,
24-SEP-2002 23:15:11.32 ,   -4.4690,   -2.3026,   -1.5508,   -1.2409,   -2.7304,   -2.9637,   -2.1433,   -1.3278,   -2.4951,   -3.0840,   -4.4029,   -5.1293,   -4.5076,   -3.7507,   -2.9094,   -2.9444,   -3.8448,   -4.1190,   -4.2560,   -3.9734,   -4.0645,   -4.0917,   -3.6653,   -3.9058,   -2.5735,   -2.7477,   -3.8070,   -4.2274,   -3.4356,   -2.3664,   -2.3877,   -2.4987,   -3.0197,   -2.6800,   -3.5269,   -4.2180,   -3.6957,   -2.3690,   -2.4615,   -1.9432,   -1.7235,   -2.3818,   -2.3474,   -4.0586,   -4.1481,   -4.1763,   -5.0949,   -3.7905,   -3.0851,   -3.0833,   -1.7570,   -1.2210,   -2.7293,   -3.8777,   -4.3414,   -4.2825,   -4.6332,   -4.4832,   -5.1451,   -5.8092,   -4.7219,   -4.2592,   -3.0291,   -2.6935,   -2.9634,
24-SEP-2002 23:17:52.87 ,   -4.4481,   -2.4607,   -1.5830,   -1.3893,   -2.8247,   -2.9736,   -1.8931,   -1.4092,   -1.9749,   -2.4995,   -3.8483,   -4.3505,   -3.8776,   -3.5717,   -2.6949,   -2.5554,   -3.2362,   -3.5511,   -3.9088,   -3.7760,   -4.0633,   -3.9694,   -3.4080,   -3.3070,   -2.9641,   -3.2446,   -3.6379,   -3.0647,   -2.3220,   -1.7044,   -1.1726,   -1.1894,   -1.3747,   -1.6483,   -2.9364,   -3.7443,   -2.8683,   -1.1966,   -0.7209,   -0.5003,   -1.2695,   -2.1709,   -1.4853,   -3.3898,   -2.2402,   -2.7484,   -4.4000,   -4.6163,   -4.0458,   -3.3841,   -3.6975,   -1.7993,   -2.3891,   -4.8192,   -4.1662,   -2.9003,   -2.9549,   -3.9414,   -4.5042,   -4.7358,   -5.0103,   -4.0076,   -3.0081,   -2.8230,   -3.0902,
24-SEP-2002 23:20:34.02 ,   -3.6545,   -2.1961,   -1.5867,   -2.1370,   -2.2759,   -2.0555,   -1.1821,   -1.0547,   -1.0576,   -1.1530,   -2.1758,   -2.8302,   -2.9429,   -2.6234,   -1.9457,   -1.8561,   -2.4166,   -2.7771,   -3.2336,   -2.8852,   -2.9795,   -3.2568,   -2.7447,   -3.0557,   -3.1414,   -2.8876,   -3.0916,   -1.7478,   -0.7845,   -0.4848,   -0.2578,   -0.4856,   -0.9114,   -1.7539,   -3.0828,   -4.1177,   -3.9584,   -1.7943,   -1.8660,   -2.4705,   -1.8360,   -1.7879,   -0.7803,   -3.4747,   -1.0777,   -1.6654,   -3.6346,   -4.6274,   -4.5349,   -3.8922,   -4.9278,   -1.4141,   -1.1827,   -2.9693,   -1.8688,   -2.5435,   -2.0860,   -2.9878,   -4.4009,   -4.5447,   -4.7433,   -4.2559,   -3.5587,   -2.7217,   -2.4545,
24-SEP-2002 23:23:15.15 ,   -3.4183,   -2.3246,   -1.7424,   -2.3614,   -1.8080,   -2.0177,   -2.1825,   -1.2992,   -1.1982,   -1.3390,   -1.7553,   -2.4257,   -2.6757,   -2.3097,   -2.1741,   -2.3221,   -2.6087,   -3.0377,   -3.1717,   -2.8605,   -2.7744,   -2.6850,   -2.7826,   -2.7296,   -3.0539,   -3.4093,   -3.7623,   -3.0032,   -2.7148,   -1.5448,   -1.0776,   -1.4038,   -2.3942,   -2.7566,   -3.8505,   -4.6344,   -4.6526,   -1.9018,   -2.9136,   -3.3022,   -3.1655,   -3.4532,   -2.2387,   -3.3754,   -2.2070,   -4.1903,   -4.0355,   -3.7904,   -3.6173,   -3.6972,   -3.8440,   -3.0770,   -2.5095,   -1.1490,   -1.6192,   -3.1737,   -2.1766,   -3.8151,   -6.1795,   -5.5166,   -4.5670,   -4.8773,   -3.4011,   -2.2813,   -2.1436,
24-SEP-2002 23:25:56.48 ,   -3.3157,   -2.7980,   -1.9612,   -1.9245,   -2.3424,   -2.6807,   -2.7482,   -1.9256,   -1.5940,   -1.6527,   -1.7896,   -2.8435,   -2.9798,   -2.8731,   -2.8657,   -2.8812,   -3.2390,   -3.6785,   -3.8864,   -3.8902,   -3.6771,   -3.0006,   -3.7954,   -3.5401,   -3.1816,   -3.1890,   -3.6599,   -3.1271,   -2.8576,   -1.4043,   -2.3848,   -3.2606,   -3.2338,   -3.4002,   -4.6606,   -5.0770,   -4.5207,   -2.5632,   -2.6046,   -2.7576,   -3.5191,   -2.9407,   -3.0152,   -2.7381,   -2.2149,   -3.3785,   -2.8264,   -3.1298,   -4.0475,   -4.2090,   -2.8439,   -1.7474,   -1.5217,   -0.7942,   -0.9578,   -2.1108,   -0.5727,   -3.0729,   -4.0883,   -4.6056,   -4.1967,   -4.8724,   -4.4445,   -2.9606,   -2.2713,
24-SEP-2002 23:28:37.64 ,   -3.4628,   -3.0406,   -2.3997,   -2.3494,   -2.5136,   -2.4609,   -1.6064,   -1.4689,   -1.2367,   -1.0212,   -1.8599,   -2.7147,   -2.9105,   -2.9688,   -2.1779,   -2.1223,   -3.4270,   -4.0491,   -4.1847,   -4.0871,   -3.6310,   -3.0366,   -3.1880,   -3.4696,   -3.2584,   -3.3894,   -4.0645,   -3.5434,   -2.6299,   -1.7801,   -1.9346,   -3.0249,   -3.0357,   -4.0861,   -5.1165,   -5.3489,   -4.5558,   -3.4323,   -3.5828,   -3.6895,   -3.3950,   -3.8908,   -4.1094,   -3.5017,   -2.7188,   -3.9623,   -4.1501,   -4.8387,   -4.4275,   -3.4461,   -3.1003,   -3.2449,   -2.6785,   -2.7203,   -1.8549,   -1.7559,   -1.8146,   -4.6975,   -4.6804,   -4.6775,   -5.0056,   -4.6019,   -4.0952,   -3.9040,   -2.3396,
24-SEP-2002 23:31:18.57 ,   -3.7716,   -2.9866,   -1.9676,   -1.7962,   -2.0767,   -2.1655,   -1.3113,   -0.7463,   -0.9926,   -1.0239,   -1.8766,   -2.2813,   -2.4311,   -2.4204,   -1.7471,   -1.9332,   -3.3792,   -4.3075,   -4.4781,   -4.4649,   -4.2685,   -3.7620,   -3.9375,   -3.4019,   -3.6641,   -4.5854,   -5.0940,   -4.0942,   -3.1472,   -2.4354,   -2.7339,   -3.8716,   -4.3408,   -4.7630,   -5.3863,   -5.1428,   -4.5597,   -3.7505,   -3.2123,   -2.7221,   -2.6239,   -2.1423,   -2.0925,   -3.2713,   -1.3188,   -0.7984,   -3.0261,   -4.7295,   -5.5748,   -4.1561,   -2.8845,   -1.9551,   -1.7657,   -2.7599,   -1.5737,   -1.7528,   -1.3250,   -5.8131,   -5.6996,   -5.9503,   -5.3626,   -4.0925,   -2.5255,   -2.3895,   -1.6890,
24-SEP-2002 23:33:59.43 ,   -4.1790,   -2.9550,   -2.0700,   -1.8001,   -2.1915,   -2.2963,   -1.3316,   -0.6712,   -0.9609,   -1.0417,   -1.2195,   -1.6562,   -2.1863,   -2.1913,   -2.0249,   -2.4477,   -3.2333,   -3.7967,   -4.3701,   -4.4473,   -4.3856,   -3.8181,   -3.9566,   -3.9681,   -4.5591,   -5.0235,   -4.8812,   -3.7621,   -2.2960,   -2.0487,   -2.2218,   -2.4591,   -3.7400,   -4.3137,   -4.2379,   -4.4210,   -4.3717,   -3.7645,   -3.2445,   -2.7774,   -2.4886,   -1.7703,   -2.7100,   -2.5151,   -1.4391,   -1.5743,   -2.6584,   -3.1750,   -3.9513,   -3.6665,   -2.7613,   -1.4525,   -0.7669,   -1.7780,   -1.4672,   -2.8900,   -0.7201,   -4.0806,   -5.8805,   -6.0881,   -4.6428,   -4.2269,   -2.8968,   -1.9081,   -2.3051,
24-SEP-2002 23:36:41.30 ,   -4.4993,   -2.6252,   -1.9622,   -1.9920,   -2.5317,   -2.4762,   -1.8337,   -0.8926,   -0.6258,   -0.7746,   -0.9129,   -1.3765,   -2.2515,   -2.5031,   -2.3208,   -3.0516,   -3.6564,   -4.0779,   -4.6196,   -4.2971,   -4.0149,   -3.5117,   -3.2845,   -3.7693,   -4.2046,   -4.9707,   -4.6855,   -2.9079,   -1.2364,   -1.1611,   -1.6065,   -2.1419,   -3.7619,   -4.4198,   -3.5571,   -3.5460,   -3.4618,   -3.3689,   -3.7216,   -3.6246,   -2.7216,   -1.6403,   -0.8339,   -2.6725,   -2.1094,   -1.5030,   -3.1811,   -3.4398,   -3.5593,   -4.4888,   -3.6915,   -1.3811,   -0.8882,   -1.7385,   -1.0894,   -2.5667,   -1.6956,   -4.4711,   -5.8922,   -5.7584,   -5.1254,   -5.4270,   -3.1532,   -1.8326,   -1.9879,
24-SEP-2002 23:39:22.39 ,   -5.1237,   -3.6925,   -2.3530,   -2.3713,   -2.4188,   -2.2358,   -2.1901,   -1.2911,   -1.0010,   -1.1383,   -1.3354,   -1.9096,   -2.6649,   -2.7787,   -2.7493,   -3.6634,   -4.2672,   -4.4211,   -4.2639,   -3.9616,   -3.8418,   -3.8799,   -4.1431,   -3.6709,   -4.0678,   -4.4856,   -5.0622,   -4.5447,   -2.8847,   -2.1060,   -2.5325,   -3.0568,   -3.3558,   -3.8154,   -4.4847,   -4.3263,   -3.2494,   -2.3348,   -2.4378,   -2.8139,   -2.3724,   -1.0421,   -0.3490,   -0.6241,   -1.3971,   -1.5463,   -3.0921,   -2.0603,   -3.7973,   -4.2174,   -3.7521,   -1.0266,   -0.7309,   -1.6025,   -1.6710,   -0.5367,   -1.3130,   -3.2135,   -4.4551,   -5.3571,   -4.8180,   -3.8675,   -2.8891,   -3.1236,   -3.4213,
24-SEP-2002 23:42:06.33 ,   -4.6706,   -4.1016,   -2.7978,   -2.4689,   -2.5586,   -2.2699,   -1.9543,   -1.6665,   -1.6907,   -1.5376,   -1.8757,   -2.5284,   -3.1845,   -2.9531,   -3.1595,   -3.7555,   -4.1769,   -4.0351,   -3.7025,   -3.7122,   -3.9655,   -4.2660,   -3.2846,   -3.8257,   -4.7094,   -5.3540,   -5.5679,   -4.4022,   -2.3695,   -2.6274,   -3.1725,   -3.8386,   -4.2796,   -4.1474,   -4.5260,   -4.4814,   -3.9361,   -2.4862,   -2.0618,   -2.3489,   -1.8150,   -2.1279,   -1.7674,   -1.6821,   -0.6224,   -0.9834,   -3.0988,   -4.5471,   -4.9562,   -3.2094,   -3.1276,   -1.8359,   -2.2014,   -2.2988,   -0.4110,   -1.1991,   -0.1911,   -2.9600,   -3.0429,   -3.7317,   -3.6987,   -3.6341,   -3.0651,   -3.3086,   -3.8725,
24-SEP-2002 23:44:47.70 ,   -4.2290,   -3.8674,   -2.9613,   -2.2284,   -2.1962,   -2.0640,   -1.6059,   -1.0489,   -1.1837,   -1.1545,   -1.5183,   -2.0048,   -2.6983,   -2.7683,   -2.9315,   -3.1018,   -3.4232,   -3.6842,   -3.8611,   -3.7415,   -3.8623,   -4.2741,   -4.2544,   -4.6846,   -5.1280,   -5.5870,   -5.7406,   -5.1512,   -4.3796,   -4.6091,   -4.2745,   -3.7142,   -3.4088,   -3.9716,   -4.5743,   -4.7001,   -3.9186,   -3.8395,   -3.8561,   -3.7021,   -3.5397,   -3.2324,   -3.1541,   -3.3336,   -1.4241,   -0.6857,   -2.5216,   -4.4662,   -4.0483,   -2.6596,   -2.7534,   -0.5471,   -0.9826,   -0.3456,   -1.2273,   -1.1338,   -1.2931,   -2.3244,   -2.1217,   -3.6003,   -3.5954,   -3.7133,   -3.0572,   -2.8938,   -4.8644,
24-SEP-2002 23:47:29.28 ,   -5.3164,   -4.6501,   -3.1687,   -2.4877,   -2.0174,   -1.6994,   -1.5461,   -0.5940,   -0.4692,   -0.7488,   -0.9453,   -1.5402,   -2.3062,   -2.3454,   -2.2246,   -2.4989,   -3.2813,   -3.5807,   -3.7152,   -3.5130,   -3.4277,   -3.9890,   -4.3465,   -4.2526,   -5.0099,   -6.2963,   -6.8244,   -6.6085,   -4.5988,   -4.1025,   -5.0578,   -5.4087,   -4.6996,   -4.5331,   -4.9371,   -5.0838,   -5.1173,   -5.0833,   -4.4261,   -4.1007,   -3.7881,   -3.1725,   -2.7322,   -3.0870,   -2.0680,   -0.8478,   -2.7081,   -3.3861,   -3.6365,   -2.7905,   -1.9079,   -0.8250,    0.5471,    0.1913,   -1.4734,   -0.8330,   -0.0211,   -4.1083,   -3.8909,   -4.7503,   -5.2805,   -4.6809,   -4.1640,   -3.8226,   -4.2997,
24-SEP-2002 23:50:12.17 ,   -5.6433,   -4.8386,   -3.7683,   -3.0869,   -3.0415,   -2.9724,   -2.5023,   -2.0473,   -1.0639,   -0.7385,   -0.9122,   -1.5664,   -2.1961,   -2.2041,   -2.1200,   -2.7437,   -3.6558,   -3.6563,   -3.5687,   -3.4964,   -3.4325,   -4.1152,   -4.7146,   -4.5283,   -5.2366,   -5.8381,   -6.0245,   -5.5133,   -4.3451,   -4.2827,   -5.2178,   -5.4573,   -4.8427,   -5.3018,   -5.9281,   -5.8800,   -5.6044,   -5.4561,   -4.0855,   -3.1209,   -2.4295,   -1.9086,   -2.2266,   -2.7931,   -1.5090,   -1.6657,   -3.4576,   -3.9078,   -3.9914,   -3.6171,   -0.6435,   -0.6450,    0.0379,   -0.4286,   -2.3879,   -2.7921,   -1.2707,   -4.8493,   -4.9283,   -3.3716,   -4.1069,   -4.2098,   -4.5370,   -4.1108,   -3.5163,
24-SEP-2002 23:52:53.73 ,   -4.9779,   -4.0606,   -3.6495,   -3.4736,   -3.9250,   -3.8404,   -2.4810,   -2.1537,   -1.4688,   -1.1975,   -1.3244,   -1.5013,   -1.9447,   -1.9385,   -2.1366,   -2.6971,   -2.8793,   -3.0686,   -3.4537,   -3.4365,   -3.2444,   -3.6281,   -4.0835,   -4.0356,   -4.3516,   -5.2893,   -5.6734,   -4.6436,   -3.7386,   -4.0316,   -4.7038,   -4.5707,   -5.0637,   -5.2987,   -5.7109,   -6.0890,   -5.4712,   -4.7059,   -3.7836,   -3.6207,   -3.3173,   -3.5677,   -4.0777,   -4.7132,   -2.6082,   -3.0784,   -4.1940,   -3.6906,   -3.3313,   -3.0887,   -1.0901,   -0.8221,    0.0703,   -0.1388,   -1.0446,   -2.0363,   -3.8875,   -3.6024,   -3.4183,   -3.6807,   -3.2366,   -3.4731,   -3.0587,   -4.3089,   -5.1556,
24-SEP-2002 23:55:34.88 ,   -3.0389,   -2.0590,   -1.4010,   -2.0547,   -2.8277,   -2.1011,   -0.7220,   -0.5731,   -0.6890,   -0.9550,   -1.4539,   -1.7190,   -1.8202,   -1.6817,   -1.6870,   -1.8008,   -1.7930,   -2.1996,   -2.8013,   -2.9915,   -2.9726,   -2.8492,   -3.2536,   -3.7136,   -4.1880,   -4.7073,   -4.9585,   -4.1128,   -3.1914,   -3.2611,   -4.3426,   -4.5962,   -4.5989,   -4.4773,   -4.7887,   -4.9034,   -4.7526,   -4.2158,   -4.4743,   -4.4338,   -3.4209,   -3.2997,   -3.1958,   -3.7931,   -3.1428,   -3.0628,   -3.5254,   -2.9572,   -2.9784,   -2.3803,   -0.9022,   -0.7575,   -0.4131,   -0.4884,   -2.0745,   -3.1269,   -3.0622,   -3.3322,   -3.4349,   -3.5147,   -3.6990,   -3.0814,   -3.3530,   -4.3653,   -5.2445,
24-SEP-2002 23:58:16.07 ,   -1.2223,   -0.7538,   -0.8935,   -1.3995,   -1.8876,   -1.3196,   -0.7519,   -0.8529,   -0.4898,   -0.4277,   -1.0816,   -1.6754,   -1.7416,   -1.4074,   -1.3660,   -1.6270,   -2.2353,   -2.6423,   -2.7545,   -2.9376,   -3.4491,   -3.4101,   -3.2515,   -3.7251,   -4.3007,   -4.7161,   -4.7219,   -4.1378,   -3.4822,   -3.0077,   -3.6666,   -3.6520,   -3.8927,   -3.0809,   -3.4088,   -2.9033,   -4.3987,   -4.7658,   -5.2105,   -5.5252,   -3.1842,   -3.2658,   -3.3993,   -3.8043,   -1.9423,   -1.0254,   -2.9563,   -3.7336,   -4.5549,   -4.2445,   -1.3643,   -1.5470,   -0.5119,   -1.9761,   -2.5958,   -2.3937,   -1.4937,   -3.4197,   -3.6583,   -3.5249,   -4.0559,   -2.6028,   -1.8142,   -2.8338,   -4.5958,
